<?xml version='1.0' encoding='UTF-8'?><gpx version="1.1" creator="JPX - https://github.com/jenetics/jpx" xmlns="http://www.topografix.com/GPX/1/1"><trk><trkseg><trkpt lat="45.6100268" lon="9.4272079"><ele>200.4</ele><time>2026-04-02T11:26:37.521Z</time></trkpt><trkpt lat="45.60999" lon="9.4270802"><ele>200.8</ele><time>2026-04-02T11:30:42.52Z</time></trkpt><trkpt lat="45.6099524" lon="9.4268553"><ele>201.2</ele><time>2026-04-02T11:30:43.521Z</time></trkpt><trkpt lat="45.6098937" lon="9.4267522"><ele>201.6</ele><time>2026-04-02T11:30:44.52Z</time></trkpt><trkpt lat="45.6099431" lon="9.4266725"><ele>202.0</ele><time>2026-04-02T11:30:46.52Z</time></trkpt><trkpt lat="45.6098953" lon="9.4266067"><ele>201.99999999999997</ele><time>2026-04-02T11:30:50.52Z</time></trkpt><trkpt lat="45.6098041" lon="9.4265871"><ele>202.0</ele><time>2026-04-02T11:30:53.52Z</time></trkpt><trkpt lat="45.6097796" lon="9.4264606"><ele>202.0</ele><time>2026-04-02T11:30:56.52Z</time></trkpt><trkpt lat="45.6097673" lon="9.4263648"><ele>202.0</ele><time>2026-04-02T11:30:58.52Z</time></trkpt><trkpt lat="45.609759" lon="9.4262493"><ele>201.99999999999997</ele><time>2026-04-02T11:31:00.521Z</time></trkpt><trkpt lat="45.6097413" lon="9.4261357"><ele>202.0</ele><time>2026-04-02T11:31:02.521Z</time></trkpt><trkpt lat="45.6096937" lon="9.4260453"><ele>201.99999999999997</ele><time>2026-04-02T11:31:05.52Z</time></trkpt><trkpt lat="45.6096209" lon="9.4260209"><ele>202.0</ele><time>2026-04-02T11:31:16.521Z</time></trkpt><trkpt lat="45.6095449" lon="9.4260198"><ele>202.0</ele><time>2026-04-02T11:31:18.52Z</time></trkpt><trkpt lat="45.6094689" lon="9.4260203"><ele>202.0</ele><time>2026-04-02T11:31:20.52Z</time></trkpt><trkpt lat="45.6093924" lon="9.4260204"><ele>201.99999999999997</ele><time>2026-04-02T11:31:22.52Z</time></trkpt><trkpt lat="45.6093091" lon="9.4260221"><ele>202.0</ele><time>2026-04-02T11:31:24.521Z</time></trkpt><trkpt lat="45.6092236" lon="9.4260207"><ele>201.39999999999998</ele><time>2026-04-02T11:31:26.521Z</time></trkpt><trkpt lat="45.6091348" lon="9.4260056"><ele>200.79999999999998</ele><time>2026-04-02T11:31:28.521Z</time></trkpt><trkpt lat="45.6090369" lon="9.4259998"><ele>200.2</ele><time>2026-04-02T11:31:30.521Z</time></trkpt><trkpt lat="45.6089312" lon="9.4259952"><ele>199.6</ele><time>2026-04-02T11:31:32.52Z</time></trkpt><trkpt lat="45.6088267" lon="9.4259875"><ele>199.0</ele><time>2026-04-02T11:31:34.52Z</time></trkpt><trkpt lat="45.6087224" lon="9.4259827"><ele>198.39999999999998</ele><time>2026-04-02T11:31:36.52Z</time></trkpt><trkpt lat="45.6086088" lon="9.4259821"><ele>197.8</ele><time>2026-04-02T11:31:38.52Z</time></trkpt><trkpt lat="45.6085077" lon="9.4259804"><ele>197.2</ele><time>2026-04-02T11:31:40.521Z</time></trkpt><trkpt lat="45.6083956" lon="9.4259762"><ele>196.60000000000002</ele><time>2026-04-02T11:31:42.521Z</time></trkpt><trkpt lat="45.6082891" lon="9.4259686"><ele>196.0</ele><time>2026-04-02T11:31:44.521Z</time></trkpt><trkpt lat="45.6081846" lon="9.4259626"><ele>196.0</ele><time>2026-04-02T11:31:46.52Z</time></trkpt><trkpt lat="45.6080808" lon="9.4259648"><ele>196.0</ele><time>2026-04-02T11:31:48.521Z</time></trkpt><trkpt lat="45.6079755" lon="9.4259699"><ele>196.0</ele><time>2026-04-02T11:31:50.52Z</time></trkpt><trkpt lat="45.6078648" lon="9.4259721"><ele>196.0</ele><time>2026-04-02T11:31:52.52Z</time></trkpt><trkpt lat="45.6077606" lon="9.4259759"><ele>196.0</ele><time>2026-04-02T11:31:54.521Z</time></trkpt><trkpt lat="45.607668" lon="9.4259684"><ele>195.83333333333331</ele><time>2026-04-02T11:31:56.52Z</time></trkpt><trkpt lat="45.6075939" lon="9.4259719"><ele>195.66666666666666</ele><time>2026-04-02T11:31:58.52Z</time></trkpt><trkpt lat="45.607513" lon="9.4260148"><ele>195.5</ele><time>2026-04-02T11:32:00.52Z</time></trkpt><trkpt lat="45.6074715" lon="9.4260964"><ele>195.33333333333331</ele><time>2026-04-02T11:32:02.521Z</time></trkpt><trkpt lat="45.6074688" lon="9.4262043"><ele>195.16666666666666</ele><time>2026-04-02T11:32:04.52Z</time></trkpt><trkpt lat="45.6074636" lon="9.4263289"><ele>195.0</ele><time>2026-04-02T11:32:06.521Z</time></trkpt><trkpt lat="45.6074589" lon="9.4264568"><ele>195.0</ele><time>2026-04-02T11:32:08.521Z</time></trkpt><trkpt lat="45.6074542" lon="9.426585"><ele>195.0</ele><time>2026-04-02T11:32:10.52Z</time></trkpt><trkpt lat="45.6074491" lon="9.4267173"><ele>195.0</ele><time>2026-04-02T11:32:12.52Z</time></trkpt><trkpt lat="45.607446" lon="9.4268409"><ele>195.0</ele><time>2026-04-02T11:32:14.521Z</time></trkpt><trkpt lat="45.6074369" lon="9.4269614"><ele>195.0</ele><time>2026-04-02T11:32:16.52Z</time></trkpt><trkpt lat="45.6074258" lon="9.4270901"><ele>195.0</ele><time>2026-04-02T11:32:18.52Z</time></trkpt><trkpt lat="45.6074033" lon="9.4272351"><ele>195.0</ele><time>2026-04-02T11:32:20.52Z</time></trkpt><trkpt lat="45.60738" lon="9.4273595"><ele>195.0</ele><time>2026-04-02T11:32:22.52Z</time></trkpt><trkpt lat="45.6073559" lon="9.4274928"><ele>195.0</ele><time>2026-04-02T11:32:24.521Z</time></trkpt><trkpt lat="45.6073448" lon="9.4276484"><ele>195.0</ele><time>2026-04-02T11:32:26.52Z</time></trkpt><trkpt lat="45.6073387" lon="9.4277764"><ele>195.0</ele><time>2026-04-02T11:32:28.52Z</time></trkpt><trkpt lat="45.6073303" lon="9.4279205"><ele>195.0</ele><time>2026-04-02T11:32:30.521Z</time></trkpt><trkpt lat="45.6073367" lon="9.4280784"><ele>195.0</ele><time>2026-04-02T11:32:32.52Z</time></trkpt><trkpt lat="45.6073192" lon="9.4282386"><ele>195.0</ele><time>2026-04-02T11:32:34.52Z</time></trkpt><trkpt lat="45.6073046" lon="9.4283719"><ele>195.0</ele><time>2026-04-02T11:32:36.521Z</time></trkpt><trkpt lat="45.6073094" lon="9.4285244"><ele>195.0</ele><time>2026-04-02T11:32:38.521Z</time></trkpt><trkpt lat="45.6073041" lon="9.4286613"><ele>195.0</ele><time>2026-04-02T11:32:40.521Z</time></trkpt><trkpt lat="45.6073072" lon="9.4287913"><ele>195.0</ele><time>2026-04-02T11:32:42.52Z</time></trkpt><trkpt lat="45.6072969" lon="9.428937"><ele>195.0</ele><time>2026-04-02T11:32:44.521Z</time></trkpt><trkpt lat="45.6073034" lon="9.4290942"><ele>195.0</ele><time>2026-04-02T11:32:46.52Z</time></trkpt><trkpt lat="45.6073032" lon="9.4292343"><ele>195.0</ele><time>2026-04-02T11:32:48.521Z</time></trkpt><trkpt lat="45.6072932" lon="9.4293673"><ele>195.0</ele><time>2026-04-02T11:32:50.521Z</time></trkpt><trkpt lat="45.6072873" lon="9.4295004"><ele>195.0</ele><time>2026-04-02T11:32:52.521Z</time></trkpt><trkpt lat="45.6072836" lon="9.4296504"><ele>195.0</ele><time>2026-04-02T11:32:54.52Z</time></trkpt><trkpt lat="45.6072725" lon="9.4297613"><ele>195.0</ele><time>2026-04-02T11:32:56.52Z</time></trkpt><trkpt lat="45.6072549" lon="9.429909"><ele>195.0</ele><time>2026-04-02T11:32:58.52Z</time></trkpt><trkpt lat="45.6072318" lon="9.4300717"><ele>195.2</ele><time>2026-04-02T11:33:00.521Z</time></trkpt><trkpt lat="45.6071609" lon="9.430167"><ele>195.4</ele><time>2026-04-02T11:33:02.521Z</time></trkpt><trkpt lat="45.6071041" lon="9.4302474"><ele>195.60000000000002</ele><time>2026-04-02T11:33:04.52Z</time></trkpt><trkpt lat="45.6070688" lon="9.4304296"><ele>195.8</ele><time>2026-04-02T11:33:06.521Z</time></trkpt><trkpt lat="45.6070688" lon="9.4306105"><ele>196.0</ele><time>2026-04-02T11:33:08.521Z</time></trkpt><trkpt lat="45.6070344" lon="9.430791"><ele>196.16666666666666</ele><time>2026-04-02T11:33:10.52Z</time></trkpt><trkpt lat="45.6069975" lon="9.4309259"><ele>196.33333333333331</ele><time>2026-04-02T11:33:12.521Z</time></trkpt><trkpt lat="45.6069648" lon="9.4310181"><ele>196.5</ele><time>2026-04-02T11:33:14.521Z</time></trkpt><trkpt lat="45.6069895" lon="9.4311097"><ele>196.66666666666669</ele><time>2026-04-02T11:33:16.521Z</time></trkpt><trkpt lat="45.6070405" lon="9.4311965"><ele>196.83333333333334</ele><time>2026-04-02T11:33:18.52Z</time></trkpt><trkpt lat="45.6071224" lon="9.4312483"><ele>197.0</ele><time>2026-04-02T11:33:20.52Z</time></trkpt><trkpt lat="45.6072055" lon="9.4312904"><ele>197.0</ele><time>2026-04-02T11:33:22.521Z</time></trkpt><trkpt lat="45.6072813" lon="9.4313918"><ele>197.0</ele><time>2026-04-02T11:33:24.521Z</time></trkpt><trkpt lat="45.6073005" lon="9.4315338"><ele>197.0</ele><time>2026-04-02T11:33:26.52Z</time></trkpt><trkpt lat="45.6073146" lon="9.431664"><ele>197.0</ele><time>2026-04-02T11:33:28.52Z</time></trkpt><trkpt lat="45.6073427" lon="9.4317711"><ele>197.0</ele><time>2026-04-02T11:33:30.52Z</time></trkpt><trkpt lat="45.6074155" lon="9.4318385"><ele>197.0</ele><time>2026-04-02T11:33:32.52Z</time></trkpt><trkpt lat="45.6075282" lon="9.4318801"><ele>197.0</ele><time>2026-04-02T11:33:34.521Z</time></trkpt><trkpt lat="45.6076277" lon="9.4319196"><ele>197.0</ele><time>2026-04-02T11:33:36.52Z</time></trkpt><trkpt lat="45.6077401" lon="9.4319531"><ele>197.0</ele><time>2026-04-02T11:33:38.521Z</time></trkpt><trkpt lat="45.6078447" lon="9.4319855"><ele>197.0</ele><time>2026-04-02T11:33:40.52Z</time></trkpt><trkpt lat="45.607941" lon="9.4320085"><ele>197.2</ele><time>2026-04-02T11:33:42.521Z</time></trkpt><trkpt lat="45.608031" lon="9.4319999"><ele>197.39999999999998</ele><time>2026-04-02T11:33:44.52Z</time></trkpt><trkpt lat="45.6081333" lon="9.4319439"><ele>197.60000000000002</ele><time>2026-04-02T11:33:46.521Z</time></trkpt><trkpt lat="45.608226" lon="9.4318745"><ele>197.8</ele><time>2026-04-02T11:33:48.521Z</time></trkpt><trkpt lat="45.6083212" lon="9.4318279"><ele>198.0</ele><time>2026-04-02T11:33:50.52Z</time></trkpt><trkpt lat="45.6083856" lon="9.4318161"><ele>198.0</ele><time>2026-04-02T11:33:51.521Z</time></trkpt><trkpt lat="45.6084601" lon="9.4318232"><ele>198.0</ele><time>2026-04-02T11:33:52.521Z</time></trkpt><trkpt lat="45.6085679" lon="9.431831"><ele>198.0</ele><time>2026-04-02T11:33:54.52Z</time></trkpt><trkpt lat="45.6086676" lon="9.4318623"><ele>198.0</ele><time>2026-04-02T11:33:56.521Z</time></trkpt><trkpt lat="45.6087662" lon="9.4318946"><ele>198.0</ele><time>2026-04-02T11:33:58.521Z</time></trkpt><trkpt lat="45.6088712" lon="9.4319323"><ele>197.60000000000002</ele><time>2026-04-02T11:34:00.52Z</time></trkpt><trkpt lat="45.6089749" lon="9.4319809"><ele>197.20000000000002</ele><time>2026-04-02T11:34:02.52Z</time></trkpt><trkpt lat="45.6090677" lon="9.4320242"><ele>196.8</ele><time>2026-04-02T11:34:04.521Z</time></trkpt><trkpt lat="45.6091591" lon="9.432062"><ele>196.4</ele><time>2026-04-02T11:34:06.52Z</time></trkpt><trkpt lat="45.609275" lon="9.4321076"><ele>196.0</ele><time>2026-04-02T11:34:08.521Z</time></trkpt><trkpt lat="45.609385" lon="9.4321559"><ele>196.0</ele><time>2026-04-02T11:34:10.521Z</time></trkpt><trkpt lat="45.609491" lon="9.4322011"><ele>196.0</ele><time>2026-04-02T11:34:12.521Z</time></trkpt><trkpt lat="45.6096081" lon="9.4322447"><ele>196.0</ele><time>2026-04-02T11:34:14.521Z</time></trkpt><trkpt lat="45.609714" lon="9.4322805"><ele>196.0</ele><time>2026-04-02T11:34:16.521Z</time></trkpt><trkpt lat="45.6098227" lon="9.4323048"><ele>196.0</ele><time>2026-04-02T11:34:18.52Z</time></trkpt><trkpt lat="45.6099478" lon="9.4323043"><ele>196.0</ele><time>2026-04-02T11:34:20.52Z</time></trkpt><trkpt lat="45.6100343" lon="9.4322568"><ele>196.0</ele><time>2026-04-02T11:34:22.521Z</time></trkpt><trkpt lat="45.6101455" lon="9.4322603"><ele>196.0</ele><time>2026-04-02T11:34:24.52Z</time></trkpt><trkpt lat="45.610242" lon="9.4322763"><ele>196.0</ele><time>2026-04-02T11:34:26.52Z</time></trkpt><trkpt lat="45.6103471" lon="9.4322263"><ele>196.20000000000002</ele><time>2026-04-02T11:34:28.52Z</time></trkpt><trkpt lat="45.6104366" lon="9.4321471"><ele>196.4</ele><time>2026-04-02T11:34:30.521Z</time></trkpt><trkpt lat="45.6105231" lon="9.4320599"><ele>196.6</ele><time>2026-04-02T11:34:32.521Z</time></trkpt><trkpt lat="45.6106101" lon="9.4319798"><ele>196.8</ele><time>2026-04-02T11:34:34.52Z</time></trkpt><trkpt lat="45.6106994" lon="9.4319384"><ele>197.0</ele><time>2026-04-02T11:34:36.521Z</time></trkpt><trkpt lat="45.6108033" lon="9.4319438"><ele>197.39999999999998</ele><time>2026-04-02T11:34:38.521Z</time></trkpt><trkpt lat="45.6109041" lon="9.4319836"><ele>197.79999999999998</ele><time>2026-04-02T11:34:40.521Z</time></trkpt><trkpt lat="45.6110089" lon="9.4319905"><ele>198.2</ele><time>2026-04-02T11:34:42.52Z</time></trkpt><trkpt lat="45.6111067" lon="9.4319875"><ele>198.6</ele><time>2026-04-02T11:34:44.521Z</time></trkpt><trkpt lat="45.6112065" lon="9.4319858"><ele>199.0</ele><time>2026-04-02T11:34:46.521Z</time></trkpt><trkpt lat="45.6113042" lon="9.4319704"><ele>199.49999999999997</ele><time>2026-04-02T11:34:48.52Z</time></trkpt><trkpt lat="45.611399" lon="9.4319758"><ele>200.0</ele><time>2026-04-02T11:34:50.521Z</time></trkpt><trkpt lat="45.611502" lon="9.4319866"><ele>200.5</ele><time>2026-04-02T11:34:52.521Z</time></trkpt><trkpt lat="45.6115932" lon="9.4320329"><ele>201.0</ele><time>2026-04-02T11:34:54.521Z</time></trkpt><trkpt lat="45.6116595" lon="9.4320793"><ele>201.49999999999997</ele><time>2026-04-02T11:34:55.52Z</time></trkpt><trkpt lat="45.6117144" lon="9.4321393"><ele>202.0</ele><time>2026-04-02T11:34:56.52Z</time></trkpt><trkpt lat="45.6117577" lon="9.4322055"><ele>202.0</ele><time>2026-04-02T11:34:57.521Z</time></trkpt><trkpt lat="45.6118086" lon="9.4322649"><ele>202.0</ele><time>2026-04-02T11:34:58.52Z</time></trkpt><trkpt lat="45.6119197" lon="9.4323094"><ele>202.0</ele><time>2026-04-02T11:35:00.52Z</time></trkpt><trkpt lat="45.6120344" lon="9.4323227"><ele>202.0</ele><time>2026-04-02T11:35:02.521Z</time></trkpt><trkpt lat="45.6121529" lon="9.4323374"><ele>202.0</ele><time>2026-04-02T11:35:04.52Z</time></trkpt><trkpt lat="45.6122685" lon="9.4323618"><ele>202.2</ele><time>2026-04-02T11:35:06.52Z</time></trkpt><trkpt lat="45.612388" lon="9.4323845"><ele>202.39999999999998</ele><time>2026-04-02T11:35:08.52Z</time></trkpt><trkpt lat="45.6124506" lon="9.4323951"><ele>202.60000000000002</ele><time>2026-04-02T11:35:09.52Z</time></trkpt><trkpt lat="45.6125778" lon="9.4324117"><ele>202.8</ele><time>2026-04-02T11:35:11.52Z</time></trkpt><trkpt lat="45.6126816" lon="9.4324278"><ele>203.0</ele><time>2026-04-02T11:35:13.521Z</time></trkpt><trkpt lat="45.6127435" lon="9.4324466"><ele>203.00000000000003</ele><time>2026-04-02T11:35:14.52Z</time></trkpt><trkpt lat="45.6128516" lon="9.4324714"><ele>203.0</ele><time>2026-04-02T11:35:16.521Z</time></trkpt><trkpt lat="45.6129166" lon="9.4325131"><ele>203.0</ele><time>2026-04-02T11:35:17.521Z</time></trkpt><trkpt lat="45.6130214" lon="9.4325524"><ele>203.0</ele><time>2026-04-02T11:35:19.52Z</time></trkpt><trkpt lat="45.6131131" lon="9.4325834"><ele>203.00000000000003</ele><time>2026-04-02T11:35:21.52Z</time></trkpt><trkpt lat="45.613172" lon="9.4326209"><ele>203.0</ele><time>2026-04-02T11:35:22.52Z</time></trkpt><trkpt lat="45.6132757" lon="9.4326707"><ele>203.0</ele><time>2026-04-02T11:35:24.52Z</time></trkpt><trkpt lat="45.6133907" lon="9.4327287"><ele>203.0</ele><time>2026-04-02T11:35:26.52Z</time></trkpt><trkpt lat="45.6134506" lon="9.432765"><ele>203.0</ele><time>2026-04-02T11:35:27.521Z</time></trkpt><trkpt lat="45.6135676" lon="9.4328069"><ele>203.0</ele><time>2026-04-02T11:35:29.521Z</time></trkpt><trkpt lat="45.613677" lon="9.4328519"><ele>203.0</ele><time>2026-04-02T11:35:31.521Z</time></trkpt><trkpt lat="45.6137941" lon="9.4328535"><ele>203.0</ele><time>2026-04-02T11:35:33.52Z</time></trkpt><trkpt lat="45.6138892" lon="9.4327871"><ele>203.0</ele><time>2026-04-02T11:35:35.52Z</time></trkpt><trkpt lat="45.6139925" lon="9.4327747"><ele>203.0</ele><time>2026-04-02T11:35:37.52Z</time></trkpt><trkpt lat="45.6141039" lon="9.4328324"><ele>203.0</ele><time>2026-04-02T11:35:39.52Z</time></trkpt><trkpt lat="45.6142135" lon="9.432888"><ele>203.0</ele><time>2026-04-02T11:35:41.521Z</time></trkpt><trkpt lat="45.6143185" lon="9.4329473"><ele>203.2</ele><time>2026-04-02T11:35:43.52Z</time></trkpt><trkpt lat="45.6144219" lon="9.43299"><ele>203.4</ele><time>2026-04-02T11:35:45.521Z</time></trkpt><trkpt lat="45.614528" lon="9.4330409"><ele>203.6</ele><time>2026-04-02T11:35:47.52Z</time></trkpt><trkpt lat="45.614636" lon="9.4330904"><ele>203.79999999999998</ele><time>2026-04-02T11:35:49.521Z</time></trkpt><trkpt lat="45.6147407" lon="9.4331436"><ele>204.0</ele><time>2026-04-02T11:35:51.52Z</time></trkpt><trkpt lat="45.6148471" lon="9.4332094"><ele>204.25</ele><time>2026-04-02T11:35:53.52Z</time></trkpt><trkpt lat="45.6149535" lon="9.4332727"><ele>204.5</ele><time>2026-04-02T11:35:55.521Z</time></trkpt><trkpt lat="45.6150608" lon="9.4333169"><ele>204.75</ele><time>2026-04-02T11:35:57.52Z</time></trkpt><trkpt lat="45.6151662" lon="9.4333768"><ele>205.0</ele><time>2026-04-02T11:35:59.52Z</time></trkpt><trkpt lat="45.6152786" lon="9.4334235"><ele>204.8</ele><time>2026-04-02T11:36:01.52Z</time></trkpt><trkpt lat="45.6153906" lon="9.4334709"><ele>204.6</ele><time>2026-04-02T11:36:03.521Z</time></trkpt><trkpt lat="45.6155011" lon="9.4335258"><ele>204.39999999999998</ele><time>2026-04-02T11:36:05.52Z</time></trkpt><trkpt lat="45.6155896" lon="9.4335276"><ele>204.2</ele><time>2026-04-02T11:36:07.521Z</time></trkpt><trkpt lat="45.6156085" lon="9.433434"><ele>204.0</ele><time>2026-04-02T11:36:09.52Z</time></trkpt><trkpt lat="45.6156024" lon="9.433287"><ele>204.0</ele><time>2026-04-02T11:36:11.521Z</time></trkpt><trkpt lat="45.6156008" lon="9.4331281"><ele>204.0</ele><time>2026-04-02T11:36:13.521Z</time></trkpt><trkpt lat="45.6156274" lon="9.4330188"><ele>204.0</ele><time>2026-04-02T11:36:15.52Z</time></trkpt><trkpt lat="45.6156779" lon="9.4329301"><ele>204.0</ele><time>2026-04-02T11:36:17.52Z</time></trkpt><trkpt lat="45.6159655" lon="9.4324669"><ele>204.0</ele><time>2026-04-02T11:36:26.521Z</time></trkpt><trkpt lat="45.6159661" lon="9.4323618"><ele>204.0</ele><time>2026-04-02T11:36:28.528Z</time></trkpt><trkpt lat="45.6159628" lon="9.4322522"><ele>204.0</ele><time>2026-04-02T11:36:30.524Z</time></trkpt><trkpt lat="45.6159703" lon="9.432114"><ele>204.0</ele><time>2026-04-02T11:36:32.521Z</time></trkpt><trkpt lat="45.6160121" lon="9.4320154"><ele>204.0</ele><time>2026-04-02T11:36:34.521Z</time></trkpt><trkpt lat="45.6160815" lon="9.4320014"><ele>204.0</ele><time>2026-04-02T11:36:36.522Z</time></trkpt><trkpt lat="45.6161426" lon="9.4320339"><ele>204.2</ele><time>2026-04-02T11:36:38.522Z</time></trkpt><trkpt lat="45.616157" lon="9.4321427"><ele>204.39999999999998</ele><time>2026-04-02T11:36:40.521Z</time></trkpt><trkpt lat="45.6161616" lon="9.4322685"><ele>204.6</ele><time>2026-04-02T11:36:42.521Z</time></trkpt><trkpt lat="45.6161736" lon="9.4324061"><ele>204.8</ele><time>2026-04-02T11:36:44.522Z</time></trkpt><trkpt lat="45.6161898" lon="9.4325535"><ele>205.0</ele><time>2026-04-02T11:36:46.521Z</time></trkpt><trkpt lat="45.6162075" lon="9.4326923"><ele>205.0</ele><time>2026-04-02T11:36:48.521Z</time></trkpt><trkpt lat="45.6162231" lon="9.43285"><ele>205.0</ele><time>2026-04-02T11:36:50.522Z</time></trkpt><trkpt lat="45.6162409" lon="9.4330036"><ele>205.0</ele><time>2026-04-02T11:36:52.522Z</time></trkpt><trkpt lat="45.6162592" lon="9.4331143"><ele>205.0</ele><time>2026-04-02T11:36:54.521Z</time></trkpt><trkpt lat="45.6162798" lon="9.4332448"><ele>205.0</ele><time>2026-04-02T11:36:57.521Z</time></trkpt><trkpt lat="45.6162959" lon="9.4333607"><ele>205.0</ele><time>2026-04-02T11:36:59.522Z</time></trkpt><trkpt lat="45.6163262" lon="9.4334992"><ele>205.0</ele><time>2026-04-02T11:37:01.522Z</time></trkpt><trkpt lat="45.6163677" lon="9.4336318"><ele>205.0</ele><time>2026-04-02T11:37:03.522Z</time></trkpt><trkpt lat="45.6164194" lon="9.4337536"><ele>205.0</ele><time>2026-04-02T11:37:05.522Z</time></trkpt><trkpt lat="45.6164828" lon="9.4338697"><ele>205.0</ele><time>2026-04-02T11:37:07.521Z</time></trkpt><trkpt lat="45.616561" lon="9.4339327"><ele>204.99999999999997</ele><time>2026-04-02T11:37:09.521Z</time></trkpt><trkpt lat="45.6166579" lon="9.4339285"><ele>205.0</ele><time>2026-04-02T11:37:11.521Z</time></trkpt><trkpt lat="45.6167323" lon="9.4338818"><ele>205.0</ele><time>2026-04-02T11:37:13.521Z</time></trkpt><trkpt lat="45.6168002" lon="9.4338153"><ele>205.0</ele><time>2026-04-02T11:37:15.521Z</time></trkpt><trkpt lat="45.6168351" lon="9.4337337"><ele>204.99999999999997</ele><time>2026-04-02T11:37:18.521Z</time></trkpt><trkpt lat="45.6168777" lon="9.4336431"><ele>205.0</ele><time>2026-04-02T11:37:21.522Z</time></trkpt><trkpt lat="45.6169392" lon="9.4335686"><ele>205.2</ele><time>2026-04-02T11:37:23.522Z</time></trkpt><trkpt lat="45.6169928" lon="9.4334887"><ele>205.4</ele><time>2026-04-02T11:37:25.522Z</time></trkpt><trkpt lat="45.6170255" lon="9.4334108"><ele>205.60000000000002</ele><time>2026-04-02T11:37:26.521Z</time></trkpt><trkpt lat="45.617106" lon="9.4333118"><ele>205.8</ele><time>2026-04-02T11:37:28.522Z</time></trkpt><trkpt lat="45.6171754" lon="9.4332015"><ele>206.0</ele><time>2026-04-02T11:37:30.521Z</time></trkpt><trkpt lat="45.6172477" lon="9.4330823"><ele>206.0</ele><time>2026-04-02T11:37:32.521Z</time></trkpt><trkpt lat="45.6173208" lon="9.4329685"><ele>206.0</ele><time>2026-04-02T11:37:34.522Z</time></trkpt><trkpt lat="45.617398" lon="9.4328529"><ele>206.0</ele><time>2026-04-02T11:37:36.522Z</time></trkpt><trkpt lat="45.6174632" lon="9.4327342"><ele>206.0</ele><time>2026-04-02T11:37:38.521Z</time></trkpt><trkpt lat="45.6175281" lon="9.4326102"><ele>206.0</ele><time>2026-04-02T11:37:40.522Z</time></trkpt><trkpt lat="45.6175999" lon="9.4324579"><ele>206.0</ele><time>2026-04-02T11:37:42.521Z</time></trkpt><trkpt lat="45.6176453" lon="9.4323271"><ele>206.0</ele><time>2026-04-02T11:37:44.522Z</time></trkpt><trkpt lat="45.6177001" lon="9.4321763"><ele>206.0</ele><time>2026-04-02T11:37:46.522Z</time></trkpt><trkpt lat="45.6177496" lon="9.4320284"><ele>206.0</ele><time>2026-04-02T11:37:48.522Z</time></trkpt><trkpt lat="45.6178007" lon="9.4318873"><ele>206.0</ele><time>2026-04-02T11:37:50.522Z</time></trkpt><trkpt lat="45.617864" lon="9.4317405"><ele>206.25</ele><time>2026-04-02T11:37:52.521Z</time></trkpt><trkpt lat="45.6179129" lon="9.431594"><ele>206.5</ele><time>2026-04-02T11:37:54.522Z</time></trkpt><trkpt lat="45.6179624" lon="9.4314383"><ele>206.75</ele><time>2026-04-02T11:37:56.521Z</time></trkpt><trkpt lat="45.6180138" lon="9.4312935"><ele>207.0</ele><time>2026-04-02T11:37:58.521Z</time></trkpt><trkpt lat="45.6180728" lon="9.4311357"><ele>207.25</ele><time>2026-04-02T11:38:00.522Z</time></trkpt><trkpt lat="45.6181457" lon="9.4309964"><ele>207.5</ele><time>2026-04-02T11:38:02.522Z</time></trkpt><trkpt lat="45.618223" lon="9.430861"><ele>207.75</ele><time>2026-04-02T11:38:04.521Z</time></trkpt><trkpt lat="45.6183083" lon="9.4307479"><ele>208.0</ele><time>2026-04-02T11:38:06.522Z</time></trkpt><trkpt lat="45.6184148" lon="9.4306637"><ele>208.0</ele><time>2026-04-02T11:38:08.521Z</time></trkpt><trkpt lat="45.6185259" lon="9.4306085"><ele>208.0</ele><time>2026-04-02T11:38:10.521Z</time></trkpt><trkpt lat="45.6186379" lon="9.4305636"><ele>208.0</ele><time>2026-04-02T11:38:12.521Z</time></trkpt><trkpt lat="45.6187539" lon="9.4305127"><ele>208.0</ele><time>2026-04-02T11:38:14.521Z</time></trkpt><trkpt lat="45.6188598" lon="9.4304584"><ele>208.0</ele><time>2026-04-02T11:38:16.521Z</time></trkpt><trkpt lat="45.6189732" lon="9.430411"><ele>208.0</ele><time>2026-04-02T11:38:18.522Z</time></trkpt><trkpt lat="45.6190773" lon="9.4303715"><ele>208.0</ele><time>2026-04-02T11:38:20.521Z</time></trkpt><trkpt lat="45.6191836" lon="9.430368"><ele>208.0</ele><time>2026-04-02T11:38:22.522Z</time></trkpt><trkpt lat="45.6192949" lon="9.4303875"><ele>208.0</ele><time>2026-04-02T11:38:24.522Z</time></trkpt><trkpt lat="45.6194047" lon="9.4304101"><ele>208.5</ele><time>2026-04-02T11:38:26.521Z</time></trkpt><trkpt lat="45.6195221" lon="9.4304228"><ele>209.0</ele><time>2026-04-02T11:38:28.521Z</time></trkpt><trkpt lat="45.6196294" lon="9.4304321"><ele>209.5</ele><time>2026-04-02T11:38:30.521Z</time></trkpt><trkpt lat="45.6197353" lon="9.4304546"><ele>210.0</ele><time>2026-04-02T11:38:32.521Z</time></trkpt><trkpt lat="45.6198528" lon="9.4304734"><ele>210.0</ele><time>2026-04-02T11:38:34.522Z</time></trkpt><trkpt lat="45.6199628" lon="9.4304937"><ele>210.0</ele><time>2026-04-02T11:38:36.522Z</time></trkpt><trkpt lat="45.6200776" lon="9.4305163"><ele>210.0</ele><time>2026-04-02T11:38:38.522Z</time></trkpt><trkpt lat="45.6201882" lon="9.4305389"><ele>210.0</ele><time>2026-04-02T11:38:40.521Z</time></trkpt><trkpt lat="45.6202533" lon="9.4305514"><ele>210.0</ele><time>2026-04-02T11:38:41.522Z</time></trkpt><trkpt lat="45.6203632" lon="9.430564"><ele>210.0</ele><time>2026-04-02T11:38:43.522Z</time></trkpt><trkpt lat="45.620475" lon="9.4305896"><ele>210.0</ele><time>2026-04-02T11:38:45.521Z</time></trkpt><trkpt lat="45.6205876" lon="9.4306126"><ele>210.0</ele><time>2026-04-02T11:38:47.522Z</time></trkpt><trkpt lat="45.6206947" lon="9.430633"><ele>210.0</ele><time>2026-04-02T11:38:49.521Z</time></trkpt><trkpt lat="45.6207931" lon="9.4306494"><ele>210.0</ele><time>2026-04-02T11:38:51.521Z</time></trkpt><trkpt lat="45.620863" lon="9.4307241"><ele>210.0</ele><time>2026-04-02T11:38:53.521Z</time></trkpt><trkpt lat="45.6208721" lon="9.4308718"><ele>210.0</ele><time>2026-04-02T11:38:55.521Z</time></trkpt><trkpt lat="45.6208535" lon="9.4310188"><ele>210.0</ele><time>2026-04-02T11:38:57.522Z</time></trkpt><trkpt lat="45.6208385" lon="9.4311706"><ele>210.0</ele><time>2026-04-02T11:38:59.521Z</time></trkpt><trkpt lat="45.6208081" lon="9.4313216"><ele>210.0</ele><time>2026-04-02T11:39:01.521Z</time></trkpt><trkpt lat="45.6207858" lon="9.431488"><ele>210.2</ele><time>2026-04-02T11:39:03.522Z</time></trkpt><trkpt lat="45.6207657" lon="9.4316669"><ele>210.4</ele><time>2026-04-02T11:39:05.521Z</time></trkpt><trkpt lat="45.6207503" lon="9.4317553"><ele>210.60000000000002</ele><time>2026-04-02T11:39:06.522Z</time></trkpt><trkpt lat="45.6207279" lon="9.4319273"><ele>210.8</ele><time>2026-04-02T11:39:08.522Z</time></trkpt><trkpt lat="45.6207055" lon="9.4320979"><ele>211.0</ele><time>2026-04-02T11:39:10.522Z</time></trkpt><trkpt lat="45.620691" lon="9.4321857"><ele>211.14285714285714</ele><time>2026-04-02T11:39:11.522Z</time></trkpt><trkpt lat="45.6206738" lon="9.4322798"><ele>211.28571428571428</ele><time>2026-04-02T11:39:12.521Z</time></trkpt><trkpt lat="45.6206629" lon="9.4323691"><ele>211.42857142857144</ele><time>2026-04-02T11:39:13.521Z</time></trkpt><trkpt lat="45.6206467" lon="9.432467"><ele>211.57142857142856</ele><time>2026-04-02T11:39:14.521Z</time></trkpt><trkpt lat="45.6206305" lon="9.4325597"><ele>211.7142857142857</ele><time>2026-04-02T11:39:15.521Z</time></trkpt><trkpt lat="45.6206198" lon="9.4326546"><ele>211.85714285714286</ele><time>2026-04-02T11:39:16.522Z</time></trkpt><trkpt lat="45.6206041" lon="9.4327469"><ele>212.0</ele><time>2026-04-02T11:39:17.522Z</time></trkpt><trkpt lat="45.6205898" lon="9.4328372"><ele>212.0</ele><time>2026-04-02T11:39:18.521Z</time></trkpt><trkpt lat="45.6205782" lon="9.4329305"><ele>212.0</ele><time>2026-04-02T11:39:19.521Z</time></trkpt><trkpt lat="45.6205649" lon="9.4330301"><ele>212.0</ele><time>2026-04-02T11:39:20.522Z</time></trkpt><trkpt lat="45.6205538" lon="9.4331265"><ele>212.0</ele><time>2026-04-02T11:39:21.522Z</time></trkpt><trkpt lat="45.6205349" lon="9.4332176"><ele>212.0</ele><time>2026-04-02T11:39:22.522Z</time></trkpt><trkpt lat="45.6205176" lon="9.4333119"><ele>212.0</ele><time>2026-04-02T11:39:23.522Z</time></trkpt><trkpt lat="45.6205013" lon="9.433407"><ele>212.0</ele><time>2026-04-02T11:39:24.521Z</time></trkpt><trkpt lat="45.6204782" lon="9.4335078"><ele>212.00000000000003</ele><time>2026-04-02T11:39:25.521Z</time></trkpt><trkpt lat="45.6204637" lon="9.4335967"><ele>212.0</ele><time>2026-04-02T11:39:26.521Z</time></trkpt><trkpt lat="45.6204484" lon="9.433686"><ele>212.0</ele><time>2026-04-02T11:39:27.522Z</time></trkpt><trkpt lat="45.6204331" lon="9.4337766"><ele>212.0</ele><time>2026-04-02T11:39:28.522Z</time></trkpt><trkpt lat="45.6204194" lon="9.4338786"><ele>212.00000000000003</ele><time>2026-04-02T11:39:29.522Z</time></trkpt><trkpt lat="45.620403" lon="9.4339814"><ele>212.0</ele><time>2026-04-02T11:39:30.522Z</time></trkpt><trkpt lat="45.6203717" lon="9.4341595"><ele>212.0</ele><time>2026-04-02T11:39:32.522Z</time></trkpt><trkpt lat="45.6203592" lon="9.4342519"><ele>212.0</ele><time>2026-04-02T11:39:33.521Z</time></trkpt><trkpt lat="45.6203262" lon="9.434424"><ele>212.0</ele><time>2026-04-02T11:39:35.521Z</time></trkpt><trkpt lat="45.6203043" lon="9.4345978"><ele>212.0</ele><time>2026-04-02T11:39:37.521Z</time></trkpt><trkpt lat="45.6203317" lon="9.434767"><ele>212.0</ele><time>2026-04-02T11:39:39.522Z</time></trkpt><trkpt lat="45.62041" lon="9.4348869"><ele>212.33333333333334</ele><time>2026-04-02T11:39:41.521Z</time></trkpt><trkpt lat="45.6204668" lon="9.4349397"><ele>212.66666666666669</ele><time>2026-04-02T11:39:42.522Z</time></trkpt><trkpt lat="45.6205346" lon="9.4349922"><ele>213.0</ele><time>2026-04-02T11:39:43.521Z</time></trkpt><trkpt lat="45.6206488" lon="9.435018"><ele>213.33333333333331</ele><time>2026-04-02T11:39:45.521Z</time></trkpt><trkpt lat="45.6207136" lon="9.435042"><ele>213.66666666666666</ele><time>2026-04-02T11:39:46.521Z</time></trkpt><trkpt lat="45.6207775" lon="9.4350506"><ele>214.0</ele><time>2026-04-02T11:39:47.522Z</time></trkpt><trkpt lat="45.6209003" lon="9.4350838"><ele>214.0</ele><time>2026-04-02T11:39:49.522Z</time></trkpt><trkpt lat="45.6209655" lon="9.4351067"><ele>213.99999999999997</ele><time>2026-04-02T11:39:50.522Z</time></trkpt><trkpt lat="45.6210829" lon="9.4351483"><ele>213.99999999999997</ele><time>2026-04-02T11:39:52.521Z</time></trkpt><trkpt lat="45.6211968" lon="9.4351918"><ele>214.0</ele><time>2026-04-02T11:39:54.521Z</time></trkpt><trkpt lat="45.6213134" lon="9.4352279"><ele>214.0</ele><time>2026-04-02T11:39:56.522Z</time></trkpt><trkpt lat="45.6214302" lon="9.435264"><ele>213.39999999999998</ele><time>2026-04-02T11:39:58.521Z</time></trkpt><trkpt lat="45.6215516" lon="9.4353023"><ele>212.79999999999998</ele><time>2026-04-02T11:40:00.522Z</time></trkpt><trkpt lat="45.6216179" lon="9.4353244"><ele>212.2</ele><time>2026-04-02T11:40:01.522Z</time></trkpt><trkpt lat="45.6217298" lon="9.4353551"><ele>211.60000000000002</ele><time>2026-04-02T11:40:03.522Z</time></trkpt><trkpt lat="45.6218371" lon="9.4353941"><ele>211.0</ele><time>2026-04-02T11:40:05.522Z</time></trkpt><trkpt lat="45.6219488" lon="9.4354349"><ele>211.60000000000002</ele><time>2026-04-02T11:40:07.522Z</time></trkpt><trkpt lat="45.6220314" lon="9.4354871"><ele>212.2</ele><time>2026-04-02T11:40:09.521Z</time></trkpt><trkpt lat="45.6220686" lon="9.4356087"><ele>212.79999999999998</ele><time>2026-04-02T11:40:11.522Z</time></trkpt><trkpt lat="45.6220609" lon="9.4357507"><ele>213.39999999999998</ele><time>2026-04-02T11:40:13.521Z</time></trkpt><trkpt lat="45.622041" lon="9.4358979"><ele>214.0</ele><time>2026-04-02T11:40:15.522Z</time></trkpt><trkpt lat="45.6220205" lon="9.4360544"><ele>214.0</ele><time>2026-04-02T11:40:17.521Z</time></trkpt><trkpt lat="45.6220007" lon="9.4362091"><ele>214.0</ele><time>2026-04-02T11:40:19.522Z</time></trkpt><trkpt lat="45.6219687" lon="9.4363659"><ele>214.0</ele><time>2026-04-02T11:40:21.521Z</time></trkpt><trkpt lat="45.6219411" lon="9.4365274"><ele>214.0</ele><time>2026-04-02T11:40:23.522Z</time></trkpt><trkpt lat="45.6219188" lon="9.4366953"><ele>213.39999999999998</ele><time>2026-04-02T11:40:25.521Z</time></trkpt><trkpt lat="45.6218924" lon="9.436867"><ele>212.79999999999998</ele><time>2026-04-02T11:40:27.521Z</time></trkpt><trkpt lat="45.6218699" lon="9.4370321"><ele>212.2</ele><time>2026-04-02T11:40:29.521Z</time></trkpt><trkpt lat="45.621841" lon="9.4371991"><ele>211.60000000000002</ele><time>2026-04-02T11:40:31.521Z</time></trkpt><trkpt lat="45.6218303" lon="9.4372885"><ele>211.0</ele><time>2026-04-02T11:40:32.521Z</time></trkpt><trkpt lat="45.6218086" lon="9.437455"><ele>211.0</ele><time>2026-04-02T11:40:34.521Z</time></trkpt><trkpt lat="45.6217788" lon="9.437631"><ele>211.0</ele><time>2026-04-02T11:40:36.522Z</time></trkpt><trkpt lat="45.6217502" lon="9.4378014"><ele>211.0</ele><time>2026-04-02T11:40:38.521Z</time></trkpt><trkpt lat="45.6217231" lon="9.4379693"><ele>211.0</ele><time>2026-04-02T11:40:40.522Z</time></trkpt><trkpt lat="45.6217099" lon="9.4380623"><ele>211.0</ele><time>2026-04-02T11:40:41.521Z</time></trkpt><trkpt lat="45.6216755" lon="9.4382324"><ele>211.25</ele><time>2026-04-02T11:40:43.522Z</time></trkpt><trkpt lat="45.621638" lon="9.4384055"><ele>211.5</ele><time>2026-04-02T11:40:45.521Z</time></trkpt><trkpt lat="45.6216777" lon="9.4385421"><ele>211.75</ele><time>2026-04-02T11:40:47.522Z</time></trkpt><trkpt lat="45.6216968" lon="9.4386994"><ele>212.0</ele><time>2026-04-02T11:40:49.522Z</time></trkpt><trkpt lat="45.6216576" lon="9.4388526"><ele>212.0</ele><time>2026-04-02T11:40:51.521Z</time></trkpt><trkpt lat="45.6216265" lon="9.4390195"><ele>212.0</ele><time>2026-04-02T11:40:53.521Z</time></trkpt><trkpt lat="45.6215989" lon="9.4391747"><ele>212.0</ele><time>2026-04-02T11:40:55.521Z</time></trkpt><trkpt lat="45.6215811" lon="9.4392636"><ele>212.0</ele><time>2026-04-02T11:40:56.522Z</time></trkpt><trkpt lat="45.621564" lon="9.4393531"><ele>212.0</ele><time>2026-04-02T11:40:57.522Z</time></trkpt><trkpt lat="45.6215359" lon="9.4395309"><ele>212.00000000000003</ele><time>2026-04-02T11:40:59.522Z</time></trkpt><trkpt lat="45.6215232" lon="9.4396198"><ele>212.0</ele><time>2026-04-02T11:41:00.522Z</time></trkpt><trkpt lat="45.6215053" lon="9.4397133"><ele>212.0</ele><time>2026-04-02T11:41:01.522Z</time></trkpt><trkpt lat="45.6214699" lon="9.4398562"><ele>212.0</ele><time>2026-04-02T11:41:03.522Z</time></trkpt><trkpt lat="45.6214367" lon="9.4399329"><ele>212.00000000000003</ele><time>2026-04-02T11:41:05.522Z</time></trkpt><trkpt lat="45.6213937" lon="9.4400434"><ele>212.0</ele><time>2026-04-02T11:41:08.522Z</time></trkpt><trkpt lat="45.6213642" lon="9.4401365"><ele>212.0</ele><time>2026-04-02T11:41:10.521Z</time></trkpt><trkpt lat="45.6214104" lon="9.440232"><ele>212.0</ele><time>2026-04-02T11:41:12.521Z</time></trkpt><trkpt lat="45.6215153" lon="9.4402454"><ele>212.0</ele><time>2026-04-02T11:41:14.522Z</time></trkpt><trkpt lat="45.621622" lon="9.4402241"><ele>212.0</ele><time>2026-04-02T11:41:16.521Z</time></trkpt><trkpt lat="45.621733" lon="9.4402378"><ele>212.0</ele><time>2026-04-02T11:41:18.521Z</time></trkpt><trkpt lat="45.6218399" lon="9.4402742"><ele>212.0</ele><time>2026-04-02T11:41:20.521Z</time></trkpt><trkpt lat="45.6219551" lon="9.4403188"><ele>212.0</ele><time>2026-04-02T11:41:22.522Z</time></trkpt><trkpt lat="45.6220718" lon="9.4403587"><ele>212.0</ele><time>2026-04-02T11:41:24.522Z</time></trkpt><trkpt lat="45.6221889" lon="9.4403914"><ele>212.0</ele><time>2026-04-02T11:41:26.521Z</time></trkpt><trkpt lat="45.6223015" lon="9.440423"><ele>212.0</ele><time>2026-04-02T11:41:28.522Z</time></trkpt><trkpt lat="45.6224182" lon="9.4404587"><ele>212.0</ele><time>2026-04-02T11:41:30.521Z</time></trkpt><trkpt lat="45.6225367" lon="9.4404982"><ele>212.0</ele><time>2026-04-02T11:41:32.522Z</time></trkpt><trkpt lat="45.6225986" lon="9.4405169"><ele>212.0</ele><time>2026-04-02T11:41:33.522Z</time></trkpt><trkpt lat="45.6227227" lon="9.4405521"><ele>212.0</ele><time>2026-04-02T11:41:35.522Z</time></trkpt><trkpt lat="45.6227878" lon="9.4405696"><ele>212.0</ele><time>2026-04-02T11:41:36.522Z</time></trkpt><trkpt lat="45.6229136" lon="9.440603"><ele>212.0</ele><time>2026-04-02T11:41:38.521Z</time></trkpt><trkpt lat="45.6229775" lon="9.4406225"><ele>212.0</ele><time>2026-04-02T11:41:39.521Z</time></trkpt><trkpt lat="45.6230406" lon="9.4406467"><ele>212.0</ele><time>2026-04-02T11:41:40.521Z</time></trkpt><trkpt lat="45.6231541" lon="9.4406814"><ele>212.0</ele><time>2026-04-02T11:41:42.521Z</time></trkpt><trkpt lat="45.6232653" lon="9.4407088"><ele>212.0</ele><time>2026-04-02T11:41:44.522Z</time></trkpt><trkpt lat="45.6233804" lon="9.4407394"><ele>212.0</ele><time>2026-04-02T11:41:46.522Z</time></trkpt><trkpt lat="45.6234979" lon="9.440771"><ele>212.0</ele><time>2026-04-02T11:41:48.522Z</time></trkpt><trkpt lat="45.6236259" lon="9.4408122"><ele>212.0</ele><time>2026-04-02T11:41:50.521Z</time></trkpt><trkpt lat="45.6236889" lon="9.4408257"><ele>212.0</ele><time>2026-04-02T11:41:51.522Z</time></trkpt><trkpt lat="45.6238085" lon="9.4408461"><ele>212.39999999999998</ele><time>2026-04-02T11:41:53.521Z</time></trkpt><trkpt lat="45.6239251" lon="9.4408872"><ele>212.79999999999998</ele><time>2026-04-02T11:41:55.522Z</time></trkpt><trkpt lat="45.6239925" lon="9.4409028"><ele>213.2</ele><time>2026-04-02T11:41:56.521Z</time></trkpt><trkpt lat="45.6241119" lon="9.4409373"><ele>213.6</ele><time>2026-04-02T11:41:58.522Z</time></trkpt><trkpt lat="45.6241757" lon="9.4409569"><ele>214.0</ele><time>2026-04-02T11:41:59.521Z</time></trkpt><trkpt lat="45.6243" lon="9.4409902"><ele>214.0</ele><time>2026-04-02T11:42:01.522Z</time></trkpt><trkpt lat="45.6244278" lon="9.4410518"><ele>213.99999999999997</ele><time>2026-04-02T11:42:03.522Z</time></trkpt><trkpt lat="45.6244846" lon="9.4410949"><ele>213.99999999999997</ele><time>2026-04-02T11:42:04.522Z</time></trkpt><trkpt lat="45.6245386" lon="9.4411479"><ele>214.0</ele><time>2026-04-02T11:42:05.522Z</time></trkpt><trkpt lat="45.6246403" lon="9.4412597"><ele>214.0</ele><time>2026-04-02T11:42:07.521Z</time></trkpt><trkpt lat="45.6246921" lon="9.4413237"><ele>214.2857142857143</ele><time>2026-04-02T11:42:08.522Z</time></trkpt><trkpt lat="45.6247451" lon="9.4413846"><ele>214.57142857142858</ele><time>2026-04-02T11:42:09.522Z</time></trkpt><trkpt lat="45.6248" lon="9.4414429"><ele>214.85714285714286</ele><time>2026-04-02T11:42:10.522Z</time></trkpt><trkpt lat="45.6248646" lon="9.4415059"><ele>215.14285714285717</ele><time>2026-04-02T11:42:11.522Z</time></trkpt><trkpt lat="45.6249242" lon="9.4415514"><ele>215.42857142857142</ele><time>2026-04-02T11:42:12.522Z</time></trkpt><trkpt lat="45.6249848" lon="9.4415878"><ele>215.71428571428572</ele><time>2026-04-02T11:42:13.521Z</time></trkpt><trkpt lat="45.6250526" lon="9.4416176"><ele>216.0</ele><time>2026-04-02T11:42:14.521Z</time></trkpt><trkpt lat="45.6251145" lon="9.4416341"><ele>216.0</ele><time>2026-04-02T11:42:15.522Z</time></trkpt><trkpt lat="45.6251819" lon="9.441662"><ele>216.00000000000003</ele><time>2026-04-02T11:42:16.522Z</time></trkpt><trkpt lat="45.6252461" lon="9.4416759"><ele>216.00000000000003</ele><time>2026-04-02T11:42:17.521Z</time></trkpt><trkpt lat="45.6253531" lon="9.4417458"><ele>216.0</ele><time>2026-04-02T11:42:19.521Z</time></trkpt><trkpt lat="45.6253812" lon="9.4418994"><ele>216.0</ele><time>2026-04-02T11:42:21.522Z</time></trkpt><trkpt lat="45.6253505" lon="9.442062"><ele>216.16666666666666</ele><time>2026-04-02T11:42:23.521Z</time></trkpt><trkpt lat="45.6253207" lon="9.442222"><ele>216.33333333333331</ele><time>2026-04-02T11:42:25.521Z</time></trkpt><trkpt lat="45.625302" lon="9.4423943"><ele>216.5</ele><time>2026-04-02T11:42:27.522Z</time></trkpt><trkpt lat="45.6252898" lon="9.4424835"><ele>216.66666666666666</ele><time>2026-04-02T11:42:28.522Z</time></trkpt><trkpt lat="45.6252792" lon="9.442578"><ele>216.83333333333331</ele><time>2026-04-02T11:42:29.521Z</time></trkpt><trkpt lat="45.625265" lon="9.4426807"><ele>217.0</ele><time>2026-04-02T11:42:30.521Z</time></trkpt><trkpt lat="45.6252497" lon="9.4427738"><ele>216.83333333333331</ele><time>2026-04-02T11:42:31.521Z</time></trkpt><trkpt lat="45.6252369" lon="9.4428625"><ele>216.66666666666666</ele><time>2026-04-02T11:42:32.521Z</time></trkpt><trkpt lat="45.6252244" lon="9.4429578"><ele>216.5</ele><time>2026-04-02T11:42:33.522Z</time></trkpt><trkpt lat="45.6251916" lon="9.4431305"><ele>216.33333333333331</ele><time>2026-04-02T11:42:35.521Z</time></trkpt><trkpt lat="45.6251785" lon="9.4432246"><ele>216.16666666666666</ele><time>2026-04-02T11:42:36.522Z</time></trkpt><trkpt lat="45.6251724" lon="9.4433392"><ele>216.0</ele><time>2026-04-02T11:42:37.521Z</time></trkpt><trkpt lat="45.6251835" lon="9.4434284"><ele>216.0</ele><time>2026-04-02T11:42:38.521Z</time></trkpt><trkpt lat="45.6252677" lon="9.4435202"><ele>216.0</ele><time>2026-04-02T11:42:40.522Z</time></trkpt><trkpt lat="45.6253839" lon="9.443564"><ele>216.0</ele><time>2026-04-02T11:42:42.522Z</time></trkpt><trkpt lat="45.6255025" lon="9.4435948"><ele>216.0</ele><time>2026-04-02T11:42:44.521Z</time></trkpt><trkpt lat="45.6256247" lon="9.4436401"><ele>216.20000000000002</ele><time>2026-04-02T11:42:46.521Z</time></trkpt><trkpt lat="45.6257467" lon="9.4436799"><ele>216.40000000000003</ele><time>2026-04-02T11:42:48.521Z</time></trkpt><trkpt lat="45.6258674" lon="9.4437201"><ele>216.6</ele><time>2026-04-02T11:42:50.521Z</time></trkpt><trkpt lat="45.625931" lon="9.4437467"><ele>216.8</ele><time>2026-04-02T11:42:51.521Z</time></trkpt><trkpt lat="45.625995" lon="9.4437785"><ele>217.0</ele><time>2026-04-02T11:42:52.521Z</time></trkpt><trkpt lat="45.6261037" lon="9.4438032"><ele>217.16666666666666</ele><time>2026-04-02T11:42:54.522Z</time></trkpt><trkpt lat="45.6261658" lon="9.4438213"><ele>217.33333333333331</ele><time>2026-04-02T11:42:55.521Z</time></trkpt><trkpt lat="45.6262875" lon="9.443856"><ele>217.5</ele><time>2026-04-02T11:42:57.521Z</time></trkpt><trkpt lat="45.6263488" lon="9.4438784"><ele>217.66666666666669</ele><time>2026-04-02T11:42:58.521Z</time></trkpt><trkpt lat="45.626447" lon="9.443929"><ele>217.83333333333334</ele><time>2026-04-02T11:43:00.522Z</time></trkpt><trkpt lat="45.6264951" lon="9.4440246"><ele>218.0</ele><time>2026-04-02T11:43:02.521Z</time></trkpt><trkpt lat="45.6264625" lon="9.4441986"><ele>218.00000000000003</ele><time>2026-04-02T11:43:04.522Z</time></trkpt><trkpt lat="45.6264485" lon="9.4442954"><ele>218.0</ele><time>2026-04-02T11:43:05.521Z</time></trkpt><trkpt lat="45.6264355" lon="9.4443932"><ele>218.0</ele><time>2026-04-02T11:43:06.521Z</time></trkpt><trkpt lat="45.626405" lon="9.4445653"><ele>218.0</ele><time>2026-04-02T11:43:08.521Z</time></trkpt><trkpt lat="45.6263761" lon="9.4447307"><ele>218.00000000000003</ele><time>2026-04-02T11:43:10.522Z</time></trkpt><trkpt lat="45.6263606" lon="9.4448195"><ele>218.0</ele><time>2026-04-02T11:43:11.521Z</time></trkpt><trkpt lat="45.6263454" lon="9.4449096"><ele>218.00000000000003</ele><time>2026-04-02T11:43:12.522Z</time></trkpt><trkpt lat="45.6263267" lon="9.4450036"><ele>218.0</ele><time>2026-04-02T11:43:13.522Z</time></trkpt><trkpt lat="45.6263119" lon="9.4450954"><ele>218.0</ele><time>2026-04-02T11:43:14.522Z</time></trkpt><trkpt lat="45.6262998" lon="9.4451926"><ele>218.0</ele><time>2026-04-02T11:43:15.522Z</time></trkpt><trkpt lat="45.6262755" lon="9.4453626"><ele>218.00000000000003</ele><time>2026-04-02T11:43:17.521Z</time></trkpt><trkpt lat="45.6262327" lon="9.4454909"><ele>218.0</ele><time>2026-04-02T11:43:19.521Z</time></trkpt><trkpt lat="45.6261454" lon="9.4455409"><ele>217.8</ele><time>2026-04-02T11:43:21.521Z</time></trkpt><trkpt lat="45.6260414" lon="9.4455172"><ele>217.60000000000002</ele><time>2026-04-02T11:43:23.521Z</time></trkpt><trkpt lat="45.6259418" lon="9.4454838"><ele>217.39999999999998</ele><time>2026-04-02T11:43:25.521Z</time></trkpt><trkpt lat="45.6258422" lon="9.4454678"><ele>217.2</ele><time>2026-04-02T11:43:27.521Z</time></trkpt><trkpt lat="45.6257249" lon="9.4454494"><ele>217.0</ele><time>2026-04-02T11:43:29.521Z</time></trkpt><trkpt lat="45.6256174" lon="9.4454089"><ele>217.0</ele><time>2026-04-02T11:43:31.522Z</time></trkpt><trkpt lat="45.6255193" lon="9.4454147"><ele>217.0</ele><time>2026-04-02T11:43:33.521Z</time></trkpt><trkpt lat="45.6254674" lon="9.4455343"><ele>217.0</ele><time>2026-04-02T11:43:35.521Z</time></trkpt><trkpt lat="45.6254438" lon="9.4456883"><ele>217.0</ele><time>2026-04-02T11:43:37.522Z</time></trkpt><trkpt lat="45.6254273" lon="9.4458532"><ele>217.0</ele><time>2026-04-02T11:43:39.521Z</time></trkpt><trkpt lat="45.6254158" lon="9.4460155"><ele>216.75</ele><time>2026-04-02T11:43:41.522Z</time></trkpt><trkpt lat="45.625389" lon="9.4461769"><ele>216.5</ele><time>2026-04-02T11:43:43.521Z</time></trkpt><trkpt lat="45.6253708" lon="9.4463515"><ele>216.25</ele><time>2026-04-02T11:43:45.522Z</time></trkpt><trkpt lat="45.6253387" lon="9.4465258"><ele>216.0</ele><time>2026-04-02T11:43:47.522Z</time></trkpt><trkpt lat="45.6253319" lon="9.4467009"><ele>215.8</ele><time>2026-04-02T11:43:49.522Z</time></trkpt><trkpt lat="45.6253205" lon="9.4468719"><ele>215.60000000000002</ele><time>2026-04-02T11:43:51.521Z</time></trkpt><trkpt lat="45.6253152" lon="9.4470439"><ele>215.4</ele><time>2026-04-02T11:43:53.521Z</time></trkpt><trkpt lat="45.6253093" lon="9.4472095"><ele>215.2</ele><time>2026-04-02T11:43:55.522Z</time></trkpt><trkpt lat="45.6253074" lon="9.4473112"><ele>215.0</ele><time>2026-04-02T11:43:56.522Z</time></trkpt><trkpt lat="45.6253067" lon="9.4474584"><ele>215.0</ele><time>2026-04-02T11:43:58.522Z</time></trkpt><trkpt lat="45.6252956" lon="9.4476193"><ele>215.0</ele><time>2026-04-02T11:44:00.521Z</time></trkpt><trkpt lat="45.6252867" lon="9.4477094"><ele>215.0</ele><time>2026-04-02T11:44:01.522Z</time></trkpt><trkpt lat="45.6252746" lon="9.4478715"><ele>215.0</ele><time>2026-04-02T11:44:03.522Z</time></trkpt><trkpt lat="45.6252568" lon="9.4480255"><ele>215.0</ele><time>2026-04-02T11:44:05.521Z</time></trkpt><trkpt lat="45.6252445" lon="9.4481791"><ele>215.2</ele><time>2026-04-02T11:44:07.522Z</time></trkpt><trkpt lat="45.6252292" lon="9.4483339"><ele>215.4</ele><time>2026-04-02T11:44:09.521Z</time></trkpt><trkpt lat="45.6252169" lon="9.4484914"><ele>215.60000000000002</ele><time>2026-04-02T11:44:11.521Z</time></trkpt><trkpt lat="45.6251944" lon="9.448626"><ele>215.8</ele><time>2026-04-02T11:44:13.522Z</time></trkpt><trkpt lat="45.6251803" lon="9.4487758"><ele>216.0</ele><time>2026-04-02T11:44:15.521Z</time></trkpt><trkpt lat="45.6251707" lon="9.4489217"><ele>216.0</ele><time>2026-04-02T11:44:17.521Z</time></trkpt><trkpt lat="45.625157" lon="9.4490705"><ele>216.00000000000003</ele><time>2026-04-02T11:44:19.521Z</time></trkpt><trkpt lat="45.6251517" lon="9.4492326"><ele>216.00000000000003</ele><time>2026-04-02T11:44:21.522Z</time></trkpt><trkpt lat="45.625142" lon="9.4493845"><ele>216.0</ele><time>2026-04-02T11:44:23.521Z</time></trkpt><trkpt lat="45.6251342" lon="9.4495399"><ele>216.0</ele><time>2026-04-02T11:44:25.522Z</time></trkpt><trkpt lat="45.6251277" lon="9.4496871"><ele>215.60000000000002</ele><time>2026-04-02T11:44:27.521Z</time></trkpt><trkpt lat="45.6250921" lon="9.4498332"><ele>215.20000000000002</ele><time>2026-04-02T11:44:29.522Z</time></trkpt><trkpt lat="45.625064" lon="9.4499821"><ele>214.79999999999998</ele><time>2026-04-02T11:44:31.522Z</time></trkpt><trkpt lat="45.6250456" lon="9.450146"><ele>214.39999999999998</ele><time>2026-04-02T11:44:33.521Z</time></trkpt><trkpt lat="45.6250838" lon="9.4502964"><ele>214.0</ele><time>2026-04-02T11:44:35.521Z</time></trkpt><trkpt lat="45.6251091" lon="9.4504433"><ele>214.0</ele><time>2026-04-02T11:44:37.522Z</time></trkpt><trkpt lat="45.6251185" lon="9.4505989"><ele>213.99999999999997</ele><time>2026-04-02T11:44:39.521Z</time></trkpt><trkpt lat="45.6251914" lon="9.4506626"><ele>213.99999999999997</ele><time>2026-04-02T11:44:43.522Z</time></trkpt><trkpt lat="45.625252" lon="9.4505805"><ele>214.0</ele><time>2026-04-02T11:44:45.521Z</time></trkpt><trkpt lat="45.6253179" lon="9.450512"><ele>214.0</ele><time>2026-04-02T11:44:47.522Z</time></trkpt><trkpt lat="45.6253967" lon="9.4504443"><ele>213.99999999999997</ele><time>2026-04-02T11:44:49.522Z</time></trkpt><trkpt lat="45.6254769" lon="9.4503746"><ele>214.0</ele><time>2026-04-02T11:44:51.522Z</time></trkpt><trkpt lat="45.6255574" lon="9.4503459"><ele>214.0</ele><time>2026-04-02T11:44:53.522Z</time></trkpt><trkpt lat="45.6256321" lon="9.4502955"><ele>214.0</ele><time>2026-04-02T11:44:55.521Z</time></trkpt><trkpt lat="45.6257275" lon="9.4502717"><ele>213.99999999999997</ele><time>2026-04-02T11:44:57.521Z</time></trkpt><trkpt lat="45.6258088" lon="9.4502699"><ele>214.0</ele><time>2026-04-02T11:44:59.522Z</time></trkpt><trkpt lat="45.6259034" lon="9.4502892"><ele>214.0</ele><time>2026-04-02T11:45:01.522Z</time></trkpt><trkpt lat="45.6260527" lon="9.4502832"><ele>213.99999999999997</ele><time>2026-04-02T11:45:03.521Z</time></trkpt><trkpt lat="45.6261579" lon="9.4503357"><ele>213.99999999999997</ele><time>2026-04-02T11:45:05.522Z</time></trkpt><trkpt lat="45.6262541" lon="9.4503554"><ele>214.0</ele><time>2026-04-02T11:45:07.522Z</time></trkpt><trkpt lat="45.6263382" lon="9.450395"><ele>214.0</ele><time>2026-04-02T11:45:09.521Z</time></trkpt><trkpt lat="45.6264466" lon="9.4504242"><ele>214.16666666666666</ele><time>2026-04-02T11:45:11.522Z</time></trkpt><trkpt lat="45.6265475" lon="9.4504444"><ele>214.33333333333331</ele><time>2026-04-02T11:45:13.522Z</time></trkpt><trkpt lat="45.6266193" lon="9.4504745"><ele>214.5</ele><time>2026-04-02T11:45:15.522Z</time></trkpt><trkpt lat="45.6266848" lon="9.4505023"><ele>214.66666666666669</ele><time>2026-04-02T11:45:17.521Z</time></trkpt><trkpt lat="45.6267647" lon="9.4505289"><ele>214.83333333333334</ele><time>2026-04-02T11:45:20.521Z</time></trkpt><trkpt lat="45.6268481" lon="9.4505477"><ele>215.0</ele><time>2026-04-02T11:45:23.521Z</time></trkpt><trkpt lat="45.6269365" lon="9.450587"><ele>215.6</ele><time>2026-04-02T11:45:25.522Z</time></trkpt><trkpt lat="45.6270371" lon="9.4506304"><ele>216.2</ele><time>2026-04-02T11:45:27.522Z</time></trkpt><trkpt lat="45.6271258" lon="9.4506824"><ele>216.8</ele><time>2026-04-02T11:45:29.522Z</time></trkpt><trkpt lat="45.6272215" lon="9.4507228"><ele>217.4</ele><time>2026-04-02T11:45:31.522Z</time></trkpt><trkpt lat="45.6273195" lon="9.4507677"><ele>218.0</ele><time>2026-04-02T11:45:33.521Z</time></trkpt><trkpt lat="45.6274144" lon="9.4507992"><ele>218.00000000000003</ele><time>2026-04-02T11:45:35.521Z</time></trkpt><trkpt lat="45.6275055" lon="9.4508378"><ele>218.0</ele><time>2026-04-02T11:45:37.522Z</time></trkpt><trkpt lat="45.6275922" lon="9.4508643"><ele>218.0</ele><time>2026-04-02T11:45:39.521Z</time></trkpt><trkpt lat="45.6276977" lon="9.4509122"><ele>218.0</ele><time>2026-04-02T11:45:41.521Z</time></trkpt><trkpt lat="45.6277586" lon="9.4509427"><ele>218.00000000000003</ele><time>2026-04-02T11:45:42.522Z</time></trkpt><trkpt lat="45.6278114" lon="9.4509975"><ele>218.0</ele><time>2026-04-02T11:45:43.521Z</time></trkpt><trkpt lat="45.6278558" lon="9.451114"><ele>218.4</ele><time>2026-04-02T11:45:45.522Z</time></trkpt><trkpt lat="45.6278918" lon="9.4511942"><ele>218.8</ele><time>2026-04-02T11:45:46.522Z</time></trkpt><trkpt lat="45.6279559" lon="9.4513547"><ele>219.2</ele><time>2026-04-02T11:45:48.522Z</time></trkpt><trkpt lat="45.628017" lon="9.451457"><ele>219.6</ele><time>2026-04-02T11:45:50.522Z</time></trkpt><trkpt lat="45.6280848" lon="9.4514983"><ele>220.0</ele><time>2026-04-02T11:45:52.521Z</time></trkpt><trkpt lat="45.6281694" lon="9.4515257"><ele>219.99999999999997</ele><time>2026-04-02T11:45:55.521Z</time></trkpt><trkpt lat="45.6282514" lon="9.4515408"><ele>220.0</ele><time>2026-04-02T11:45:58.521Z</time></trkpt><trkpt lat="45.6283167" lon="9.4515587"><ele>220.0</ele><time>2026-04-02T11:46:01.521Z</time></trkpt><trkpt lat="45.6283969" lon="9.4515788"><ele>220.0</ele><time>2026-04-02T11:46:04.522Z</time></trkpt><trkpt lat="45.6284831" lon="9.4515965"><ele>219.99999999999997</ele><time>2026-04-02T11:46:07.522Z</time></trkpt><trkpt lat="45.628554" lon="9.4515996"><ele>220.0</ele><time>2026-04-02T11:46:09.521Z</time></trkpt><trkpt lat="45.6286265" lon="9.4516073"><ele>220.66666666666666</ele><time>2026-04-02T11:46:11.521Z</time></trkpt><trkpt lat="45.6287123" lon="9.4516207"><ele>221.33333333333331</ele><time>2026-04-02T11:46:14.521Z</time></trkpt><trkpt lat="45.6287793" lon="9.4516253"><ele>222.0</ele><time>2026-04-02T11:46:16.521Z</time></trkpt><trkpt lat="45.6288489" lon="9.4516361"><ele>222.66666666666669</ele><time>2026-04-02T11:46:18.522Z</time></trkpt><trkpt lat="45.6289364" lon="9.4516429"><ele>223.33333333333334</ele><time>2026-04-02T11:46:21.522Z</time></trkpt><trkpt lat="45.629001" lon="9.4516433"><ele>224.0</ele><time>2026-04-02T11:46:23.522Z</time></trkpt><trkpt lat="45.6291022" lon="9.4516516"><ele>224.00000000000003</ele><time>2026-04-02T11:46:26.522Z</time></trkpt><trkpt lat="45.6291814" lon="9.451662"><ele>224.0</ele><time>2026-04-02T11:46:28.522Z</time></trkpt><trkpt lat="45.6292554" lon="9.4516681"><ele>224.0</ele><time>2026-04-02T11:46:30.521Z</time></trkpt><trkpt lat="45.6293359" lon="9.4516583"><ele>224.0</ele><time>2026-04-02T11:46:32.521Z</time></trkpt><trkpt lat="45.6294043" lon="9.4516561"><ele>224.00000000000003</ele><time>2026-04-02T11:46:34.522Z</time></trkpt><trkpt lat="45.62949" lon="9.4516654"><ele>224.0</ele><time>2026-04-02T11:46:36.522Z</time></trkpt><trkpt lat="45.6295909" lon="9.4517026"><ele>223.66666666666669</ele><time>2026-04-02T11:46:38.522Z</time></trkpt><trkpt lat="45.6296964" lon="9.4517674"><ele>223.33333333333334</ele><time>2026-04-02T11:46:40.521Z</time></trkpt><trkpt lat="45.6297772" lon="9.4517853"><ele>223.0</ele><time>2026-04-02T11:46:42.522Z</time></trkpt><trkpt lat="45.6298517" lon="9.4517966"><ele>222.66666666666669</ele><time>2026-04-02T11:46:44.521Z</time></trkpt><trkpt lat="45.6299381" lon="9.4518222"><ele>222.33333333333334</ele><time>2026-04-02T11:46:46.522Z</time></trkpt><trkpt lat="45.6300216" lon="9.4518545"><ele>222.0</ele><time>2026-04-02T11:46:48.522Z</time></trkpt><trkpt lat="45.6301002" lon="9.4518871"><ele>222.0</ele><time>2026-04-02T11:46:50.522Z</time></trkpt><trkpt lat="45.6301758" lon="9.4519089"><ele>222.0</ele><time>2026-04-02T11:46:52.522Z</time></trkpt><trkpt lat="45.6302588" lon="9.4519194"><ele>222.0</ele><time>2026-04-02T11:46:54.521Z</time></trkpt><trkpt lat="45.6303253" lon="9.4519727"><ele>222.0</ele><time>2026-04-02T11:46:56.521Z</time></trkpt><trkpt lat="45.6303497" lon="9.4520679"><ele>222.0</ele><time>2026-04-02T11:46:59.522Z</time></trkpt><trkpt lat="45.6303525" lon="9.4521581"><ele>222.0</ele><time>2026-04-02T11:47:02.522Z</time></trkpt><trkpt lat="45.6303659" lon="9.4522764"><ele>222.0</ele><time>2026-04-02T11:47:05.521Z</time></trkpt><trkpt lat="45.6303712" lon="9.4523702"><ele>222.0</ele><time>2026-04-02T11:47:07.521Z</time></trkpt><trkpt lat="45.6303659" lon="9.4524669"><ele>222.0</ele><time>2026-04-02T11:47:09.521Z</time></trkpt><trkpt lat="45.6303547" lon="9.4525587"><ele>222.0</ele><time>2026-04-02T11:47:11.522Z</time></trkpt><trkpt lat="45.6303865" lon="9.4527034"><ele>222.0</ele><time>2026-04-02T11:47:13.521Z</time></trkpt><trkpt lat="45.6304295" lon="9.452841"><ele>222.0</ele><time>2026-04-02T11:47:15.522Z</time></trkpt><trkpt lat="45.6304648" lon="9.4529907"><ele>222.0</ele><time>2026-04-02T11:47:17.521Z</time></trkpt><trkpt lat="45.6304462" lon="9.453363"><ele>222.0</ele><time>2026-04-02T11:47:18.521Z</time></trkpt><trkpt lat="45.6305136" lon="9.4534595"><ele>222.0</ele><time>2026-04-02T11:47:20.522Z</time></trkpt><trkpt lat="45.6305722" lon="9.453543"><ele>222.0</ele><time>2026-04-02T11:47:22.521Z</time></trkpt><trkpt lat="45.6306078" lon="9.4536531"><ele>222.0</ele><time>2026-04-02T11:47:24.521Z</time></trkpt><trkpt lat="45.6306112" lon="9.4537633"><ele>222.0</ele><time>2026-04-02T11:47:26.521Z</time></trkpt><trkpt lat="45.6306075" lon="9.4538909"><ele>222.0</ele><time>2026-04-02T11:47:28.522Z</time></trkpt><trkpt lat="45.6306078" lon="9.4540016"><ele>222.0</ele><time>2026-04-02T11:47:30.522Z</time></trkpt><trkpt lat="45.6306047" lon="9.4541014"><ele>222.0</ele><time>2026-04-02T11:47:33.522Z</time></trkpt><trkpt lat="45.6305844" lon="9.4542012"><ele>222.0</ele><time>2026-04-02T11:47:37.522Z</time></trkpt><trkpt lat="45.63056" lon="9.4543051"><ele>221.83333333333334</ele><time>2026-04-02T11:47:40.521Z</time></trkpt><trkpt lat="45.6305592" lon="9.4544062"><ele>221.66666666666669</ele><time>2026-04-02T11:47:42.522Z</time></trkpt><trkpt lat="45.630588" lon="9.4545028"><ele>221.5</ele><time>2026-04-02T11:47:44.522Z</time></trkpt><trkpt lat="45.6306494" lon="9.4545813"><ele>221.33333333333334</ele><time>2026-04-02T11:47:46.522Z</time></trkpt><trkpt lat="45.6307317" lon="9.4546506"><ele>221.16666666666669</ele><time>2026-04-02T11:47:48.521Z</time></trkpt><trkpt lat="45.6308198" lon="9.4547195"><ele>221.0</ele><time>2026-04-02T11:47:51.522Z</time></trkpt><trkpt lat="45.630896" lon="9.4547419"><ele>221.4</ele><time>2026-04-02T11:47:53.521Z</time></trkpt><trkpt lat="45.6309718" lon="9.4547844"><ele>221.8</ele><time>2026-04-02T11:47:55.522Z</time></trkpt><trkpt lat="45.6310399" lon="9.4548727"><ele>222.20000000000002</ele><time>2026-04-02T11:47:57.521Z</time></trkpt><trkpt lat="45.6311029" lon="9.4549411"><ele>222.60000000000002</ele><time>2026-04-02T11:47:59.521Z</time></trkpt><trkpt lat="45.6311911" lon="9.4550106"><ele>223.0</ele><time>2026-04-02T11:48:01.522Z</time></trkpt><trkpt lat="45.6312728" lon="9.4550977"><ele>223.0</ele><time>2026-04-02T11:48:03.521Z</time></trkpt><trkpt lat="45.6313652" lon="9.4551667"><ele>223.0</ele><time>2026-04-02T11:48:05.521Z</time></trkpt><trkpt lat="45.631456" lon="9.4552031"><ele>223.0</ele><time>2026-04-02T11:48:07.521Z</time></trkpt><trkpt lat="45.6315451" lon="9.4552289"><ele>223.0</ele><time>2026-04-02T11:48:09.521Z</time></trkpt><trkpt lat="45.6316643" lon="9.4552682"><ele>223.0</ele><time>2026-04-02T11:48:11.522Z</time></trkpt><trkpt lat="45.6317486" lon="9.4553053"><ele>222.99999999999997</ele><time>2026-04-02T11:48:13.522Z</time></trkpt><trkpt lat="45.6318222" lon="9.4553937"><ele>223.0</ele><time>2026-04-02T11:48:15.521Z</time></trkpt><trkpt lat="45.6318535" lon="9.4554986"><ele>223.0</ele><time>2026-04-02T11:48:17.522Z</time></trkpt><trkpt lat="45.6318836" lon="9.4556011"><ele>223.0</ele><time>2026-04-02T11:48:19.521Z</time></trkpt><trkpt lat="45.6319373" lon="9.4556652"><ele>222.99999999999997</ele><time>2026-04-02T11:48:21.521Z</time></trkpt><trkpt lat="45.6320038" lon="9.455675"><ele>223.0</ele><time>2026-04-02T11:48:23.522Z</time></trkpt><trkpt lat="45.6320684" lon="9.4556973"><ele>223.4</ele><time>2026-04-02T11:48:25.521Z</time></trkpt><trkpt lat="45.6321459" lon="9.4557266"><ele>223.8</ele><time>2026-04-02T11:48:27.522Z</time></trkpt><trkpt lat="45.6322496" lon="9.4557763"><ele>224.2</ele><time>2026-04-02T11:48:29.521Z</time></trkpt><trkpt lat="45.6323588" lon="9.4558213"><ele>224.6</ele><time>2026-04-02T11:48:31.521Z</time></trkpt><trkpt lat="45.632465" lon="9.4558577"><ele>225.0</ele><time>2026-04-02T11:48:33.521Z</time></trkpt><trkpt lat="45.6325567" lon="9.4558763"><ele>225.0</ele><time>2026-04-02T11:48:35.522Z</time></trkpt><trkpt lat="45.6326415" lon="9.4558958"><ele>225.0</ele><time>2026-04-02T11:48:37.522Z</time></trkpt><trkpt lat="45.6327494" lon="9.4559363"><ele>225.0</ele><time>2026-04-02T11:48:39.522Z</time></trkpt><trkpt lat="45.6328127" lon="9.4559613"><ele>225.0</ele><time>2026-04-02T11:48:40.522Z</time></trkpt><trkpt lat="45.6329155" lon="9.4560204"><ele>225.0</ele><time>2026-04-02T11:48:42.521Z</time></trkpt><trkpt lat="45.633016" lon="9.456092"><ele>224.8</ele><time>2026-04-02T11:48:44.522Z</time></trkpt><trkpt lat="45.6331096" lon="9.4561695"><ele>224.6</ele><time>2026-04-02T11:48:46.521Z</time></trkpt><trkpt lat="45.633198" lon="9.4562513"><ele>224.39999999999998</ele><time>2026-04-02T11:48:48.522Z</time></trkpt><trkpt lat="45.6332853" lon="9.4563321"><ele>224.2</ele><time>2026-04-02T11:48:50.521Z</time></trkpt><trkpt lat="45.6333685" lon="9.4564194"><ele>224.0</ele><time>2026-04-02T11:48:52.521Z</time></trkpt><trkpt lat="45.6334575" lon="9.4564932"><ele>224.39999999999998</ele><time>2026-04-02T11:48:54.521Z</time></trkpt><trkpt lat="45.6335473" lon="9.4565595"><ele>224.79999999999998</ele><time>2026-04-02T11:48:56.521Z</time></trkpt><trkpt lat="45.6336377" lon="9.4566385"><ele>225.20000000000002</ele><time>2026-04-02T11:48:58.522Z</time></trkpt><trkpt lat="45.6337299" lon="9.4567169"><ele>225.60000000000002</ele><time>2026-04-02T11:49:00.521Z</time></trkpt><trkpt lat="45.6338241" lon="9.4567808"><ele>226.0</ele><time>2026-04-02T11:49:02.522Z</time></trkpt><trkpt lat="45.6339255" lon="9.4568484"><ele>226.20000000000002</ele><time>2026-04-02T11:49:04.522Z</time></trkpt><trkpt lat="45.6340287" lon="9.4569181"><ele>226.40000000000003</ele><time>2026-04-02T11:49:06.522Z</time></trkpt><trkpt lat="45.6341226" lon="9.4569889"><ele>226.6</ele><time>2026-04-02T11:49:08.522Z</time></trkpt><trkpt lat="45.634194" lon="9.4570418"><ele>226.8</ele><time>2026-04-02T11:49:10.521Z</time></trkpt><trkpt lat="45.6342761" lon="9.4570778"><ele>227.0</ele><time>2026-04-02T11:49:13.522Z</time></trkpt><trkpt lat="45.6343293" lon="9.4571322"><ele>227.00000000000003</ele><time>2026-04-02T11:49:15.522Z</time></trkpt><trkpt lat="45.6343859" lon="9.4571943"><ele>227.0</ele><time>2026-04-02T11:49:17.522Z</time></trkpt><trkpt lat="45.634447" lon="9.4572393"><ele>227.0</ele><time>2026-04-02T11:49:19.521Z</time></trkpt><trkpt lat="45.6345152" lon="9.4572828"><ele>227.0</ele><time>2026-04-02T11:49:21.522Z</time></trkpt><trkpt lat="45.6345862" lon="9.4573235"><ele>227.00000000000003</ele><time>2026-04-02T11:49:23.522Z</time></trkpt><trkpt lat="45.6345934" lon="9.4574153"><ele>227.0</ele><time>2026-04-02T11:49:25.521Z</time></trkpt><trkpt lat="45.6345585" lon="9.457543"><ele>227.0</ele><time>2026-04-02T11:49:28.521Z</time></trkpt><trkpt lat="45.6345403" lon="9.4576507"><ele>227.0</ele><time>2026-04-02T11:49:30.522Z</time></trkpt><trkpt lat="45.6345198" lon="9.4577952"><ele>227.0</ele><time>2026-04-02T11:49:32.521Z</time></trkpt><trkpt lat="45.6344979" lon="9.4579372"><ele>227.0</ele><time>2026-04-02T11:49:34.521Z</time></trkpt><trkpt lat="45.6344736" lon="9.4580867"><ele>227.0</ele><time>2026-04-02T11:49:36.522Z</time></trkpt><trkpt lat="45.6344479" lon="9.4582391"><ele>226.66666666666669</ele><time>2026-04-02T11:49:38.521Z</time></trkpt><trkpt lat="45.6344219" lon="9.458392"><ele>226.33333333333331</ele><time>2026-04-02T11:49:40.522Z</time></trkpt><trkpt lat="45.6344007" lon="9.4585198"><ele>226.0</ele><time>2026-04-02T11:49:42.522Z</time></trkpt><trkpt lat="45.6343456" lon="9.4588804"><ele>226.0</ele><time>2026-04-02T11:49:45.521Z</time></trkpt><trkpt lat="45.6343109" lon="9.4590303"><ele>226.00000000000003</ele><time>2026-04-02T11:49:47.521Z</time></trkpt><trkpt lat="45.6342791" lon="9.4591894"><ele>226.00000000000003</ele><time>2026-04-02T11:49:49.522Z</time></trkpt><trkpt lat="45.6342529" lon="9.459279"><ele>226.0</ele><time>2026-04-02T11:49:50.522Z</time></trkpt><trkpt lat="45.6342146" lon="9.4594368"><ele>226.0</ele><time>2026-04-02T11:49:52.521Z</time></trkpt><trkpt lat="45.6341712" lon="9.4595965"><ele>226.16666666666666</ele><time>2026-04-02T11:49:54.521Z</time></trkpt><trkpt lat="45.6341476" lon="9.45968"><ele>226.33333333333331</ele><time>2026-04-02T11:49:55.521Z</time></trkpt><trkpt lat="45.6341241" lon="9.4597641"><ele>226.5</ele><time>2026-04-02T11:49:56.522Z</time></trkpt><trkpt lat="45.6340793" lon="9.4599381"><ele>226.66666666666669</ele><time>2026-04-02T11:49:58.521Z</time></trkpt><trkpt lat="45.6340534" lon="9.4600236"><ele>226.83333333333334</ele><time>2026-04-02T11:49:59.521Z</time></trkpt><trkpt lat="45.6340102" lon="9.4601935"><ele>227.0</ele><time>2026-04-02T11:50:01.521Z</time></trkpt><trkpt lat="45.633989" lon="9.4602784"><ele>227.0</ele><time>2026-04-02T11:50:02.522Z</time></trkpt><trkpt lat="45.6339471" lon="9.4604492"><ele>227.0</ele><time>2026-04-02T11:50:04.522Z</time></trkpt><trkpt lat="45.6338966" lon="9.460609"><ele>227.0</ele><time>2026-04-02T11:50:06.522Z</time></trkpt><trkpt lat="45.6338465" lon="9.4607847"><ele>227.0</ele><time>2026-04-02T11:50:08.521Z</time></trkpt><trkpt lat="45.6338188" lon="9.460872"><ele>227.0</ele><time>2026-04-02T11:50:09.521Z</time></trkpt><trkpt lat="45.6337829" lon="9.4610378"><ele>227.0</ele><time>2026-04-02T11:50:11.522Z</time></trkpt><trkpt lat="45.633728" lon="9.4611805"><ele>227.0</ele><time>2026-04-02T11:50:13.522Z</time></trkpt><trkpt lat="45.6336572" lon="9.461326"><ele>227.0</ele><time>2026-04-02T11:50:15.521Z</time></trkpt><trkpt lat="45.6336087" lon="9.461401"><ele>227.0</ele><time>2026-04-02T11:50:16.522Z</time></trkpt><trkpt lat="45.6335636" lon="9.4614652"><ele>227.0</ele><time>2026-04-02T11:50:17.522Z</time></trkpt><trkpt lat="45.6334993" lon="9.461615"><ele>227.00000000000003</ele><time>2026-04-02T11:50:19.522Z</time></trkpt><trkpt lat="45.6334836" lon="9.4617043"><ele>227.0</ele><time>2026-04-02T11:50:20.522Z</time></trkpt><trkpt lat="45.6334852" lon="9.4617998"><ele>227.0</ele><time>2026-04-02T11:50:21.521Z</time></trkpt><trkpt lat="45.6334963" lon="9.4619784"><ele>227.0</ele><time>2026-04-02T11:50:23.521Z</time></trkpt><trkpt lat="45.6335084" lon="9.4621302"><ele>227.00000000000003</ele><time>2026-04-02T11:50:25.521Z</time></trkpt><trkpt lat="45.633485" lon="9.4622397"><ele>227.0</ele><time>2026-04-02T11:50:26.522Z</time></trkpt><trkpt lat="45.6334632" lon="9.4623337"><ele>227.00000000000003</ele><time>2026-04-02T11:50:27.521Z</time></trkpt><trkpt lat="45.6334158" lon="9.4625092"><ele>227.0</ele><time>2026-04-02T11:50:29.522Z</time></trkpt><trkpt lat="45.6333924" lon="9.4626039"><ele>227.0</ele><time>2026-04-02T11:50:30.521Z</time></trkpt><trkpt lat="45.6333668" lon="9.4626977"><ele>227.0</ele><time>2026-04-02T11:50:31.522Z</time></trkpt><trkpt lat="45.6333451" lon="9.4627857"><ele>227.00000000000003</ele><time>2026-04-02T11:50:32.522Z</time></trkpt><trkpt lat="45.6333235" lon="9.4628783"><ele>227.0</ele><time>2026-04-02T11:50:33.521Z</time></trkpt><trkpt lat="45.6333024" lon="9.4629692"><ele>227.2857142857143</ele><time>2026-04-02T11:50:34.522Z</time></trkpt><trkpt lat="45.6332836" lon="9.4630565"><ele>227.5714285714286</ele><time>2026-04-02T11:50:35.522Z</time></trkpt><trkpt lat="45.6332623" lon="9.4631492"><ele>227.85714285714286</ele><time>2026-04-02T11:50:36.521Z</time></trkpt><trkpt lat="45.6332335" lon="9.4632433"><ele>228.14285714285717</ele><time>2026-04-02T11:50:37.521Z</time></trkpt><trkpt lat="45.6332121" lon="9.4633321"><ele>228.42857142857144</ele><time>2026-04-02T11:50:38.522Z</time></trkpt><trkpt lat="45.6331928" lon="9.4634238"><ele>228.71428571428572</ele><time>2026-04-02T11:50:39.522Z</time></trkpt><trkpt lat="45.6331726" lon="9.4635097"><ele>229.0</ele><time>2026-04-02T11:50:40.521Z</time></trkpt><trkpt lat="45.6331475" lon="9.4636022"><ele>228.99999999999997</ele><time>2026-04-02T11:50:41.522Z</time></trkpt><trkpt lat="45.6331267" lon="9.4636906"><ele>229.0</ele><time>2026-04-02T11:50:42.522Z</time></trkpt><trkpt lat="45.6330992" lon="9.4637892"><ele>229.0</ele><time>2026-04-02T11:50:43.522Z</time></trkpt><trkpt lat="45.6330617" lon="9.4639616"><ele>229.0</ele><time>2026-04-02T11:50:45.521Z</time></trkpt><trkpt lat="45.6330341" lon="9.4640494"><ele>228.99999999999997</ele><time>2026-04-02T11:50:46.521Z</time></trkpt><trkpt lat="45.6330114" lon="9.464144"><ele>229.0</ele><time>2026-04-02T11:50:47.522Z</time></trkpt><trkpt lat="45.6329675" lon="9.4643067"><ele>228.99999999999997</ele><time>2026-04-02T11:50:49.522Z</time></trkpt><trkpt lat="45.6329397" lon="9.4643899"><ele>229.0</ele><time>2026-04-02T11:50:50.522Z</time></trkpt><trkpt lat="45.6329148" lon="9.4644863"><ele>229.0</ele><time>2026-04-02T11:50:51.521Z</time></trkpt><trkpt lat="45.6328893" lon="9.4645759"><ele>229.0</ele><time>2026-04-02T11:50:52.522Z</time></trkpt><trkpt lat="45.6328652" lon="9.4646651"><ele>228.99999999999997</ele><time>2026-04-02T11:50:53.521Z</time></trkpt><trkpt lat="45.6328201" lon="9.4648306"><ele>229.0</ele><time>2026-04-02T11:50:55.521Z</time></trkpt><trkpt lat="45.6327944" lon="9.4649207"><ele>228.99999999999997</ele><time>2026-04-02T11:50:56.521Z</time></trkpt><trkpt lat="45.6327676" lon="9.4650107"><ele>229.0</ele><time>2026-04-02T11:50:57.521Z</time></trkpt><trkpt lat="45.6327127" lon="9.4651737"><ele>229.0</ele><time>2026-04-02T11:50:59.521Z</time></trkpt><trkpt lat="45.6326877" lon="9.4652642"><ele>229.0</ele><time>2026-04-02T11:51:00.522Z</time></trkpt><trkpt lat="45.6326675" lon="9.465358"><ele>228.99999999999997</ele><time>2026-04-02T11:51:01.521Z</time></trkpt><trkpt lat="45.6326482" lon="9.4654475"><ele>229.0</ele><time>2026-04-02T11:51:02.522Z</time></trkpt><trkpt lat="45.6326263" lon="9.4655432"><ele>229.14285714285714</ele><time>2026-04-02T11:51:03.522Z</time></trkpt><trkpt lat="45.6326036" lon="9.4656366"><ele>229.28571428571428</ele><time>2026-04-02T11:51:04.521Z</time></trkpt><trkpt lat="45.6325754" lon="9.46573"><ele>229.42857142857142</ele><time>2026-04-02T11:51:05.522Z</time></trkpt><trkpt lat="45.6325556" lon="9.4658164"><ele>229.57142857142856</ele><time>2026-04-02T11:51:06.522Z</time></trkpt><trkpt lat="45.6325291" lon="9.4659101"><ele>229.71428571428572</ele><time>2026-04-02T11:51:07.521Z</time></trkpt><trkpt lat="45.6325139" lon="9.4660012"><ele>229.85714285714283</ele><time>2026-04-02T11:51:08.522Z</time></trkpt><trkpt lat="45.6324966" lon="9.466106"><ele>229.99999999999997</ele><time>2026-04-02T11:51:09.521Z</time></trkpt><trkpt lat="45.6324688" lon="9.4662026"><ele>229.66666666666669</ele><time>2026-04-02T11:51:10.521Z</time></trkpt><trkpt lat="45.6324458" lon="9.4662944"><ele>229.33333333333334</ele><time>2026-04-02T11:51:11.521Z</time></trkpt><trkpt lat="45.6324226" lon="9.4663956"><ele>229.0</ele><time>2026-04-02T11:51:12.521Z</time></trkpt><trkpt lat="45.6323654" lon="9.4665681"><ele>228.66666666666669</ele><time>2026-04-02T11:51:14.521Z</time></trkpt><trkpt lat="45.6323405" lon="9.4666554"><ele>228.33333333333334</ele><time>2026-04-02T11:51:15.522Z</time></trkpt><trkpt lat="45.6323111" lon="9.4667475"><ele>228.0</ele><time>2026-04-02T11:51:16.521Z</time></trkpt><trkpt lat="45.6322922" lon="9.4668449"><ele>228.0</ele><time>2026-04-02T11:51:17.521Z</time></trkpt><trkpt lat="45.6322684" lon="9.4669448"><ele>227.99999999999997</ele><time>2026-04-02T11:51:18.522Z</time></trkpt><trkpt lat="45.6322448" lon="9.4670457"><ele>228.0</ele><time>2026-04-02T11:51:19.521Z</time></trkpt><trkpt lat="45.6322137" lon="9.4671391"><ele>228.0</ele><time>2026-04-02T11:51:20.522Z</time></trkpt><trkpt lat="45.63219" lon="9.4672361"><ele>227.99999999999997</ele><time>2026-04-02T11:51:21.521Z</time></trkpt><trkpt lat="45.6321627" lon="9.4673324"><ele>228.0</ele><time>2026-04-02T11:51:22.522Z</time></trkpt><trkpt lat="45.6321394" lon="9.4674359"><ele>228.0</ele><time>2026-04-02T11:51:23.521Z</time></trkpt><trkpt lat="45.6321105" lon="9.4675241"><ele>227.60000000000002</ele><time>2026-04-02T11:51:24.522Z</time></trkpt><trkpt lat="45.6320879" lon="9.4676273"><ele>227.20000000000002</ele><time>2026-04-02T11:51:25.522Z</time></trkpt><trkpt lat="45.6320938" lon="9.4677401"><ele>226.8</ele><time>2026-04-02T11:51:26.522Z</time></trkpt><trkpt lat="45.632039" lon="9.4679557"><ele>226.4</ele><time>2026-04-02T11:51:28.521Z</time></trkpt><trkpt lat="45.6320126" lon="9.4680558"><ele>226.0</ele><time>2026-04-02T11:51:29.521Z</time></trkpt><trkpt lat="45.63199" lon="9.4681597"><ele>226.16666666666666</ele><time>2026-04-02T11:51:30.521Z</time></trkpt><trkpt lat="45.6319676" lon="9.4682689"><ele>226.33333333333331</ele><time>2026-04-02T11:51:31.522Z</time></trkpt><trkpt lat="45.6319423" lon="9.4683746"><ele>226.5</ele><time>2026-04-02T11:51:32.522Z</time></trkpt><trkpt lat="45.6319148" lon="9.4684796"><ele>226.66666666666669</ele><time>2026-04-02T11:51:33.522Z</time></trkpt><trkpt lat="45.6318888" lon="9.4685779"><ele>226.83333333333334</ele><time>2026-04-02T11:51:34.522Z</time></trkpt><trkpt lat="45.6318618" lon="9.4686753"><ele>227.0</ele><time>2026-04-02T11:51:35.521Z</time></trkpt><trkpt lat="45.6318372" lon="9.4687791"><ele>226.66666666666669</ele><time>2026-04-02T11:51:36.522Z</time></trkpt><trkpt lat="45.6318138" lon="9.4688762"><ele>226.33333333333334</ele><time>2026-04-02T11:51:37.522Z</time></trkpt><trkpt lat="45.6317886" lon="9.4689699"><ele>226.0</ele><time>2026-04-02T11:51:38.521Z</time></trkpt><trkpt lat="45.6317601" lon="9.4690773"><ele>225.66666666666669</ele><time>2026-04-02T11:51:39.521Z</time></trkpt><trkpt lat="45.6317323" lon="9.4691904"><ele>225.33333333333334</ele><time>2026-04-02T11:51:40.522Z</time></trkpt><trkpt lat="45.6317055" lon="9.469292"><ele>225.0</ele><time>2026-04-02T11:51:41.521Z</time></trkpt><trkpt lat="45.6316735" lon="9.4693883"><ele>225.0</ele><time>2026-04-02T11:51:42.522Z</time></trkpt><trkpt lat="45.6316363" lon="9.4694879"><ele>225.0</ele><time>2026-04-02T11:51:43.522Z</time></trkpt><trkpt lat="45.6315989" lon="9.4695888"><ele>225.0</ele><time>2026-04-02T11:51:44.521Z</time></trkpt><trkpt lat="45.6315572" lon="9.4696925"><ele>225.0</ele><time>2026-04-02T11:51:45.522Z</time></trkpt><trkpt lat="45.6315271" lon="9.4697996"><ele>225.0</ele><time>2026-04-02T11:51:46.522Z</time></trkpt><trkpt lat="45.6314944" lon="9.4698932"><ele>225.0</ele><time>2026-04-02T11:51:47.521Z</time></trkpt><trkpt lat="45.6314617" lon="9.4699764"><ele>225.0</ele><time>2026-04-02T11:51:48.521Z</time></trkpt><trkpt lat="45.6314319" lon="9.4700684"><ele>225.0</ele><time>2026-04-02T11:51:49.521Z</time></trkpt><trkpt lat="45.6313808" lon="9.4702149"><ele>225.0</ele><time>2026-04-02T11:51:51.521Z</time></trkpt><trkpt lat="45.6313307" lon="9.470315"><ele>225.0</ele><time>2026-04-02T11:51:54.521Z</time></trkpt><trkpt lat="45.6312331" lon="9.470288"><ele>225.0</ele><time>2026-04-02T11:51:56.522Z</time></trkpt><trkpt lat="45.6311487" lon="9.4702018"><ele>224.6</ele><time>2026-04-02T11:51:58.522Z</time></trkpt><trkpt lat="45.6310663" lon="9.4701246"><ele>224.2</ele><time>2026-04-02T11:52:00.522Z</time></trkpt><trkpt lat="45.6310046" lon="9.4700823"><ele>223.8</ele><time>2026-04-02T11:52:01.521Z</time></trkpt><trkpt lat="45.6308887" lon="9.4700581"><ele>223.4</ele><time>2026-04-02T11:52:03.522Z</time></trkpt><trkpt lat="45.6308231" lon="9.4700699"><ele>223.0</ele><time>2026-04-02T11:52:04.521Z</time></trkpt><trkpt lat="45.6307006" lon="9.4701241"><ele>223.0</ele><time>2026-04-02T11:52:06.522Z</time></trkpt><trkpt lat="45.6306322" lon="9.4701707"><ele>223.0</ele><time>2026-04-02T11:52:07.521Z</time></trkpt><trkpt lat="45.6305413" lon="9.4702859"><ele>223.0</ele><time>2026-04-02T11:52:09.521Z</time></trkpt><trkpt lat="45.6304896" lon="9.4704332"><ele>223.0</ele><time>2026-04-02T11:52:11.522Z</time></trkpt><trkpt lat="45.6304438" lon="9.4705899"><ele>223.0</ele><time>2026-04-02T11:52:13.521Z</time></trkpt><trkpt lat="45.6304145" lon="9.4707536"><ele>223.0</ele><time>2026-04-02T11:52:15.521Z</time></trkpt><trkpt lat="45.6304041" lon="9.4709167"><ele>223.0</ele><time>2026-04-02T11:52:17.521Z</time></trkpt><trkpt lat="45.6304015" lon="9.4710788"><ele>223.0</ele><time>2026-04-02T11:52:19.522Z</time></trkpt><trkpt lat="45.6303992" lon="9.4711697"><ele>223.0</ele><time>2026-04-02T11:52:20.521Z</time></trkpt><trkpt lat="45.6304033" lon="9.471345"><ele>223.0</ele><time>2026-04-02T11:52:22.521Z</time></trkpt><trkpt lat="45.6304065" lon="9.4715242"><ele>223.2</ele><time>2026-04-02T11:52:24.522Z</time></trkpt><trkpt lat="45.6304128" lon="9.4716814"><ele>223.4</ele><time>2026-04-02T11:52:26.522Z</time></trkpt><trkpt lat="45.6303931" lon="9.4718235"><ele>223.59999999999997</ele><time>2026-04-02T11:52:28.522Z</time></trkpt><trkpt lat="45.6303604" lon="9.4719292"><ele>223.79999999999998</ele><time>2026-04-02T11:52:29.522Z</time></trkpt><trkpt lat="45.6303088" lon="9.4720977"><ele>224.0</ele><time>2026-04-02T11:52:31.522Z</time></trkpt><trkpt lat="45.6303057" lon="9.4722025"><ele>224.0</ele><time>2026-04-02T11:52:32.522Z</time></trkpt><trkpt lat="45.6303546" lon="9.4723784"><ele>223.99999999999997</ele><time>2026-04-02T11:52:34.522Z</time></trkpt><trkpt lat="45.6304306" lon="9.4725292"><ele>223.99999999999997</ele><time>2026-04-02T11:52:36.522Z</time></trkpt><trkpt lat="45.6304727" lon="9.4726078"><ele>224.0</ele><time>2026-04-02T11:52:37.521Z</time></trkpt><trkpt lat="45.6305001" lon="9.4726971"><ele>224.0</ele><time>2026-04-02T11:52:38.521Z</time></trkpt><trkpt lat="45.630514" lon="9.4727891"><ele>224.0</ele><time>2026-04-02T11:52:39.521Z</time></trkpt><trkpt lat="45.6305031" lon="9.4728864"><ele>224.0</ele><time>2026-04-02T11:52:40.522Z</time></trkpt><trkpt lat="45.6304704" lon="9.4729771"><ele>224.0</ele><time>2026-04-02T11:52:41.521Z</time></trkpt><trkpt lat="45.6304292" lon="9.4730615"><ele>224.0</ele><time>2026-04-02T11:52:42.521Z</time></trkpt><trkpt lat="45.6303865" lon="9.4731389"><ele>224.0</ele><time>2026-04-02T11:52:43.521Z</time></trkpt><trkpt lat="45.6303405" lon="9.4732012"><ele>224.0</ele><time>2026-04-02T11:52:44.521Z</time></trkpt><trkpt lat="45.6302973" lon="9.4732832"><ele>224.0</ele><time>2026-04-02T11:52:45.522Z</time></trkpt><trkpt lat="45.6302556" lon="9.4733522"><ele>223.83333333333334</ele><time>2026-04-02T11:52:46.522Z</time></trkpt><trkpt lat="45.6302133" lon="9.4734283"><ele>223.66666666666669</ele><time>2026-04-02T11:52:47.521Z</time></trkpt><trkpt lat="45.6301739" lon="9.473507"><ele>223.5</ele><time>2026-04-02T11:52:48.522Z</time></trkpt><trkpt lat="45.6301302" lon="9.473583"><ele>223.33333333333331</ele><time>2026-04-02T11:52:49.521Z</time></trkpt><trkpt lat="45.6300474" lon="9.4737047"><ele>223.16666666666666</ele><time>2026-04-02T11:52:51.522Z</time></trkpt><trkpt lat="45.6300093" lon="9.4737826"><ele>223.0</ele><time>2026-04-02T11:52:52.522Z</time></trkpt><trkpt lat="45.6299669" lon="9.4738528"><ele>223.49999999999997</ele><time>2026-04-02T11:52:53.522Z</time></trkpt><trkpt lat="45.6299237" lon="9.4739209"><ele>224.0</ele><time>2026-04-02T11:52:54.521Z</time></trkpt><trkpt lat="45.6298702" lon="9.4739903"><ele>224.5</ele><time>2026-04-02T11:52:55.521Z</time></trkpt><trkpt lat="45.6297931" lon="9.4741232"><ele>225.0</ele><time>2026-04-02T11:52:57.521Z</time></trkpt><trkpt lat="45.6297221" lon="9.4742481"><ele>225.49999999999997</ele><time>2026-04-02T11:52:59.521Z</time></trkpt><trkpt lat="45.6296782" lon="9.4743156"><ele>226.0</ele><time>2026-04-02T11:53:00.521Z</time></trkpt><trkpt lat="45.6296089" lon="9.4744467"><ele>225.99999999999997</ele><time>2026-04-02T11:53:02.522Z</time></trkpt><trkpt lat="45.6295574" lon="9.4745856"><ele>226.0</ele><time>2026-04-02T11:53:04.522Z</time></trkpt><trkpt lat="45.6295115" lon="9.4747516"><ele>226.0</ele><time>2026-04-02T11:53:06.521Z</time></trkpt><trkpt lat="45.6294872" lon="9.4748358"><ele>226.0</ele><time>2026-04-02T11:53:07.522Z</time></trkpt><trkpt lat="45.6294626" lon="9.4749309"><ele>225.99999999999997</ele><time>2026-04-02T11:53:08.522Z</time></trkpt><trkpt lat="45.6294318" lon="9.4750126"><ele>226.0</ele><time>2026-04-02T11:53:09.521Z</time></trkpt><trkpt lat="45.6293804" lon="9.4751829"><ele>225.8</ele><time>2026-04-02T11:53:11.521Z</time></trkpt><trkpt lat="45.62933" lon="9.4753583"><ele>225.60000000000002</ele><time>2026-04-02T11:53:13.521Z</time></trkpt><trkpt lat="45.6293303" lon="9.475474"><ele>225.4</ele><time>2026-04-02T11:53:14.521Z</time></trkpt><trkpt lat="45.6292811" lon="9.4756592"><ele>225.2</ele><time>2026-04-02T11:53:16.521Z</time></trkpt><trkpt lat="45.6292627" lon="9.4757479"><ele>225.0</ele><time>2026-04-02T11:53:17.522Z</time></trkpt><trkpt lat="45.6292341" lon="9.4758416"><ele>225.33333333333334</ele><time>2026-04-02T11:53:18.522Z</time></trkpt><trkpt lat="45.6292142" lon="9.4759282"><ele>225.66666666666669</ele><time>2026-04-02T11:53:19.521Z</time></trkpt><trkpt lat="45.6291935" lon="9.4760201"><ele>226.0</ele><time>2026-04-02T11:53:20.521Z</time></trkpt><trkpt lat="45.6291707" lon="9.4761052"><ele>226.33333333333334</ele><time>2026-04-02T11:53:21.521Z</time></trkpt><trkpt lat="45.6291447" lon="9.4761966"><ele>226.66666666666669</ele><time>2026-04-02T11:53:22.521Z</time></trkpt><trkpt lat="45.6290923" lon="9.4763764"><ele>227.0</ele><time>2026-04-02T11:53:24.521Z</time></trkpt><trkpt lat="45.6290638" lon="9.4764778"><ele>227.14285714285717</ele><time>2026-04-02T11:53:25.522Z</time></trkpt><trkpt lat="45.6290361" lon="9.4765748"><ele>227.2857142857143</ele><time>2026-04-02T11:53:26.521Z</time></trkpt><trkpt lat="45.6290076" lon="9.4766657"><ele>227.42857142857144</ele><time>2026-04-02T11:53:27.521Z</time></trkpt><trkpt lat="45.6289822" lon="9.4767492"><ele>227.57142857142856</ele><time>2026-04-02T11:53:28.522Z</time></trkpt><trkpt lat="45.6289517" lon="9.4768485"><ele>227.7142857142857</ele><time>2026-04-02T11:53:29.522Z</time></trkpt><trkpt lat="45.6289231" lon="9.4769339"><ele>227.85714285714283</ele><time>2026-04-02T11:53:30.521Z</time></trkpt><trkpt lat="45.6288879" lon="9.4770315"><ele>228.0</ele><time>2026-04-02T11:53:31.522Z</time></trkpt><trkpt lat="45.6288574" lon="9.4771435"><ele>228.0</ele><time>2026-04-02T11:53:32.521Z</time></trkpt><trkpt lat="45.6288219" lon="9.4772478"><ele>228.0</ele><time>2026-04-02T11:53:33.521Z</time></trkpt><trkpt lat="45.628794" lon="9.4773444"><ele>228.0</ele><time>2026-04-02T11:53:34.522Z</time></trkpt><trkpt lat="45.6287608" lon="9.4774379"><ele>228.0</ele><time>2026-04-02T11:53:35.521Z</time></trkpt><trkpt lat="45.6287297" lon="9.4775314"><ele>228.0</ele><time>2026-04-02T11:53:36.522Z</time></trkpt><trkpt lat="45.6286962" lon="9.4776292"><ele>228.0</ele><time>2026-04-02T11:53:37.522Z</time></trkpt><trkpt lat="45.6286623" lon="9.4777401"><ele>226.83333333333334</ele><time>2026-04-02T11:53:38.521Z</time></trkpt><trkpt lat="45.6286248" lon="9.4778467"><ele>225.66666666666669</ele><time>2026-04-02T11:53:39.522Z</time></trkpt><trkpt lat="45.6285899" lon="9.4779471"><ele>224.5</ele><time>2026-04-02T11:53:40.521Z</time></trkpt><trkpt lat="45.6285566" lon="9.4780467"><ele>223.33333333333334</ele><time>2026-04-02T11:53:41.522Z</time></trkpt><trkpt lat="45.6285152" lon="9.4781483"><ele>222.16666666666669</ele><time>2026-04-02T11:53:42.522Z</time></trkpt><trkpt lat="45.6284814" lon="9.4782533"><ele>221.0</ele><time>2026-04-02T11:53:43.522Z</time></trkpt><trkpt lat="45.6284481" lon="9.4783496"><ele>220.66666666666669</ele><time>2026-04-02T11:53:44.522Z</time></trkpt><trkpt lat="45.6284136" lon="9.478446"><ele>220.33333333333334</ele><time>2026-04-02T11:53:45.521Z</time></trkpt><trkpt lat="45.628378" lon="9.478548"><ele>220.0</ele><time>2026-04-02T11:53:46.521Z</time></trkpt><trkpt lat="45.6283407" lon="9.4786449"><ele>219.66666666666669</ele><time>2026-04-02T11:53:47.521Z</time></trkpt><trkpt lat="45.6283005" lon="9.4787481"><ele>219.33333333333334</ele><time>2026-04-02T11:53:48.521Z</time></trkpt><trkpt lat="45.6282565" lon="9.4788572"><ele>219.0</ele><time>2026-04-02T11:53:49.522Z</time></trkpt><trkpt lat="45.628186" lon="9.4789648"><ele>219.0</ele><time>2026-04-02T11:53:50.522Z</time></trkpt><trkpt lat="45.6281394" lon="9.4791518"><ele>218.99999999999997</ele><time>2026-04-02T11:53:52.521Z</time></trkpt><trkpt lat="45.6281062" lon="9.4792466"><ele>218.99999999999997</ele><time>2026-04-02T11:53:53.522Z</time></trkpt><trkpt lat="45.6280733" lon="9.4793527"><ele>219.0</ele><time>2026-04-02T11:53:54.522Z</time></trkpt><trkpt lat="45.6280406" lon="9.4794488"><ele>219.0</ele><time>2026-04-02T11:53:55.522Z</time></trkpt><trkpt lat="45.6280055" lon="9.4795531"><ele>219.16666666666666</ele><time>2026-04-02T11:53:56.522Z</time></trkpt><trkpt lat="45.6279684" lon="9.47966"><ele>219.33333333333331</ele><time>2026-04-02T11:53:57.522Z</time></trkpt><trkpt lat="45.6279318" lon="9.4797639"><ele>219.5</ele><time>2026-04-02T11:53:58.521Z</time></trkpt><trkpt lat="45.6278989" lon="9.4798717"><ele>219.66666666666666</ele><time>2026-04-02T11:53:59.522Z</time></trkpt><trkpt lat="45.6278666" lon="9.4799701"><ele>219.83333333333331</ele><time>2026-04-02T11:54:00.522Z</time></trkpt><trkpt lat="45.6278378" lon="9.480071"><ele>220.0</ele><time>2026-04-02T11:54:01.522Z</time></trkpt><trkpt lat="45.6278008" lon="9.4801708"><ele>219.99999999999997</ele><time>2026-04-02T11:54:02.521Z</time></trkpt><trkpt lat="45.6277659" lon="9.4802698"><ele>220.0</ele><time>2026-04-02T11:54:03.522Z</time></trkpt><trkpt lat="45.6277269" lon="9.4803657"><ele>220.0</ele><time>2026-04-02T11:54:04.522Z</time></trkpt><trkpt lat="45.6276981" lon="9.4804708"><ele>220.0</ele><time>2026-04-02T11:54:05.521Z</time></trkpt><trkpt lat="45.6276666" lon="9.4805719"><ele>219.99999999999997</ele><time>2026-04-02T11:54:06.522Z</time></trkpt><trkpt lat="45.6276298" lon="9.4806718"><ele>220.0</ele><time>2026-04-02T11:54:07.521Z</time></trkpt><trkpt lat="45.6275946" lon="9.4807649"><ele>219.83333333333331</ele><time>2026-04-02T11:54:08.521Z</time></trkpt><trkpt lat="45.6275582" lon="9.4808646"><ele>219.66666666666666</ele><time>2026-04-02T11:54:09.521Z</time></trkpt><trkpt lat="45.6275218" lon="9.4809586"><ele>219.5</ele><time>2026-04-02T11:54:10.522Z</time></trkpt><trkpt lat="45.6274841" lon="9.4810558"><ele>219.33333333333331</ele><time>2026-04-02T11:54:11.521Z</time></trkpt><trkpt lat="45.627447" lon="9.4811618"><ele>219.16666666666666</ele><time>2026-04-02T11:54:12.522Z</time></trkpt><trkpt lat="45.6274074" lon="9.4812759"><ele>219.0</ele><time>2026-04-02T11:54:13.522Z</time></trkpt><trkpt lat="45.627374" lon="9.4813663"><ele>218.83333333333334</ele><time>2026-04-02T11:54:14.521Z</time></trkpt><trkpt lat="45.6273376" lon="9.4814636"><ele>218.66666666666669</ele><time>2026-04-02T11:54:15.521Z</time></trkpt><trkpt lat="45.6273047" lon="9.4815547"><ele>218.5</ele><time>2026-04-02T11:54:16.522Z</time></trkpt><trkpt lat="45.6272659" lon="9.4816536"><ele>218.33333333333334</ele><time>2026-04-02T11:54:17.521Z</time></trkpt><trkpt lat="45.6272249" lon="9.4817571"><ele>218.16666666666669</ele><time>2026-04-02T11:54:18.522Z</time></trkpt><trkpt lat="45.6271846" lon="9.4818675"><ele>218.0</ele><time>2026-04-02T11:54:19.522Z</time></trkpt><trkpt lat="45.6271474" lon="9.4819672"><ele>218.00000000000003</ele><time>2026-04-02T11:54:20.521Z</time></trkpt><trkpt lat="45.6271108" lon="9.4820811"><ele>218.0</ele><time>2026-04-02T11:54:21.522Z</time></trkpt><trkpt lat="45.6270765" lon="9.4821797"><ele>218.0</ele><time>2026-04-02T11:54:22.522Z</time></trkpt><trkpt lat="45.6270421" lon="9.482282"><ele>218.0</ele><time>2026-04-02T11:54:23.521Z</time></trkpt><trkpt lat="45.6270095" lon="9.4823899"><ele>218.00000000000003</ele><time>2026-04-02T11:54:24.522Z</time></trkpt><trkpt lat="45.626977" lon="9.4824979"><ele>218.0</ele><time>2026-04-02T11:54:25.522Z</time></trkpt><trkpt lat="45.6269413" lon="9.4826077"><ele>218.16666666666669</ele><time>2026-04-02T11:54:26.521Z</time></trkpt><trkpt lat="45.6269072" lon="9.4827226"><ele>218.33333333333334</ele><time>2026-04-02T11:54:27.521Z</time></trkpt><trkpt lat="45.6268872" lon="9.482812"><ele>218.5</ele><time>2026-04-02T11:54:28.521Z</time></trkpt><trkpt lat="45.6268613" lon="9.4829125"><ele>218.66666666666669</ele><time>2026-04-02T11:54:29.521Z</time></trkpt><trkpt lat="45.6268179" lon="9.4830086"><ele>218.83333333333334</ele><time>2026-04-02T11:54:30.521Z</time></trkpt><trkpt lat="45.6267887" lon="9.4831094"><ele>219.0</ele><time>2026-04-02T11:54:31.521Z</time></trkpt><trkpt lat="45.6267498" lon="9.4832046"><ele>219.0</ele><time>2026-04-02T11:54:32.522Z</time></trkpt><trkpt lat="45.6267015" lon="9.4833044"><ele>219.0</ele><time>2026-04-02T11:54:33.522Z</time></trkpt><trkpt lat="45.6266674" lon="9.4834115"><ele>219.0</ele><time>2026-04-02T11:54:34.522Z</time></trkpt><trkpt lat="45.6266352" lon="9.4835216"><ele>219.0</ele><time>2026-04-02T11:54:35.521Z</time></trkpt><trkpt lat="45.6266015" lon="9.4836209"><ele>219.0</ele><time>2026-04-02T11:54:36.522Z</time></trkpt><trkpt lat="45.6265661" lon="9.4837325"><ele>219.0</ele><time>2026-04-02T11:54:37.521Z</time></trkpt><trkpt lat="45.6265308" lon="9.4838407"><ele>219.0</ele><time>2026-04-02T11:54:38.522Z</time></trkpt><trkpt lat="45.6264907" lon="9.4839357"><ele>219.0</ele><time>2026-04-02T11:54:39.521Z</time></trkpt><trkpt lat="45.6264569" lon="9.4840388"><ele>219.0</ele><time>2026-04-02T11:54:40.521Z</time></trkpt><trkpt lat="45.6264255" lon="9.4841451"><ele>219.0</ele><time>2026-04-02T11:54:41.522Z</time></trkpt><trkpt lat="45.6263845" lon="9.4842465"><ele>219.0</ele><time>2026-04-02T11:54:42.521Z</time></trkpt><trkpt lat="45.6263508" lon="9.4843421"><ele>219.0</ele><time>2026-04-02T11:54:43.521Z</time></trkpt><trkpt lat="45.6263178" lon="9.4844416"><ele>219.0</ele><time>2026-04-02T11:54:44.521Z</time></trkpt><trkpt lat="45.6262814" lon="9.4845419"><ele>219.0</ele><time>2026-04-02T11:54:45.521Z</time></trkpt><trkpt lat="45.6262397" lon="9.4846469"><ele>219.0</ele><time>2026-04-02T11:54:46.521Z</time></trkpt><trkpt lat="45.6262023" lon="9.4847459"><ele>219.0</ele><time>2026-04-02T11:54:47.522Z</time></trkpt><trkpt lat="45.6261591" lon="9.4848521"><ele>219.0</ele><time>2026-04-02T11:54:48.522Z</time></trkpt><trkpt lat="45.6261237" lon="9.4849583"><ele>219.0</ele><time>2026-04-02T11:54:49.521Z</time></trkpt><trkpt lat="45.6260817" lon="9.4850636"><ele>218.66666666666666</ele><time>2026-04-02T11:54:50.521Z</time></trkpt><trkpt lat="45.6260505" lon="9.4851784"><ele>218.33333333333331</ele><time>2026-04-02T11:54:51.521Z</time></trkpt><trkpt lat="45.6260111" lon="9.4852852"><ele>218.0</ele><time>2026-04-02T11:54:52.521Z</time></trkpt><trkpt lat="45.6259696" lon="9.4853855"><ele>217.66666666666666</ele><time>2026-04-02T11:54:53.521Z</time></trkpt><trkpt lat="45.6259327" lon="9.4854895"><ele>217.33333333333331</ele><time>2026-04-02T11:54:54.522Z</time></trkpt><trkpt lat="45.625898" lon="9.4855958"><ele>217.0</ele><time>2026-04-02T11:54:55.521Z</time></trkpt><trkpt lat="45.6258618" lon="9.4857069"><ele>216.99999999999997</ele><time>2026-04-02T11:54:56.521Z</time></trkpt><trkpt lat="45.6258287" lon="9.4858137"><ele>217.0</ele><time>2026-04-02T11:54:57.521Z</time></trkpt><trkpt lat="45.6257882" lon="9.4859204"><ele>217.0</ele><time>2026-04-02T11:54:58.522Z</time></trkpt><trkpt lat="45.6257524" lon="9.4860319"><ele>217.0</ele><time>2026-04-02T11:54:59.521Z</time></trkpt><trkpt lat="45.6257131" lon="9.4861335"><ele>216.99999999999997</ele><time>2026-04-02T11:55:00.522Z</time></trkpt><trkpt lat="45.625675" lon="9.4862477"><ele>217.0</ele><time>2026-04-02T11:55:01.521Z</time></trkpt><trkpt lat="45.6256321" lon="9.4863597"><ele>216.83333333333331</ele><time>2026-04-02T11:55:02.521Z</time></trkpt><trkpt lat="45.6255874" lon="9.4864662"><ele>216.66666666666666</ele><time>2026-04-02T11:55:03.522Z</time></trkpt><trkpt lat="45.6255475" lon="9.4865656"><ele>216.5</ele><time>2026-04-02T11:55:04.522Z</time></trkpt><trkpt lat="45.6254995" lon="9.486672"><ele>216.33333333333331</ele><time>2026-04-02T11:55:05.521Z</time></trkpt><trkpt lat="45.6254539" lon="9.4867627"><ele>216.16666666666666</ele><time>2026-04-02T11:55:06.522Z</time></trkpt><trkpt lat="45.6254034" lon="9.4868617"><ele>216.0</ele><time>2026-04-02T11:55:07.522Z</time></trkpt><trkpt lat="45.6253574" lon="9.4869518"><ele>215.83333333333334</ele><time>2026-04-02T11:55:08.522Z</time></trkpt><trkpt lat="45.625305" lon="9.4870439"><ele>215.66666666666669</ele><time>2026-04-02T11:55:09.521Z</time></trkpt><trkpt lat="45.6252601" lon="9.4871425"><ele>215.5</ele><time>2026-04-02T11:55:10.521Z</time></trkpt><trkpt lat="45.6252161" lon="9.4872406"><ele>215.33333333333334</ele><time>2026-04-02T11:55:11.521Z</time></trkpt><trkpt lat="45.6251664" lon="9.4873375"><ele>215.16666666666669</ele><time>2026-04-02T11:55:12.522Z</time></trkpt><trkpt lat="45.6251206" lon="9.4874292"><ele>215.0</ele><time>2026-04-02T11:55:13.521Z</time></trkpt><trkpt lat="45.625075" lon="9.4875238"><ele>215.00000000000003</ele><time>2026-04-02T11:55:14.522Z</time></trkpt><trkpt lat="45.6250349" lon="9.4876175"><ele>215.0</ele><time>2026-04-02T11:55:15.521Z</time></trkpt><trkpt lat="45.6249967" lon="9.4877174"><ele>215.0</ele><time>2026-04-02T11:55:16.521Z</time></trkpt><trkpt lat="45.6249558" lon="9.4878204"><ele>215.0</ele><time>2026-04-02T11:55:17.522Z</time></trkpt><trkpt lat="45.6249127" lon="9.4879177"><ele>215.00000000000003</ele><time>2026-04-02T11:55:18.522Z</time></trkpt><trkpt lat="45.6248759" lon="9.4880211"><ele>215.0</ele><time>2026-04-02T11:55:19.522Z</time></trkpt><trkpt lat="45.6248444" lon="9.4881239"><ele>215.16666666666669</ele><time>2026-04-02T11:55:20.522Z</time></trkpt><trkpt lat="45.6248034" lon="9.4882298"><ele>215.33333333333334</ele><time>2026-04-02T11:55:21.522Z</time></trkpt><trkpt lat="45.6247635" lon="9.4883339"><ele>215.5</ele><time>2026-04-02T11:55:22.522Z</time></trkpt><trkpt lat="45.624723" lon="9.4884399"><ele>215.66666666666669</ele><time>2026-04-02T11:55:23.521Z</time></trkpt><trkpt lat="45.6246912" lon="9.4885428"><ele>215.83333333333334</ele><time>2026-04-02T11:55:24.522Z</time></trkpt><trkpt lat="45.62466" lon="9.4886365"><ele>216.0</ele><time>2026-04-02T11:55:25.522Z</time></trkpt><trkpt lat="45.6246306" lon="9.4887265"><ele>215.8</ele><time>2026-04-02T11:55:26.521Z</time></trkpt><trkpt lat="45.6246036" lon="9.488817"><ele>215.60000000000002</ele><time>2026-04-02T11:55:27.522Z</time></trkpt><trkpt lat="45.6245593" lon="9.4889258"><ele>215.4</ele><time>2026-04-02T11:55:29.522Z</time></trkpt><trkpt lat="45.6245695" lon="9.4890462"><ele>215.2</ele><time>2026-04-02T11:55:31.522Z</time></trkpt><trkpt lat="45.6246405" lon="9.4891391"><ele>215.0</ele><time>2026-04-02T11:55:33.522Z</time></trkpt><trkpt lat="45.6247508" lon="9.489216"><ele>215.0</ele><time>2026-04-02T11:55:35.522Z</time></trkpt><trkpt lat="45.624809" lon="9.4892505"><ele>215.0</ele><time>2026-04-02T11:55:36.521Z</time></trkpt><trkpt lat="45.6249185" lon="9.4893216"><ele>215.0</ele><time>2026-04-02T11:55:38.522Z</time></trkpt><trkpt lat="45.6250325" lon="9.4893992"><ele>215.0</ele><time>2026-04-02T11:55:40.521Z</time></trkpt><trkpt lat="45.6251399" lon="9.4894694"><ele>215.0</ele><time>2026-04-02T11:55:42.522Z</time></trkpt><trkpt lat="45.6251987" lon="9.4895056"><ele>215.0</ele><time>2026-04-02T11:55:43.521Z</time></trkpt><trkpt lat="45.6252576" lon="9.4895481"><ele>215.0</ele><time>2026-04-02T11:55:44.521Z</time></trkpt><trkpt lat="45.6253683" lon="9.4896147"><ele>215.0</ele><time>2026-04-02T11:55:46.521Z</time></trkpt><trkpt lat="45.6254911" lon="9.4896802"><ele>215.0</ele><time>2026-04-02T11:55:48.522Z</time></trkpt><trkpt lat="45.6255536" lon="9.4897107"><ele>215.0</ele><time>2026-04-02T11:55:49.521Z</time></trkpt><trkpt lat="45.6256605" lon="9.4897845"><ele>216.0</ele><time>2026-04-02T11:55:51.522Z</time></trkpt><trkpt lat="45.6257183" lon="9.4898284"><ele>217.0</ele><time>2026-04-02T11:55:52.521Z</time></trkpt><trkpt lat="45.6257793" lon="9.4898658"><ele>218.0</ele><time>2026-04-02T11:55:53.521Z</time></trkpt><trkpt lat="45.6258836" lon="9.489939"><ele>219.0</ele><time>2026-04-02T11:55:55.521Z</time></trkpt><trkpt lat="45.6259895" lon="9.4900133"><ele>220.0</ele><time>2026-04-02T11:55:57.522Z</time></trkpt><trkpt lat="45.6260585" lon="9.4901312"><ele>220.0</ele><time>2026-04-02T11:55:59.522Z</time></trkpt><trkpt lat="45.6260389" lon="9.4902929"><ele>220.0</ele><time>2026-04-02T11:56:01.521Z</time></trkpt><trkpt lat="45.6259817" lon="9.4904244"><ele>220.0</ele><time>2026-04-02T11:56:03.521Z</time></trkpt><trkpt lat="45.6259205" lon="9.4905599"><ele>220.0</ele><time>2026-04-02T11:56:05.522Z</time></trkpt><trkpt lat="45.625838" lon="9.4906785"><ele>219.2</ele><time>2026-04-02T11:56:07.521Z</time></trkpt><trkpt lat="45.6257535" lon="9.4908114"><ele>218.4</ele><time>2026-04-02T11:56:09.522Z</time></trkpt><trkpt lat="45.6257168" lon="9.490888"><ele>217.60000000000002</ele><time>2026-04-02T11:56:10.521Z</time></trkpt><trkpt lat="45.625644" lon="9.4910079"><ele>216.8</ele><time>2026-04-02T11:56:12.522Z</time></trkpt><trkpt lat="45.6255883" lon="9.4911322"><ele>216.0</ele><time>2026-04-02T11:56:14.521Z</time></trkpt><trkpt lat="45.6255249" lon="9.4912707"><ele>216.0</ele><time>2026-04-02T11:56:16.521Z</time></trkpt><trkpt lat="45.6254545" lon="9.4914059"><ele>216.00000000000003</ele><time>2026-04-02T11:56:18.522Z</time></trkpt><trkpt lat="45.6254178" lon="9.491489"><ele>216.00000000000003</ele><time>2026-04-02T11:56:19.521Z</time></trkpt><trkpt lat="45.6253664" lon="9.4916182"><ele>216.0</ele><time>2026-04-02T11:56:21.521Z</time></trkpt><trkpt lat="45.6252999" lon="9.4917498"><ele>216.0</ele><time>2026-04-02T11:56:23.521Z</time></trkpt><trkpt lat="45.6252405" lon="9.4918895"><ele>215.8</ele><time>2026-04-02T11:56:25.522Z</time></trkpt><trkpt lat="45.6251779" lon="9.4920267"><ele>215.60000000000002</ele><time>2026-04-02T11:56:27.522Z</time></trkpt><trkpt lat="45.6251242" lon="9.4921622"><ele>215.4</ele><time>2026-04-02T11:56:29.521Z</time></trkpt><trkpt lat="45.6250795" lon="9.4922865"><ele>215.2</ele><time>2026-04-02T11:56:31.521Z</time></trkpt><trkpt lat="45.6250403" lon="9.4923975"><ele>215.0</ele><time>2026-04-02T11:56:33.522Z</time></trkpt><trkpt lat="45.6250081" lon="9.4925119"><ele>215.0</ele><time>2026-04-02T11:56:35.522Z</time></trkpt><trkpt lat="45.6250726" lon="9.4926437"><ele>215.0</ele><time>2026-04-02T11:56:38.521Z</time></trkpt><trkpt lat="45.6251528" lon="9.4927096"><ele>215.0</ele><time>2026-04-02T11:56:40.522Z</time></trkpt><trkpt lat="45.6252346" lon="9.4927958"><ele>215.0</ele><time>2026-04-02T11:56:42.522Z</time></trkpt><trkpt lat="45.6253121" lon="9.4928847"><ele>215.0</ele><time>2026-04-02T11:56:44.521Z</time></trkpt><trkpt lat="45.6253921" lon="9.4929689"><ele>215.4</ele><time>2026-04-02T11:56:46.521Z</time></trkpt><trkpt lat="45.6254776" lon="9.4930677"><ele>215.8</ele><time>2026-04-02T11:56:48.521Z</time></trkpt><trkpt lat="45.6255612" lon="9.4931527"><ele>216.2</ele><time>2026-04-02T11:56:50.522Z</time></trkpt><trkpt lat="45.6256476" lon="9.493238"><ele>216.6</ele><time>2026-04-02T11:56:52.521Z</time></trkpt><trkpt lat="45.6257342" lon="9.4933162"><ele>217.0</ele><time>2026-04-02T11:56:54.522Z</time></trkpt><trkpt lat="45.6258249" lon="9.4934025"><ele>217.0</ele><time>2026-04-02T11:56:56.522Z</time></trkpt><trkpt lat="45.6258998" lon="9.4935112"><ele>217.0</ele><time>2026-04-02T11:56:58.521Z</time></trkpt><trkpt lat="45.6259691" lon="9.4936093"><ele>217.0</ele><time>2026-04-02T11:57:00.521Z</time></trkpt><trkpt lat="45.6260352" lon="9.4936827"><ele>217.0</ele><time>2026-04-02T11:57:02.522Z</time></trkpt><trkpt lat="45.6261192" lon="9.4937766"><ele>217.0</ele><time>2026-04-02T11:57:04.522Z</time></trkpt><trkpt lat="45.626197" lon="9.4938695"><ele>217.2</ele><time>2026-04-02T11:57:06.522Z</time></trkpt><trkpt lat="45.6262765" lon="9.4939724"><ele>217.39999999999998</ele><time>2026-04-02T11:57:08.522Z</time></trkpt><trkpt lat="45.6263579" lon="9.4940687"><ele>217.60000000000002</ele><time>2026-04-02T11:57:10.521Z</time></trkpt><trkpt lat="45.6264432" lon="9.4941666"><ele>217.8</ele><time>2026-04-02T11:57:12.521Z</time></trkpt><trkpt lat="45.6265266" lon="9.4942659"><ele>218.0</ele><time>2026-04-02T11:57:14.521Z</time></trkpt><trkpt lat="45.62661" lon="9.4943791"><ele>218.0</ele><time>2026-04-02T11:57:16.522Z</time></trkpt><trkpt lat="45.6266848" lon="9.4944849"><ele>218.0</ele><time>2026-04-02T11:57:18.522Z</time></trkpt><trkpt lat="45.6267536" lon="9.4945871"><ele>218.0</ele><time>2026-04-02T11:57:20.521Z</time></trkpt><trkpt lat="45.6268058" lon="9.4947243"><ele>218.0</ele><time>2026-04-02T11:57:22.521Z</time></trkpt><trkpt lat="45.6267963" lon="9.494873"><ele>218.0</ele><time>2026-04-02T11:57:24.521Z</time></trkpt><trkpt lat="45.6267519" lon="9.4950213"><ele>217.8</ele><time>2026-04-02T11:57:26.521Z</time></trkpt><trkpt lat="45.6267253" lon="9.4951065"><ele>217.60000000000002</ele><time>2026-04-02T11:57:27.521Z</time></trkpt><trkpt lat="45.6266677" lon="9.4952528"><ele>217.39999999999998</ele><time>2026-04-02T11:57:29.522Z</time></trkpt><trkpt lat="45.626612" lon="9.4954061"><ele>217.2</ele><time>2026-04-02T11:57:31.522Z</time></trkpt><trkpt lat="45.6265547" lon="9.4955525"><ele>217.0</ele><time>2026-04-02T11:57:33.521Z</time></trkpt><trkpt lat="45.6264888" lon="9.495687"><ele>216.75</ele><time>2026-04-02T11:57:35.521Z</time></trkpt><trkpt lat="45.626458" lon="9.495857"><ele>216.5</ele><time>2026-04-02T11:57:37.522Z</time></trkpt><trkpt lat="45.6263851" lon="9.4959695"><ele>216.25</ele><time>2026-04-02T11:57:39.521Z</time></trkpt><trkpt lat="45.6263272" lon="9.496136"><ele>216.0</ele><time>2026-04-02T11:57:41.522Z</time></trkpt><trkpt lat="45.626267" lon="9.4962737"><ele>216.0</ele><time>2026-04-02T11:57:43.521Z</time></trkpt><trkpt lat="45.6261956" lon="9.4964098"><ele>216.0</ele><time>2026-04-02T11:57:45.522Z</time></trkpt><trkpt lat="45.6261287" lon="9.4965311"><ele>216.0</ele><time>2026-04-02T11:57:47.521Z</time></trkpt><trkpt lat="45.6260417" lon="9.4966421"><ele>216.0</ele><time>2026-04-02T11:57:49.521Z</time></trkpt><trkpt lat="45.6259619" lon="9.4967517"><ele>216.0</ele><time>2026-04-02T11:57:51.522Z</time></trkpt><trkpt lat="45.625874" lon="9.4968392"><ele>216.00000000000003</ele><time>2026-04-02T11:57:53.522Z</time></trkpt><trkpt lat="45.6257863" lon="9.4969084"><ele>216.00000000000003</ele><time>2026-04-02T11:57:55.521Z</time></trkpt><trkpt lat="45.6257007" lon="9.4969993"><ele>216.0</ele><time>2026-04-02T11:57:57.522Z</time></trkpt><trkpt lat="45.625622" lon="9.4971018"><ele>216.0</ele><time>2026-04-02T11:57:59.522Z</time></trkpt><trkpt lat="45.625535" lon="9.4972076"><ele>216.4</ele><time>2026-04-02T11:58:01.521Z</time></trkpt><trkpt lat="45.6254543" lon="9.4973063"><ele>216.8</ele><time>2026-04-02T11:58:03.521Z</time></trkpt><trkpt lat="45.6253622" lon="9.4973801"><ele>217.20000000000002</ele><time>2026-04-02T11:58:05.521Z</time></trkpt><trkpt lat="45.6252797" lon="9.4974678"><ele>217.60000000000002</ele><time>2026-04-02T11:58:07.522Z</time></trkpt><trkpt lat="45.6252149" lon="9.4975619"><ele>218.0</ele><time>2026-04-02T11:58:09.521Z</time></trkpt><trkpt lat="45.6251402" lon="9.4976525"><ele>218.0</ele><time>2026-04-02T11:58:11.522Z</time></trkpt><trkpt lat="45.6250777" lon="9.4977482"><ele>218.0</ele><time>2026-04-02T11:58:13.521Z</time></trkpt><trkpt lat="45.6249855" lon="9.4978466"><ele>218.0</ele><time>2026-04-02T11:58:15.521Z</time></trkpt><trkpt lat="45.6249019" lon="9.4979543"><ele>218.0</ele><time>2026-04-02T11:58:17.522Z</time></trkpt><trkpt lat="45.6247948" lon="9.4980564"><ele>218.0</ele><time>2026-04-02T11:58:19.521Z</time></trkpt><trkpt lat="45.6247094" lon="9.4981964"><ele>218.2</ele><time>2026-04-02T11:58:21.521Z</time></trkpt><trkpt lat="45.6246534" lon="9.4982659"><ele>218.4</ele><time>2026-04-02T11:58:22.521Z</time></trkpt><trkpt lat="45.6245671" lon="9.4984094"><ele>218.59999999999997</ele><time>2026-04-02T11:58:24.522Z</time></trkpt><trkpt lat="45.6245092" lon="9.4984879"><ele>218.79999999999998</ele><time>2026-04-02T11:58:25.521Z</time></trkpt><trkpt lat="45.6244193" lon="9.4985721"><ele>219.0</ele><time>2026-04-02T11:58:27.521Z</time></trkpt><trkpt lat="45.6243211" lon="9.498675"><ele>218.39999999999998</ele><time>2026-04-02T11:58:29.521Z</time></trkpt><trkpt lat="45.624232" lon="9.4987816"><ele>217.79999999999998</ele><time>2026-04-02T11:58:31.521Z</time></trkpt><trkpt lat="45.6241867" lon="9.4988452"><ele>217.20000000000002</ele><time>2026-04-02T11:58:32.522Z</time></trkpt><trkpt lat="45.6241123" lon="9.4989819"><ele>216.60000000000002</ele><time>2026-04-02T11:58:34.521Z</time></trkpt><trkpt lat="45.6240488" lon="9.4990644"><ele>216.0</ele><time>2026-04-02T11:58:36.521Z</time></trkpt><trkpt lat="45.6239773" lon="9.4991665"><ele>216.0</ele><time>2026-04-02T11:58:38.521Z</time></trkpt><trkpt lat="45.6239071" lon="9.4992741"><ele>216.00000000000003</ele><time>2026-04-02T11:58:40.522Z</time></trkpt><trkpt lat="45.6238583" lon="9.4993928"><ele>216.00000000000003</ele><time>2026-04-02T11:58:42.522Z</time></trkpt><trkpt lat="45.6238076" lon="9.49949"><ele>216.0</ele><time>2026-04-02T11:58:44.521Z</time></trkpt><trkpt lat="45.6237429" lon="9.499606"><ele>216.0</ele><time>2026-04-02T11:58:46.521Z</time></trkpt><trkpt lat="45.6236803" lon="9.4997181"><ele>216.0</ele><time>2026-04-02T11:58:48.522Z</time></trkpt><trkpt lat="45.6236183" lon="9.4998317"><ele>216.0</ele><time>2026-04-02T11:58:50.522Z</time></trkpt><trkpt lat="45.6235527" lon="9.4999186"><ele>216.0</ele><time>2026-04-02T11:58:52.522Z</time></trkpt><trkpt lat="45.6234923" lon="9.500007"><ele>216.0</ele><time>2026-04-02T11:58:54.521Z</time></trkpt><trkpt lat="45.6234362" lon="9.5000686"><ele>216.0</ele><time>2026-04-02T11:58:55.521Z</time></trkpt><trkpt lat="45.6233668" lon="9.5001608"><ele>216.0</ele><time>2026-04-02T11:58:57.522Z</time></trkpt><trkpt lat="45.6233086" lon="9.5002044"><ele>216.0</ele><time>2026-04-02T11:58:58.521Z</time></trkpt><trkpt lat="45.6232425" lon="9.5003032"><ele>216.00000000000003</ele><time>2026-04-02T11:59:00.521Z</time></trkpt><trkpt lat="45.6231804" lon="9.5004321"><ele>216.00000000000003</ele><time>2026-04-02T11:59:02.521Z</time></trkpt><trkpt lat="45.6231802" lon="9.5005734"><ele>216.0</ele><time>2026-04-02T11:59:04.522Z</time></trkpt><trkpt lat="45.6231822" lon="9.5007296"><ele>216.0</ele><time>2026-04-02T11:59:06.522Z</time></trkpt><trkpt lat="45.6231734" lon="9.5008715"><ele>216.0</ele><time>2026-04-02T11:59:08.521Z</time></trkpt><trkpt lat="45.6231284" lon="9.5010051"><ele>216.00000000000003</ele><time>2026-04-02T11:59:10.522Z</time></trkpt><trkpt lat="45.6230855" lon="9.5011121"><ele>216.00000000000003</ele><time>2026-04-02T11:59:12.522Z</time></trkpt><trkpt lat="45.6230276" lon="9.5012188"><ele>216.0</ele><time>2026-04-02T11:59:14.522Z</time></trkpt><trkpt lat="45.6229409" lon="9.5013139"><ele>216.0</ele><time>2026-04-02T11:59:16.521Z</time></trkpt><trkpt lat="45.6228761" lon="9.5014448"><ele>215.60000000000002</ele><time>2026-04-02T11:59:18.521Z</time></trkpt><trkpt lat="45.6228055" lon="9.501569"><ele>215.20000000000002</ele><time>2026-04-02T11:59:20.522Z</time></trkpt><trkpt lat="45.6227352" lon="9.5016943"><ele>214.79999999999998</ele><time>2026-04-02T11:59:22.521Z</time></trkpt><trkpt lat="45.6226752" lon="9.5018053"><ele>214.39999999999998</ele><time>2026-04-02T11:59:24.522Z</time></trkpt><trkpt lat="45.6225788" lon="9.5019179"><ele>214.0</ele><time>2026-04-02T11:59:26.522Z</time></trkpt><trkpt lat="45.62252" lon="9.5019723"><ele>214.0</ele><time>2026-04-02T11:59:27.522Z</time></trkpt><trkpt lat="45.6224664" lon="9.5020397"><ele>213.99999999999997</ele><time>2026-04-02T11:59:28.521Z</time></trkpt><trkpt lat="45.6223931" lon="9.5021475"><ele>213.99999999999997</ele><time>2026-04-02T11:59:30.521Z</time></trkpt><trkpt lat="45.6223288" lon="9.502218"><ele>214.0</ele><time>2026-04-02T11:59:32.522Z</time></trkpt><trkpt lat="45.6222563" lon="9.5023399"><ele>214.0</ele><time>2026-04-02T11:59:34.521Z</time></trkpt><trkpt lat="45.6222649" lon="9.5024603"><ele>213.79999999999998</ele><time>2026-04-02T11:59:36.522Z</time></trkpt><trkpt lat="45.622294" lon="9.5025883"><ele>213.59999999999997</ele><time>2026-04-02T11:59:38.521Z</time></trkpt><trkpt lat="45.6222713" lon="9.5026889"><ele>213.4</ele><time>2026-04-02T11:59:40.522Z</time></trkpt><trkpt lat="45.6222254" lon="9.5027922"><ele>213.2</ele><time>2026-04-02T11:59:42.521Z</time></trkpt><trkpt lat="45.6222097" lon="9.5029044"><ele>213.0</ele><time>2026-04-02T11:59:43.522Z</time></trkpt><trkpt lat="45.622123" lon="9.5030256"><ele>213.0</ele><time>2026-04-02T11:59:45.521Z</time></trkpt><trkpt lat="45.62204" lon="9.5031495"><ele>213.0</ele><time>2026-04-02T11:59:47.522Z</time></trkpt><trkpt lat="45.6219542" lon="9.5032837"><ele>213.0</ele><time>2026-04-02T11:59:49.521Z</time></trkpt><trkpt lat="45.6219111" lon="9.503352"><ele>213.0</ele><time>2026-04-02T11:59:50.522Z</time></trkpt><trkpt lat="45.6218602" lon="9.5034202"><ele>213.0</ele><time>2026-04-02T11:59:51.521Z</time></trkpt><trkpt lat="45.6218153" lon="9.5034854"><ele>213.0</ele><time>2026-04-02T11:59:52.522Z</time></trkpt><trkpt lat="45.6217699" lon="9.5035593"><ele>213.0</ele><time>2026-04-02T11:59:53.521Z</time></trkpt><trkpt lat="45.6217221" lon="9.5036408"><ele>213.0</ele><time>2026-04-02T11:59:54.521Z</time></trkpt><trkpt lat="45.6216648" lon="9.5036966"><ele>213.0</ele><time>2026-04-02T11:59:55.522Z</time></trkpt><trkpt lat="45.6215884" lon="9.5038222"><ele>213.0</ele><time>2026-04-02T11:59:57.522Z</time></trkpt><trkpt lat="45.6215419" lon="9.5038975"><ele>213.0</ele><time>2026-04-02T11:59:58.522Z</time></trkpt><trkpt lat="45.6214851" lon="9.5039732"><ele>213.0</ele><time>2026-04-02T11:59:59.522Z</time></trkpt><trkpt lat="45.6213932" lon="9.5040928"><ele>213.0</ele><time>2026-04-02T12:00:01.521Z</time></trkpt><trkpt lat="45.621341" lon="9.5041625"><ele>213.0</ele><time>2026-04-02T12:00:02.522Z</time></trkpt><trkpt lat="45.6212915" lon="9.5042484"><ele>213.0</ele><time>2026-04-02T12:00:03.522Z</time></trkpt><trkpt lat="45.62121" lon="9.5043744"><ele>213.0</ele><time>2026-04-02T12:00:05.522Z</time></trkpt><trkpt lat="45.6211378" lon="9.5044798"><ele>213.0</ele><time>2026-04-02T12:00:07.522Z</time></trkpt><trkpt lat="45.6210931" lon="9.5045506"><ele>213.0</ele><time>2026-04-02T12:00:08.521Z</time></trkpt><trkpt lat="45.6210319" lon="9.5046711"><ele>212.8</ele><time>2026-04-02T12:00:10.522Z</time></trkpt><trkpt lat="45.6209992" lon="9.5047964"><ele>212.60000000000002</ele><time>2026-04-02T12:00:12.521Z</time></trkpt><trkpt lat="45.6210503" lon="9.5049016"><ele>212.39999999999998</ele><time>2026-04-02T12:00:14.522Z</time></trkpt><trkpt lat="45.6211217" lon="9.5050403"><ele>212.2</ele><time>2026-04-02T12:00:16.521Z</time></trkpt><trkpt lat="45.6211987" lon="9.5051666"><ele>212.0</ele><time>2026-04-02T12:00:18.521Z</time></trkpt><trkpt lat="45.6212959" lon="9.5052823"><ele>212.0</ele><time>2026-04-02T12:00:20.522Z</time></trkpt><trkpt lat="45.6213791" lon="9.5053949"><ele>212.0</ele><time>2026-04-02T12:00:22.522Z</time></trkpt><trkpt lat="45.6214575" lon="9.5055245"><ele>212.0</ele><time>2026-04-02T12:00:24.521Z</time></trkpt><trkpt lat="45.6214743" lon="9.5056479"><ele>212.0</ele><time>2026-04-02T12:00:27.521Z</time></trkpt><trkpt lat="45.6214278" lon="9.5057256"><ele>212.0</ele><time>2026-04-02T12:00:29.522Z</time></trkpt><trkpt lat="45.6214158" lon="9.505817"><ele>212.0</ele><time>2026-04-02T12:00:30.522Z</time></trkpt><trkpt lat="45.6213602" lon="9.5059478"><ele>212.0</ele><time>2026-04-02T12:00:32.522Z</time></trkpt><trkpt lat="45.6213114" lon="9.506005"><ele>212.0</ele><time>2026-04-02T12:00:33.521Z</time></trkpt><trkpt lat="45.6212237" lon="9.506128"><ele>212.0</ele><time>2026-04-02T12:00:35.522Z</time></trkpt><trkpt lat="45.6211484" lon="9.5062263"><ele>212.0</ele><time>2026-04-02T12:00:37.522Z</time></trkpt><trkpt lat="45.6210676" lon="9.5062981"><ele>211.6</ele><time>2026-04-02T12:00:39.522Z</time></trkpt><trkpt lat="45.620989" lon="9.5063827"><ele>211.2</ele><time>2026-04-02T12:00:41.522Z</time></trkpt><trkpt lat="45.6208952" lon="9.5064626"><ele>210.8</ele><time>2026-04-02T12:00:43.521Z</time></trkpt><trkpt lat="45.6207686" lon="9.5065408"><ele>210.4</ele><time>2026-04-02T12:00:45.521Z</time></trkpt><trkpt lat="45.6206959" lon="9.5066126"><ele>210.0</ele><time>2026-04-02T12:00:47.521Z</time></trkpt><trkpt lat="45.6206154" lon="9.5066538"><ele>210.0</ele><time>2026-04-02T12:00:49.521Z</time></trkpt><trkpt lat="45.6205595" lon="9.5067025"><ele>210.0</ele><time>2026-04-02T12:00:50.521Z</time></trkpt><trkpt lat="45.6204989" lon="9.506735"><ele>210.0</ele><time>2026-04-02T12:00:51.521Z</time></trkpt><trkpt lat="45.620435" lon="9.5067782"><ele>210.0</ele><time>2026-04-02T12:00:52.521Z</time></trkpt><trkpt lat="45.62037" lon="9.5068137"><ele>210.0</ele><time>2026-04-02T12:00:53.522Z</time></trkpt><trkpt lat="45.620288" lon="9.5068618"><ele>210.0</ele><time>2026-04-02T12:00:54.522Z</time></trkpt><trkpt lat="45.6201768" lon="9.5069227"><ele>209.83333333333334</ele><time>2026-04-02T12:00:56.522Z</time></trkpt><trkpt lat="45.6200672" lon="9.5069912"><ele>209.66666666666669</ele><time>2026-04-02T12:00:58.521Z</time></trkpt><trkpt lat="45.6199885" lon="9.5070103"><ele>209.5</ele><time>2026-04-02T12:00:59.522Z</time></trkpt><trkpt lat="45.6199367" lon="9.5070674"><ele>209.33333333333334</ele><time>2026-04-02T12:01:00.521Z</time></trkpt><trkpt lat="45.6198462" lon="9.5071162"><ele>209.16666666666669</ele><time>2026-04-02T12:01:01.522Z</time></trkpt><trkpt lat="45.6197687" lon="9.5071534"><ele>209.0</ele><time>2026-04-02T12:01:02.521Z</time></trkpt><trkpt lat="45.6197095" lon="9.507203"><ele>209.0</ele><time>2026-04-02T12:01:03.521Z</time></trkpt><trkpt lat="45.6196492" lon="9.50723"><ele>209.0</ele><time>2026-04-02T12:01:04.521Z</time></trkpt><trkpt lat="45.6195689" lon="9.5073169"><ele>209.0</ele><time>2026-04-02T12:01:06.522Z</time></trkpt><trkpt lat="45.6195162" lon="9.5073688"><ele>209.0</ele><time>2026-04-02T12:01:07.521Z</time></trkpt><trkpt lat="45.619387" lon="9.5074433"><ele>209.0</ele><time>2026-04-02T12:01:09.522Z</time></trkpt><trkpt lat="45.6193051" lon="9.5074982"><ele>208.85714285714286</ele><time>2026-04-02T12:01:10.521Z</time></trkpt><trkpt lat="45.6192432" lon="9.5075502"><ele>208.71428571428572</ele><time>2026-04-02T12:01:11.522Z</time></trkpt><trkpt lat="45.6191794" lon="9.5076118"><ele>208.57142857142856</ele><time>2026-04-02T12:01:12.522Z</time></trkpt><trkpt lat="45.6191245" lon="9.5076779"><ele>208.42857142857144</ele><time>2026-04-02T12:01:13.522Z</time></trkpt><trkpt lat="45.6190785" lon="9.5077406"><ele>208.2857142857143</ele><time>2026-04-02T12:01:14.521Z</time></trkpt><trkpt lat="45.6190264" lon="9.5078054"><ele>208.14285714285714</ele><time>2026-04-02T12:01:15.521Z</time></trkpt><trkpt lat="45.6189802" lon="9.5078816"><ele>208.0</ele><time>2026-04-02T12:01:16.521Z</time></trkpt><trkpt lat="45.6189272" lon="9.5079573"><ele>207.49999999999997</ele><time>2026-04-02T12:01:17.522Z</time></trkpt><trkpt lat="45.6188851" lon="9.5080497"><ele>207.0</ele><time>2026-04-02T12:01:18.522Z</time></trkpt><trkpt lat="45.6188331" lon="9.5081301"><ele>206.5</ele><time>2026-04-02T12:01:19.522Z</time></trkpt><trkpt lat="45.6187726" lon="9.5081947"><ele>206.0</ele><time>2026-04-02T12:01:20.522Z</time></trkpt><trkpt lat="45.6186918" lon="9.5082701"><ele>205.49999999999997</ele><time>2026-04-02T12:01:21.522Z</time></trkpt><trkpt lat="45.6185951" lon="9.5083494"><ele>205.0</ele><time>2026-04-02T12:01:22.521Z</time></trkpt><trkpt lat="45.6185274" lon="9.5084115"><ele>204.99999999999997</ele><time>2026-04-02T12:01:23.521Z</time></trkpt><trkpt lat="45.6184566" lon="9.5084863"><ele>205.0</ele><time>2026-04-02T12:01:24.522Z</time></trkpt><trkpt lat="45.618385" lon="9.5085676"><ele>205.0</ele><time>2026-04-02T12:01:25.521Z</time></trkpt><trkpt lat="45.6183295" lon="9.5086609"><ele>205.0</ele><time>2026-04-02T12:01:26.521Z</time></trkpt><trkpt lat="45.6182783" lon="9.5087318"><ele>204.99999999999997</ele><time>2026-04-02T12:01:27.521Z</time></trkpt><trkpt lat="45.6182304" lon="9.5087974"><ele>205.0</ele><time>2026-04-02T12:01:28.521Z</time></trkpt><trkpt lat="45.6181638" lon="9.5088736"><ele>204.6</ele><time>2026-04-02T12:01:29.521Z</time></trkpt><trkpt lat="45.618081" lon="9.5089402"><ele>204.2</ele><time>2026-04-02T12:01:30.522Z</time></trkpt><trkpt lat="45.6179887" lon="9.5090475"><ele>203.8</ele><time>2026-04-02T12:01:32.521Z</time></trkpt><trkpt lat="45.6179085" lon="9.5091068"><ele>203.4</ele><time>2026-04-02T12:01:33.522Z</time></trkpt><trkpt lat="45.6178381" lon="9.5091682"><ele>203.0</ele><time>2026-04-02T12:01:34.521Z</time></trkpt><trkpt lat="45.617777" lon="9.5092257"><ele>203.0</ele><time>2026-04-02T12:01:35.521Z</time></trkpt><trkpt lat="45.6177217" lon="9.5092799"><ele>203.0</ele><time>2026-04-02T12:01:36.521Z</time></trkpt><trkpt lat="45.6175975" lon="9.5093969"><ele>203.0</ele><time>2026-04-02T12:01:38.522Z</time></trkpt><trkpt lat="45.6174982" lon="9.5095177"><ele>203.0</ele><time>2026-04-02T12:01:40.521Z</time></trkpt><trkpt lat="45.617418" lon="9.5095843"><ele>203.0</ele><time>2026-04-02T12:01:41.521Z</time></trkpt><trkpt lat="45.6173276" lon="9.5096929"><ele>202.4</ele><time>2026-04-02T12:01:43.522Z</time></trkpt><trkpt lat="45.617281" lon="9.5097563"><ele>201.8</ele><time>2026-04-02T12:01:44.521Z</time></trkpt><trkpt lat="45.6171763" lon="9.509864"><ele>201.2</ele><time>2026-04-02T12:01:46.521Z</time></trkpt><trkpt lat="45.6170558" lon="9.5099703"><ele>200.6</ele><time>2026-04-02T12:01:48.522Z</time></trkpt><trkpt lat="45.6169857" lon="9.5100234"><ele>200.0</ele><time>2026-04-02T12:01:49.521Z</time></trkpt><trkpt lat="45.616938" lon="9.5100832"><ele>200.00000000000003</ele><time>2026-04-02T12:01:50.522Z</time></trkpt><trkpt lat="45.6168561" lon="9.5101095"><ele>200.0</ele><time>2026-04-02T12:01:51.521Z</time></trkpt><trkpt lat="45.6167989" lon="9.5101581"><ele>200.0</ele><time>2026-04-02T12:01:52.522Z</time></trkpt><trkpt lat="45.6167129" lon="9.5101892"><ele>200.0</ele><time>2026-04-02T12:01:53.522Z</time></trkpt><trkpt lat="45.6166322" lon="9.5102114"><ele>200.00000000000003</ele><time>2026-04-02T12:01:54.521Z</time></trkpt><trkpt lat="45.6165666" lon="9.5102278"><ele>200.0</ele><time>2026-04-02T12:01:55.522Z</time></trkpt><trkpt lat="45.6164987" lon="9.5102498"><ele>200.00000000000003</ele><time>2026-04-02T12:01:56.521Z</time></trkpt><trkpt lat="45.6164376" lon="9.5102725"><ele>200.0</ele><time>2026-04-02T12:01:57.521Z</time></trkpt><trkpt lat="45.616358" lon="9.5102804"><ele>200.0</ele><time>2026-04-02T12:01:58.521Z</time></trkpt><trkpt lat="45.6162738" lon="9.5103085"><ele>200.0</ele><time>2026-04-02T12:01:59.521Z</time></trkpt><trkpt lat="45.616191" lon="9.5103355"><ele>200.00000000000003</ele><time>2026-04-02T12:02:00.522Z</time></trkpt><trkpt lat="45.6160817" lon="9.5103816"><ele>200.0</ele><time>2026-04-02T12:02:01.521Z</time></trkpt><trkpt lat="45.6160233" lon="9.5104435"><ele>198.83333333333334</ele><time>2026-04-02T12:02:02.522Z</time></trkpt><trkpt lat="45.6159648" lon="9.5105337"><ele>197.66666666666669</ele><time>2026-04-02T12:02:03.521Z</time></trkpt><trkpt lat="45.615939" lon="9.5106253"><ele>196.5</ele><time>2026-04-02T12:02:04.521Z</time></trkpt><trkpt lat="45.6159001" lon="9.5107129"><ele>195.33333333333331</ele><time>2026-04-02T12:02:05.522Z</time></trkpt><trkpt lat="45.615871" lon="9.5108003"><ele>194.16666666666666</ele><time>2026-04-02T12:02:06.522Z</time></trkpt><trkpt lat="45.6157964" lon="9.5109325"><ele>193.0</ele><time>2026-04-02T12:02:08.521Z</time></trkpt><trkpt lat="45.6157502" lon="9.5109957"><ele>193.0</ele><time>2026-04-02T12:02:09.521Z</time></trkpt><trkpt lat="45.6156574" lon="9.5111073"><ele>193.0</ele><time>2026-04-02T12:02:11.522Z</time></trkpt><trkpt lat="45.6155867" lon="9.5112372"><ele>193.0</ele><time>2026-04-02T12:02:13.521Z</time></trkpt><trkpt lat="45.6155062" lon="9.5113559"><ele>193.0</ele><time>2026-04-02T12:02:15.521Z</time></trkpt><trkpt lat="45.6154618" lon="9.5114519"><ele>193.0</ele><time>2026-04-02T12:02:16.522Z</time></trkpt><trkpt lat="45.6154272" lon="9.5115475"><ele>192.60000000000002</ele><time>2026-04-02T12:02:17.521Z</time></trkpt><trkpt lat="45.6153893" lon="9.511652"><ele>192.20000000000002</ele><time>2026-04-02T12:02:18.521Z</time></trkpt><trkpt lat="45.6153411" lon="9.5117457"><ele>191.8</ele><time>2026-04-02T12:02:19.521Z</time></trkpt><trkpt lat="45.6153171" lon="9.5118683"><ele>191.4</ele><time>2026-04-02T12:02:20.521Z</time></trkpt><trkpt lat="45.6152932" lon="9.5119713"><ele>191.0</ele><time>2026-04-02T12:02:21.522Z</time></trkpt><trkpt lat="45.615265" lon="9.5121593"><ele>190.57142857142858</ele><time>2026-04-02T12:02:23.522Z</time></trkpt><trkpt lat="45.6152412" lon="9.5122743"><ele>190.14285714285714</ele><time>2026-04-02T12:02:24.522Z</time></trkpt><trkpt lat="45.6152142" lon="9.5123706"><ele>189.71428571428572</ele><time>2026-04-02T12:02:25.522Z</time></trkpt><trkpt lat="45.6151997" lon="9.5124761"><ele>189.28571428571428</ele><time>2026-04-02T12:02:26.521Z</time></trkpt><trkpt lat="45.6151923" lon="9.5125659"><ele>188.85714285714283</ele><time>2026-04-02T12:02:27.522Z</time></trkpt><trkpt lat="45.6151644" lon="9.5126571"><ele>188.42857142857142</ele><time>2026-04-02T12:02:31.521Z</time></trkpt><trkpt lat="45.6151651" lon="9.5127511"><ele>188.0</ele><time>2026-04-02T12:02:42.521Z</time></trkpt><trkpt lat="45.6151481" lon="9.5128609"><ele>188.0</ele><time>2026-04-02T12:02:44.521Z</time></trkpt><trkpt lat="45.615116" lon="9.5130172"><ele>188.0</ele><time>2026-04-02T12:02:46.522Z</time></trkpt><trkpt lat="45.6151048" lon="9.5131127"><ele>188.0</ele><time>2026-04-02T12:02:47.521Z</time></trkpt><trkpt lat="45.6150837" lon="9.513261"><ele>188.0</ele><time>2026-04-02T12:02:49.521Z</time></trkpt><trkpt lat="45.6150568" lon="9.5134223"><ele>188.0</ele><time>2026-04-02T12:02:51.522Z</time></trkpt><trkpt lat="45.6150359" lon="9.5135396"><ele>188.0</ele><time>2026-04-02T12:02:53.522Z</time></trkpt><trkpt lat="45.615021" lon="9.5136456"><ele>188.0</ele><time>2026-04-02T12:02:54.521Z</time></trkpt><trkpt lat="45.6150015" lon="9.5137461"><ele>188.0</ele><time>2026-04-02T12:02:55.521Z</time></trkpt><trkpt lat="45.6149917" lon="9.5138429"><ele>188.0</ele><time>2026-04-02T12:02:56.521Z</time></trkpt><trkpt lat="45.6149825" lon="9.5139333"><ele>188.0</ele><time>2026-04-02T12:02:57.521Z</time></trkpt><trkpt lat="45.6149575" lon="9.5140846"><ele>188.0</ele><time>2026-04-02T12:02:59.522Z</time></trkpt><trkpt lat="45.6149397" lon="9.5142329"><ele>187.2</ele><time>2026-04-02T12:03:01.521Z</time></trkpt><trkpt lat="45.6148965" lon="9.5143635"><ele>186.4</ele><time>2026-04-02T12:03:03.868Z</time></trkpt><trkpt lat="45.6148522" lon="9.5145"><ele>185.6</ele><time>2026-04-02T12:03:05.519Z</time></trkpt><trkpt lat="45.6147737" lon="9.5146162"><ele>184.79999999999998</ele><time>2026-04-02T12:03:06.524Z</time></trkpt><trkpt lat="45.6147292" lon="9.5147163"><ele>184.0</ele><time>2026-04-02T12:03:07.522Z</time></trkpt><trkpt lat="45.6146694" lon="9.5147906"><ele>182.16666666666669</ele><time>2026-04-02T12:03:08.521Z</time></trkpt><trkpt lat="45.6146224" lon="9.514866"><ele>180.33333333333334</ele><time>2026-04-02T12:03:09.523Z</time></trkpt><trkpt lat="45.6145684" lon="9.514926"><ele>178.5</ele><time>2026-04-02T12:03:10.523Z</time></trkpt><trkpt lat="45.6145065" lon="9.5150087"><ele>176.66666666666666</ele><time>2026-04-02T12:03:12.523Z</time></trkpt><trkpt lat="45.6145224" lon="9.5151095"><ele>174.83333333333331</ele><time>2026-04-02T12:03:15.523Z</time></trkpt><trkpt lat="45.6145993" lon="9.5150448"><ele>173.0</ele><time>2026-04-02T12:03:18.523Z</time></trkpt><trkpt lat="45.6146788" lon="9.5149776"><ele>173.0</ele><time>2026-04-02T12:03:20.523Z</time></trkpt><trkpt lat="45.6147584" lon="9.5148962"><ele>173.0</ele><time>2026-04-02T12:03:22.523Z</time></trkpt><trkpt lat="45.614838" lon="9.5147552"><ele>173.0</ele><time>2026-04-02T12:03:24.523Z</time></trkpt><trkpt lat="45.6149081" lon="9.514608"><ele>173.0</ele><time>2026-04-02T12:03:26.523Z</time></trkpt><trkpt lat="45.6149402" lon="9.5145112"><ele>173.0</ele><time>2026-04-02T12:03:27.522Z</time></trkpt><trkpt lat="45.6149802" lon="9.5144276"><ele>174.83333333333331</ele><time>2026-04-02T12:03:28.522Z</time></trkpt><trkpt lat="45.6150121" lon="9.5143327"><ele>176.66666666666666</ele><time>2026-04-02T12:03:29.523Z</time></trkpt><trkpt lat="45.615034" lon="9.514248"><ele>178.5</ele><time>2026-04-02T12:03:30.523Z</time></trkpt><trkpt lat="45.6150771" lon="9.5140819"><ele>180.33333333333334</ele><time>2026-04-02T12:03:32.523Z</time></trkpt><trkpt lat="45.6151004" lon="9.5139836"><ele>182.16666666666669</ele><time>2026-04-02T12:03:33.522Z</time></trkpt><trkpt lat="45.6151233" lon="9.5138698"><ele>184.0</ele><time>2026-04-02T12:03:34.522Z</time></trkpt><trkpt lat="45.6151491" lon="9.5137411"><ele>184.66666666666669</ele><time>2026-04-02T12:03:35.523Z</time></trkpt><trkpt lat="45.6151905" lon="9.5136439"><ele>185.33333333333334</ele><time>2026-04-02T12:03:36.523Z</time></trkpt><trkpt lat="45.6152226" lon="9.5135236"><ele>186.0</ele><time>2026-04-02T12:03:37.522Z</time></trkpt><trkpt lat="45.6152534" lon="9.5134389"><ele>186.66666666666666</ele><time>2026-04-02T12:03:38.522Z</time></trkpt><trkpt lat="45.615303" lon="9.5133098"><ele>187.33333333333331</ele><time>2026-04-02T12:03:40.522Z</time></trkpt><trkpt lat="45.6153465" lon="9.5133791"><ele>188.0</ele><time>2026-04-02T12:03:42.522Z</time></trkpt><trkpt lat="45.6153153" lon="9.5134651"><ele>188.0</ele><time>2026-04-02T12:03:44.522Z</time></trkpt><trkpt lat="45.6152985" lon="9.5136294"><ele>188.0</ele><time>2026-04-02T12:03:46.523Z</time></trkpt><trkpt lat="45.6152815" lon="9.5137555"><ele>188.0</ele><time>2026-04-02T12:03:48.522Z</time></trkpt><trkpt lat="45.6152817" lon="9.5138676"><ele>188.0</ele><time>2026-04-02T12:03:50.523Z</time></trkpt><trkpt lat="45.6152825" lon="9.5140069"><ele>188.0</ele><time>2026-04-02T12:03:52.522Z</time></trkpt><trkpt lat="45.6152868" lon="9.5141022"><ele>188.0</ele><time>2026-04-02T12:03:53.522Z</time></trkpt><trkpt lat="45.6152847" lon="9.5142006"><ele>187.33333333333331</ele><time>2026-04-02T12:03:54.522Z</time></trkpt><trkpt lat="45.6152801" lon="9.5143043"><ele>186.66666666666666</ele><time>2026-04-02T12:03:55.522Z</time></trkpt><trkpt lat="45.6152582" lon="9.5144099"><ele>186.0</ele><time>2026-04-02T12:03:56.522Z</time></trkpt><trkpt lat="45.6152545" lon="9.5145339"><ele>185.33333333333334</ele><time>2026-04-02T12:03:57.522Z</time></trkpt><trkpt lat="45.6152423" lon="9.5146674"><ele>184.66666666666669</ele><time>2026-04-02T12:03:58.523Z</time></trkpt><trkpt lat="45.615233" lon="9.514792"><ele>184.0</ele><time>2026-04-02T12:03:59.522Z</time></trkpt><trkpt lat="45.6152182" lon="9.5149285"><ele>182.16666666666669</ele><time>2026-04-02T12:04:00.523Z</time></trkpt><trkpt lat="45.6151969" lon="9.5150453"><ele>180.33333333333334</ele><time>2026-04-02T12:04:01.522Z</time></trkpt><trkpt lat="45.6151863" lon="9.5151552"><ele>178.5</ele><time>2026-04-02T12:04:02.522Z</time></trkpt><trkpt lat="45.615167" lon="9.5152601"><ele>176.66666666666666</ele><time>2026-04-02T12:04:03.523Z</time></trkpt><trkpt lat="45.6151572" lon="9.5153621"><ele>174.83333333333331</ele><time>2026-04-02T12:04:04.522Z</time></trkpt><trkpt lat="45.6151546" lon="9.5154757"><ele>173.0</ele><time>2026-04-02T12:04:05.522Z</time></trkpt><trkpt lat="45.61515" lon="9.5155668"><ele>170.5</ele><time>2026-04-02T12:04:06.522Z</time></trkpt><trkpt lat="45.6151208" lon="9.5156988"><ele>168.0</ele><time>2026-04-02T12:04:08.522Z</time></trkpt><trkpt lat="45.6151456" lon="9.5157887"><ele>165.5</ele><time>2026-04-02T12:04:11.522Z</time></trkpt><trkpt lat="45.6152082" lon="9.5158252"><ele>163.0</ele><time>2026-04-02T12:04:13.522Z</time></trkpt><trkpt lat="45.6152794" lon="9.5158598"><ele>160.5</ele><time>2026-04-02T12:04:15.523Z</time></trkpt><trkpt lat="45.6153566" lon="9.5158887"><ele>158.0</ele><time>2026-04-02T12:04:17.523Z</time></trkpt><trkpt lat="45.6154358" lon="9.5159195"><ele>157.6</ele><time>2026-04-02T12:04:19.522Z</time></trkpt><trkpt lat="45.6155184" lon="9.5159516"><ele>157.20000000000002</ele><time>2026-04-02T12:04:21.523Z</time></trkpt><trkpt lat="45.6156013" lon="9.5159761"><ele>156.8</ele><time>2026-04-02T12:04:23.523Z</time></trkpt><trkpt lat="45.6156678" lon="9.5159739"><ele>156.4</ele><time>2026-04-02T12:04:24.523Z</time></trkpt><trkpt lat="45.6157955" lon="9.5160094"><ele>156.0</ele><time>2026-04-02T12:04:26.522Z</time></trkpt><trkpt lat="45.6159201" lon="9.5160405"><ele>156.0</ele><time>2026-04-02T12:04:28.522Z</time></trkpt><trkpt lat="45.6159837" lon="9.5160566"><ele>156.0</ele><time>2026-04-02T12:04:29.523Z</time></trkpt><trkpt lat="45.6160887" lon="9.5160944"><ele>156.0</ele><time>2026-04-02T12:04:31.523Z</time></trkpt><trkpt lat="45.6162152" lon="9.5161362"><ele>156.0</ele><time>2026-04-02T12:04:33.522Z</time></trkpt><trkpt lat="45.6162878" lon="9.5161664"><ele>156.0</ele><time>2026-04-02T12:04:34.522Z</time></trkpt><trkpt lat="45.6163979" lon="9.5162047"><ele>156.2</ele><time>2026-04-02T12:04:36.522Z</time></trkpt><trkpt lat="45.6165144" lon="9.5162344"><ele>156.39999999999998</ele><time>2026-04-02T12:04:38.522Z</time></trkpt><trkpt lat="45.6165795" lon="9.5162523"><ele>156.6</ele><time>2026-04-02T12:04:39.523Z</time></trkpt><trkpt lat="45.6166453" lon="9.5162771"><ele>156.79999999999998</ele><time>2026-04-02T12:04:40.522Z</time></trkpt><trkpt lat="45.6167795" lon="9.5163036"><ele>157.0</ele><time>2026-04-02T12:04:42.523Z</time></trkpt><trkpt lat="45.6168444" lon="9.5163348"><ele>156.33333333333334</ele><time>2026-04-02T12:04:43.522Z</time></trkpt><trkpt lat="45.616908" lon="9.5163589"><ele>155.66666666666669</ele><time>2026-04-02T12:04:44.523Z</time></trkpt><trkpt lat="45.6169763" lon="9.5163747"><ele>155.0</ele><time>2026-04-02T12:04:45.523Z</time></trkpt><trkpt lat="45.6170524" lon="9.5163906"><ele>154.33333333333334</ele><time>2026-04-02T12:04:46.523Z</time></trkpt><trkpt lat="45.6171691" lon="9.5164336"><ele>153.66666666666666</ele><time>2026-04-02T12:04:48.523Z</time></trkpt><trkpt lat="45.6172296" lon="9.5164632"><ele>153.0</ele><time>2026-04-02T12:04:49.522Z</time></trkpt><trkpt lat="45.6172952" lon="9.5164881"><ele>153.0</ele><time>2026-04-02T12:04:50.523Z</time></trkpt><trkpt lat="45.6173631" lon="9.5165118"><ele>153.0</ele><time>2026-04-02T12:04:51.523Z</time></trkpt><trkpt lat="45.6174315" lon="9.5165371"><ele>153.0</ele><time>2026-04-02T12:04:52.523Z</time></trkpt><trkpt lat="45.6174943" lon="9.5165615"><ele>153.0</ele><time>2026-04-02T12:04:53.523Z</time></trkpt><trkpt lat="45.6176096" lon="9.5166054"><ele>153.0</ele><time>2026-04-02T12:04:55.522Z</time></trkpt><trkpt lat="45.6177376" lon="9.5166476"><ele>153.0</ele><time>2026-04-02T12:04:57.522Z</time></trkpt><trkpt lat="45.6177996" lon="9.5166727"><ele>153.0</ele><time>2026-04-02T12:04:58.522Z</time></trkpt><trkpt lat="45.6178637" lon="9.5166902"><ele>153.0</ele><time>2026-04-02T12:04:59.523Z</time></trkpt><trkpt lat="45.6179351" lon="9.5167148"><ele>153.0</ele><time>2026-04-02T12:05:00.523Z</time></trkpt><trkpt lat="45.618061" lon="9.5167597"><ele>153.0</ele><time>2026-04-02T12:05:02.522Z</time></trkpt><trkpt lat="45.6181249" lon="9.516777"><ele>153.0</ele><time>2026-04-02T12:05:03.522Z</time></trkpt><trkpt lat="45.618253" lon="9.5168211"><ele>153.0</ele><time>2026-04-02T12:05:05.523Z</time></trkpt><trkpt lat="45.6183206" lon="9.5168372"><ele>153.0</ele><time>2026-04-02T12:05:06.522Z</time></trkpt><trkpt lat="45.6183851" lon="9.5168567"><ele>153.0</ele><time>2026-04-02T12:05:07.522Z</time></trkpt><trkpt lat="45.6185024" lon="9.5168991"><ele>153.0</ele><time>2026-04-02T12:05:09.522Z</time></trkpt><trkpt lat="45.6185644" lon="9.5169252"><ele>153.0</ele><time>2026-04-02T12:05:10.522Z</time></trkpt><trkpt lat="45.618631" lon="9.5169529"><ele>153.0</ele><time>2026-04-02T12:05:11.523Z</time></trkpt><trkpt lat="45.618704" lon="9.5169954"><ele>153.4</ele><time>2026-04-02T12:05:12.523Z</time></trkpt><trkpt lat="45.6187679" lon="9.5170178"><ele>153.8</ele><time>2026-04-02T12:05:13.523Z</time></trkpt><trkpt lat="45.6188871" lon="9.517081"><ele>154.2</ele><time>2026-04-02T12:05:15.522Z</time></trkpt><trkpt lat="45.618952" lon="9.5170973"><ele>154.6</ele><time>2026-04-02T12:05:16.522Z</time></trkpt><trkpt lat="45.6190771" lon="9.5171231"><ele>155.0</ele><time>2026-04-02T12:05:18.523Z</time></trkpt><trkpt lat="45.6191456" lon="9.5171408"><ele>154.6</ele><time>2026-04-02T12:05:19.523Z</time></trkpt><trkpt lat="45.6192146" lon="9.5171562"><ele>154.2</ele><time>2026-04-02T12:05:20.522Z</time></trkpt><trkpt lat="45.6192827" lon="9.5171686"><ele>153.8</ele><time>2026-04-02T12:05:21.523Z</time></trkpt><trkpt lat="45.6194006" lon="9.5172283"><ele>153.4</ele><time>2026-04-02T12:05:23.522Z</time></trkpt><trkpt lat="45.61952" lon="9.5172555"><ele>153.0</ele><time>2026-04-02T12:05:25.523Z</time></trkpt><trkpt lat="45.6195888" lon="9.5172662"><ele>153.0</ele><time>2026-04-02T12:05:26.522Z</time></trkpt><trkpt lat="45.6197083" lon="9.5172764"><ele>153.0</ele><time>2026-04-02T12:05:28.523Z</time></trkpt><trkpt lat="45.6197743" lon="9.5172831"><ele>153.0</ele><time>2026-04-02T12:05:29.522Z</time></trkpt><trkpt lat="45.6198429" lon="9.5172998"><ele>153.0</ele><time>2026-04-02T12:05:30.523Z</time></trkpt><trkpt lat="45.6199664" lon="9.5173202"><ele>153.0</ele><time>2026-04-02T12:05:32.522Z</time></trkpt><trkpt lat="45.6200316" lon="9.5173361"><ele>153.0</ele><time>2026-04-02T12:05:33.522Z</time></trkpt><trkpt lat="45.6200951" lon="9.5173483"><ele>153.0</ele><time>2026-04-02T12:05:34.523Z</time></trkpt><trkpt lat="45.6201596" lon="9.5173591"><ele>153.0</ele><time>2026-04-02T12:05:35.523Z</time></trkpt><trkpt lat="45.6202941" lon="9.5173843"><ele>153.0</ele><time>2026-04-02T12:05:37.522Z</time></trkpt><trkpt lat="45.6204166" lon="9.5174133"><ele>153.0</ele><time>2026-04-02T12:05:39.523Z</time></trkpt><trkpt lat="45.6204823" lon="9.517432"><ele>153.0</ele><time>2026-04-02T12:05:40.522Z</time></trkpt><trkpt lat="45.6205588" lon="9.5174616"><ele>153.20000000000002</ele><time>2026-04-02T12:05:41.523Z</time></trkpt><trkpt lat="45.6206797" lon="9.5174888"><ele>153.4</ele><time>2026-04-02T12:05:43.522Z</time></trkpt><trkpt lat="45.6207599" lon="9.5175068"><ele>153.60000000000002</ele><time>2026-04-02T12:05:44.523Z</time></trkpt><trkpt lat="45.6208215" lon="9.5175265"><ele>153.8</ele><time>2026-04-02T12:05:45.523Z</time></trkpt><trkpt lat="45.620939" lon="9.5175526"><ele>154.0</ele><time>2026-04-02T12:05:47.523Z</time></trkpt><trkpt lat="45.621062" lon="9.517576"><ele>154.0</ele><time>2026-04-02T12:05:49.523Z</time></trkpt><trkpt lat="45.6211272" lon="9.5175808"><ele>154.0</ele><time>2026-04-02T12:05:50.523Z</time></trkpt><trkpt lat="45.6211975" lon="9.5175876"><ele>154.0</ele><time>2026-04-02T12:05:51.523Z</time></trkpt><trkpt lat="45.6212687" lon="9.5175904"><ele>154.0</ele><time>2026-04-02T12:05:52.522Z</time></trkpt><trkpt lat="45.6213398" lon="9.5175942"><ele>154.0</ele><time>2026-04-02T12:05:53.522Z</time></trkpt><trkpt lat="45.6214749" lon="9.5175813"><ele>154.0</ele><time>2026-04-02T12:05:55.522Z</time></trkpt><trkpt lat="45.6215953" lon="9.5175385"><ele>153.4</ele><time>2026-04-02T12:05:57.522Z</time></trkpt><trkpt lat="45.6217249" lon="9.5174921"><ele>152.8</ele><time>2026-04-02T12:05:59.523Z</time></trkpt><trkpt lat="45.621789" lon="9.5174561"><ele>152.2</ele><time>2026-04-02T12:06:00.523Z</time></trkpt><trkpt lat="45.6218492" lon="9.5174276"><ele>151.6</ele><time>2026-04-02T12:06:01.522Z</time></trkpt><trkpt lat="45.6219173" lon="9.5174068"><ele>151.0</ele><time>2026-04-02T12:06:02.522Z</time></trkpt><trkpt lat="45.6220343" lon="9.5173639"><ele>150.66666666666669</ele><time>2026-04-02T12:06:04.523Z</time></trkpt><trkpt lat="45.6221005" lon="9.5173481"><ele>150.33333333333334</ele><time>2026-04-02T12:06:05.523Z</time></trkpt><trkpt lat="45.6222222" lon="9.5172977"><ele>150.0</ele><time>2026-04-02T12:06:07.522Z</time></trkpt><trkpt lat="45.6223417" lon="9.5172386"><ele>149.66666666666666</ele><time>2026-04-02T12:06:09.522Z</time></trkpt><trkpt lat="45.6224031" lon="9.5172126"><ele>149.33333333333331</ele><time>2026-04-02T12:06:10.522Z</time></trkpt><trkpt lat="45.6224653" lon="9.5171913"><ele>149.0</ele><time>2026-04-02T12:06:11.523Z</time></trkpt><trkpt lat="45.6225297" lon="9.5171382"><ele>149.0</ele><time>2026-04-02T12:06:12.522Z</time></trkpt><trkpt lat="45.6225926" lon="9.5171139"><ele>149.0</ele><time>2026-04-02T12:06:13.523Z</time></trkpt><trkpt lat="45.6227144" lon="9.5170728"><ele>149.0</ele><time>2026-04-02T12:06:15.522Z</time></trkpt><trkpt lat="45.6227796" lon="9.5170769"><ele>149.0</ele><time>2026-04-02T12:06:16.522Z</time></trkpt><trkpt lat="45.6228993" lon="9.5170444"><ele>149.0</ele><time>2026-04-02T12:06:18.522Z</time></trkpt><trkpt lat="45.6230116" lon="9.517005"><ele>149.5</ele><time>2026-04-02T12:06:20.523Z</time></trkpt><trkpt lat="45.6230827" lon="9.5169765"><ele>150.0</ele><time>2026-04-02T12:06:21.522Z</time></trkpt><trkpt lat="45.6231928" lon="9.5168946"><ele>150.5</ele><time>2026-04-02T12:06:23.523Z</time></trkpt><trkpt lat="45.6232463" lon="9.5168443"><ele>151.0</ele><time>2026-04-02T12:06:24.523Z</time></trkpt><trkpt lat="45.6233139" lon="9.5167916"><ele>151.5</ele><time>2026-04-02T12:06:25.522Z</time></trkpt><trkpt lat="45.6233713" lon="9.5167445"><ele>152.0</ele><time>2026-04-02T12:06:26.522Z</time></trkpt><trkpt lat="45.6234696" lon="9.5166715"><ele>152.0</ele><time>2026-04-02T12:06:28.523Z</time></trkpt><trkpt lat="45.6235308" lon="9.5166353"><ele>152.0</ele><time>2026-04-02T12:06:29.522Z</time></trkpt><trkpt lat="45.6236318" lon="9.5165338"><ele>152.0</ele><time>2026-04-02T12:06:31.522Z</time></trkpt><trkpt lat="45.623685" lon="9.5164752"><ele>152.0</ele><time>2026-04-02T12:06:32.523Z</time></trkpt><trkpt lat="45.6237398" lon="9.5164171"><ele>152.0</ele><time>2026-04-02T12:06:33.523Z</time></trkpt><trkpt lat="45.623792" lon="9.5163626"><ele>152.0</ele><time>2026-04-02T12:06:34.523Z</time></trkpt><trkpt lat="45.6238955" lon="9.5162568"><ele>151.83333333333331</ele><time>2026-04-02T12:06:36.522Z</time></trkpt><trkpt lat="45.6239959" lon="9.5161435"><ele>151.66666666666666</ele><time>2026-04-02T12:06:38.523Z</time></trkpt><trkpt lat="45.6240503" lon="9.5160957"><ele>151.5</ele><time>2026-04-02T12:06:39.522Z</time></trkpt><trkpt lat="45.6241021" lon="9.516042"><ele>151.33333333333334</ele><time>2026-04-02T12:06:40.522Z</time></trkpt><trkpt lat="45.6241526" lon="9.5159753"><ele>151.16666666666669</ele><time>2026-04-02T12:06:41.523Z</time></trkpt><trkpt lat="45.6241999" lon="9.5159137"><ele>151.0</ele><time>2026-04-02T12:06:42.523Z</time></trkpt><trkpt lat="45.6242508" lon="9.515855"><ele>151.0</ele><time>2026-04-02T12:06:43.523Z</time></trkpt><trkpt lat="45.6243031" lon="9.5157837"><ele>151.0</ele><time>2026-04-02T12:06:44.523Z</time></trkpt><trkpt lat="45.624352" lon="9.5157075"><ele>151.0</ele><time>2026-04-02T12:06:45.522Z</time></trkpt><trkpt lat="45.6244426" lon="9.5156091"><ele>151.0</ele><time>2026-04-02T12:06:47.522Z</time></trkpt><trkpt lat="45.6244934" lon="9.5155259"><ele>151.0</ele><time>2026-04-02T12:06:48.522Z</time></trkpt><trkpt lat="45.6245368" lon="9.5154522"><ele>151.0</ele><time>2026-04-02T12:06:49.522Z</time></trkpt><trkpt lat="45.6246183" lon="9.5153073"><ele>151.5</ele><time>2026-04-02T12:06:51.522Z</time></trkpt><trkpt lat="45.6246527" lon="9.5151886"><ele>152.0</ele><time>2026-04-02T12:06:52.522Z</time></trkpt><trkpt lat="45.6246855" lon="9.5151068"><ele>152.5</ele><time>2026-04-02T12:06:53.523Z</time></trkpt><trkpt lat="45.6247396" lon="9.5149325"><ele>153.0</ele><time>2026-04-02T12:06:55.523Z</time></trkpt><trkpt lat="45.6247702" lon="9.5148365"><ele>153.5</ele><time>2026-04-02T12:06:56.522Z</time></trkpt><trkpt lat="45.6247938" lon="9.5147311"><ele>154.0</ele><time>2026-04-02T12:06:57.523Z</time></trkpt><trkpt lat="45.6248119" lon="9.5146197"><ele>153.33333333333334</ele><time>2026-04-02T12:06:58.523Z</time></trkpt><trkpt lat="45.6248204" lon="9.5145164"><ele>152.66666666666669</ele><time>2026-04-02T12:06:59.522Z</time></trkpt><trkpt lat="45.6248275" lon="9.5144077"><ele>152.0</ele><time>2026-04-02T12:07:00.522Z</time></trkpt><trkpt lat="45.6248478" lon="9.5142976"><ele>151.33333333333334</ele><time>2026-04-02T12:07:01.523Z</time></trkpt><trkpt lat="45.6248542" lon="9.5141845"><ele>150.66666666666666</ele><time>2026-04-02T12:07:02.523Z</time></trkpt><trkpt lat="45.6248663" lon="9.5140782"><ele>150.0</ele><time>2026-04-02T12:07:03.523Z</time></trkpt><trkpt lat="45.6248825" lon="9.5139777"><ele>150.0</ele><time>2026-04-02T12:07:04.522Z</time></trkpt><trkpt lat="45.624898" lon="9.51388"><ele>150.0</ele><time>2026-04-02T12:07:05.523Z</time></trkpt><trkpt lat="45.6249176" lon="9.5137847"><ele>150.0</ele><time>2026-04-02T12:07:06.522Z</time></trkpt><trkpt lat="45.6249418" lon="9.5136859"><ele>150.0</ele><time>2026-04-02T12:07:07.522Z</time></trkpt><trkpt lat="45.6249624" lon="9.5135913"><ele>150.0</ele><time>2026-04-02T12:07:08.523Z</time></trkpt><trkpt lat="45.6249925" lon="9.5133943"><ele>150.0</ele><time>2026-04-02T12:07:10.523Z</time></trkpt><trkpt lat="45.6250081" lon="9.5133017"><ele>150.14285714285714</ele><time>2026-04-02T12:07:11.522Z</time></trkpt><trkpt lat="45.6250159" lon="9.5132017"><ele>150.28571428571428</ele><time>2026-04-02T12:07:12.522Z</time></trkpt><trkpt lat="45.6250303" lon="9.5131107"><ele>150.42857142857144</ele><time>2026-04-02T12:07:13.523Z</time></trkpt><trkpt lat="45.6250444" lon="9.5130162"><ele>150.57142857142856</ele><time>2026-04-02T12:07:14.523Z</time></trkpt><trkpt lat="45.6250556" lon="9.5129217"><ele>150.71428571428572</ele><time>2026-04-02T12:07:15.522Z</time></trkpt><trkpt lat="45.6250783" lon="9.5128206"><ele>150.85714285714286</ele><time>2026-04-02T12:07:16.522Z</time></trkpt><trkpt lat="45.6251004" lon="9.5127285"><ele>151.0</ele><time>2026-04-02T12:07:17.523Z</time></trkpt><trkpt lat="45.6251111" lon="9.5126259"><ele>151.5</ele><time>2026-04-02T12:07:18.523Z</time></trkpt><trkpt lat="45.6251204" lon="9.5125346"><ele>152.0</ele><time>2026-04-02T12:07:19.522Z</time></trkpt><trkpt lat="45.6251347" lon="9.5124382"><ele>152.5</ele><time>2026-04-02T12:07:20.523Z</time></trkpt><trkpt lat="45.6251556" lon="9.512351"><ele>153.0</ele><time>2026-04-02T12:07:21.523Z</time></trkpt><trkpt lat="45.6251661" lon="9.5122466"><ele>153.5</ele><time>2026-04-02T12:07:22.522Z</time></trkpt><trkpt lat="45.6252024" lon="9.5120637"><ele>154.0</ele><time>2026-04-02T12:07:24.522Z</time></trkpt><trkpt lat="45.6252269" lon="9.5119502"><ele>154.14285714285714</ele><time>2026-04-02T12:07:25.522Z</time></trkpt><trkpt lat="45.6252469" lon="9.511847"><ele>154.28571428571428</ele><time>2026-04-02T12:07:26.522Z</time></trkpt><trkpt lat="45.6252681" lon="9.5117478"><ele>154.42857142857144</ele><time>2026-04-02T12:07:27.522Z</time></trkpt><trkpt lat="45.6252913" lon="9.5116402"><ele>154.57142857142856</ele><time>2026-04-02T12:07:28.522Z</time></trkpt><trkpt lat="45.6253076" lon="9.5115413"><ele>154.71428571428572</ele><time>2026-04-02T12:07:29.522Z</time></trkpt><trkpt lat="45.6253216" lon="9.5114505"><ele>154.85714285714286</ele><time>2026-04-02T12:07:30.522Z</time></trkpt><trkpt lat="45.6253374" lon="9.511351"><ele>155.0</ele><time>2026-04-02T12:07:31.522Z</time></trkpt><trkpt lat="45.6253544" lon="9.5112624"><ele>154.66666666666666</ele><time>2026-04-02T12:07:32.523Z</time></trkpt><trkpt lat="45.6253749" lon="9.5111718"><ele>154.33333333333331</ele><time>2026-04-02T12:07:33.523Z</time></trkpt><trkpt lat="45.6253993" lon="9.5110773"><ele>154.0</ele><time>2026-04-02T12:07:34.522Z</time></trkpt><trkpt lat="45.625436" lon="9.5109075"><ele>153.66666666666666</ele><time>2026-04-02T12:07:36.523Z</time></trkpt><trkpt lat="45.6254552" lon="9.5108087"><ele>153.33333333333334</ele><time>2026-04-02T12:07:37.523Z</time></trkpt><trkpt lat="45.6254677" lon="9.510706"><ele>153.0</ele><time>2026-04-02T12:07:38.522Z</time></trkpt><trkpt lat="45.6255027" lon="9.5105262"><ele>153.0</ele><time>2026-04-02T12:07:40.523Z</time></trkpt><trkpt lat="45.6255293" lon="9.5104336"><ele>153.0</ele><time>2026-04-02T12:07:41.522Z</time></trkpt><trkpt lat="45.6255441" lon="9.5103382"><ele>153.0</ele><time>2026-04-02T12:07:42.522Z</time></trkpt><trkpt lat="45.6255637" lon="9.5102375"><ele>153.0</ele><time>2026-04-02T12:07:43.523Z</time></trkpt><trkpt lat="45.6255768" lon="9.5101339"><ele>153.0</ele><time>2026-04-02T12:07:44.522Z</time></trkpt><trkpt lat="45.6255891" lon="9.5100093"><ele>153.0</ele><time>2026-04-02T12:07:45.523Z</time></trkpt><trkpt lat="45.6256153" lon="9.509901"><ele>153.16666666666666</ele><time>2026-04-02T12:07:46.523Z</time></trkpt><trkpt lat="45.6256596" lon="9.5097158"><ele>153.33333333333334</ele><time>2026-04-02T12:07:48.522Z</time></trkpt><trkpt lat="45.6256768" lon="9.5095902"><ele>153.5</ele><time>2026-04-02T12:07:49.523Z</time></trkpt><trkpt lat="45.6256902" lon="9.5094962"><ele>153.66666666666669</ele><time>2026-04-02T12:07:50.522Z</time></trkpt><trkpt lat="45.6257222" lon="9.5093925"><ele>153.83333333333334</ele><time>2026-04-02T12:07:51.522Z</time></trkpt><trkpt lat="45.6257367" lon="9.5092938"><ele>154.0</ele><time>2026-04-02T12:07:52.522Z</time></trkpt><trkpt lat="45.6257508" lon="9.5091847"><ele>154.33333333333334</ele><time>2026-04-02T12:07:53.522Z</time></trkpt><trkpt lat="45.6257756" lon="9.5090743"><ele>154.66666666666669</ele><time>2026-04-02T12:07:54.522Z</time></trkpt><trkpt lat="45.625793" lon="9.5089763"><ele>155.0</ele><time>2026-04-02T12:07:55.522Z</time></trkpt><trkpt lat="45.6258139" lon="9.5088819"><ele>155.33333333333334</ele><time>2026-04-02T12:07:56.522Z</time></trkpt><trkpt lat="45.6258362" lon="9.5087933"><ele>155.66666666666666</ele><time>2026-04-02T12:07:57.523Z</time></trkpt><trkpt lat="45.625861" lon="9.5086923"><ele>156.0</ele><time>2026-04-02T12:07:58.522Z</time></trkpt><trkpt lat="45.6259058" lon="9.5085173"><ele>157.0</ele><time>2026-04-02T12:08:00.523Z</time></trkpt><trkpt lat="45.6259453" lon="9.5083324"><ele>158.0</ele><time>2026-04-02T12:08:02.522Z</time></trkpt><trkpt lat="45.6259757" lon="9.5081622"><ele>159.0</ele><time>2026-04-02T12:08:04.522Z</time></trkpt><trkpt lat="45.6260093" lon="9.5080743"><ele>160.0</ele><time>2026-04-02T12:08:05.523Z</time></trkpt><trkpt lat="45.6260354" lon="9.5079883"><ele>161.0</ele><time>2026-04-02T12:08:06.523Z</time></trkpt><trkpt lat="45.6260688" lon="9.507888"><ele>161.66666666666666</ele><time>2026-04-02T12:08:07.522Z</time></trkpt><trkpt lat="45.6260984" lon="9.5077942"><ele>162.33333333333331</ele><time>2026-04-02T12:08:08.522Z</time></trkpt><trkpt lat="45.626131" lon="9.5076981"><ele>163.0</ele><time>2026-04-02T12:08:09.522Z</time></trkpt><trkpt lat="45.6262037" lon="9.507551"><ele>163.66666666666666</ele><time>2026-04-02T12:08:11.523Z</time></trkpt><trkpt lat="45.6262555" lon="9.5074541"><ele>164.33333333333334</ele><time>2026-04-02T12:08:12.523Z</time></trkpt><trkpt lat="45.6262925" lon="9.5073638"><ele>165.0</ele><time>2026-04-02T12:08:13.522Z</time></trkpt><trkpt lat="45.6263628" lon="9.5072177"><ele>163.16666666666666</ele><time>2026-04-02T12:08:15.522Z</time></trkpt><trkpt lat="45.6264381" lon="9.5070605"><ele>161.33333333333334</ele><time>2026-04-02T12:08:17.523Z</time></trkpt><trkpt lat="45.6264769" lon="9.5069667"><ele>159.5</ele><time>2026-04-02T12:08:18.522Z</time></trkpt><trkpt lat="45.6265175" lon="9.5068925"><ele>157.66666666666669</ele><time>2026-04-02T12:08:19.522Z</time></trkpt><trkpt lat="45.6265624" lon="9.5068055"><ele>155.83333333333334</ele><time>2026-04-02T12:08:20.522Z</time></trkpt><trkpt lat="45.6266128" lon="9.5067202"><ele>154.0</ele><time>2026-04-02T12:08:21.523Z</time></trkpt><trkpt lat="45.6266493" lon="9.5066335"><ele>154.0</ele><time>2026-04-02T12:08:22.523Z</time></trkpt><trkpt lat="45.6266897" lon="9.5065479"><ele>154.0</ele><time>2026-04-02T12:08:23.522Z</time></trkpt><trkpt lat="45.6267277" lon="9.5064666"><ele>154.0</ele><time>2026-04-02T12:08:24.522Z</time></trkpt><trkpt lat="45.6267748" lon="9.5063896"><ele>154.0</ele><time>2026-04-02T12:08:25.523Z</time></trkpt><trkpt lat="45.6268172" lon="9.5062948"><ele>154.0</ele><time>2026-04-02T12:08:26.522Z</time></trkpt><trkpt lat="45.6268585" lon="9.5062165"><ele>154.0</ele><time>2026-04-02T12:08:27.522Z</time></trkpt><trkpt lat="45.6269016" lon="9.5061241"><ele>154.0</ele><time>2026-04-02T12:08:28.522Z</time></trkpt><trkpt lat="45.6269517" lon="9.5060352"><ele>153.83333333333334</ele><time>2026-04-02T12:08:29.522Z</time></trkpt><trkpt lat="45.6269902" lon="9.5059596"><ele>153.66666666666669</ele><time>2026-04-02T12:08:30.522Z</time></trkpt><trkpt lat="45.6270356" lon="9.5058765"><ele>153.5</ele><time>2026-04-02T12:08:31.522Z</time></trkpt><trkpt lat="45.6270797" lon="9.5058034"><ele>153.33333333333334</ele><time>2026-04-02T12:08:32.523Z</time></trkpt><trkpt lat="45.6271242" lon="9.5056991"><ele>153.16666666666666</ele><time>2026-04-02T12:08:33.522Z</time></trkpt><trkpt lat="45.627199" lon="9.5055474"><ele>153.0</ele><time>2026-04-02T12:08:35.523Z</time></trkpt><trkpt lat="45.6272373" lon="9.5054638"><ele>153.33333333333334</ele><time>2026-04-02T12:08:36.523Z</time></trkpt><trkpt lat="45.6272751" lon="9.5053837"><ele>153.66666666666666</ele><time>2026-04-02T12:08:37.522Z</time></trkpt><trkpt lat="45.627317" lon="9.5052872"><ele>154.0</ele><time>2026-04-02T12:08:38.523Z</time></trkpt><trkpt lat="45.6273581" lon="9.5052054"><ele>154.33333333333331</ele><time>2026-04-02T12:08:39.523Z</time></trkpt><trkpt lat="45.6273949" lon="9.5051094"><ele>154.66666666666666</ele><time>2026-04-02T12:08:40.522Z</time></trkpt><trkpt lat="45.6274673" lon="9.5049312"><ele>155.0</ele><time>2026-04-02T12:08:42.522Z</time></trkpt><trkpt lat="45.6275028" lon="9.5048304"><ele>155.0</ele><time>2026-04-02T12:08:43.522Z</time></trkpt><trkpt lat="45.6275484" lon="9.5047142"><ele>155.0</ele><time>2026-04-02T12:08:44.523Z</time></trkpt><trkpt lat="45.6276066" lon="9.5045653"><ele>155.0</ele><time>2026-04-02T12:08:46.522Z</time></trkpt><trkpt lat="45.6276442" lon="9.5044636"><ele>155.0</ele><time>2026-04-02T12:08:47.522Z</time></trkpt><trkpt lat="45.627681" lon="9.5043769"><ele>155.0</ele><time>2026-04-02T12:08:48.522Z</time></trkpt><trkpt lat="45.6277167" lon="9.5042751"><ele>155.0</ele><time>2026-04-02T12:08:49.522Z</time></trkpt><trkpt lat="45.6277463" lon="9.5041935"><ele>154.71428571428572</ele><time>2026-04-02T12:08:50.522Z</time></trkpt><trkpt lat="45.6277764" lon="9.5040885"><ele>154.42857142857142</ele><time>2026-04-02T12:08:51.523Z</time></trkpt><trkpt lat="45.6278054" lon="9.5040009"><ele>154.14285714285714</ele><time>2026-04-02T12:08:52.523Z</time></trkpt><trkpt lat="45.6278342" lon="9.5038989"><ele>153.85714285714286</ele><time>2026-04-02T12:08:53.522Z</time></trkpt><trkpt lat="45.6278586" lon="9.5038003"><ele>153.57142857142858</ele><time>2026-04-02T12:08:54.523Z</time></trkpt><trkpt lat="45.627884" lon="9.5036964"><ele>153.28571428571428</ele><time>2026-04-02T12:08:55.523Z</time></trkpt><trkpt lat="45.6279107" lon="9.5036131"><ele>153.0</ele><time>2026-04-02T12:08:56.523Z</time></trkpt><trkpt lat="45.627943" lon="9.5035027"><ele>153.0</ele><time>2026-04-02T12:08:57.523Z</time></trkpt><trkpt lat="45.6279648" lon="9.5033984"><ele>153.0</ele><time>2026-04-02T12:08:58.522Z</time></trkpt><trkpt lat="45.6279901" lon="9.5032933"><ele>153.0</ele><time>2026-04-02T12:08:59.523Z</time></trkpt><trkpt lat="45.6280134" lon="9.5031996"><ele>153.0</ele><time>2026-04-02T12:09:00.523Z</time></trkpt><trkpt lat="45.6280689" lon="9.5030344"><ele>153.0</ele><time>2026-04-02T12:09:02.523Z</time></trkpt><trkpt lat="45.6280955" lon="9.5029513"><ele>153.0</ele><time>2026-04-02T12:09:03.523Z</time></trkpt><trkpt lat="45.6281278" lon="9.502855"><ele>153.85714285714286</ele><time>2026-04-02T12:09:04.523Z</time></trkpt><trkpt lat="45.6281529" lon="9.5027685"><ele>154.71428571428572</ele><time>2026-04-02T12:09:05.522Z</time></trkpt><trkpt lat="45.6281814" lon="9.5026749"><ele>155.57142857142856</ele><time>2026-04-02T12:09:06.522Z</time></trkpt><trkpt lat="45.6282075" lon="9.5025837"><ele>156.42857142857144</ele><time>2026-04-02T12:09:07.522Z</time></trkpt><trkpt lat="45.6282444" lon="9.502491"><ele>157.2857142857143</ele><time>2026-04-02T12:09:08.523Z</time></trkpt><trkpt lat="45.6282661" lon="9.5023899"><ele>158.14285714285714</ele><time>2026-04-02T12:09:09.523Z</time></trkpt><trkpt lat="45.6282973" lon="9.5023098"><ele>159.0</ele><time>2026-04-02T12:09:10.523Z</time></trkpt><trkpt lat="45.6283291" lon="9.5021979"><ele>159.0</ele><time>2026-04-02T12:09:11.522Z</time></trkpt><trkpt lat="45.628346" lon="9.5020946"><ele>159.0</ele><time>2026-04-02T12:09:12.523Z</time></trkpt><trkpt lat="45.6283696" lon="9.501995"><ele>159.0</ele><time>2026-04-02T12:09:13.522Z</time></trkpt><trkpt lat="45.6284012" lon="9.50189"><ele>159.0</ele><time>2026-04-02T12:09:14.522Z</time></trkpt><trkpt lat="45.6284472" lon="9.5017337"><ele>159.0</ele><time>2026-04-02T12:09:16.522Z</time></trkpt><trkpt lat="45.6284691" lon="9.5016302"><ele>159.0</ele><time>2026-04-02T12:09:17.523Z</time></trkpt><trkpt lat="45.6284965" lon="9.5015216"><ele>158.8</ele><time>2026-04-02T12:09:18.523Z</time></trkpt><trkpt lat="45.6285201" lon="9.501406"><ele>158.60000000000002</ele><time>2026-04-02T12:09:19.523Z</time></trkpt><trkpt lat="45.6285495" lon="9.5013103"><ele>158.4</ele><time>2026-04-02T12:09:20.522Z</time></trkpt><trkpt lat="45.6285782" lon="9.5011832"><ele>158.20000000000002</ele><time>2026-04-02T12:09:21.523Z</time></trkpt><trkpt lat="45.6286276" lon="9.5010092"><ele>158.0</ele><time>2026-04-02T12:09:23.523Z</time></trkpt><trkpt lat="45.6286718" lon="9.5008825"><ele>158.0</ele><time>2026-04-02T12:09:25.523Z</time></trkpt><trkpt lat="45.6287102" lon="9.500788"><ele>158.0</ele><time>2026-04-02T12:09:26.522Z</time></trkpt><trkpt lat="45.6287372" lon="9.5006856"><ele>158.0</ele><time>2026-04-02T12:09:27.523Z</time></trkpt><trkpt lat="45.6287667" lon="9.5005889"><ele>158.0</ele><time>2026-04-02T12:09:28.523Z</time></trkpt><trkpt lat="45.6288045" lon="9.5004756"><ele>158.0</ele><time>2026-04-02T12:09:29.522Z</time></trkpt><trkpt lat="45.628858" lon="9.5003304"><ele>158.0</ele><time>2026-04-02T12:09:31.523Z</time></trkpt><trkpt lat="45.6289019" lon="9.5001767"><ele>158.16666666666666</ele><time>2026-04-02T12:09:33.523Z</time></trkpt><trkpt lat="45.6289478" lon="9.5000698"><ele>158.33333333333331</ele><time>2026-04-02T12:09:34.523Z</time></trkpt><trkpt lat="45.6289994" lon="9.499952"><ele>158.5</ele><time>2026-04-02T12:09:35.522Z</time></trkpt><trkpt lat="45.6290335" lon="9.4998503"><ele>158.66666666666666</ele><time>2026-04-02T12:09:36.523Z</time></trkpt><trkpt lat="45.6290814" lon="9.4997372"><ele>158.83333333333334</ele><time>2026-04-02T12:09:37.522Z</time></trkpt><trkpt lat="45.6291166" lon="9.4996515"><ele>159.0</ele><time>2026-04-02T12:09:38.522Z</time></trkpt><trkpt lat="45.6291629" lon="9.4995481"><ele>159.66666666666666</ele><time>2026-04-02T12:09:39.523Z</time></trkpt><trkpt lat="45.6292253" lon="9.4993826"><ele>160.33333333333334</ele><time>2026-04-02T12:09:41.523Z</time></trkpt><trkpt lat="45.6292567" lon="9.4992761"><ele>161.0</ele><time>2026-04-02T12:09:42.523Z</time></trkpt><trkpt lat="45.6292891" lon="9.4991775"><ele>161.66666666666669</ele><time>2026-04-02T12:09:43.522Z</time></trkpt><trkpt lat="45.629316" lon="9.4990961"><ele>162.33333333333334</ele><time>2026-04-02T12:09:44.522Z</time></trkpt><trkpt lat="45.6293599" lon="9.4989961"><ele>163.0</ele><time>2026-04-02T12:09:45.523Z</time></trkpt><trkpt lat="45.629425" lon="9.4988771"><ele>163.0</ele><time>2026-04-02T12:09:47.522Z</time></trkpt><trkpt lat="45.6294728" lon="9.4988061"><ele>163.0</ele><time>2026-04-02T12:09:48.523Z</time></trkpt><trkpt lat="45.6295092" lon="9.4987094"><ele>163.0</ele><time>2026-04-02T12:09:49.522Z</time></trkpt><trkpt lat="45.6295866" lon="9.4985457"><ele>163.0</ele><time>2026-04-02T12:09:51.522Z</time></trkpt><trkpt lat="45.6296226" lon="9.4984451"><ele>163.0</ele><time>2026-04-02T12:09:52.522Z</time></trkpt><trkpt lat="45.6296785" lon="9.4983644"><ele>163.0</ele><time>2026-04-02T12:09:53.522Z</time></trkpt><trkpt lat="45.6297405" lon="9.4981761"><ele>162.5</ele><time>2026-04-02T12:09:55.523Z</time></trkpt><trkpt lat="45.6298177" lon="9.4980117"><ele>162.0</ele><time>2026-04-02T12:09:57.522Z</time></trkpt><trkpt lat="45.6298764" lon="9.4978697"><ele>161.5</ele><time>2026-04-02T12:09:59.523Z</time></trkpt><trkpt lat="45.6299529" lon="9.49771"><ele>161.0</ele><time>2026-04-02T12:10:01.523Z</time></trkpt><trkpt lat="45.6300171" lon="9.4975443"><ele>161.0</ele><time>2026-04-02T12:10:03.523Z</time></trkpt><trkpt lat="45.6300621" lon="9.4974723"><ele>161.0</ele><time>2026-04-02T12:10:04.522Z</time></trkpt><trkpt lat="45.6300855" lon="9.4973831"><ele>161.0</ele><time>2026-04-02T12:10:05.523Z</time></trkpt><trkpt lat="45.6301603" lon="9.4972604"><ele>161.0</ele><time>2026-04-02T12:10:07.523Z</time></trkpt><trkpt lat="45.6302122" lon="9.4971834"><ele>161.0</ele><time>2026-04-02T12:10:08.523Z</time></trkpt><trkpt lat="45.630271" lon="9.4971029"><ele>161.0</ele><time>2026-04-02T12:10:09.523Z</time></trkpt><trkpt lat="45.6303188" lon="9.4970287"><ele>159.66666666666666</ele><time>2026-04-02T12:10:10.523Z</time></trkpt><trkpt lat="45.630373" lon="9.4969625"><ele>158.33333333333331</ele><time>2026-04-02T12:10:11.523Z</time></trkpt><trkpt lat="45.6304278" lon="9.4969008"><ele>157.0</ele><time>2026-04-02T12:10:12.522Z</time></trkpt><trkpt lat="45.6304913" lon="9.4968079"><ele>155.66666666666666</ele><time>2026-04-02T12:10:13.523Z</time></trkpt><trkpt lat="45.6305335" lon="9.4967374"><ele>154.33333333333334</ele><time>2026-04-02T12:10:14.522Z</time></trkpt><trkpt lat="45.6305727" lon="9.4966636"><ele>153.0</ele><time>2026-04-02T12:10:15.523Z</time></trkpt><trkpt lat="45.6306309" lon="9.496564"><ele>153.0</ele><time>2026-04-02T12:10:16.522Z</time></trkpt><trkpt lat="45.6306836" lon="9.4964885"><ele>153.0</ele><time>2026-04-02T12:10:17.522Z</time></trkpt><trkpt lat="45.6307375" lon="9.4964113"><ele>153.0</ele><time>2026-04-02T12:10:18.523Z</time></trkpt><trkpt lat="45.630779" lon="9.4963138"><ele>153.0</ele><time>2026-04-02T12:10:19.523Z</time></trkpt><trkpt lat="45.6308192" lon="9.4962386"><ele>153.0</ele><time>2026-04-02T12:10:20.523Z</time></trkpt><trkpt lat="45.6308521" lon="9.4961341"><ele>153.0</ele><time>2026-04-02T12:10:21.522Z</time></trkpt><trkpt lat="45.6309079" lon="9.4959776"><ele>153.16666666666666</ele><time>2026-04-02T12:10:23.523Z</time></trkpt><trkpt lat="45.6309866" lon="9.4958295"><ele>153.33333333333334</ele><time>2026-04-02T12:10:25.523Z</time></trkpt><trkpt lat="45.6310185" lon="9.495751"><ele>153.5</ele><time>2026-04-02T12:10:26.522Z</time></trkpt><trkpt lat="45.6310643" lon="9.495671"><ele>153.66666666666669</ele><time>2026-04-02T12:10:27.523Z</time></trkpt><trkpt lat="45.6311045" lon="9.4955938"><ele>153.83333333333334</ele><time>2026-04-02T12:10:28.522Z</time></trkpt><trkpt lat="45.6311359" lon="9.4955132"><ele>154.0</ele><time>2026-04-02T12:10:29.522Z</time></trkpt><trkpt lat="45.6311784" lon="9.4954371"><ele>155.16666666666669</ele><time>2026-04-02T12:10:30.523Z</time></trkpt><trkpt lat="45.631226" lon="9.4953682"><ele>156.33333333333334</ele><time>2026-04-02T12:10:31.522Z</time></trkpt><trkpt lat="45.6312575" lon="9.4952851"><ele>157.5</ele><time>2026-04-02T12:10:32.522Z</time></trkpt><trkpt lat="45.631303" lon="9.4952011"><ele>158.66666666666666</ele><time>2026-04-02T12:10:33.523Z</time></trkpt><trkpt lat="45.6313571" lon="9.495116"><ele>159.83333333333331</ele><time>2026-04-02T12:10:34.523Z</time></trkpt><trkpt lat="45.6314147" lon="9.4950452"><ele>161.0</ele><time>2026-04-02T12:10:35.523Z</time></trkpt><trkpt lat="45.6314676" lon="9.4949354"><ele>161.0</ele><time>2026-04-02T12:10:36.522Z</time></trkpt><trkpt lat="45.6315602" lon="9.4948798"><ele>161.0</ele><time>2026-04-02T12:10:38.522Z</time></trkpt><trkpt lat="45.6316634" lon="9.4947961"><ele>161.0</ele><time>2026-04-02T12:10:40.523Z</time></trkpt><trkpt lat="45.6317278" lon="9.4947796"><ele>161.0</ele><time>2026-04-02T12:10:41.522Z</time></trkpt><trkpt lat="45.6318327" lon="9.4947062"><ele>161.0</ele><time>2026-04-02T12:10:43.523Z</time></trkpt><trkpt lat="45.6319389" lon="9.4946181"><ele>160.83333333333331</ele><time>2026-04-02T12:10:45.522Z</time></trkpt><trkpt lat="45.6320365" lon="9.4945041"><ele>160.66666666666666</ele><time>2026-04-02T12:10:47.522Z</time></trkpt><trkpt lat="45.6321266" lon="9.4944188"><ele>160.5</ele><time>2026-04-02T12:10:49.522Z</time></trkpt><trkpt lat="45.6321853" lon="9.4943809"><ele>160.33333333333334</ele><time>2026-04-02T12:10:50.523Z</time></trkpt><trkpt lat="45.6322414" lon="9.4943362"><ele>160.16666666666669</ele><time>2026-04-02T12:10:51.523Z</time></trkpt><trkpt lat="45.6323043" lon="9.4942936"><ele>160.0</ele><time>2026-04-02T12:10:52.523Z</time></trkpt><trkpt lat="45.6323678" lon="9.4942573"><ele>160.0</ele><time>2026-04-02T12:10:53.522Z</time></trkpt><trkpt lat="45.6324957" lon="9.4941705"><ele>160.0</ele><time>2026-04-02T12:10:55.523Z</time></trkpt><trkpt lat="45.6325573" lon="9.4941504"><ele>160.0</ele><time>2026-04-02T12:10:56.522Z</time></trkpt><trkpt lat="45.6326296" lon="9.4941113"><ele>160.0</ele><time>2026-04-02T12:10:57.523Z</time></trkpt><trkpt lat="45.6326969" lon="9.4940771"><ele>160.0</ele><time>2026-04-02T12:10:58.523Z</time></trkpt><trkpt lat="45.6327806" lon="9.4940274"><ele>160.0</ele><time>2026-04-02T12:10:59.522Z</time></trkpt><trkpt lat="45.6328576" lon="9.4939803"><ele>158.5</ele><time>2026-04-02T12:11:00.523Z</time></trkpt><trkpt lat="45.6329324" lon="9.4939916"><ele>157.0</ele><time>2026-04-02T12:11:01.522Z</time></trkpt><trkpt lat="45.6330145" lon="9.4939778"><ele>155.5</ele><time>2026-04-02T12:11:02.522Z</time></trkpt><trkpt lat="45.6331027" lon="9.4939367"><ele>154.0</ele><time>2026-04-02T12:11:04.523Z</time></trkpt><trkpt lat="45.633177" lon="9.4939108"><ele>152.5</ele><time>2026-04-02T12:11:05.523Z</time></trkpt><trkpt lat="45.6332474" lon="9.4938816"><ele>151.0</ele><time>2026-04-02T12:11:06.523Z</time></trkpt><trkpt lat="45.6333772" lon="9.4938595"><ele>151.0</ele><time>2026-04-02T12:11:08.522Z</time></trkpt><trkpt lat="45.6334576" lon="9.4938577"><ele>151.0</ele><time>2026-04-02T12:11:09.522Z</time></trkpt><trkpt lat="45.6335311" lon="9.4938668"><ele>151.0</ele><time>2026-04-02T12:11:10.522Z</time></trkpt><trkpt lat="45.6336019" lon="9.4938553"><ele>151.0</ele><time>2026-04-02T12:11:11.522Z</time></trkpt><trkpt lat="45.6337446" lon="9.4938501"><ele>151.0</ele><time>2026-04-02T12:11:13.522Z</time></trkpt><trkpt lat="45.63381" lon="9.4938543"><ele>151.0</ele><time>2026-04-02T12:11:14.522Z</time></trkpt><trkpt lat="45.6338876" lon="9.4938488"><ele>151.33333333333334</ele><time>2026-04-02T12:11:15.522Z</time></trkpt><trkpt lat="45.6339874" lon="9.4938632"><ele>151.66666666666669</ele><time>2026-04-02T12:11:16.522Z</time></trkpt><trkpt lat="45.6340523" lon="9.4938725"><ele>152.0</ele><time>2026-04-02T12:11:17.523Z</time></trkpt><trkpt lat="45.6341156" lon="9.4938828"><ele>152.33333333333334</ele><time>2026-04-02T12:11:18.523Z</time></trkpt><trkpt lat="45.6341927" lon="9.4938948"><ele>152.66666666666666</ele><time>2026-04-02T12:11:19.522Z</time></trkpt><trkpt lat="45.6343292" lon="9.4939165"><ele>153.0</ele><time>2026-04-02T12:11:21.522Z</time></trkpt><trkpt lat="45.6343983" lon="9.4939335"><ele>153.0</ele><time>2026-04-02T12:11:22.523Z</time></trkpt><trkpt lat="45.6344677" lon="9.4939468"><ele>153.0</ele><time>2026-04-02T12:11:23.522Z</time></trkpt><trkpt lat="45.6345303" lon="9.4939669"><ele>153.0</ele><time>2026-04-02T12:11:24.522Z</time></trkpt><trkpt lat="45.634596" lon="9.4939964"><ele>153.0</ele><time>2026-04-02T12:11:25.522Z</time></trkpt><trkpt lat="45.6346597" lon="9.4940182"><ele>153.0</ele><time>2026-04-02T12:11:26.522Z</time></trkpt><trkpt lat="45.6347342" lon="9.494032"><ele>153.0</ele><time>2026-04-02T12:11:27.522Z</time></trkpt><trkpt lat="45.6348611" lon="9.4940837"><ele>153.0</ele><time>2026-04-02T12:11:29.523Z</time></trkpt><trkpt lat="45.6349314" lon="9.4941008"><ele>153.0</ele><time>2026-04-02T12:11:30.523Z</time></trkpt><trkpt lat="45.635003" lon="9.4941069"><ele>153.0</ele><time>2026-04-02T12:11:31.523Z</time></trkpt><trkpt lat="45.6350739" lon="9.4941366"><ele>153.0</ele><time>2026-04-02T12:11:32.523Z</time></trkpt><trkpt lat="45.6351514" lon="9.4941541"><ele>153.0</ele><time>2026-04-02T12:11:33.522Z</time></trkpt><trkpt lat="45.6352255" lon="9.4941922"><ele>153.0</ele><time>2026-04-02T12:11:34.522Z</time></trkpt><trkpt lat="45.6352897" lon="9.4942067"><ele>153.0</ele><time>2026-04-02T12:11:35.522Z</time></trkpt><trkpt lat="45.6353618" lon="9.4942294"><ele>153.0</ele><time>2026-04-02T12:11:36.523Z</time></trkpt><trkpt lat="45.6354343" lon="9.4942558"><ele>153.0</ele><time>2026-04-02T12:11:37.522Z</time></trkpt><trkpt lat="45.6355061" lon="9.4942861"><ele>153.0</ele><time>2026-04-02T12:11:38.522Z</time></trkpt><trkpt lat="45.635575" lon="9.4943205"><ele>153.0</ele><time>2026-04-02T12:11:39.522Z</time></trkpt><trkpt lat="45.6356483" lon="9.4943512"><ele>153.0</ele><time>2026-04-02T12:11:40.523Z</time></trkpt><trkpt lat="45.6357684" lon="9.4944082"><ele>153.0</ele><time>2026-04-02T12:11:42.523Z</time></trkpt><trkpt lat="45.6358421" lon="9.4944415"><ele>153.0</ele><time>2026-04-02T12:11:43.522Z</time></trkpt><trkpt lat="45.6359097" lon="9.4944649"><ele>153.0</ele><time>2026-04-02T12:11:44.522Z</time></trkpt><trkpt lat="45.6360188" lon="9.4945027"><ele>153.0</ele><time>2026-04-02T12:11:46.522Z</time></trkpt><trkpt lat="45.63614" lon="9.4945401"><ele>153.0</ele><time>2026-04-02T12:11:48.523Z</time></trkpt><trkpt lat="45.6362189" lon="9.4945575"><ele>153.0</ele><time>2026-04-02T12:11:49.522Z</time></trkpt><trkpt lat="45.6363479" lon="9.4945915"><ele>153.33333333333334</ele><time>2026-04-02T12:11:51.523Z</time></trkpt><trkpt lat="45.6364252" lon="9.4946112"><ele>153.66666666666666</ele><time>2026-04-02T12:11:52.523Z</time></trkpt><trkpt lat="45.6364916" lon="9.4946098"><ele>154.0</ele><time>2026-04-02T12:11:53.522Z</time></trkpt><trkpt lat="45.6365679" lon="9.4946112"><ele>154.33333333333331</ele><time>2026-04-02T12:11:54.522Z</time></trkpt><trkpt lat="45.636642" lon="9.4946066"><ele>154.66666666666666</ele><time>2026-04-02T12:11:55.522Z</time></trkpt><trkpt lat="45.6367105" lon="9.4946013"><ele>155.0</ele><time>2026-04-02T12:11:56.522Z</time></trkpt><trkpt lat="45.6368431" lon="9.494578"><ele>154.85714285714286</ele><time>2026-04-02T12:11:58.523Z</time></trkpt><trkpt lat="45.6369112" lon="9.4945735"><ele>154.71428571428572</ele><time>2026-04-02T12:11:59.522Z</time></trkpt><trkpt lat="45.6369741" lon="9.4945474"><ele>154.57142857142856</ele><time>2026-04-02T12:12:00.522Z</time></trkpt><trkpt lat="45.6370439" lon="9.494561"><ele>154.42857142857144</ele><time>2026-04-02T12:12:01.522Z</time></trkpt><trkpt lat="45.6371408" lon="9.4945462"><ele>154.28571428571428</ele><time>2026-04-02T12:12:02.522Z</time></trkpt><trkpt lat="45.6372083" lon="9.494529"><ele>154.14285714285714</ele><time>2026-04-02T12:12:03.523Z</time></trkpt><trkpt lat="45.6372832" lon="9.4945135"><ele>154.0</ele><time>2026-04-02T12:12:04.522Z</time></trkpt><trkpt lat="45.637349" lon="9.4944854"><ele>154.0</ele><time>2026-04-02T12:12:05.523Z</time></trkpt><trkpt lat="45.6374183" lon="9.4944697"><ele>154.0</ele><time>2026-04-02T12:12:06.522Z</time></trkpt><trkpt lat="45.6374873" lon="9.4944527"><ele>154.0</ele><time>2026-04-02T12:12:07.522Z</time></trkpt><trkpt lat="45.6375518" lon="9.494439"><ele>154.0</ele><time>2026-04-02T12:12:08.523Z</time></trkpt><trkpt lat="45.6376176" lon="9.4944557"><ele>154.0</ele><time>2026-04-02T12:12:09.523Z</time></trkpt><trkpt lat="45.6376849" lon="9.4944489"><ele>154.0</ele><time>2026-04-02T12:12:10.523Z</time></trkpt><trkpt lat="45.6377736" lon="9.4943851"><ele>154.0</ele><time>2026-04-02T12:12:12.522Z</time></trkpt><trkpt lat="45.6379049" lon="9.4943411"><ele>153.83333333333334</ele><time>2026-04-02T12:12:14.522Z</time></trkpt><trkpt lat="45.6379978" lon="9.4943195"><ele>153.66666666666669</ele><time>2026-04-02T12:12:16.523Z</time></trkpt><trkpt lat="45.638066" lon="9.4942797"><ele>153.5</ele><time>2026-04-02T12:12:17.523Z</time></trkpt><trkpt lat="45.6381366" lon="9.4942534"><ele>153.33333333333334</ele><time>2026-04-02T12:12:18.523Z</time></trkpt><trkpt lat="45.6382007" lon="9.4942402"><ele>153.16666666666666</ele><time>2026-04-02T12:12:19.523Z</time></trkpt><trkpt lat="45.638276" lon="9.4942163"><ele>153.0</ele><time>2026-04-02T12:12:20.523Z</time></trkpt><trkpt lat="45.638347" lon="9.4942015"><ele>153.0</ele><time>2026-04-02T12:12:21.523Z</time></trkpt><trkpt lat="45.6384252" lon="9.49419"><ele>153.0</ele><time>2026-04-02T12:12:22.523Z</time></trkpt><trkpt lat="45.6384925" lon="9.4941733"><ele>153.0</ele><time>2026-04-02T12:12:23.523Z</time></trkpt><trkpt lat="45.6385691" lon="9.4941684"><ele>153.0</ele><time>2026-04-02T12:12:24.522Z</time></trkpt><trkpt lat="45.6387096" lon="9.4941"><ele>153.0</ele><time>2026-04-02T12:12:26.522Z</time></trkpt><trkpt lat="45.6387979" lon="9.4941308"><ele>152.4</ele><time>2026-04-02T12:12:27.523Z</time></trkpt><trkpt lat="45.6388601" lon="9.4941013"><ele>151.8</ele><time>2026-04-02T12:12:28.522Z</time></trkpt><trkpt lat="45.6389503" lon="9.4940868"><ele>151.2</ele><time>2026-04-02T12:12:29.522Z</time></trkpt><trkpt lat="45.639043" lon="9.494063"><ele>150.6</ele><time>2026-04-02T12:12:30.523Z</time></trkpt><trkpt lat="45.6391669" lon="9.4939903"><ele>150.0</ele><time>2026-04-02T12:12:32.522Z</time></trkpt><trkpt lat="45.6392424" lon="9.4939674"><ele>150.0</ele><time>2026-04-02T12:12:33.522Z</time></trkpt><trkpt lat="45.6393269" lon="9.4940002"><ele>150.0</ele><time>2026-04-02T12:12:34.523Z</time></trkpt><trkpt lat="45.6393922" lon="9.4939791"><ele>150.0</ele><time>2026-04-02T12:12:35.522Z</time></trkpt><trkpt lat="45.6394815" lon="9.4939865"><ele>150.0</ele><time>2026-04-02T12:12:36.523Z</time></trkpt><trkpt lat="45.6395587" lon="9.4939716"><ele>150.0</ele><time>2026-04-02T12:12:37.522Z</time></trkpt><trkpt lat="45.6396293" lon="9.4939581"><ele>150.0</ele><time>2026-04-02T12:12:38.522Z</time></trkpt><trkpt lat="45.6396942" lon="9.4939592"><ele>149.85714285714283</ele><time>2026-04-02T12:12:39.522Z</time></trkpt><trkpt lat="45.6397636" lon="9.4939599"><ele>149.71428571428572</ele><time>2026-04-02T12:12:40.523Z</time></trkpt><trkpt lat="45.639829" lon="9.4939567"><ele>149.57142857142856</ele><time>2026-04-02T12:12:41.523Z</time></trkpt><trkpt lat="45.6398955" lon="9.4939616"><ele>149.42857142857142</ele><time>2026-04-02T12:12:42.522Z</time></trkpt><trkpt lat="45.6399823" lon="9.4939623"><ele>149.28571428571428</ele><time>2026-04-02T12:12:43.523Z</time></trkpt><trkpt lat="45.6400592" lon="9.4939609"><ele>149.14285714285714</ele><time>2026-04-02T12:12:44.523Z</time></trkpt><trkpt lat="45.640127" lon="9.493956"><ele>149.0</ele><time>2026-04-02T12:12:45.522Z</time></trkpt><trkpt lat="45.6402074" lon="9.4939552"><ele>149.5</ele><time>2026-04-02T12:12:46.523Z</time></trkpt><trkpt lat="45.6403171" lon="9.4939498"><ele>150.0</ele><time>2026-04-02T12:12:48.523Z</time></trkpt><trkpt lat="45.6403917" lon="9.4939691"><ele>150.5</ele><time>2026-04-02T12:12:49.523Z</time></trkpt><trkpt lat="45.6404693" lon="9.4939674"><ele>151.0</ele><time>2026-04-02T12:12:50.523Z</time></trkpt><trkpt lat="45.6405485" lon="9.4939735"><ele>151.5</ele><time>2026-04-02T12:12:51.523Z</time></trkpt><trkpt lat="45.6406246" lon="9.4939781"><ele>152.0</ele><time>2026-04-02T12:12:52.522Z</time></trkpt><trkpt lat="45.6407002" lon="9.4939803"><ele>152.0</ele><time>2026-04-02T12:12:53.523Z</time></trkpt><trkpt lat="45.6407811" lon="9.493968"><ele>152.0</ele><time>2026-04-02T12:12:54.522Z</time></trkpt><trkpt lat="45.6408538" lon="9.4939752"><ele>152.0</ele><time>2026-04-02T12:12:55.523Z</time></trkpt><trkpt lat="45.6409356" lon="9.4939788"><ele>152.0</ele><time>2026-04-02T12:12:56.522Z</time></trkpt><trkpt lat="45.641013" lon="9.4939926"><ele>152.0</ele><time>2026-04-02T12:12:57.523Z</time></trkpt><trkpt lat="45.6410856" lon="9.4939996"><ele>152.0</ele><time>2026-04-02T12:12:58.523Z</time></trkpt><trkpt lat="45.6411572" lon="9.4940051"><ele>152.83333333333331</ele><time>2026-04-02T12:12:59.523Z</time></trkpt><trkpt lat="45.6412375" lon="9.4940195"><ele>153.66666666666666</ele><time>2026-04-02T12:13:00.523Z</time></trkpt><trkpt lat="45.6413159" lon="9.4940167"><ele>154.5</ele><time>2026-04-02T12:13:01.522Z</time></trkpt><trkpt lat="45.6413962" lon="9.4940207"><ele>155.33333333333334</ele><time>2026-04-02T12:13:02.522Z</time></trkpt><trkpt lat="45.6414748" lon="9.4940356"><ele>156.16666666666669</ele><time>2026-04-02T12:13:03.523Z</time></trkpt><trkpt lat="45.6415453" lon="9.4940568"><ele>157.0</ele><time>2026-04-02T12:13:04.522Z</time></trkpt><trkpt lat="45.6416281" lon="9.4940794"><ele>157.0</ele><time>2026-04-02T12:13:05.522Z</time></trkpt><trkpt lat="45.6416995" lon="9.4940902"><ele>157.0</ele><time>2026-04-02T12:13:06.522Z</time></trkpt><trkpt lat="45.6417744" lon="9.4941036"><ele>157.0</ele><time>2026-04-02T12:13:07.522Z</time></trkpt><trkpt lat="45.641848" lon="9.4941132"><ele>157.0</ele><time>2026-04-02T12:13:08.522Z</time></trkpt><trkpt lat="45.6419218" lon="9.4941168"><ele>157.0</ele><time>2026-04-02T12:13:09.523Z</time></trkpt><trkpt lat="45.6420061" lon="9.494126"><ele>157.0</ele><time>2026-04-02T12:13:10.522Z</time></trkpt><trkpt lat="45.6420834" lon="9.494132"><ele>156.42857142857142</ele><time>2026-04-02T12:13:11.523Z</time></trkpt><trkpt lat="45.6421641" lon="9.4941431"><ele>155.85714285714286</ele><time>2026-04-02T12:13:12.522Z</time></trkpt><trkpt lat="45.6422452" lon="9.4941482"><ele>155.28571428571428</ele><time>2026-04-02T12:13:13.522Z</time></trkpt><trkpt lat="45.6423154" lon="9.4941523"><ele>154.71428571428572</ele><time>2026-04-02T12:13:14.522Z</time></trkpt><trkpt lat="45.642383" lon="9.4941641"><ele>154.14285714285714</ele><time>2026-04-02T12:13:15.523Z</time></trkpt><trkpt lat="45.6424516" lon="9.4941741"><ele>153.57142857142856</ele><time>2026-04-02T12:13:16.523Z</time></trkpt><trkpt lat="45.6425282" lon="9.4941858"><ele>153.0</ele><time>2026-04-02T12:13:17.523Z</time></trkpt><trkpt lat="45.6426131" lon="9.4942062"><ele>153.0</ele><time>2026-04-02T12:13:18.522Z</time></trkpt><trkpt lat="45.6426855" lon="9.494206"><ele>153.0</ele><time>2026-04-02T12:13:19.523Z</time></trkpt><trkpt lat="45.6427629" lon="9.4942049"><ele>153.0</ele><time>2026-04-02T12:13:20.523Z</time></trkpt><trkpt lat="45.6428344" lon="9.4942093"><ele>153.0</ele><time>2026-04-02T12:13:21.523Z</time></trkpt><trkpt lat="45.6429054" lon="9.4942075"><ele>153.0</ele><time>2026-04-02T12:13:22.522Z</time></trkpt><trkpt lat="45.6429874" lon="9.4942165"><ele>153.0</ele><time>2026-04-02T12:13:23.523Z</time></trkpt><trkpt lat="45.6430715" lon="9.4942155"><ele>153.14285714285714</ele><time>2026-04-02T12:13:24.523Z</time></trkpt><trkpt lat="45.6431606" lon="9.4942035"><ele>153.28571428571428</ele><time>2026-04-02T12:13:25.522Z</time></trkpt><trkpt lat="45.6432294" lon="9.4942033"><ele>153.42857142857144</ele><time>2026-04-02T12:13:26.523Z</time></trkpt><trkpt lat="45.6432926" lon="9.4942072"><ele>153.57142857142856</ele><time>2026-04-02T12:13:27.523Z</time></trkpt><trkpt lat="45.6433742" lon="9.494201"><ele>153.71428571428572</ele><time>2026-04-02T12:13:28.522Z</time></trkpt><trkpt lat="45.6434407" lon="9.4941972"><ele>153.85714285714286</ele><time>2026-04-02T12:13:29.523Z</time></trkpt><trkpt lat="45.6435115" lon="9.494199"><ele>154.0</ele><time>2026-04-02T12:13:30.523Z</time></trkpt><trkpt lat="45.6435879" lon="9.4942028"><ele>154.33333333333334</ele><time>2026-04-02T12:13:31.523Z</time></trkpt><trkpt lat="45.6436694" lon="9.4941995"><ele>154.66666666666669</ele><time>2026-04-02T12:13:32.522Z</time></trkpt><trkpt lat="45.6437356" lon="9.494193"><ele>155.0</ele><time>2026-04-02T12:13:33.522Z</time></trkpt><trkpt lat="45.6438034" lon="9.4941911"><ele>155.33333333333334</ele><time>2026-04-02T12:13:34.522Z</time></trkpt><trkpt lat="45.64389" lon="9.4941791"><ele>155.66666666666666</ele><time>2026-04-02T12:13:35.523Z</time></trkpt><trkpt lat="45.6439825" lon="9.4941847"><ele>156.0</ele><time>2026-04-02T12:13:36.523Z</time></trkpt><trkpt lat="45.6440619" lon="9.4941873"><ele>156.0</ele><time>2026-04-02T12:13:37.522Z</time></trkpt><trkpt lat="45.6441459" lon="9.4941675"><ele>156.0</ele><time>2026-04-02T12:13:38.523Z</time></trkpt><trkpt lat="45.644233" lon="9.4941585"><ele>156.0</ele><time>2026-04-02T12:13:39.523Z</time></trkpt><trkpt lat="45.6443585" lon="9.4941517"><ele>156.0</ele><time>2026-04-02T12:13:41.523Z</time></trkpt><trkpt lat="45.6444274" lon="9.4941435"><ele>156.0</ele><time>2026-04-02T12:13:42.522Z</time></trkpt><trkpt lat="45.6445572" lon="9.4941399"><ele>156.16666666666666</ele><time>2026-04-02T12:13:44.522Z</time></trkpt><trkpt lat="45.6446526" lon="9.4941418"><ele>156.33333333333334</ele><time>2026-04-02T12:13:45.523Z</time></trkpt><trkpt lat="45.6447278" lon="9.494144"><ele>156.5</ele><time>2026-04-02T12:13:46.522Z</time></trkpt><trkpt lat="45.6447985" lon="9.4941536"><ele>156.66666666666669</ele><time>2026-04-02T12:13:47.522Z</time></trkpt><trkpt lat="45.6448818" lon="9.4941526"><ele>156.83333333333334</ele><time>2026-04-02T12:13:48.522Z</time></trkpt><trkpt lat="45.6449651" lon="9.4941511"><ele>157.0</ele><time>2026-04-02T12:13:49.523Z</time></trkpt><trkpt lat="45.6450373" lon="9.4941626"><ele>157.0</ele><time>2026-04-02T12:13:50.522Z</time></trkpt><trkpt lat="45.6451023" lon="9.4941669"><ele>157.0</ele><time>2026-04-02T12:13:51.522Z</time></trkpt><trkpt lat="45.6451818" lon="9.4941711"><ele>157.0</ele><time>2026-04-02T12:13:52.523Z</time></trkpt><trkpt lat="45.6452589" lon="9.4941777"><ele>157.0</ele><time>2026-04-02T12:13:53.523Z</time></trkpt><trkpt lat="45.6453494" lon="9.4941752"><ele>157.0</ele><time>2026-04-02T12:13:54.522Z</time></trkpt><trkpt lat="45.6454208" lon="9.4941592"><ele>157.0</ele><time>2026-04-02T12:13:55.522Z</time></trkpt><trkpt lat="45.6455127" lon="9.4941528"><ele>157.66666666666669</ele><time>2026-04-02T12:13:56.522Z</time></trkpt><trkpt lat="45.64559" lon="9.4941437"><ele>158.33333333333334</ele><time>2026-04-02T12:13:57.523Z</time></trkpt><trkpt lat="45.6456737" lon="9.494149"><ele>159.0</ele><time>2026-04-02T12:13:58.522Z</time></trkpt><trkpt lat="45.6457571" lon="9.4941583"><ele>159.66666666666666</ele><time>2026-04-02T12:13:59.522Z</time></trkpt><trkpt lat="45.6458443" lon="9.4941731"><ele>160.33333333333331</ele><time>2026-04-02T12:14:00.522Z</time></trkpt><trkpt lat="45.6459165" lon="9.4941799"><ele>161.0</ele><time>2026-04-02T12:14:01.522Z</time></trkpt><trkpt lat="45.6459877" lon="9.4941747"><ele>161.0</ele><time>2026-04-02T12:14:02.523Z</time></trkpt><trkpt lat="45.6460739" lon="9.4941698"><ele>161.0</ele><time>2026-04-02T12:14:03.522Z</time></trkpt><trkpt lat="45.646159" lon="9.4941675"><ele>161.0</ele><time>2026-04-02T12:14:04.523Z</time></trkpt><trkpt lat="45.6462283" lon="9.4941581"><ele>161.0</ele><time>2026-04-02T12:14:05.522Z</time></trkpt><trkpt lat="45.6463049" lon="9.4941563"><ele>161.0</ele><time>2026-04-02T12:14:06.523Z</time></trkpt><trkpt lat="45.6463794" lon="9.4941555"><ele>161.0</ele><time>2026-04-02T12:14:07.522Z</time></trkpt><trkpt lat="45.6465155" lon="9.4941451"><ele>161.0</ele><time>2026-04-02T12:14:09.523Z</time></trkpt><trkpt lat="45.6465848" lon="9.4941342"><ele>161.0</ele><time>2026-04-02T12:14:10.523Z</time></trkpt><trkpt lat="45.6466572" lon="9.4941287"><ele>161.0</ele><time>2026-04-02T12:14:11.522Z</time></trkpt><trkpt lat="45.6467247" lon="9.4941068"><ele>161.0</ele><time>2026-04-02T12:14:12.522Z</time></trkpt><trkpt lat="45.6468006" lon="9.4940993"><ele>161.0</ele><time>2026-04-02T12:14:13.523Z</time></trkpt><trkpt lat="45.6468738" lon="9.49409"><ele>161.0</ele><time>2026-04-02T12:14:14.523Z</time></trkpt><trkpt lat="45.6469599" lon="9.4940637"><ele>161.0</ele><time>2026-04-02T12:14:15.522Z</time></trkpt><trkpt lat="45.6470424" lon="9.4940351"><ele>160.0</ele><time>2026-04-02T12:14:16.523Z</time></trkpt><trkpt lat="45.6471255" lon="9.4940173"><ele>159.0</ele><time>2026-04-02T12:14:17.522Z</time></trkpt><trkpt lat="45.6472057" lon="9.4939726"><ele>158.0</ele><time>2026-04-02T12:14:18.523Z</time></trkpt><trkpt lat="45.6472849" lon="9.4939253"><ele>157.0</ele><time>2026-04-02T12:14:19.523Z</time></trkpt><trkpt lat="45.647355" lon="9.4938708"><ele>156.0</ele><time>2026-04-02T12:14:20.522Z</time></trkpt><trkpt lat="45.6474253" lon="9.4938377"><ele>155.0</ele><time>2026-04-02T12:14:21.522Z</time></trkpt><trkpt lat="45.6474884" lon="9.4937794"><ele>154.4</ele><time>2026-04-02T12:14:22.522Z</time></trkpt><trkpt lat="45.6475529" lon="9.4937275"><ele>153.8</ele><time>2026-04-02T12:14:23.522Z</time></trkpt><trkpt lat="45.6476176" lon="9.4936708"><ele>153.2</ele><time>2026-04-02T12:14:24.522Z</time></trkpt><trkpt lat="45.6477417" lon="9.4935755"><ele>152.6</ele><time>2026-04-02T12:14:26.523Z</time></trkpt><trkpt lat="45.6478075" lon="9.4935012"><ele>152.0</ele><time>2026-04-02T12:14:27.523Z</time></trkpt><trkpt lat="45.6478876" lon="9.4934291"><ele>152.0</ele><time>2026-04-02T12:14:28.523Z</time></trkpt><trkpt lat="45.6479521" lon="9.4933672"><ele>152.0</ele><time>2026-04-02T12:14:29.522Z</time></trkpt><trkpt lat="45.6480198" lon="9.4932644"><ele>152.0</ele><time>2026-04-02T12:14:30.522Z</time></trkpt><trkpt lat="45.6480513" lon="9.4931621"><ele>152.0</ele><time>2026-04-02T12:14:31.522Z</time></trkpt><trkpt lat="45.6481063" lon="9.4930592"><ele>152.0</ele><time>2026-04-02T12:14:32.522Z</time></trkpt><trkpt lat="45.6481572" lon="9.4929727"><ele>152.0</ele><time>2026-04-02T12:14:33.522Z</time></trkpt><trkpt lat="45.6482107" lon="9.4928847"><ele>152.33333333333331</ele><time>2026-04-02T12:14:34.523Z</time></trkpt><trkpt lat="45.6482181" lon="9.4927646"><ele>152.66666666666666</ele><time>2026-04-02T12:14:35.522Z</time></trkpt><trkpt lat="45.6482435" lon="9.4926649"><ele>153.0</ele><time>2026-04-02T12:14:36.523Z</time></trkpt><trkpt lat="45.6483006" lon="9.4925744"><ele>153.33333333333334</ele><time>2026-04-02T12:14:37.522Z</time></trkpt><trkpt lat="45.6483058" lon="9.4924746"><ele>153.66666666666669</ele><time>2026-04-02T12:14:38.523Z</time></trkpt><trkpt lat="45.6483301" lon="9.4923517"><ele>154.0</ele><time>2026-04-02T12:14:39.523Z</time></trkpt><trkpt lat="45.6483467" lon="9.4922324"><ele>154.0</ele><time>2026-04-02T12:14:40.523Z</time></trkpt><trkpt lat="45.6483761" lon="9.4921502"><ele>154.0</ele><time>2026-04-02T12:14:41.522Z</time></trkpt><trkpt lat="45.6484013" lon="9.4920612"><ele>154.0</ele><time>2026-04-02T12:14:42.523Z</time></trkpt><trkpt lat="45.64843" lon="9.4919636"><ele>154.0</ele><time>2026-04-02T12:14:43.523Z</time></trkpt><trkpt lat="45.6484782" lon="9.4918549"><ele>154.0</ele><time>2026-04-02T12:14:44.522Z</time></trkpt><trkpt lat="45.6485214" lon="9.4917361"><ele>154.0</ele><time>2026-04-02T12:14:45.523Z</time></trkpt><trkpt lat="45.6485544" lon="9.4915624"><ele>154.0</ele><time>2026-04-02T12:14:47.522Z</time></trkpt><trkpt lat="45.648604" lon="9.4913972"><ele>154.0</ele><time>2026-04-02T12:14:49.523Z</time></trkpt><trkpt lat="45.648661" lon="9.4912752"><ele>154.0</ele><time>2026-04-02T12:14:50.523Z</time></trkpt><trkpt lat="45.6487157" lon="9.4911024"><ele>154.0</ele><time>2026-04-02T12:14:52.522Z</time></trkpt><trkpt lat="45.6487593" lon="9.4909316"><ele>153.83333333333334</ele><time>2026-04-02T12:14:54.523Z</time></trkpt><trkpt lat="45.6487992" lon="9.4908099"><ele>153.66666666666669</ele><time>2026-04-02T12:14:55.523Z</time></trkpt><trkpt lat="45.6488413" lon="9.4907056"><ele>153.5</ele><time>2026-04-02T12:14:56.522Z</time></trkpt><trkpt lat="45.6488673" lon="9.4906045"><ele>153.33333333333334</ele><time>2026-04-02T12:14:57.522Z</time></trkpt><trkpt lat="45.648893" lon="9.4905195"><ele>153.16666666666666</ele><time>2026-04-02T12:14:58.523Z</time></trkpt><trkpt lat="45.6489525" lon="9.4904368"><ele>153.0</ele><time>2026-04-02T12:14:59.523Z</time></trkpt><trkpt lat="45.6490087" lon="9.490349"><ele>153.6</ele><time>2026-04-02T12:15:00.523Z</time></trkpt><trkpt lat="45.6490502" lon="9.4902526"><ele>154.20000000000002</ele><time>2026-04-02T12:15:01.522Z</time></trkpt><trkpt lat="45.649102" lon="9.4901271"><ele>154.8</ele><time>2026-04-02T12:15:03.523Z</time></trkpt><trkpt lat="45.6491733" lon="9.4900059"><ele>155.4</ele><time>2026-04-02T12:15:05.522Z</time></trkpt><trkpt lat="45.6492587" lon="9.4898465"><ele>156.0</ele><time>2026-04-02T12:15:07.522Z</time></trkpt><trkpt lat="45.6492948" lon="9.489748"><ele>156.0</ele><time>2026-04-02T12:15:08.523Z</time></trkpt><trkpt lat="45.6493261" lon="9.4896696"><ele>156.0</ele><time>2026-04-02T12:15:09.523Z</time></trkpt><trkpt lat="45.6493641" lon="9.4895474"><ele>156.0</ele><time>2026-04-02T12:15:10.522Z</time></trkpt><trkpt lat="45.6494122" lon="9.4894673"><ele>156.0</ele><time>2026-04-02T12:15:11.523Z</time></trkpt><trkpt lat="45.649408" lon="9.4893351"><ele>156.0</ele><time>2026-04-02T12:15:12.522Z</time></trkpt><trkpt lat="45.6494596" lon="9.4892636"><ele>156.0</ele><time>2026-04-02T12:15:13.523Z</time></trkpt><trkpt lat="45.6494879" lon="9.4891739"><ele>155.66666666666666</ele><time>2026-04-02T12:15:14.522Z</time></trkpt><trkpt lat="45.6495115" lon="9.4890861"><ele>155.33333333333334</ele><time>2026-04-02T12:15:15.522Z</time></trkpt><trkpt lat="45.6495428" lon="9.4889912"><ele>155.0</ele><time>2026-04-02T12:15:16.522Z</time></trkpt><trkpt lat="45.6495767" lon="9.4888047"><ele>154.66666666666669</ele><time>2026-04-02T12:15:18.523Z</time></trkpt><trkpt lat="45.6496075" lon="9.4887039"><ele>154.33333333333334</ele><time>2026-04-02T12:15:19.522Z</time></trkpt><trkpt lat="45.6496555" lon="9.4886147"><ele>154.0</ele><time>2026-04-02T12:15:20.523Z</time></trkpt><trkpt lat="45.6496944" lon="9.4885121"><ele>153.83333333333334</ele><time>2026-04-02T12:15:21.522Z</time></trkpt><trkpt lat="45.6497402" lon="9.4884378"><ele>153.66666666666669</ele><time>2026-04-02T12:15:22.522Z</time></trkpt><trkpt lat="45.6497758" lon="9.4883299"><ele>153.5</ele><time>2026-04-02T12:15:23.523Z</time></trkpt><trkpt lat="45.6498191" lon="9.4882355"><ele>153.33333333333334</ele><time>2026-04-02T12:15:24.522Z</time></trkpt><trkpt lat="45.6498428" lon="9.4881256"><ele>153.16666666666666</ele><time>2026-04-02T12:15:25.522Z</time></trkpt><trkpt lat="45.6499" lon="9.4880502"><ele>153.0</ele><time>2026-04-02T12:15:26.522Z</time></trkpt><trkpt lat="45.6499212" lon="9.4879357"><ele>153.85714285714286</ele><time>2026-04-02T12:15:27.523Z</time></trkpt><trkpt lat="45.6499642" lon="9.4878364"><ele>154.71428571428572</ele><time>2026-04-02T12:15:28.522Z</time></trkpt><trkpt lat="45.6499895" lon="9.4877339"><ele>155.57142857142856</ele><time>2026-04-02T12:15:29.522Z</time></trkpt><trkpt lat="45.6500094" lon="9.4876472"><ele>156.42857142857144</ele><time>2026-04-02T12:15:30.522Z</time></trkpt><trkpt lat="45.650043" lon="9.4875697"><ele>157.2857142857143</ele><time>2026-04-02T12:15:31.522Z</time></trkpt><trkpt lat="45.6500744" lon="9.4874821"><ele>158.14285714285714</ele><time>2026-04-02T12:15:32.522Z</time></trkpt><trkpt lat="45.6501254" lon="9.4874216"><ele>159.0</ele><time>2026-04-02T12:15:33.522Z</time></trkpt><trkpt lat="45.65017" lon="9.4873374"><ele>159.0</ele><time>2026-04-02T12:15:34.523Z</time></trkpt><trkpt lat="45.6502309" lon="9.4872477"><ele>159.0</ele><time>2026-04-02T12:15:35.523Z</time></trkpt><trkpt lat="45.6503006" lon="9.4871105"><ele>159.0</ele><time>2026-04-02T12:15:37.522Z</time></trkpt><trkpt lat="45.6503234" lon="9.4869541"><ele>159.0</ele><time>2026-04-02T12:15:39.523Z</time></trkpt><trkpt lat="45.6503778" lon="9.4867814"><ele>159.2</ele><time>2026-04-02T12:15:41.522Z</time></trkpt><trkpt lat="45.6504168" lon="9.4866314"><ele>159.4</ele><time>2026-04-02T12:15:43.522Z</time></trkpt><trkpt lat="45.6504474" lon="9.4864909"><ele>159.6</ele><time>2026-04-02T12:15:45.523Z</time></trkpt><trkpt lat="45.6504313" lon="9.4863551"><ele>159.8</ele><time>2026-04-02T12:15:47.523Z</time></trkpt><trkpt lat="45.6504414" lon="9.4862311"><ele>160.0</ele><time>2026-04-02T12:15:50.523Z</time></trkpt><trkpt lat="45.6504774" lon="9.4861334"><ele>160.0</ele><time>2026-04-02T12:15:58.522Z</time></trkpt><trkpt lat="45.6504701" lon="9.4860307"><ele>160.0</ele><time>2026-04-02T12:16:02.522Z</time></trkpt><trkpt lat="45.6504069" lon="9.4860388"><ele>160.0</ele><time>2026-04-02T12:16:19.523Z</time></trkpt><trkpt lat="45.6503416" lon="9.4860692"><ele>160.0</ele><time>2026-04-02T12:16:23.523Z</time></trkpt><trkpt lat="45.6502765" lon="9.4861141"><ele>160.0</ele><time>2026-04-02T12:16:31.523Z</time></trkpt><trkpt lat="45.6502045" lon="9.4861075"><ele>160.0</ele><time>2026-04-02T12:16:35.522Z</time></trkpt><trkpt lat="45.6501314" lon="9.4861145"><ele>160.0</ele><time>2026-04-02T12:16:40.522Z</time></trkpt><trkpt lat="45.6500628" lon="9.4860874"><ele>161.28571428571428</ele><time>2026-04-02T12:16:45.523Z</time></trkpt><trkpt lat="45.6499845" lon="9.4861006"><ele>162.57142857142858</ele><time>2026-04-02T12:16:49.523Z</time></trkpt><trkpt lat="45.6499146" lon="9.4861295"><ele>163.85714285714286</ele><time>2026-04-02T12:16:53.522Z</time></trkpt><trkpt lat="45.6498532" lon="9.4861885"><ele>165.14285714285714</ele><time>2026-04-02T12:16:59.523Z</time></trkpt><trkpt lat="45.6497845" lon="9.486228"><ele>166.42857142857142</ele><time>2026-04-02T12:17:04.522Z</time></trkpt><trkpt lat="45.649711" lon="9.4862499"><ele>167.71428571428572</ele><time>2026-04-02T12:17:08.523Z</time></trkpt><trkpt lat="45.6496536" lon="9.4863071"><ele>169.0</ele><time>2026-04-02T12:17:13.523Z</time></trkpt><trkpt lat="45.6495893" lon="9.4863556"><ele>169.0</ele><time>2026-04-02T12:17:18.523Z</time></trkpt><trkpt lat="45.6495226" lon="9.486376"><ele>169.0</ele><time>2026-04-02T12:17:23.523Z</time></trkpt><trkpt lat="45.6494624" lon="9.4864261"><ele>169.0</ele><time>2026-04-02T12:17:30.522Z</time></trkpt><trkpt lat="45.6494" lon="9.4864902"><ele>169.0</ele><time>2026-04-02T12:17:37.523Z</time></trkpt><trkpt lat="45.6493323" lon="9.4865263"><ele>169.0</ele><time>2026-04-02T12:17:42.523Z</time></trkpt><trkpt lat="45.6492764" lon="9.4865869"><ele>169.0</ele><time>2026-04-02T12:17:46.522Z</time></trkpt><trkpt lat="45.6492054" lon="9.4866288"><ele>169.0</ele><time>2026-04-02T12:17:50.523Z</time></trkpt><trkpt lat="45.649141" lon="9.486638"><ele>171.71428571428572</ele><time>2026-04-02T12:17:54.523Z</time></trkpt><trkpt lat="45.6490678" lon="9.4866489"><ele>174.42857142857142</ele><time>2026-04-02T12:17:59.522Z</time></trkpt><trkpt lat="45.6490001" lon="9.4866559"><ele>177.14285714285714</ele><time>2026-04-02T12:18:02.523Z</time></trkpt><trkpt lat="45.648922" lon="9.4866264"><ele>179.85714285714286</ele><time>2026-04-02T12:18:06.522Z</time></trkpt><trkpt lat="45.6488606" lon="9.4865633"><ele>182.57142857142856</ele><time>2026-04-02T12:18:10.523Z</time></trkpt><trkpt lat="45.6488511" lon="9.4864653"><ele>185.28571428571428</ele><time>2026-04-02T12:18:14.523Z</time></trkpt><trkpt lat="45.6488761" lon="9.4863708"><ele>188.0</ele><time>2026-04-02T12:18:26.523Z</time></trkpt><trkpt lat="45.6489309" lon="9.4863126"><ele>190.42857142857142</ele><time>2026-04-02T12:18:33.522Z</time></trkpt><trkpt lat="45.6489821" lon="9.4862598"><ele>192.85714285714283</ele><time>2026-04-02T12:18:39.523Z</time></trkpt><trkpt lat="45.6490523" lon="9.4862227"><ele>195.28571428571428</ele><time>2026-04-02T12:18:43.522Z</time></trkpt><trkpt lat="45.6490514" lon="9.486124"><ele>197.71428571428572</ele><time>2026-04-02T12:18:54.522Z</time></trkpt><trkpt lat="45.6490162" lon="9.4860413"><ele>200.14285714285714</ele><time>2026-04-02T12:19:02.523Z</time></trkpt><trkpt lat="45.6489745" lon="9.4859401"><ele>202.57142857142858</ele><time>2026-04-02T12:19:07.522Z</time></trkpt><trkpt lat="45.648968" lon="9.485827"><ele>205.0</ele><time>2026-04-02T12:19:12.522Z</time></trkpt><trkpt lat="45.6489228" lon="9.4857278"><ele>204.99999999999997</ele><time>2026-04-02T12:19:16.522Z</time></trkpt><trkpt lat="45.648883" lon="9.4856307"><ele>205.0</ele><time>2026-04-02T12:19:19.522Z</time></trkpt><trkpt lat="45.6488349" lon="9.485543"><ele>205.0</ele><time>2026-04-02T12:19:22.522Z</time></trkpt><trkpt lat="45.6487735" lon="9.4854741"><ele>205.0</ele><time>2026-04-02T12:19:25.523Z</time></trkpt><trkpt lat="45.6486976" lon="9.485454"><ele>204.99999999999997</ele><time>2026-04-02T12:19:28.522Z</time></trkpt><trkpt lat="45.648627" lon="9.4854762"><ele>205.0</ele><time>2026-04-02T12:19:31.523Z</time></trkpt><trkpt lat="45.6485584" lon="9.4855143"><ele>205.85714285714286</ele><time>2026-04-02T12:19:34.523Z</time></trkpt><trkpt lat="45.6484999" lon="9.485553"><ele>206.7142857142857</ele><time>2026-04-02T12:19:37.522Z</time></trkpt><trkpt lat="45.6484364" lon="9.4855888"><ele>207.57142857142856</ele><time>2026-04-02T12:19:40.523Z</time></trkpt><trkpt lat="45.6483707" lon="9.4856088"><ele>208.42857142857144</ele><time>2026-04-02T12:19:43.523Z</time></trkpt><trkpt lat="45.6483045" lon="9.4855468"><ele>209.28571428571428</ele><time>2026-04-02T12:19:47.523Z</time></trkpt><trkpt lat="45.6482756" lon="9.4854454"><ele>210.14285714285714</ele><time>2026-04-02T12:19:50.522Z</time></trkpt><trkpt lat="45.6482522" lon="9.4853337"><ele>211.0</ele><time>2026-04-02T12:19:53.523Z</time></trkpt><trkpt lat="45.6482277" lon="9.4852388"><ele>212.0</ele><time>2026-04-02T12:19:56.522Z</time></trkpt><trkpt lat="45.6481972" lon="9.4851433"><ele>213.0</ele><time>2026-04-02T12:19:59.523Z</time></trkpt><trkpt lat="45.6481634" lon="9.4850425"><ele>214.0</ele><time>2026-04-02T12:20:02.522Z</time></trkpt><trkpt lat="45.6481299" lon="9.4849437"><ele>215.0</ele><time>2026-04-02T12:20:05.522Z</time></trkpt><trkpt lat="45.6480964" lon="9.4848467"><ele>216.0</ele><time>2026-04-02T12:20:08.523Z</time></trkpt><trkpt lat="45.6481167" lon="9.4847554"><ele>217.0</ele><time>2026-04-02T12:20:11.522Z</time></trkpt><trkpt lat="45.6481808" lon="9.4846992"><ele>218.0</ele><time>2026-04-02T12:20:14.523Z</time></trkpt><trkpt lat="45.6482548" lon="9.4846447"><ele>218.33333333333334</ele><time>2026-04-02T12:20:17.522Z</time></trkpt><trkpt lat="45.6483293" lon="9.4845907"><ele>218.66666666666669</ele><time>2026-04-02T12:20:20.522Z</time></trkpt><trkpt lat="45.6484036" lon="9.4845309"><ele>219.0</ele><time>2026-04-02T12:20:23.523Z</time></trkpt><trkpt lat="45.6484847" lon="9.4844705"><ele>219.33333333333331</ele><time>2026-04-02T12:20:26.523Z</time></trkpt><trkpt lat="45.6485597" lon="9.4844122"><ele>219.66666666666666</ele><time>2026-04-02T12:20:29.523Z</time></trkpt><trkpt lat="45.6486197" lon="9.4843654"><ele>220.0</ele><time>2026-04-02T12:20:32.522Z</time></trkpt><trkpt lat="45.6486996" lon="9.4843143"><ele>219.99999999999997</ele><time>2026-04-02T12:20:35.523Z</time></trkpt><trkpt lat="45.6487648" lon="9.484261"><ele>220.0</ele><time>2026-04-02T12:20:37.523Z</time></trkpt><trkpt lat="45.6488499" lon="9.4842126"><ele>220.0</ele><time>2026-04-02T12:20:39.523Z</time></trkpt><trkpt lat="45.6489138" lon="9.4841633"><ele>220.0</ele><time>2026-04-02T12:20:41.523Z</time></trkpt><trkpt lat="45.6489807" lon="9.4841064"><ele>219.99999999999997</ele><time>2026-04-02T12:20:43.522Z</time></trkpt><trkpt lat="45.6490464" lon="9.4840546"><ele>220.0</ele><time>2026-04-02T12:20:45.522Z</time></trkpt><trkpt lat="45.6491283" lon="9.4839979"><ele>219.99999999999997</ele><time>2026-04-02T12:20:47.522Z</time></trkpt><trkpt lat="45.6492077" lon="9.4839399"><ele>220.0</ele><time>2026-04-02T12:20:49.522Z</time></trkpt><trkpt lat="45.6492748" lon="9.4838835"><ele>220.0</ele><time>2026-04-02T12:20:51.523Z</time></trkpt><trkpt lat="45.6493553" lon="9.4838448"><ele>220.0</ele><time>2026-04-02T12:20:53.522Z</time></trkpt><trkpt lat="45.649432" lon="9.4837998"><ele>219.99999999999997</ele><time>2026-04-02T12:20:55.523Z</time></trkpt><trkpt lat="45.6495153" lon="9.483751"><ele>220.0</ele><time>2026-04-02T12:20:57.523Z</time></trkpt><trkpt lat="45.6496085" lon="9.4836871"><ele>220.0</ele><time>2026-04-02T12:20:59.523Z</time></trkpt><trkpt lat="45.6497101" lon="9.4836303"><ele>220.0</ele><time>2026-04-02T12:21:01.523Z</time></trkpt><trkpt lat="45.6498204" lon="9.4835793"><ele>220.0</ele><time>2026-04-02T12:21:03.523Z</time></trkpt><trkpt lat="45.6499276" lon="9.4835272"><ele>220.0</ele><time>2026-04-02T12:21:05.523Z</time></trkpt><trkpt lat="45.6500352" lon="9.4834671"><ele>220.0</ele><time>2026-04-02T12:21:07.523Z</time></trkpt><trkpt lat="45.6501368" lon="9.4833983"><ele>220.0</ele><time>2026-04-02T12:21:09.523Z</time></trkpt><trkpt lat="45.6502238" lon="9.4833314"><ele>220.0</ele><time>2026-04-02T12:21:11.522Z</time></trkpt><trkpt lat="45.6503131" lon="9.4832579"><ele>220.0</ele><time>2026-04-02T12:21:13.522Z</time></trkpt><trkpt lat="45.6504032" lon="9.4831852"><ele>220.0</ele><time>2026-04-02T12:21:15.523Z</time></trkpt><trkpt lat="45.650494" lon="9.4831018"><ele>219.4</ele><time>2026-04-02T12:21:17.522Z</time></trkpt><trkpt lat="45.6505882" lon="9.4830136"><ele>218.8</ele><time>2026-04-02T12:21:19.523Z</time></trkpt><trkpt lat="45.6506867" lon="9.4829472"><ele>218.2</ele><time>2026-04-02T12:21:21.523Z</time></trkpt><trkpt lat="45.6507817" lon="9.4828764"><ele>217.6</ele><time>2026-04-02T12:21:23.522Z</time></trkpt><trkpt lat="45.6508778" lon="9.482812"><ele>217.0</ele><time>2026-04-02T12:21:25.523Z</time></trkpt><trkpt lat="45.6509775" lon="9.4827317"><ele>218.75</ele><time>2026-04-02T12:21:27.523Z</time></trkpt><trkpt lat="45.6510627" lon="9.4826549"><ele>220.5</ele><time>2026-04-02T12:21:29.522Z</time></trkpt><trkpt lat="45.6511492" lon="9.4825664"><ele>222.25</ele><time>2026-04-02T12:21:31.523Z</time></trkpt><trkpt lat="45.6512382" lon="9.4824714"><ele>224.0</ele><time>2026-04-02T12:21:33.522Z</time></trkpt><trkpt lat="45.6515346" lon="9.4822497"><ele>224.0</ele><time>2026-04-02T12:21:35.522Z</time></trkpt><trkpt lat="45.6516271" lon="9.4821561"><ele>223.99999999999997</ele><time>2026-04-02T12:21:37.523Z</time></trkpt><trkpt lat="45.6517269" lon="9.482086"><ele>223.99999999999997</ele><time>2026-04-02T12:21:39.522Z</time></trkpt><trkpt lat="45.6518319" lon="9.4819995"><ele>224.0</ele><time>2026-04-02T12:21:41.523Z</time></trkpt><trkpt lat="45.6519095" lon="9.4819214"><ele>224.0</ele><time>2026-04-02T12:21:43.522Z</time></trkpt><trkpt lat="45.6519934" lon="9.4818707"><ele>224.6</ele><time>2026-04-02T12:21:45.522Z</time></trkpt><trkpt lat="45.65207" lon="9.481823"><ele>225.2</ele><time>2026-04-02T12:21:47.523Z</time></trkpt><trkpt lat="45.6522023" lon="9.4817879"><ele>225.79999999999998</ele><time>2026-04-02T12:21:49.523Z</time></trkpt><trkpt lat="45.6522827" lon="9.4817862"><ele>226.39999999999998</ele><time>2026-04-02T12:21:50.522Z</time></trkpt><trkpt lat="45.6523756" lon="9.4817622"><ele>227.0</ele><time>2026-04-02T12:21:52.522Z</time></trkpt><trkpt lat="45.6524981" lon="9.4817495"><ele>227.00000000000003</ele><time>2026-04-02T12:21:54.522Z</time></trkpt><trkpt lat="45.6525659" lon="9.4817587"><ele>227.0</ele><time>2026-04-02T12:21:55.523Z</time></trkpt><trkpt lat="45.6526919" lon="9.4817655"><ele>227.0</ele><time>2026-04-02T12:21:57.523Z</time></trkpt><trkpt lat="45.6527555" lon="9.4817577"><ele>227.0</ele><time>2026-04-02T12:21:58.522Z</time></trkpt><trkpt lat="45.6528482" lon="9.4817359"><ele>227.00000000000003</ele><time>2026-04-02T12:22:00.522Z</time></trkpt><trkpt lat="45.6529336" lon="9.4817285"><ele>227.0</ele><time>2026-04-02T12:22:02.523Z</time></trkpt><trkpt lat="45.6530297" lon="9.4816892"><ele>226.25</ele><time>2026-04-02T12:22:04.522Z</time></trkpt><trkpt lat="45.6531637" lon="9.4816584"><ele>225.5</ele><time>2026-04-02T12:22:07.523Z</time></trkpt><trkpt lat="45.6532648" lon="9.4816308"><ele>224.75</ele><time>2026-04-02T12:22:09.522Z</time></trkpt><trkpt lat="45.6533751" lon="9.4816049"><ele>224.0</ele><time>2026-04-02T12:22:11.522Z</time></trkpt><trkpt lat="45.6534823" lon="9.4815679"><ele>224.0</ele><time>2026-04-02T12:22:13.522Z</time></trkpt><trkpt lat="45.6535801" lon="9.4815427"><ele>223.99999999999997</ele><time>2026-04-02T12:22:15.522Z</time></trkpt><trkpt lat="45.6536856" lon="9.4815138"><ele>223.99999999999997</ele><time>2026-04-02T12:22:17.522Z</time></trkpt><trkpt lat="45.6537997" lon="9.4814799"><ele>224.0</ele><time>2026-04-02T12:22:19.522Z</time></trkpt><trkpt lat="45.6539102" lon="9.481435"><ele>224.0</ele><time>2026-04-02T12:22:21.522Z</time></trkpt><trkpt lat="45.6540054" lon="9.4813605"><ele>223.79999999999998</ele><time>2026-04-02T12:22:23.522Z</time></trkpt><trkpt lat="45.6541023" lon="9.4812949"><ele>223.59999999999997</ele><time>2026-04-02T12:22:25.522Z</time></trkpt><trkpt lat="45.6542033" lon="9.4812298"><ele>223.4</ele><time>2026-04-02T12:22:27.522Z</time></trkpt><trkpt lat="45.6542951" lon="9.4811683"><ele>223.2</ele><time>2026-04-02T12:22:29.522Z</time></trkpt><trkpt lat="45.6543854" lon="9.4811092"><ele>223.0</ele><time>2026-04-02T12:22:31.523Z</time></trkpt><trkpt lat="45.6544959" lon="9.4810325"><ele>222.99999999999997</ele><time>2026-04-02T12:22:33.523Z</time></trkpt><trkpt lat="45.6545445" lon="9.4809732"><ele>223.0</ele><time>2026-04-02T12:22:35.522Z</time></trkpt><trkpt lat="45.6546155" lon="9.4809085"><ele>223.0</ele><time>2026-04-02T12:22:37.523Z</time></trkpt><trkpt lat="45.654699" lon="9.4808929"><ele>223.0</ele><time>2026-04-02T12:22:39.523Z</time></trkpt><trkpt lat="45.6547784" lon="9.4808535"><ele>222.99999999999997</ele><time>2026-04-02T12:22:41.522Z</time></trkpt><trkpt lat="45.6548506" lon="9.4808082"><ele>223.0</ele><time>2026-04-02T12:22:43.523Z</time></trkpt><trkpt lat="45.654941" lon="9.4807346"><ele>223.0</ele><time>2026-04-02T12:22:45.522Z</time></trkpt><trkpt lat="45.6549815" lon="9.4806537"><ele>223.0</ele><time>2026-04-02T12:22:46.523Z</time></trkpt><trkpt lat="45.6550856" lon="9.480597"><ele>223.0</ele><time>2026-04-02T12:22:48.522Z</time></trkpt><trkpt lat="45.6551924" lon="9.4805324"><ele>223.0</ele><time>2026-04-02T12:22:50.523Z</time></trkpt><trkpt lat="45.6552694" lon="9.4804461"><ele>223.0</ele><time>2026-04-02T12:22:52.523Z</time></trkpt><trkpt lat="45.6553468" lon="9.4803387"><ele>223.8</ele><time>2026-04-02T12:22:54.522Z</time></trkpt><trkpt lat="45.6554326" lon="9.4802547"><ele>224.60000000000002</ele><time>2026-04-02T12:22:56.522Z</time></trkpt><trkpt lat="45.655541" lon="9.4801721"><ele>225.39999999999998</ele><time>2026-04-02T12:22:58.522Z</time></trkpt><trkpt lat="45.6556418" lon="9.4801138"><ele>226.2</ele><time>2026-04-02T12:23:00.522Z</time></trkpt><trkpt lat="45.6557436" lon="9.480064"><ele>227.0</ele><time>2026-04-02T12:23:02.522Z</time></trkpt><trkpt lat="45.6558534" lon="9.4800179"><ele>227.0</ele><time>2026-04-02T12:23:04.522Z</time></trkpt><trkpt lat="45.6559594" lon="9.4799582"><ele>227.0</ele><time>2026-04-02T12:23:06.523Z</time></trkpt><trkpt lat="45.6560555" lon="9.479881"><ele>227.0</ele><time>2026-04-02T12:23:08.522Z</time></trkpt><trkpt lat="45.6561086" lon="9.4798315"><ele>227.0</ele><time>2026-04-02T12:23:09.523Z</time></trkpt><trkpt lat="45.6562043" lon="9.4797427"><ele>227.0</ele><time>2026-04-02T12:23:11.523Z</time></trkpt><trkpt lat="45.6563042" lon="9.4796828"><ele>226.75</ele><time>2026-04-02T12:23:13.522Z</time></trkpt><trkpt lat="45.6564036" lon="9.4796099"><ele>226.5</ele><time>2026-04-02T12:23:15.522Z</time></trkpt><trkpt lat="45.6564966" lon="9.4795205"><ele>226.25</ele><time>2026-04-02T12:23:17.523Z</time></trkpt><trkpt lat="45.6565886" lon="9.4794177"><ele>226.0</ele><time>2026-04-02T12:23:19.523Z</time></trkpt><trkpt lat="45.6566837" lon="9.4793317"><ele>226.0</ele><time>2026-04-02T12:23:21.522Z</time></trkpt><trkpt lat="45.6567821" lon="9.4792518"><ele>226.00000000000003</ele><time>2026-04-02T12:23:23.523Z</time></trkpt><trkpt lat="45.6568398" lon="9.4792123"><ele>226.00000000000003</ele><time>2026-04-02T12:23:24.523Z</time></trkpt><trkpt lat="45.6569337" lon="9.4791314"><ele>226.0</ele><time>2026-04-02T12:23:26.522Z</time></trkpt><trkpt lat="45.6570401" lon="9.4790484"><ele>226.0</ele><time>2026-04-02T12:23:28.523Z</time></trkpt><trkpt lat="45.6571404" lon="9.4789824"><ele>226.8</ele><time>2026-04-02T12:23:30.522Z</time></trkpt><trkpt lat="45.6572451" lon="9.4789211"><ele>227.60000000000002</ele><time>2026-04-02T12:23:32.523Z</time></trkpt><trkpt lat="45.657342" lon="9.4788357"><ele>228.4</ele><time>2026-04-02T12:23:34.522Z</time></trkpt><trkpt lat="45.6574374" lon="9.4787522"><ele>229.2</ele><time>2026-04-02T12:23:36.522Z</time></trkpt><trkpt lat="45.6575187" lon="9.4786524"><ele>230.0</ele><time>2026-04-02T12:23:38.523Z</time></trkpt><trkpt lat="45.6576175" lon="9.4785665"><ele>230.0</ele><time>2026-04-02T12:23:40.523Z</time></trkpt><trkpt lat="45.6577264" lon="9.4785149"><ele>230.0</ele><time>2026-04-02T12:23:42.523Z</time></trkpt><trkpt lat="45.6578465" lon="9.4784704"><ele>230.0</ele><time>2026-04-02T12:23:44.522Z</time></trkpt><trkpt lat="45.6579656" lon="9.4784613"><ele>230.0</ele><time>2026-04-02T12:23:46.523Z</time></trkpt><trkpt lat="45.6580852" lon="9.4784763"><ele>230.0</ele><time>2026-04-02T12:23:48.522Z</time></trkpt><trkpt lat="45.6581972" lon="9.4784577"><ele>230.0</ele><time>2026-04-02T12:23:50.523Z</time></trkpt><trkpt lat="45.6582955" lon="9.4784191"><ele>230.0</ele><time>2026-04-02T12:23:52.522Z</time></trkpt><trkpt lat="45.6584157" lon="9.4783345"><ele>230.0</ele><time>2026-04-02T12:23:54.522Z</time></trkpt><trkpt lat="45.6584862" lon="9.478294"><ele>230.0</ele><time>2026-04-02T12:23:55.522Z</time></trkpt><trkpt lat="45.6586029" lon="9.4782655"><ele>229.83333333333334</ele><time>2026-04-02T12:23:57.523Z</time></trkpt><trkpt lat="45.6586946" lon="9.4783186"><ele>229.66666666666669</ele><time>2026-04-02T12:23:59.523Z</time></trkpt><trkpt lat="45.6587757" lon="9.4783719"><ele>229.5</ele><time>2026-04-02T12:24:01.522Z</time></trkpt><trkpt lat="45.6588421" lon="9.4783911"><ele>229.33333333333331</ele><time>2026-04-02T12:24:03.523Z</time></trkpt><trkpt lat="45.6589123" lon="9.4783993"><ele>229.16666666666666</ele><time>2026-04-02T12:24:05.523Z</time></trkpt><trkpt lat="45.658994" lon="9.4783893"><ele>229.0</ele><time>2026-04-02T12:24:07.522Z</time></trkpt><trkpt lat="45.6590763" lon="9.4783708"><ele>228.99999999999997</ele><time>2026-04-02T12:24:09.522Z</time></trkpt><trkpt lat="45.6591775" lon="9.4783599"><ele>229.0</ele><time>2026-04-02T12:24:11.522Z</time></trkpt><trkpt lat="45.6592703" lon="9.478328"><ele>229.0</ele><time>2026-04-02T12:24:13.522Z</time></trkpt><trkpt lat="45.6593677" lon="9.4782821"><ele>229.0</ele><time>2026-04-02T12:24:15.522Z</time></trkpt><trkpt lat="45.6594279" lon="9.4782525"><ele>228.99999999999997</ele><time>2026-04-02T12:24:16.522Z</time></trkpt><trkpt lat="45.6594912" lon="9.4782215"><ele>229.0</ele><time>2026-04-02T12:24:17.523Z</time></trkpt><trkpt lat="45.6595947" lon="9.4781728"><ele>229.6</ele><time>2026-04-02T12:24:19.523Z</time></trkpt><trkpt lat="45.6597125" lon="9.478105"><ele>230.2</ele><time>2026-04-02T12:24:21.522Z</time></trkpt><trkpt lat="45.6598258" lon="9.4780221"><ele>230.79999999999998</ele><time>2026-04-02T12:24:23.522Z</time></trkpt><trkpt lat="45.6598899" lon="9.4779929"><ele>231.39999999999998</ele><time>2026-04-02T12:24:24.523Z</time></trkpt><trkpt lat="45.6600069" lon="9.4779477"><ele>232.0</ele><time>2026-04-02T12:24:26.522Z</time></trkpt><trkpt lat="45.6601197" lon="9.4778923"><ele>232.0</ele><time>2026-04-02T12:24:28.522Z</time></trkpt><trkpt lat="45.6602269" lon="9.4778206"><ele>232.0</ele><time>2026-04-02T12:24:30.522Z</time></trkpt><trkpt lat="45.660322" lon="9.4777544"><ele>232.0</ele><time>2026-04-02T12:24:32.523Z</time></trkpt><trkpt lat="45.6604016" lon="9.477687"><ele>232.0</ele><time>2026-04-02T12:24:34.522Z</time></trkpt><trkpt lat="45.6604761" lon="9.4776306"><ele>232.0</ele><time>2026-04-02T12:24:36.522Z</time></trkpt><trkpt lat="45.6605347" lon="9.477575"><ele>232.6</ele><time>2026-04-02T12:24:38.523Z</time></trkpt><trkpt lat="45.6605968" lon="9.4775135"><ele>233.2</ele><time>2026-04-02T12:24:40.523Z</time></trkpt><trkpt lat="45.660687" lon="9.4774769"><ele>233.8</ele><time>2026-04-02T12:24:42.523Z</time></trkpt><trkpt lat="45.6607938" lon="9.4774477"><ele>234.4</ele><time>2026-04-02T12:24:44.523Z</time></trkpt><trkpt lat="45.660902" lon="9.4774084"><ele>235.0</ele><time>2026-04-02T12:24:46.522Z</time></trkpt><trkpt lat="45.6610052" lon="9.4773688"><ele>235.0</ele><time>2026-04-02T12:24:48.523Z</time></trkpt><trkpt lat="45.661103" lon="9.4773281"><ele>235.0</ele><time>2026-04-02T12:24:50.523Z</time></trkpt><trkpt lat="45.661197" lon="9.477296"><ele>235.0</ele><time>2026-04-02T12:24:52.522Z</time></trkpt><trkpt lat="45.6612979" lon="9.4772618"><ele>235.0</ele><time>2026-04-02T12:24:54.523Z</time></trkpt><trkpt lat="45.6614033" lon="9.4772359"><ele>235.0</ele><time>2026-04-02T12:24:56.522Z</time></trkpt><trkpt lat="45.6615111" lon="9.4772059"><ele>235.2</ele><time>2026-04-02T12:24:58.522Z</time></trkpt><trkpt lat="45.6616177" lon="9.4771785"><ele>235.4</ele><time>2026-04-02T12:25:00.523Z</time></trkpt><trkpt lat="45.6617236" lon="9.4771595"><ele>235.60000000000002</ele><time>2026-04-02T12:25:02.522Z</time></trkpt><trkpt lat="45.6618198" lon="9.4771383"><ele>235.8</ele><time>2026-04-02T12:25:04.523Z</time></trkpt><trkpt lat="45.6619185" lon="9.4771177"><ele>236.0</ele><time>2026-04-02T12:25:06.522Z</time></trkpt><trkpt lat="45.6620099" lon="9.4771023"><ele>236.0</ele><time>2026-04-02T12:25:08.523Z</time></trkpt><trkpt lat="45.6621032" lon="9.4770824"><ele>236.00000000000003</ele><time>2026-04-02T12:25:10.522Z</time></trkpt><trkpt lat="45.6622084" lon="9.4770536"><ele>236.00000000000003</ele><time>2026-04-02T12:25:12.522Z</time></trkpt><trkpt lat="45.6623226" lon="9.4770279"><ele>236.0</ele><time>2026-04-02T12:25:14.523Z</time></trkpt><trkpt lat="45.6624285" lon="9.4769955"><ele>236.0</ele><time>2026-04-02T12:25:16.523Z</time></trkpt><trkpt lat="45.6625323" lon="9.4769161"><ele>236.0</ele><time>2026-04-02T12:25:18.523Z</time></trkpt><trkpt lat="45.6626162" lon="9.476793"><ele>236.00000000000003</ele><time>2026-04-02T12:25:20.522Z</time></trkpt><trkpt lat="45.6626328" lon="9.4766405"><ele>236.00000000000003</ele><time>2026-04-02T12:25:22.522Z</time></trkpt><trkpt lat="45.6626317" lon="9.4765086"><ele>236.0</ele><time>2026-04-02T12:25:24.522Z</time></trkpt><trkpt lat="45.6626266" lon="9.4763662"><ele>236.0</ele><time>2026-04-02T12:25:26.523Z</time></trkpt><trkpt lat="45.6626206" lon="9.4762033"><ele>236.33333333333334</ele><time>2026-04-02T12:25:28.523Z</time></trkpt><trkpt lat="45.6626067" lon="9.476074"><ele>236.66666666666669</ele><time>2026-04-02T12:25:30.522Z</time></trkpt><trkpt lat="45.662585" lon="9.4759424"><ele>237.0</ele><time>2026-04-02T12:25:32.523Z</time></trkpt><trkpt lat="45.6625777" lon="9.4758198"><ele>237.33333333333331</ele><time>2026-04-02T12:25:34.522Z</time></trkpt><trkpt lat="45.6626328" lon="9.4756961"><ele>237.66666666666666</ele><time>2026-04-02T12:25:36.522Z</time></trkpt><trkpt lat="45.6626919" lon="9.4756356"><ele>238.0</ele><time>2026-04-02T12:25:37.522Z</time></trkpt><trkpt lat="45.6627711" lon="9.4756031"><ele>238.33333333333331</ele><time>2026-04-02T12:25:38.522Z</time></trkpt><trkpt lat="45.6628463" lon="9.4755888"><ele>238.66666666666666</ele><time>2026-04-02T12:25:39.523Z</time></trkpt><trkpt lat="45.6629499" lon="9.4755649"><ele>239.0</ele><time>2026-04-02T12:25:41.523Z</time></trkpt><trkpt lat="45.6630307" lon="9.4755456"><ele>239.33333333333331</ele><time>2026-04-02T12:25:43.522Z</time></trkpt><trkpt lat="45.6631174" lon="9.4755275"><ele>239.66666666666666</ele><time>2026-04-02T12:25:45.523Z</time></trkpt><trkpt lat="45.6632093" lon="9.4755049"><ele>240.0</ele><time>2026-04-02T12:25:47.522Z</time></trkpt><trkpt lat="45.6632963" lon="9.4754514"><ele>240.2</ele><time>2026-04-02T12:25:49.523Z</time></trkpt><trkpt lat="45.6633179" lon="9.4752975"><ele>240.4</ele><time>2026-04-02T12:25:51.523Z</time></trkpt><trkpt lat="45.663301" lon="9.4751531"><ele>240.60000000000002</ele><time>2026-04-02T12:25:53.522Z</time></trkpt><trkpt lat="45.663281" lon="9.475018"><ele>240.8</ele><time>2026-04-02T12:25:55.522Z</time></trkpt><trkpt lat="45.663268" lon="9.4748852"><ele>241.0</ele><time>2026-04-02T12:25:57.523Z</time></trkpt><trkpt lat="45.6632568" lon="9.4747564"><ele>240.99999999999997</ele><time>2026-04-02T12:25:59.523Z</time></trkpt><trkpt lat="45.6632371" lon="9.4746369"><ele>241.0</ele><time>2026-04-02T12:26:01.522Z</time></trkpt><trkpt lat="45.6632183" lon="9.4745358"><ele>241.0</ele><time>2026-04-02T12:26:03.522Z</time></trkpt><trkpt lat="45.663207" lon="9.4744372"><ele>241.0</ele><time>2026-04-02T12:26:05.522Z</time></trkpt><trkpt lat="45.6631872" lon="9.4743449"><ele>240.99999999999997</ele><time>2026-04-02T12:26:07.522Z</time></trkpt><trkpt lat="45.6631659" lon="9.4742402"><ele>241.0</ele><time>2026-04-02T12:26:09.523Z</time></trkpt><trkpt lat="45.6631444" lon="9.4741307"><ele>241.8</ele><time>2026-04-02T12:26:11.522Z</time></trkpt><trkpt lat="45.6631206" lon="9.4740304"><ele>242.60000000000002</ele><time>2026-04-02T12:26:13.523Z</time></trkpt><trkpt lat="45.6630965" lon="9.4739329"><ele>243.4</ele><time>2026-04-02T12:26:15.523Z</time></trkpt><trkpt lat="45.6630534" lon="9.4741065"><ele>244.2</ele><time>2026-04-02T12:26:16.496Z</time></trkpt><trkpt lat="45.6630544" lon="9.4739281"><ele>245.0</ele><time>2026-04-02T12:26:18.518Z</time></trkpt><trkpt lat="45.6630648" lon="9.4737837"><ele>245.16666666666669</ele><time>2026-04-02T12:26:19.512Z</time></trkpt><trkpt lat="45.6630451" lon="9.4736397"><ele>245.33333333333334</ele><time>2026-04-02T12:26:21.517Z</time></trkpt><trkpt lat="45.6630262" lon="9.4735419"><ele>245.5</ele><time>2026-04-02T12:26:23.516Z</time></trkpt><trkpt lat="45.6630151" lon="9.473405"><ele>245.66666666666669</ele><time>2026-04-02T12:26:24.516Z</time></trkpt><trkpt lat="45.6630031" lon="9.4732834"><ele>245.83333333333334</ele><time>2026-04-02T12:26:25.517Z</time></trkpt><trkpt lat="45.6630027" lon="9.4731514"><ele>246.0</ele><time>2026-04-02T12:26:26.516Z</time></trkpt><trkpt lat="45.6629672" lon="9.4729956"><ele>246.20000000000002</ele><time>2026-04-02T12:26:28.516Z</time></trkpt><trkpt lat="45.6629408" lon="9.4728594"><ele>246.40000000000003</ele><time>2026-04-02T12:26:30.517Z</time></trkpt><trkpt lat="45.6629021" lon="9.472718"><ele>246.6</ele><time>2026-04-02T12:26:32.517Z</time></trkpt><trkpt lat="45.6628687" lon="9.472562"><ele>246.8</ele><time>2026-04-02T12:26:34.517Z</time></trkpt><trkpt lat="45.6628385" lon="9.4724005"><ele>247.0</ele><time>2026-04-02T12:26:36.516Z</time></trkpt><trkpt lat="45.6628282" lon="9.47231"><ele>247.0</ele><time>2026-04-02T12:26:37.517Z</time></trkpt><trkpt lat="45.6628047" lon="9.4721608"><ele>247.0</ele><time>2026-04-02T12:26:39.517Z</time></trkpt><trkpt lat="45.6627827" lon="9.4720055"><ele>247.0</ele><time>2026-04-02T12:26:41.517Z</time></trkpt><trkpt lat="45.6627736" lon="9.4719156"><ele>247.0</ele><time>2026-04-02T12:26:42.516Z</time></trkpt><trkpt lat="45.6627586" lon="9.4717392"><ele>247.0</ele><time>2026-04-02T12:26:44.516Z</time></trkpt><trkpt lat="45.6627368" lon="9.4715703"><ele>247.0</ele><time>2026-04-02T12:26:46.516Z</time></trkpt><trkpt lat="45.6627251" lon="9.4714788"><ele>247.0</ele><time>2026-04-02T12:26:47.516Z</time></trkpt><trkpt lat="45.6627139" lon="9.4713094"><ele>247.0</ele><time>2026-04-02T12:26:49.517Z</time></trkpt><trkpt lat="45.6627073" lon="9.4711463"><ele>247.0</ele><time>2026-04-02T12:26:51.517Z</time></trkpt><trkpt lat="45.6627151" lon="9.4709839"><ele>247.0</ele><time>2026-04-02T12:26:53.516Z</time></trkpt><trkpt lat="45.66272" lon="9.4708108"><ele>247.0</ele><time>2026-04-02T12:26:55.517Z</time></trkpt><trkpt lat="45.6627283" lon="9.470649"><ele>247.0</ele><time>2026-04-02T12:26:57.516Z</time></trkpt><trkpt lat="45.6627314" lon="9.4704913"><ele>247.0</ele><time>2026-04-02T12:26:59.517Z</time></trkpt><trkpt lat="45.6627339" lon="9.4703381"><ele>247.0</ele><time>2026-04-02T12:27:01.516Z</time></trkpt><trkpt lat="45.6627428" lon="9.4702364"><ele>247.0</ele><time>2026-04-02T12:27:02.517Z</time></trkpt><trkpt lat="45.6627458" lon="9.4701382"><ele>247.16666666666666</ele><time>2026-04-02T12:27:03.516Z</time></trkpt><trkpt lat="45.6627469" lon="9.4700359"><ele>247.33333333333331</ele><time>2026-04-02T12:27:04.517Z</time></trkpt><trkpt lat="45.6627363" lon="9.4698727"><ele>247.5</ele><time>2026-04-02T12:27:06.517Z</time></trkpt><trkpt lat="45.6627295" lon="9.4697828"><ele>247.66666666666669</ele><time>2026-04-02T12:27:07.516Z</time></trkpt><trkpt lat="45.6627015" lon="9.4696129"><ele>247.83333333333334</ele><time>2026-04-02T12:27:09.516Z</time></trkpt><trkpt lat="45.6626882" lon="9.4695219"><ele>248.0</ele><time>2026-04-02T12:27:10.517Z</time></trkpt><trkpt lat="45.6626716" lon="9.4693391"><ele>248.2</ele><time>2026-04-02T12:27:12.516Z</time></trkpt><trkpt lat="45.6626547" lon="9.4692505"><ele>248.4</ele><time>2026-04-02T12:27:13.516Z</time></trkpt><trkpt lat="45.6626255" lon="9.4690694"><ele>248.59999999999997</ele><time>2026-04-02T12:27:15.517Z</time></trkpt><trkpt lat="45.662595" lon="9.4689071"><ele>248.79999999999998</ele><time>2026-04-02T12:27:17.516Z</time></trkpt><trkpt lat="45.6625771" lon="9.468819"><ele>249.0</ele><time>2026-04-02T12:27:18.517Z</time></trkpt><trkpt lat="45.6625421" lon="9.4686626"><ele>249.0</ele><time>2026-04-02T12:27:20.516Z</time></trkpt><trkpt lat="45.6625532" lon="9.4685074"><ele>248.99999999999997</ele><time>2026-04-02T12:27:22.516Z</time></trkpt><trkpt lat="45.6626295" lon="9.4684103"><ele>248.99999999999997</ele><time>2026-04-02T12:27:24.516Z</time></trkpt><trkpt lat="45.6627354" lon="9.4683738"><ele>249.0</ele><time>2026-04-02T12:27:26.516Z</time></trkpt><trkpt lat="45.662847" lon="9.4683333"><ele>249.0</ele><time>2026-04-02T12:27:28.517Z</time></trkpt><trkpt lat="45.6629642" lon="9.4682829"><ele>249.0</ele><time>2026-04-02T12:27:30.516Z</time></trkpt><trkpt lat="45.6630799" lon="9.4682401"><ele>248.99999999999997</ele><time>2026-04-02T12:27:32.517Z</time></trkpt><trkpt lat="45.6631438" lon="9.4682137"><ele>248.99999999999997</ele><time>2026-04-02T12:27:33.516Z</time></trkpt><trkpt lat="45.6632636" lon="9.4681729"><ele>249.0</ele><time>2026-04-02T12:27:35.516Z</time></trkpt><trkpt lat="45.663377" lon="9.4681243"><ele>249.0</ele><time>2026-04-02T12:27:37.516Z</time></trkpt><trkpt lat="45.6634943" lon="9.4680844"><ele>249.0</ele><time>2026-04-02T12:27:39.517Z</time></trkpt><trkpt lat="45.6636032" lon="9.4680429"><ele>248.99999999999997</ele><time>2026-04-02T12:27:41.517Z</time></trkpt><trkpt lat="45.6637162" lon="9.4680053"><ele>248.99999999999997</ele><time>2026-04-02T12:27:43.517Z</time></trkpt><trkpt lat="45.6638029" lon="9.4679598"><ele>249.0</ele><time>2026-04-02T12:27:45.516Z</time></trkpt><trkpt lat="45.6638381" lon="9.467815"><ele>249.0</ele><time>2026-04-02T12:27:47.516Z</time></trkpt><trkpt lat="45.663843" lon="9.4676714"><ele>249.2</ele><time>2026-04-02T12:27:49.516Z</time></trkpt><trkpt lat="45.6638331" lon="9.4675228"><ele>249.39999999999998</ele><time>2026-04-02T12:27:51.517Z</time></trkpt><trkpt lat="45.6638223" lon="9.4673577"><ele>249.6</ele><time>2026-04-02T12:27:53.516Z</time></trkpt><trkpt lat="45.6638085" lon="9.4671951"><ele>249.8</ele><time>2026-04-02T12:27:55.516Z</time></trkpt><trkpt lat="45.663794" lon="9.4670338"><ele>250.0</ele><time>2026-04-02T12:27:57.517Z</time></trkpt><trkpt lat="45.6637794" lon="9.46687"><ele>250.0</ele><time>2026-04-02T12:27:59.516Z</time></trkpt><trkpt lat="45.6637706" lon="9.4667"><ele>250.0</ele><time>2026-04-02T12:28:01.516Z</time></trkpt><trkpt lat="45.6637591" lon="9.4665386"><ele>250.0</ele><time>2026-04-02T12:28:03.517Z</time></trkpt><trkpt lat="45.6637596" lon="9.4663674"><ele>250.0</ele><time>2026-04-02T12:28:05.517Z</time></trkpt><trkpt lat="45.6637535" lon="9.4662758"><ele>250.0</ele><time>2026-04-02T12:28:06.517Z</time></trkpt><trkpt lat="45.6637443" lon="9.4661119"><ele>250.2</ele><time>2026-04-02T12:28:08.517Z</time></trkpt><trkpt lat="45.663738" lon="9.4659304"><ele>250.4</ele><time>2026-04-02T12:28:10.517Z</time></trkpt><trkpt lat="45.6637242" lon="9.4657649"><ele>250.60000000000002</ele><time>2026-04-02T12:28:12.516Z</time></trkpt><trkpt lat="45.6637151" lon="9.4656737"><ele>250.8</ele><time>2026-04-02T12:28:13.516Z</time></trkpt><trkpt lat="45.6637026" lon="9.4654888"><ele>251.0</ele><time>2026-04-02T12:28:15.516Z</time></trkpt><trkpt lat="45.6636965" lon="9.4653944"><ele>251.0</ele><time>2026-04-02T12:28:16.517Z</time></trkpt><trkpt lat="45.6636872" lon="9.4652162"><ele>251.00000000000003</ele><time>2026-04-02T12:28:18.516Z</time></trkpt><trkpt lat="45.6636857" lon="9.4650305"><ele>251.00000000000003</ele><time>2026-04-02T12:28:20.516Z</time></trkpt><trkpt lat="45.6636801" lon="9.4649384"><ele>251.0</ele><time>2026-04-02T12:28:21.516Z</time></trkpt><trkpt lat="45.6636836" lon="9.464843"><ele>251.0</ele><time>2026-04-02T12:28:22.516Z</time></trkpt><trkpt lat="45.6637106" lon="9.464684"><ele>251.0</ele><time>2026-04-02T12:28:24.517Z</time></trkpt><trkpt lat="45.6637802" lon="9.4645244"><ele>251.00000000000003</ele><time>2026-04-02T12:28:26.517Z</time></trkpt><trkpt lat="45.6638642" lon="9.4643706"><ele>251.00000000000003</ele><time>2026-04-02T12:28:28.517Z</time></trkpt><trkpt lat="45.6639042" lon="9.4642964"><ele>251.0</ele><time>2026-04-02T12:28:29.516Z</time></trkpt><trkpt lat="45.6639444" lon="9.4642233"><ele>251.0</ele><time>2026-04-02T12:28:30.517Z</time></trkpt><trkpt lat="45.6639857" lon="9.4641482"><ele>251.0</ele><time>2026-04-02T12:28:31.517Z</time></trkpt><trkpt lat="45.6640688" lon="9.4640142"><ele>251.00000000000003</ele><time>2026-04-02T12:28:33.516Z</time></trkpt><trkpt lat="45.6641106" lon="9.4639426"><ele>251.00000000000003</ele><time>2026-04-02T12:28:34.517Z</time></trkpt><trkpt lat="45.664148" lon="9.4638676"><ele>251.0</ele><time>2026-04-02T12:28:35.516Z</time></trkpt><trkpt lat="45.6642286" lon="9.4637288"><ele>251.0</ele><time>2026-04-02T12:28:37.516Z</time></trkpt><trkpt lat="45.6643064" lon="9.4636009"><ele>251.16666666666669</ele><time>2026-04-02T12:28:39.517Z</time></trkpt><trkpt lat="45.6643506" lon="9.4635225"><ele>251.33333333333334</ele><time>2026-04-02T12:28:40.516Z</time></trkpt><trkpt lat="45.6644278" lon="9.4633815"><ele>251.5</ele><time>2026-04-02T12:28:42.516Z</time></trkpt><trkpt lat="45.664469" lon="9.4633099"><ele>251.66666666666669</ele><time>2026-04-02T12:28:43.517Z</time></trkpt><trkpt lat="45.6645077" lon="9.4632368"><ele>251.83333333333334</ele><time>2026-04-02T12:28:44.517Z</time></trkpt><trkpt lat="45.6645456" lon="9.4631616"><ele>252.0</ele><time>2026-04-02T12:28:45.516Z</time></trkpt><trkpt lat="45.6646094" lon="9.4630449"><ele>252.2</ele><time>2026-04-02T12:28:47.516Z</time></trkpt><trkpt lat="45.664648" lon="9.4629627"><ele>252.39999999999998</ele><time>2026-04-02T12:28:57.517Z</time></trkpt><trkpt lat="45.6646972" lon="9.4628388"><ele>252.60000000000002</ele><time>2026-04-02T12:29:00.517Z</time></trkpt><trkpt lat="45.6647461" lon="9.4627259"><ele>252.8</ele><time>2026-04-02T12:29:02.517Z</time></trkpt><trkpt lat="45.664801" lon="9.4625934"><ele>253.0</ele><time>2026-04-02T12:29:04.516Z</time></trkpt><trkpt lat="45.6648488" lon="9.4624677"><ele>253.4</ele><time>2026-04-02T12:29:06.517Z</time></trkpt><trkpt lat="45.6649025" lon="9.4623383"><ele>253.8</ele><time>2026-04-02T12:29:08.516Z</time></trkpt><trkpt lat="45.6649593" lon="9.462202"><ele>254.2</ele><time>2026-04-02T12:29:10.516Z</time></trkpt><trkpt lat="45.6650163" lon="9.4620645"><ele>254.6</ele><time>2026-04-02T12:29:12.516Z</time></trkpt><trkpt lat="45.665082" lon="9.4619264"><ele>255.0</ele><time>2026-04-02T12:29:14.516Z</time></trkpt><trkpt lat="45.6651387" lon="9.4617868"><ele>255.0</ele><time>2026-04-02T12:29:16.516Z</time></trkpt><trkpt lat="45.6651766" lon="9.4616356"><ele>255.0</ele><time>2026-04-02T12:29:18.516Z</time></trkpt><trkpt lat="45.6652096" lon="9.4614922"><ele>255.0</ele><time>2026-04-02T12:29:20.516Z</time></trkpt><trkpt lat="45.6652561" lon="9.4613365"><ele>255.0</ele><time>2026-04-02T12:29:22.517Z</time></trkpt><trkpt lat="45.6653066" lon="9.461186"><ele>254.6</ele><time>2026-04-02T12:29:24.516Z</time></trkpt><trkpt lat="45.6653638" lon="9.4610405"><ele>254.2</ele><time>2026-04-02T12:29:26.517Z</time></trkpt><trkpt lat="45.6654541" lon="9.4609424"><ele>253.8</ele><time>2026-04-02T12:29:28.517Z</time></trkpt><trkpt lat="45.6655159" lon="9.4609109"><ele>253.4</ele><time>2026-04-02T12:29:29.517Z</time></trkpt><trkpt lat="45.6656231" lon="9.4609102"><ele>253.0</ele><time>2026-04-02T12:29:31.517Z</time></trkpt><trkpt lat="45.665746" lon="9.4609189"><ele>253.0</ele><time>2026-04-02T12:29:33.516Z</time></trkpt><trkpt lat="45.6658584" lon="9.4609267"><ele>253.0</ele><time>2026-04-02T12:29:35.516Z</time></trkpt><trkpt lat="45.6659254" lon="9.4609556"><ele>253.0</ele><time>2026-04-02T12:29:36.516Z</time></trkpt><trkpt lat="45.6660351" lon="9.4609652"><ele>253.0</ele><time>2026-04-02T12:29:38.516Z</time></trkpt><trkpt lat="45.6661527" lon="9.460965"><ele>253.0</ele><time>2026-04-02T12:29:40.517Z</time></trkpt><trkpt lat="45.6662154" lon="9.4609792"><ele>252.8</ele><time>2026-04-02T12:29:41.517Z</time></trkpt><trkpt lat="45.6662785" lon="9.4610055"><ele>252.60000000000002</ele><time>2026-04-02T12:29:42.516Z</time></trkpt><trkpt lat="45.6663837" lon="9.461008"><ele>252.39999999999998</ele><time>2026-04-02T12:29:44.517Z</time></trkpt><trkpt lat="45.6664497" lon="9.4610161"><ele>252.2</ele><time>2026-04-02T12:29:45.516Z</time></trkpt><trkpt lat="45.666572" lon="9.4610199"><ele>252.0</ele><time>2026-04-02T12:29:47.517Z</time></trkpt><trkpt lat="45.6666808" lon="9.46104"><ele>252.0</ele><time>2026-04-02T12:29:49.516Z</time></trkpt><trkpt lat="45.6667495" lon="9.4610437"><ele>252.0</ele><time>2026-04-02T12:29:50.517Z</time></trkpt><trkpt lat="45.6668515" lon="9.4610563"><ele>252.0</ele><time>2026-04-02T12:29:52.517Z</time></trkpt><trkpt lat="45.6669657" lon="9.4610715"><ele>252.0</ele><time>2026-04-02T12:29:54.516Z</time></trkpt><trkpt lat="45.6670366" lon="9.4610862"><ele>252.0</ele><time>2026-04-02T12:29:55.516Z</time></trkpt><trkpt lat="45.6671008" lon="9.4610988"><ele>252.0</ele><time>2026-04-02T12:29:56.517Z</time></trkpt><trkpt lat="45.6672236" lon="9.4611117"><ele>252.39999999999998</ele><time>2026-04-02T12:29:58.517Z</time></trkpt><trkpt lat="45.6673503" lon="9.4611377"><ele>252.79999999999998</ele><time>2026-04-02T12:30:00.516Z</time></trkpt><trkpt lat="45.6674679" lon="9.461166"><ele>253.2</ele><time>2026-04-02T12:30:02.516Z</time></trkpt><trkpt lat="45.6675756" lon="9.4611697"><ele>253.6</ele><time>2026-04-02T12:30:04.517Z</time></trkpt><trkpt lat="45.6676433" lon="9.461183"><ele>254.0</ele><time>2026-04-02T12:30:05.516Z</time></trkpt><trkpt lat="45.6677109" lon="9.4612208"><ele>254.00000000000003</ele><time>2026-04-02T12:30:06.516Z</time></trkpt><trkpt lat="45.6677805" lon="9.4612503"><ele>254.0</ele><time>2026-04-02T12:30:07.516Z</time></trkpt><trkpt lat="45.6678439" lon="9.4612554"><ele>254.0</ele><time>2026-04-02T12:30:08.517Z</time></trkpt><trkpt lat="45.6679153" lon="9.4612742"><ele>254.0</ele><time>2026-04-02T12:30:09.516Z</time></trkpt><trkpt lat="45.6679856" lon="9.4612837"><ele>254.00000000000003</ele><time>2026-04-02T12:30:10.516Z</time></trkpt><trkpt lat="45.6680969" lon="9.4612283"><ele>254.0</ele><time>2026-04-02T12:30:12.517Z</time></trkpt><trkpt lat="45.6681727" lon="9.4610907"><ele>254.0</ele><time>2026-04-02T12:30:14.516Z</time></trkpt><trkpt lat="45.6682116" lon="9.4609222"><ele>253.99999999999997</ele><time>2026-04-02T12:30:16.516Z</time></trkpt><trkpt lat="45.6682329" lon="9.4607367"><ele>253.99999999999997</ele><time>2026-04-02T12:30:18.517Z</time></trkpt><trkpt lat="45.6682411" lon="9.4606425"><ele>254.0</ele><time>2026-04-02T12:30:19.516Z</time></trkpt><trkpt lat="45.6682516" lon="9.4604611"><ele>254.0</ele><time>2026-04-02T12:30:21.516Z</time></trkpt><trkpt lat="45.6682576" lon="9.4603672"><ele>254.14285714285717</ele><time>2026-04-02T12:30:22.517Z</time></trkpt><trkpt lat="45.6682637" lon="9.4602713"><ele>254.28571428571428</ele><time>2026-04-02T12:30:23.517Z</time></trkpt><trkpt lat="45.6682704" lon="9.4601777"><ele>254.42857142857144</ele><time>2026-04-02T12:30:24.517Z</time></trkpt><trkpt lat="45.6682759" lon="9.460081"><ele>254.57142857142858</ele><time>2026-04-02T12:30:25.516Z</time></trkpt><trkpt lat="45.6682843" lon="9.4599831"><ele>254.71428571428572</ele><time>2026-04-02T12:30:26.516Z</time></trkpt><trkpt lat="45.6682903" lon="9.4598903"><ele>254.85714285714286</ele><time>2026-04-02T12:30:27.516Z</time></trkpt><trkpt lat="45.6682962" lon="9.4597961"><ele>255.0</ele><time>2026-04-02T12:30:28.516Z</time></trkpt><trkpt lat="45.6683101" lon="9.4596892"><ele>255.16666666666666</ele><time>2026-04-02T12:30:29.516Z</time></trkpt><trkpt lat="45.6683182" lon="9.4595989"><ele>255.33333333333331</ele><time>2026-04-02T12:30:30.517Z</time></trkpt><trkpt lat="45.6683263" lon="9.459509"><ele>255.5</ele><time>2026-04-02T12:30:31.516Z</time></trkpt><trkpt lat="45.6683367" lon="9.459327"><ele>255.66666666666666</ele><time>2026-04-02T12:30:33.516Z</time></trkpt><trkpt lat="45.6683469" lon="9.4592381"><ele>255.83333333333331</ele><time>2026-04-02T12:30:34.517Z</time></trkpt><trkpt lat="45.6683589" lon="9.4591335"><ele>256.0</ele><time>2026-04-02T12:30:35.517Z</time></trkpt><trkpt lat="45.6683651" lon="9.4590369"><ele>255.99999999999997</ele><time>2026-04-02T12:30:36.516Z</time></trkpt><trkpt lat="45.6683811" lon="9.4588525"><ele>256.0</ele><time>2026-04-02T12:30:38.517Z</time></trkpt><trkpt lat="45.6683853" lon="9.4587519"><ele>256.0</ele><time>2026-04-02T12:30:39.517Z</time></trkpt><trkpt lat="45.6683966" lon="9.4586581"><ele>256.0</ele><time>2026-04-02T12:30:40.516Z</time></trkpt><trkpt lat="45.6684122" lon="9.4585622"><ele>255.99999999999997</ele><time>2026-04-02T12:30:41.517Z</time></trkpt><trkpt lat="45.6684231" lon="9.4584689"><ele>256.0</ele><time>2026-04-02T12:30:42.516Z</time></trkpt><trkpt lat="45.6684624" lon="9.4583086"><ele>256.2</ele><time>2026-04-02T12:30:44.516Z</time></trkpt><trkpt lat="45.6685366" lon="9.4581655"><ele>256.40000000000003</ele><time>2026-04-02T12:30:46.516Z</time></trkpt><trkpt lat="45.668638" lon="9.4580643"><ele>256.6</ele><time>2026-04-02T12:30:48.517Z</time></trkpt><trkpt lat="45.6686946" lon="9.4580235"><ele>256.8</ele><time>2026-04-02T12:30:49.516Z</time></trkpt><trkpt lat="45.6687552" lon="9.4579868"><ele>257.0</ele><time>2026-04-02T12:30:50.516Z</time></trkpt><trkpt lat="45.6688223" lon="9.4579453"><ele>256.6</ele><time>2026-04-02T12:30:51.517Z</time></trkpt><trkpt lat="45.6689338" lon="9.4578569"><ele>256.2</ele><time>2026-04-02T12:30:53.516Z</time></trkpt><trkpt lat="45.669047" lon="9.4577727"><ele>255.8</ele><time>2026-04-02T12:30:55.516Z</time></trkpt><trkpt lat="45.6691065" lon="9.4577407"><ele>255.4</ele><time>2026-04-02T12:30:56.517Z</time></trkpt><trkpt lat="45.6691655" lon="9.457701"><ele>255.0</ele><time>2026-04-02T12:30:57.516Z</time></trkpt><trkpt lat="45.669222" lon="9.457651"><ele>255.0</ele><time>2026-04-02T12:30:58.517Z</time></trkpt><trkpt lat="45.6692793" lon="9.457611"><ele>255.00000000000003</ele><time>2026-04-02T12:30:59.516Z</time></trkpt><trkpt lat="45.6693381" lon="9.4575663"><ele>255.0</ele><time>2026-04-02T12:31:00.516Z</time></trkpt><trkpt lat="45.6693987" lon="9.4575286"><ele>255.0</ele><time>2026-04-02T12:31:01.517Z</time></trkpt><trkpt lat="45.66946" lon="9.4574903"><ele>255.00000000000003</ele><time>2026-04-02T12:31:02.516Z</time></trkpt><trkpt lat="45.6695184" lon="9.457451"><ele>255.0</ele><time>2026-04-02T12:31:03.517Z</time></trkpt><trkpt lat="45.669579" lon="9.4574166"><ele>255.0</ele><time>2026-04-02T12:31:04.517Z</time></trkpt><trkpt lat="45.6696433" lon="9.4573821"><ele>255.0</ele><time>2026-04-02T12:31:05.516Z</time></trkpt><trkpt lat="45.6697055" lon="9.4573593"><ele>255.0</ele><time>2026-04-02T12:31:06.517Z</time></trkpt><trkpt lat="45.6698277" lon="9.4573419"><ele>255.0</ele><time>2026-04-02T12:31:08.517Z</time></trkpt><trkpt lat="45.6698929" lon="9.4573471"><ele>255.0</ele><time>2026-04-02T12:31:09.516Z</time></trkpt><trkpt lat="45.6700162" lon="9.4573564"><ele>255.0</ele><time>2026-04-02T12:31:11.517Z</time></trkpt><trkpt lat="45.6701451" lon="9.4573872"><ele>255.0</ele><time>2026-04-02T12:31:13.517Z</time></trkpt><trkpt lat="45.6702653" lon="9.4574123"><ele>255.0</ele><time>2026-04-02T12:31:15.517Z</time></trkpt><trkpt lat="45.6703331" lon="9.4574139"><ele>255.0</ele><time>2026-04-02T12:31:16.517Z</time></trkpt><trkpt lat="45.6704548" lon="9.4574202"><ele>255.0</ele><time>2026-04-02T12:31:18.517Z</time></trkpt><trkpt lat="45.6705237" lon="9.4574216"><ele>255.0</ele><time>2026-04-02T12:31:19.517Z</time></trkpt><trkpt lat="45.6705903" lon="9.4574315"><ele>255.0</ele><time>2026-04-02T12:31:20.517Z</time></trkpt><trkpt lat="45.6706637" lon="9.4574395"><ele>255.33333333333334</ele><time>2026-04-02T12:31:21.517Z</time></trkpt><trkpt lat="45.6707668" lon="9.4574597"><ele>255.66666666666669</ele><time>2026-04-02T12:31:23.516Z</time></trkpt><trkpt lat="45.6708435" lon="9.4574677"><ele>256.0</ele><time>2026-04-02T12:31:24.516Z</time></trkpt><trkpt lat="45.6709098" lon="9.4574759"><ele>256.33333333333337</ele><time>2026-04-02T12:31:25.517Z</time></trkpt><trkpt lat="45.6710366" lon="9.4574888"><ele>256.6666666666667</ele><time>2026-04-02T12:31:27.516Z</time></trkpt><trkpt lat="45.671102" lon="9.4574983"><ele>257.0</ele><time>2026-04-02T12:31:28.517Z</time></trkpt><trkpt lat="45.6711763" lon="9.4575052"><ele>257.5</ele><time>2026-04-02T12:31:29.517Z</time></trkpt><trkpt lat="45.6713011" lon="9.4575225"><ele>258.0</ele><time>2026-04-02T12:31:31.517Z</time></trkpt><trkpt lat="45.6713666" lon="9.4575365"><ele>258.5</ele><time>2026-04-02T12:31:32.517Z</time></trkpt><trkpt lat="45.6714304" lon="9.4575444"><ele>259.0</ele><time>2026-04-02T12:31:33.516Z</time></trkpt><trkpt lat="45.6714971" lon="9.457545"><ele>259.5</ele><time>2026-04-02T12:31:34.516Z</time></trkpt><trkpt lat="45.6715617" lon="9.4575577"><ele>260.0</ele><time>2026-04-02T12:31:35.516Z</time></trkpt><trkpt lat="45.6716267" lon="9.4575691"><ele>260.00000000000006</ele><time>2026-04-02T12:31:36.517Z</time></trkpt><trkpt lat="45.6716918" lon="9.4575738"><ele>260.0</ele><time>2026-04-02T12:31:37.517Z</time></trkpt><trkpt lat="45.6717577" lon="9.4575779"><ele>260.0</ele><time>2026-04-02T12:31:38.516Z</time></trkpt><trkpt lat="45.6718214" lon="9.4575785"><ele>260.0</ele><time>2026-04-02T12:31:39.517Z</time></trkpt><trkpt lat="45.6718868" lon="9.4575664"><ele>260.0</ele><time>2026-04-02T12:31:40.517Z</time></trkpt><trkpt lat="45.6719496" lon="9.4575473"><ele>260.00000000000006</ele><time>2026-04-02T12:31:41.516Z</time></trkpt><trkpt lat="45.6720155" lon="9.457522"><ele>260.0</ele><time>2026-04-02T12:31:42.517Z</time></trkpt><trkpt lat="45.672078" lon="9.4574841"><ele>259.7142857142857</ele><time>2026-04-02T12:31:43.516Z</time></trkpt><trkpt lat="45.6721356" lon="9.4574406"><ele>259.42857142857144</ele><time>2026-04-02T12:31:44.517Z</time></trkpt><trkpt lat="45.6721913" lon="9.457395"><ele>259.1428571428571</ele><time>2026-04-02T12:31:45.517Z</time></trkpt><trkpt lat="45.672255" lon="9.4573489"><ele>258.8571428571429</ele><time>2026-04-02T12:31:46.517Z</time></trkpt><trkpt lat="45.6723131" lon="9.4573037"><ele>258.57142857142856</ele><time>2026-04-02T12:31:47.517Z</time></trkpt><trkpt lat="45.6723754" lon="9.4572672"><ele>258.2857142857143</ele><time>2026-04-02T12:31:48.517Z</time></trkpt><trkpt lat="45.6724403" lon="9.4572172"><ele>258.0</ele><time>2026-04-02T12:31:49.516Z</time></trkpt><trkpt lat="45.6725011" lon="9.4571661"><ele>257.99999999999994</ele><time>2026-04-02T12:31:50.516Z</time></trkpt><trkpt lat="45.6725645" lon="9.4571236"><ele>258.0</ele><time>2026-04-02T12:31:51.517Z</time></trkpt><trkpt lat="45.6726266" lon="9.4570784"><ele>258.0</ele><time>2026-04-02T12:31:52.517Z</time></trkpt><trkpt lat="45.6726852" lon="9.4570366"><ele>258.0</ele><time>2026-04-02T12:31:53.517Z</time></trkpt><trkpt lat="45.6727496" lon="9.4570139"><ele>258.0</ele><time>2026-04-02T12:31:54.517Z</time></trkpt><trkpt lat="45.6728146" lon="9.4570013"><ele>257.99999999999994</ele><time>2026-04-02T12:31:55.517Z</time></trkpt><trkpt lat="45.672883" lon="9.4569867"><ele>258.0</ele><time>2026-04-02T12:31:56.516Z</time></trkpt><trkpt lat="45.673008" lon="9.4569942"><ele>258.4285714285714</ele><time>2026-04-02T12:31:58.516Z</time></trkpt><trkpt lat="45.6730751" lon="9.4569892"><ele>258.85714285714283</ele><time>2026-04-02T12:31:59.517Z</time></trkpt><trkpt lat="45.6731404" lon="9.4569896"><ele>259.2857142857143</ele><time>2026-04-02T12:32:00.517Z</time></trkpt><trkpt lat="45.6732122" lon="9.4569842"><ele>259.71428571428567</ele><time>2026-04-02T12:32:01.517Z</time></trkpt><trkpt lat="45.6732818" lon="9.4569834"><ele>260.1428571428571</ele><time>2026-04-02T12:32:02.516Z</time></trkpt><trkpt lat="45.6733486" lon="9.4569751"><ele>260.57142857142856</ele><time>2026-04-02T12:32:03.516Z</time></trkpt><trkpt lat="45.6734175" lon="9.4569647"><ele>261.0</ele><time>2026-04-02T12:32:04.516Z</time></trkpt><trkpt lat="45.6734904" lon="9.4569479"><ele>261.0</ele><time>2026-04-02T12:32:05.517Z</time></trkpt><trkpt lat="45.6735594" lon="9.4569271"><ele>261.0</ele><time>2026-04-02T12:32:06.516Z</time></trkpt><trkpt lat="45.6736307" lon="9.4568936"><ele>261.0</ele><time>2026-04-02T12:32:07.517Z</time></trkpt><trkpt lat="45.6737093" lon="9.4568723"><ele>261.0</ele><time>2026-04-02T12:32:08.516Z</time></trkpt><trkpt lat="45.6737846" lon="9.4568444"><ele>261.0</ele><time>2026-04-02T12:32:09.516Z</time></trkpt><trkpt lat="45.6738749" lon="9.4568101"><ele>261.0</ele><time>2026-04-02T12:32:10.516Z</time></trkpt><trkpt lat="45.6739595" lon="9.4567778"><ele>261.0</ele><time>2026-04-02T12:32:11.517Z</time></trkpt><trkpt lat="45.6740344" lon="9.4567433"><ele>261.0</ele><time>2026-04-02T12:32:12.517Z</time></trkpt><trkpt lat="45.6741191" lon="9.4567118"><ele>261.0</ele><time>2026-04-02T12:32:13.517Z</time></trkpt><trkpt lat="45.6741873" lon="9.4566488"><ele>261.0</ele><time>2026-04-02T12:32:14.516Z</time></trkpt><trkpt lat="45.6742567" lon="9.4565783"><ele>261.0</ele><time>2026-04-02T12:32:15.517Z</time></trkpt><trkpt lat="45.6743247" lon="9.4564974"><ele>261.0</ele><time>2026-04-02T12:32:16.517Z</time></trkpt><trkpt lat="45.6743774" lon="9.4563964"><ele>261.0</ele><time>2026-04-02T12:32:17.516Z</time></trkpt><trkpt lat="45.6744359" lon="9.4563006"><ele>261.0</ele><time>2026-04-02T12:32:18.517Z</time></trkpt><trkpt lat="45.6744766" lon="9.4561925"><ele>261.0</ele><time>2026-04-02T12:32:19.517Z</time></trkpt><trkpt lat="45.6745223" lon="9.4560777"><ele>261.0</ele><time>2026-04-02T12:32:20.516Z</time></trkpt><trkpt lat="45.6745616" lon="9.4559652"><ele>261.0</ele><time>2026-04-02T12:32:21.517Z</time></trkpt><trkpt lat="45.6745946" lon="9.4558604"><ele>261.0</ele><time>2026-04-02T12:32:22.517Z</time></trkpt><trkpt lat="45.6746389" lon="9.4557584"><ele>260.1666666666667</ele><time>2026-04-02T12:32:23.517Z</time></trkpt><trkpt lat="45.6746746" lon="9.4556589"><ele>259.3333333333333</ele><time>2026-04-02T12:32:24.516Z</time></trkpt><trkpt lat="45.6747071" lon="9.4555629"><ele>258.5</ele><time>2026-04-02T12:32:25.517Z</time></trkpt><trkpt lat="45.6747433" lon="9.455458"><ele>257.66666666666663</ele><time>2026-04-02T12:32:26.517Z</time></trkpt><trkpt lat="45.6747791" lon="9.4553503"><ele>256.8333333333333</ele><time>2026-04-02T12:32:27.516Z</time></trkpt><trkpt lat="45.6748068" lon="9.4552551"><ele>256.0</ele><time>2026-04-02T12:32:28.517Z</time></trkpt><trkpt lat="45.6748265" lon="9.4551511"><ele>255.99999999999997</ele><time>2026-04-02T12:32:29.517Z</time></trkpt><trkpt lat="45.6748544" lon="9.4550531"><ele>256.0</ele><time>2026-04-02T12:32:30.517Z</time></trkpt><trkpt lat="45.6748798" lon="9.4549551"><ele>256.0</ele><time>2026-04-02T12:32:31.517Z</time></trkpt><trkpt lat="45.674901" lon="9.4548537"><ele>256.0</ele><time>2026-04-02T12:32:32.516Z</time></trkpt><trkpt lat="45.6749316" lon="9.4547512"><ele>255.99999999999997</ele><time>2026-04-02T12:32:33.516Z</time></trkpt><trkpt lat="45.674963" lon="9.4546438"><ele>256.0</ele><time>2026-04-02T12:32:34.516Z</time></trkpt><trkpt lat="45.6749975" lon="9.4544764"><ele>256.40000000000003</ele><time>2026-04-02T12:32:36.516Z</time></trkpt><trkpt lat="45.6750291" lon="9.4543663"><ele>256.8</ele><time>2026-04-02T12:32:37.516Z</time></trkpt><trkpt lat="45.6750513" lon="9.4541818"><ele>257.20000000000005</ele><time>2026-04-02T12:32:39.517Z</time></trkpt><trkpt lat="45.6750535" lon="9.4540856"><ele>257.6</ele><time>2026-04-02T12:32:40.517Z</time></trkpt><trkpt lat="45.6750689" lon="9.4539142"><ele>258.0</ele><time>2026-04-02T12:32:42.517Z</time></trkpt><trkpt lat="45.6750812" lon="9.453745"><ele>258.4</ele><time>2026-04-02T12:32:44.517Z</time></trkpt><trkpt lat="45.6750907" lon="9.4536506"><ele>258.8</ele><time>2026-04-02T12:32:45.517Z</time></trkpt><trkpt lat="45.6751075" lon="9.4534809"><ele>259.2</ele><time>2026-04-02T12:32:47.516Z</time></trkpt><trkpt lat="45.6751271" lon="9.4533918"><ele>259.6</ele><time>2026-04-02T12:32:48.517Z</time></trkpt><trkpt lat="45.6751485" lon="9.4532637"><ele>260.0</ele><time>2026-04-02T12:32:49.517Z</time></trkpt><trkpt lat="45.6752051" lon="9.4531261"><ele>260.0</ele><time>2026-04-02T12:32:51.516Z</time></trkpt><trkpt lat="45.6752369" lon="9.4530419"><ele>260.0</ele><time>2026-04-02T12:32:52.517Z</time></trkpt><trkpt lat="45.6753179" lon="9.4529149"><ele>260.0</ele><time>2026-04-02T12:32:54.516Z</time></trkpt><trkpt lat="45.6754009" lon="9.4527787"><ele>260.0</ele><time>2026-04-02T12:32:56.517Z</time></trkpt><trkpt lat="45.6754688" lon="9.4526516"><ele>260.0</ele><time>2026-04-02T12:32:58.517Z</time></trkpt><trkpt lat="45.6755261" lon="9.452589"><ele>260.1666666666667</ele><time>2026-04-02T12:32:59.517Z</time></trkpt><trkpt lat="45.675574" lon="9.4525072"><ele>260.33333333333337</ele><time>2026-04-02T12:33:00.517Z</time></trkpt><trkpt lat="45.675623" lon="9.452441"><ele>260.5</ele><time>2026-04-02T12:33:01.516Z</time></trkpt><trkpt lat="45.675667" lon="9.452368"><ele>260.6666666666667</ele><time>2026-04-02T12:33:02.516Z</time></trkpt><trkpt lat="45.6757092" lon="9.4522951"><ele>260.8333333333333</ele><time>2026-04-02T12:33:03.516Z</time></trkpt><trkpt lat="45.6757503" lon="9.4522257"><ele>261.0</ele><time>2026-04-02T12:33:04.516Z</time></trkpt><trkpt lat="45.6758209" lon="9.4520734"><ele>261.0</ele><time>2026-04-02T12:33:06.516Z</time></trkpt><trkpt lat="45.6758863" lon="9.4519265"><ele>261.0</ele><time>2026-04-02T12:33:08.517Z</time></trkpt><trkpt lat="45.6759272" lon="9.4518283"><ele>261.0</ele><time>2026-04-02T12:33:09.516Z</time></trkpt><trkpt lat="45.675956" lon="9.4517427"><ele>261.0</ele><time>2026-04-02T12:33:10.517Z</time></trkpt><trkpt lat="45.6759945" lon="9.4516557"><ele>261.0</ele><time>2026-04-02T12:33:11.516Z</time></trkpt><trkpt lat="45.6760401" lon="9.4515567"><ele>261.0</ele><time>2026-04-02T12:33:12.517Z</time></trkpt><trkpt lat="45.6760638" lon="9.4514686"><ele>261.0</ele><time>2026-04-02T12:33:13.517Z</time></trkpt><trkpt lat="45.6761007" lon="9.4513707"><ele>261.0</ele><time>2026-04-02T12:33:14.516Z</time></trkpt><trkpt lat="45.6761315" lon="9.4512795"><ele>261.0</ele><time>2026-04-02T12:33:15.516Z</time></trkpt><trkpt lat="45.6761552" lon="9.4511877"><ele>261.0</ele><time>2026-04-02T12:33:16.517Z</time></trkpt><trkpt lat="45.6761801" lon="9.4510976"><ele>261.0</ele><time>2026-04-02T12:33:17.517Z</time></trkpt><trkpt lat="45.6762183" lon="9.4510041"><ele>261.0</ele><time>2026-04-02T12:33:18.516Z</time></trkpt><trkpt lat="45.6762534" lon="9.4509206"><ele>261.0</ele><time>2026-04-02T12:33:19.516Z</time></trkpt><trkpt lat="45.6762902" lon="9.4508385"><ele>260.8333333333333</ele><time>2026-04-02T12:33:20.517Z</time></trkpt><trkpt lat="45.6763288" lon="9.4507534"><ele>260.6666666666667</ele><time>2026-04-02T12:33:21.516Z</time></trkpt><trkpt lat="45.676415" lon="9.4506204"><ele>260.5</ele><time>2026-04-02T12:33:23.517Z</time></trkpt><trkpt lat="45.6764605" lon="9.4505491"><ele>260.33333333333337</ele><time>2026-04-02T12:33:24.517Z</time></trkpt><trkpt lat="45.6765135" lon="9.4504821"><ele>260.1666666666667</ele><time>2026-04-02T12:33:25.517Z</time></trkpt><trkpt lat="45.6765743" lon="9.4504055"><ele>260.0</ele><time>2026-04-02T12:33:26.516Z</time></trkpt><trkpt lat="45.6766833" lon="9.450299"><ele>260.0</ele><time>2026-04-02T12:33:28.516Z</time></trkpt><trkpt lat="45.6767429" lon="9.4502427"><ele>260.0</ele><time>2026-04-02T12:33:29.516Z</time></trkpt><trkpt lat="45.6768014" lon="9.4501986"><ele>260.0</ele><time>2026-04-02T12:33:30.517Z</time></trkpt><trkpt lat="45.6768525" lon="9.4501434"><ele>260.0</ele><time>2026-04-02T12:33:31.516Z</time></trkpt><trkpt lat="45.6769134" lon="9.450084"><ele>260.0</ele><time>2026-04-02T12:33:32.517Z</time></trkpt><trkpt lat="45.6769647" lon="9.4500294"><ele>260.0</ele><time>2026-04-02T12:33:33.516Z</time></trkpt><trkpt lat="45.6770736" lon="9.4499293"><ele>260.0</ele><time>2026-04-02T12:33:35.517Z</time></trkpt><trkpt lat="45.677162" lon="9.4498713"><ele>260.0</ele><time>2026-04-02T12:33:37.516Z</time></trkpt><trkpt lat="45.6772319" lon="9.4499082"><ele>260.0</ele><time>2026-04-02T12:33:38.517Z</time></trkpt><trkpt lat="45.6773407" lon="9.4499662"><ele>260.0</ele><time>2026-04-02T12:33:40.516Z</time></trkpt><trkpt lat="45.6774485" lon="9.4500394"><ele>260.0</ele><time>2026-04-02T12:33:42.516Z</time></trkpt><trkpt lat="45.6775339" lon="9.4501337"><ele>260.0</ele><time>2026-04-02T12:33:44.517Z</time></trkpt><trkpt lat="45.677607" lon="9.4502712"><ele>260.0</ele><time>2026-04-02T12:33:46.516Z</time></trkpt><trkpt lat="45.677679" lon="9.4504186"><ele>260.0</ele><time>2026-04-02T12:33:48.517Z</time></trkpt><trkpt lat="45.6777585" lon="9.4505639"><ele>260.0</ele><time>2026-04-02T12:33:50.517Z</time></trkpt><trkpt lat="45.6778098" lon="9.4506396"><ele>260.0</ele><time>2026-04-02T12:33:51.516Z</time></trkpt><trkpt lat="45.6779003" lon="9.4507683"><ele>260.0</ele><time>2026-04-02T12:33:53.517Z</time></trkpt><trkpt lat="45.6779525" lon="9.4508412"><ele>260.0</ele><time>2026-04-02T12:33:54.516Z</time></trkpt><trkpt lat="45.6780469" lon="9.4509529"><ele>260.0</ele><time>2026-04-02T12:33:56.516Z</time></trkpt><trkpt lat="45.6780974" lon="9.4510196"><ele>260.0</ele><time>2026-04-02T12:33:57.517Z</time></trkpt><trkpt lat="45.6781585" lon="9.4510837"><ele>260.0</ele><time>2026-04-02T12:33:58.516Z</time></trkpt><trkpt lat="45.6782684" lon="9.4511736"><ele>260.00000000000006</ele><time>2026-04-02T12:34:00.517Z</time></trkpt><trkpt lat="45.6783305" lon="9.451216"><ele>260.0</ele><time>2026-04-02T12:34:01.517Z</time></trkpt><trkpt lat="45.67839" lon="9.4512575"><ele>260.0</ele><time>2026-04-02T12:34:02.517Z</time></trkpt><trkpt lat="45.6784585" lon="9.4513212"><ele>260.0</ele><time>2026-04-02T12:34:03.516Z</time></trkpt><trkpt lat="45.6785216" lon="9.4513599"><ele>260.0</ele><time>2026-04-02T12:34:04.517Z</time></trkpt><trkpt lat="45.6785853" lon="9.4513732"><ele>260.00000000000006</ele><time>2026-04-02T12:34:05.516Z</time></trkpt><trkpt lat="45.6786576" lon="9.4514016"><ele>260.0</ele><time>2026-04-02T12:34:06.516Z</time></trkpt><trkpt lat="45.6787312" lon="9.4514273"><ele>259.7142857142857</ele><time>2026-04-02T12:34:07.517Z</time></trkpt><trkpt lat="45.6788015" lon="9.4514576"><ele>259.42857142857144</ele><time>2026-04-02T12:34:08.517Z</time></trkpt><trkpt lat="45.6788702" lon="9.4514723"><ele>259.1428571428571</ele><time>2026-04-02T12:34:09.517Z</time></trkpt><trkpt lat="45.6789418" lon="9.4514818"><ele>258.8571428571429</ele><time>2026-04-02T12:34:10.517Z</time></trkpt><trkpt lat="45.6790118" lon="9.451495"><ele>258.57142857142856</ele><time>2026-04-02T12:34:11.517Z</time></trkpt><trkpt lat="45.679079" lon="9.4515101"><ele>258.2857142857143</ele><time>2026-04-02T12:34:12.516Z</time></trkpt><trkpt lat="45.6791504" lon="9.4515089"><ele>258.0</ele><time>2026-04-02T12:34:13.517Z</time></trkpt><trkpt lat="45.679219" lon="9.4515085"><ele>258.0</ele><time>2026-04-02T12:34:14.516Z</time></trkpt><trkpt lat="45.679291" lon="9.4515156"><ele>258.0</ele><time>2026-04-02T12:34:15.516Z</time></trkpt><trkpt lat="45.6793667" lon="9.4515112"><ele>258.0</ele><time>2026-04-02T12:34:16.516Z</time></trkpt><trkpt lat="45.6794469" lon="9.4515196"><ele>258.0</ele><time>2026-04-02T12:34:17.517Z</time></trkpt><trkpt lat="45.6795222" lon="9.4515211"><ele>258.0</ele><time>2026-04-02T12:34:18.517Z</time></trkpt><trkpt lat="45.6795961" lon="9.4515214"><ele>258.0</ele><time>2026-04-02T12:34:19.516Z</time></trkpt><trkpt lat="45.6796715" lon="9.4515117"><ele>258.4285714285714</ele><time>2026-04-02T12:34:20.516Z</time></trkpt><trkpt lat="45.6797457" lon="9.4515124"><ele>258.85714285714283</ele><time>2026-04-02T12:34:21.516Z</time></trkpt><trkpt lat="45.6798158" lon="9.4515165"><ele>259.2857142857143</ele><time>2026-04-02T12:34:22.517Z</time></trkpt><trkpt lat="45.6799019" lon="9.4515152"><ele>259.71428571428567</ele><time>2026-04-02T12:34:23.517Z</time></trkpt><trkpt lat="45.6799717" lon="9.4515091"><ele>260.1428571428571</ele><time>2026-04-02T12:34:24.516Z</time></trkpt><trkpt lat="45.680036" lon="9.4515089"><ele>260.57142857142856</ele><time>2026-04-02T12:34:25.517Z</time></trkpt><trkpt lat="45.6801119" lon="9.451509"><ele>261.0</ele><time>2026-04-02T12:34:26.517Z</time></trkpt><trkpt lat="45.6801892" lon="9.4515071"><ele>261.2857142857143</ele><time>2026-04-02T12:34:27.516Z</time></trkpt><trkpt lat="45.6802665" lon="9.4515031"><ele>261.57142857142856</ele><time>2026-04-02T12:34:28.517Z</time></trkpt><trkpt lat="45.6803351" lon="9.4515053"><ele>261.85714285714283</ele><time>2026-04-02T12:34:29.516Z</time></trkpt><trkpt lat="45.6804097" lon="9.4515143"><ele>262.1428571428571</ele><time>2026-04-02T12:34:30.516Z</time></trkpt><trkpt lat="45.6804828" lon="9.4515165"><ele>262.4285714285714</ele><time>2026-04-02T12:34:31.516Z</time></trkpt><trkpt lat="45.6805627" lon="9.4515275"><ele>262.7142857142857</ele><time>2026-04-02T12:34:32.516Z</time></trkpt><trkpt lat="45.6806286" lon="9.4515274"><ele>263.0</ele><time>2026-04-02T12:34:33.517Z</time></trkpt><trkpt lat="45.680764" lon="9.4515024"><ele>263.0</ele><time>2026-04-02T12:34:35.517Z</time></trkpt><trkpt lat="45.6808327" lon="9.4514993"><ele>263.0</ele><time>2026-04-02T12:34:36.516Z</time></trkpt><trkpt lat="45.6808986" lon="9.4514939"><ele>263.0</ele><time>2026-04-02T12:34:37.517Z</time></trkpt><trkpt lat="45.6809885" lon="9.4514982"><ele>263.0</ele><time>2026-04-02T12:34:38.516Z</time></trkpt><trkpt lat="45.6810585" lon="9.4514825"><ele>263.0</ele><time>2026-04-02T12:34:39.517Z</time></trkpt><trkpt lat="45.6811939" lon="9.4514682"><ele>263.0</ele><time>2026-04-02T12:34:41.517Z</time></trkpt><trkpt lat="45.6812589" lon="9.4514554"><ele>262.1666666666667</ele><time>2026-04-02T12:34:42.516Z</time></trkpt><trkpt lat="45.6813564" lon="9.4514292"><ele>261.33333333333337</ele><time>2026-04-02T12:34:44.516Z</time></trkpt><trkpt lat="45.6814491" lon="9.4513638"><ele>260.5</ele><time>2026-04-02T12:34:46.517Z</time></trkpt><trkpt lat="45.6814997" lon="9.4513034"><ele>259.6666666666667</ele><time>2026-04-02T12:34:48.516Z</time></trkpt><trkpt lat="45.6815683" lon="9.4512339"><ele>258.8333333333333</ele><time>2026-04-02T12:34:50.517Z</time></trkpt><trkpt lat="45.6816426" lon="9.4511457"><ele>258.0</ele><time>2026-04-02T12:34:52.517Z</time></trkpt><trkpt lat="45.6817214" lon="9.4510279"><ele>258.0</ele><time>2026-04-02T12:34:54.517Z</time></trkpt><trkpt lat="45.6818074" lon="9.4508936"><ele>258.0</ele><time>2026-04-02T12:34:56.516Z</time></trkpt><trkpt lat="45.6818483" lon="9.4508218"><ele>258.0</ele><time>2026-04-02T12:34:57.517Z</time></trkpt><trkpt lat="45.6818892" lon="9.4507471"><ele>258.0</ele><time>2026-04-02T12:34:58.517Z</time></trkpt><trkpt lat="45.6819257" lon="9.4506721"><ele>258.0</ele><time>2026-04-02T12:34:59.516Z</time></trkpt><trkpt lat="45.6819963" lon="9.4505232"><ele>258.0</ele><time>2026-04-02T12:35:01.517Z</time></trkpt><trkpt lat="45.6820232" lon="9.4504357"><ele>256.5</ele><time>2026-04-02T12:35:02.517Z</time></trkpt><trkpt lat="45.6820936" lon="9.4503084"><ele>255.0</ele><time>2026-04-02T12:35:04.516Z</time></trkpt><trkpt lat="45.6821577" lon="9.4502621"><ele>253.5</ele><time>2026-04-02T12:35:05.517Z</time></trkpt><trkpt lat="45.6822746" lon="9.4501809"><ele>252.0</ele><time>2026-04-02T12:35:07.517Z</time></trkpt><trkpt lat="45.6823942" lon="9.4500927"><ele>252.0</ele><time>2026-04-02T12:35:09.516Z</time></trkpt><trkpt lat="45.6825137" lon="9.450003"><ele>252.0</ele><time>2026-04-02T12:35:11.516Z</time></trkpt><trkpt lat="45.6825797" lon="9.4499733"><ele>252.0</ele><time>2026-04-02T12:35:12.517Z</time></trkpt><trkpt lat="45.6826442" lon="9.4499427"><ele>252.0</ele><time>2026-04-02T12:35:13.517Z</time></trkpt><trkpt lat="45.6827738" lon="9.4498878"><ele>252.0</ele><time>2026-04-02T12:35:15.516Z</time></trkpt><trkpt lat="45.6829517" lon="9.4498178"><ele>253.39999999999998</ele><time>2026-04-02T12:35:17.517Z</time></trkpt><trkpt lat="45.6830464" lon="9.4497736"><ele>254.79999999999998</ele><time>2026-04-02T12:35:18.516Z</time></trkpt><trkpt lat="45.6831195" lon="9.4497443"><ele>256.2</ele><time>2026-04-02T12:35:19.516Z</time></trkpt><trkpt lat="45.6832249" lon="9.4497026"><ele>257.59999999999997</ele><time>2026-04-02T12:35:20.517Z</time></trkpt><trkpt lat="45.6833128" lon="9.4496578"><ele>259.0</ele><time>2026-04-02T12:35:21.517Z</time></trkpt><trkpt lat="45.6833891" lon="9.4496069"><ele>259.0</ele><time>2026-04-02T12:35:22.517Z</time></trkpt><trkpt lat="45.6834532" lon="9.4495695"><ele>259.0</ele><time>2026-04-02T12:35:23.516Z</time></trkpt><trkpt lat="45.683527" lon="9.4495296"><ele>259.0</ele><time>2026-04-02T12:35:24.517Z</time></trkpt><trkpt lat="45.6836016" lon="9.4495108"><ele>259.0</ele><time>2026-04-02T12:35:25.517Z</time></trkpt><trkpt lat="45.6836874" lon="9.4494965"><ele>259.0</ele><time>2026-04-02T12:35:26.517Z</time></trkpt><trkpt lat="45.6837713" lon="9.4495026"><ele>259.0</ele><time>2026-04-02T12:35:27.516Z</time></trkpt><trkpt lat="45.6838443" lon="9.4495078"><ele>257.16666666666663</ele><time>2026-04-02T12:35:28.517Z</time></trkpt><trkpt lat="45.6839088" lon="9.4495132"><ele>255.33333333333331</ele><time>2026-04-02T12:35:29.517Z</time></trkpt><trkpt lat="45.6840242" lon="9.4495649"><ele>253.5</ele><time>2026-04-02T12:35:31.517Z</time></trkpt><trkpt lat="45.6841473" lon="9.4495991"><ele>251.66666666666669</ele><time>2026-04-02T12:35:33.517Z</time></trkpt><trkpt lat="45.6842131" lon="9.4496252"><ele>249.83333333333334</ele><time>2026-04-02T12:35:34.517Z</time></trkpt><trkpt lat="45.6842808" lon="9.4496412"><ele>248.0</ele><time>2026-04-02T12:35:35.516Z</time></trkpt><trkpt lat="45.6844194" lon="9.4496092"><ele>247.66666666666669</ele><time>2026-04-02T12:35:37.517Z</time></trkpt><trkpt lat="45.6845056" lon="9.4495963"><ele>247.33333333333334</ele><time>2026-04-02T12:35:38.517Z</time></trkpt><trkpt lat="45.6845892" lon="9.449594"><ele>247.0</ele><time>2026-04-02T12:35:39.517Z</time></trkpt><trkpt lat="45.6846748" lon="9.4495861"><ele>246.66666666666669</ele><time>2026-04-02T12:35:40.516Z</time></trkpt><trkpt lat="45.6847557" lon="9.4495835"><ele>246.33333333333334</ele><time>2026-04-02T12:35:41.517Z</time></trkpt><trkpt lat="45.6848342" lon="9.4495894"><ele>246.0</ele><time>2026-04-02T12:35:42.517Z</time></trkpt><trkpt lat="45.6849064" lon="9.4496132"><ele>239.0</ele><time>2026-04-02T12:35:43.516Z</time></trkpt><trkpt lat="45.6849696" lon="9.4496549"><ele>232.00000000000003</ele><time>2026-04-02T12:35:44.517Z</time></trkpt><trkpt lat="45.6850305" lon="9.4496937"><ele>225.0</ele><time>2026-04-02T12:35:45.516Z</time></trkpt><trkpt lat="45.6851249" lon="9.4497703"><ele>218.0</ele><time>2026-04-02T12:35:47.517Z</time></trkpt><trkpt lat="45.6852247" lon="9.449821"><ele>211.0</ele><time>2026-04-02T12:35:49.516Z</time></trkpt><trkpt lat="45.6853432" lon="9.4498638"><ele>210.99999999999997</ele><time>2026-04-02T12:35:51.516Z</time></trkpt><trkpt lat="45.6854061" lon="9.4498767"><ele>211.0</ele><time>2026-04-02T12:35:52.517Z</time></trkpt><trkpt lat="45.6854739" lon="9.4498916"><ele>211.0</ele><time>2026-04-02T12:35:53.516Z</time></trkpt><trkpt lat="45.6855559" lon="9.4499145"><ele>211.0</ele><time>2026-04-02T12:35:54.516Z</time></trkpt><trkpt lat="45.6856389" lon="9.4499424"><ele>210.99999999999997</ele><time>2026-04-02T12:35:55.517Z</time></trkpt><trkpt lat="45.6857113" lon="9.4499759"><ele>211.0</ele><time>2026-04-02T12:35:56.516Z</time></trkpt><trkpt lat="45.685798" lon="9.4500172"><ele>210.99999999999997</ele><time>2026-04-02T12:35:57.516Z</time></trkpt><trkpt lat="45.6858709" lon="9.450067"><ele>211.0</ele><time>2026-04-02T12:35:58.517Z</time></trkpt><trkpt lat="45.685944" lon="9.4501115"><ele>211.0</ele><time>2026-04-02T12:35:59.517Z</time></trkpt><trkpt lat="45.6860228" lon="9.4501779"><ele>211.0</ele><time>2026-04-02T12:36:00.517Z</time></trkpt><trkpt lat="45.6860958" lon="9.45024"><ele>210.99999999999997</ele><time>2026-04-02T12:36:01.517Z</time></trkpt><trkpt lat="45.6861733" lon="9.4503128"><ele>211.0</ele><time>2026-04-02T12:36:02.516Z</time></trkpt><trkpt lat="45.6862465" lon="9.4503664"><ele>212.83333333333331</ele><time>2026-04-02T12:36:03.516Z</time></trkpt><trkpt lat="45.6863103" lon="9.4504258"><ele>214.66666666666666</ele><time>2026-04-02T12:36:04.516Z</time></trkpt><trkpt lat="45.6863775" lon="9.4504796"><ele>216.5</ele><time>2026-04-02T12:36:05.517Z</time></trkpt><trkpt lat="45.6864442" lon="9.4505405"><ele>218.33333333333331</ele><time>2026-04-02T12:36:06.516Z</time></trkpt><trkpt lat="45.6865109" lon="9.4505902"><ele>220.16666666666666</ele><time>2026-04-02T12:36:07.517Z</time></trkpt><trkpt lat="45.686576" lon="9.4506508"><ele>222.0</ele><time>2026-04-02T12:36:08.516Z</time></trkpt><trkpt lat="45.686699" lon="9.4507488"><ele>219.83333333333334</ele><time>2026-04-02T12:36:10.516Z</time></trkpt><trkpt lat="45.6867737" lon="9.4507961"><ele>217.66666666666669</ele><time>2026-04-02T12:36:11.517Z</time></trkpt><trkpt lat="45.6868465" lon="9.4508339"><ele>215.5</ele><time>2026-04-02T12:36:12.517Z</time></trkpt><trkpt lat="45.6869193" lon="9.4508925"><ele>213.33333333333334</ele><time>2026-04-02T12:36:13.517Z</time></trkpt><trkpt lat="45.6869994" lon="9.4509222"><ele>211.16666666666669</ele><time>2026-04-02T12:36:14.517Z</time></trkpt><trkpt lat="45.6870702" lon="9.450956"><ele>209.0</ele><time>2026-04-02T12:36:15.516Z</time></trkpt><trkpt lat="45.6871378" lon="9.4509761"><ele>209.0</ele><time>2026-04-02T12:36:16.517Z</time></trkpt><trkpt lat="45.6872018" lon="9.4509969"><ele>209.0</ele><time>2026-04-02T12:36:17.517Z</time></trkpt><trkpt lat="45.6872665" lon="9.4510128"><ele>209.0</ele><time>2026-04-02T12:36:18.516Z</time></trkpt><trkpt lat="45.6873375" lon="9.4510312"><ele>209.0</ele><time>2026-04-02T12:36:19.517Z</time></trkpt><trkpt lat="45.6874085" lon="9.4510342"><ele>209.0</ele><time>2026-04-02T12:36:20.516Z</time></trkpt><trkpt lat="45.6874751" lon="9.451037"><ele>209.0</ele><time>2026-04-02T12:36:21.516Z</time></trkpt><trkpt lat="45.6875436" lon="9.4510426"><ele>209.0</ele><time>2026-04-02T12:36:22.517Z</time></trkpt><trkpt lat="45.6876119" lon="9.4510394"><ele>209.00000000000003</ele><time>2026-04-02T12:36:23.516Z</time></trkpt><trkpt lat="45.6876887" lon="9.4510315"><ele>209.0</ele><time>2026-04-02T12:36:24.517Z</time></trkpt><trkpt lat="45.6877517" lon="9.4510244"><ele>209.0</ele><time>2026-04-02T12:36:25.516Z</time></trkpt><trkpt lat="45.6878337" lon="9.4510291"><ele>209.0</ele><time>2026-04-02T12:36:26.517Z</time></trkpt><trkpt lat="45.6879059" lon="9.4510183"><ele>209.00000000000003</ele><time>2026-04-02T12:36:27.516Z</time></trkpt><trkpt lat="45.6879833" lon="9.4510068"><ele>209.0</ele><time>2026-04-02T12:36:28.517Z</time></trkpt><trkpt lat="45.6880661" lon="9.450993"><ele>210.00000000000003</ele><time>2026-04-02T12:36:29.516Z</time></trkpt><trkpt lat="45.6881479" lon="9.4509706"><ele>211.0</ele><time>2026-04-02T12:36:30.516Z</time></trkpt><trkpt lat="45.6882196" lon="9.4509592"><ele>212.0</ele><time>2026-04-02T12:36:31.517Z</time></trkpt><trkpt lat="45.6882902" lon="9.4509549"><ele>213.0</ele><time>2026-04-02T12:36:32.517Z</time></trkpt><trkpt lat="45.6883649" lon="9.4509549"><ele>214.00000000000003</ele><time>2026-04-02T12:36:33.517Z</time></trkpt><trkpt lat="45.6884579" lon="9.4509333"><ele>215.0</ele><time>2026-04-02T12:36:35.517Z</time></trkpt><trkpt lat="45.6885247" lon="9.4509129"><ele>214.8</ele><time>2026-04-02T12:36:36.517Z</time></trkpt><trkpt lat="45.6886301" lon="9.4508724"><ele>214.6</ele><time>2026-04-02T12:36:38.517Z</time></trkpt><trkpt lat="45.6887197" lon="9.4508602"><ele>214.39999999999998</ele><time>2026-04-02T12:36:40.517Z</time></trkpt><trkpt lat="45.6888297" lon="9.4508486"><ele>214.2</ele><time>2026-04-02T12:36:42.516Z</time></trkpt><trkpt lat="45.6889256" lon="9.4508358"><ele>214.0</ele><time>2026-04-02T12:36:44.517Z</time></trkpt><trkpt lat="45.6890204" lon="9.450839"><ele>214.0</ele><time>2026-04-02T12:36:46.517Z</time></trkpt><trkpt lat="45.6891208" lon="9.4508583"><ele>213.99999999999997</ele><time>2026-04-02T12:36:48.516Z</time></trkpt><trkpt lat="45.6892317" lon="9.4508932"><ele>213.99999999999997</ele><time>2026-04-02T12:36:50.516Z</time></trkpt><trkpt lat="45.6893358" lon="9.4509638"><ele>214.0</ele><time>2026-04-02T12:36:52.516Z</time></trkpt><trkpt lat="45.6893927" lon="9.4510062"><ele>214.0</ele><time>2026-04-02T12:36:53.517Z</time></trkpt><trkpt lat="45.6894749" lon="9.451056"><ele>213.16666666666666</ele><time>2026-04-02T12:36:54.517Z</time></trkpt><trkpt lat="45.6895776" lon="9.4511624"><ele>212.33333333333331</ele><time>2026-04-02T12:36:56.517Z</time></trkpt><trkpt lat="45.6896316" lon="9.4512227"><ele>211.5</ele><time>2026-04-02T12:36:57.517Z</time></trkpt><trkpt lat="45.6896911" lon="9.4512756"><ele>210.66666666666669</ele><time>2026-04-02T12:36:58.517Z</time></trkpt><trkpt lat="45.6897294" lon="9.4513508"><ele>209.83333333333334</ele><time>2026-04-02T12:36:59.516Z</time></trkpt><trkpt lat="45.6897824" lon="9.4514277"><ele>209.0</ele><time>2026-04-02T12:37:00.516Z</time></trkpt><trkpt lat="45.689829" lon="9.4514983"><ele>209.0</ele><time>2026-04-02T12:37:01.516Z</time></trkpt><trkpt lat="45.6899261" lon="9.4515785"><ele>209.0</ele><time>2026-04-02T12:37:03.517Z</time></trkpt><trkpt lat="45.6899832" lon="9.4516581"><ele>209.0</ele><time>2026-04-02T12:37:04.516Z</time></trkpt><trkpt lat="45.6900435" lon="9.4517524"><ele>209.0</ele><time>2026-04-02T12:37:06.516Z</time></trkpt><trkpt lat="45.6901173" lon="9.4518138"><ele>209.0</ele><time>2026-04-02T12:37:08.516Z</time></trkpt><trkpt lat="45.6902177" lon="9.4518661"><ele>208.6</ele><time>2026-04-02T12:37:10.516Z</time></trkpt><trkpt lat="45.6902883" lon="9.451959"><ele>208.2</ele><time>2026-04-02T12:37:12.516Z</time></trkpt><trkpt lat="45.6903858" lon="9.4520321"><ele>207.79999999999998</ele><time>2026-04-02T12:37:14.517Z</time></trkpt><trkpt lat="45.6904777" lon="9.4520787"><ele>207.39999999999998</ele><time>2026-04-02T12:37:16.516Z</time></trkpt><trkpt lat="45.6905978" lon="9.4521299"><ele>207.0</ele><time>2026-04-02T12:37:18.517Z</time></trkpt><trkpt lat="45.6907035" lon="9.4521958"><ele>207.0</ele><time>2026-04-02T12:37:20.517Z</time></trkpt><trkpt lat="45.6908313" lon="9.4522364"><ele>207.0</ele><time>2026-04-02T12:37:22.517Z</time></trkpt><trkpt lat="45.6909619" lon="9.4523241"><ele>207.0</ele><time>2026-04-02T12:37:24.517Z</time></trkpt><trkpt lat="45.691088" lon="9.4523662"><ele>207.0</ele><time>2026-04-02T12:37:26.517Z</time></trkpt><trkpt lat="45.6912043" lon="9.4523969"><ele>208.5</ele><time>2026-04-02T12:37:28.517Z</time></trkpt><trkpt lat="45.6912755" lon="9.4524312"><ele>210.0</ele><time>2026-04-02T12:37:29.517Z</time></trkpt><trkpt lat="45.6913529" lon="9.4524921"><ele>211.5</ele><time>2026-04-02T12:37:30.516Z</time></trkpt><trkpt lat="45.6914157" lon="9.4525352"><ele>213.0</ele><time>2026-04-02T12:37:31.516Z</time></trkpt><trkpt lat="45.6914743" lon="9.4526217"><ele>214.5</ele><time>2026-04-02T12:37:32.516Z</time></trkpt><trkpt lat="45.6915801" lon="9.452651"><ele>216.0</ele><time>2026-04-02T12:37:34.516Z</time></trkpt><trkpt lat="45.6916455" lon="9.4526909"><ele>216.0</ele><time>2026-04-02T12:37:35.516Z</time></trkpt><trkpt lat="45.6917154" lon="9.4527025"><ele>216.0</ele><time>2026-04-02T12:37:36.517Z</time></trkpt><trkpt lat="45.6917852" lon="9.4527324"><ele>216.0</ele><time>2026-04-02T12:37:37.516Z</time></trkpt><trkpt lat="45.6918439" lon="9.4527752"><ele>216.0</ele><time>2026-04-02T12:37:38.517Z</time></trkpt><trkpt lat="45.6919048" lon="9.4528081"><ele>216.0</ele><time>2026-04-02T12:37:39.516Z</time></trkpt><trkpt lat="45.6920149" lon="9.4528697"><ele>216.0</ele><time>2026-04-02T12:37:41.516Z</time></trkpt><trkpt lat="45.6921353" lon="9.4529466"><ele>214.33333333333334</ele><time>2026-04-02T12:37:43.516Z</time></trkpt><trkpt lat="45.6922039" lon="9.4529758"><ele>212.66666666666669</ele><time>2026-04-02T12:37:44.516Z</time></trkpt><trkpt lat="45.6922717" lon="9.4530297"><ele>211.0</ele><time>2026-04-02T12:37:45.517Z</time></trkpt><trkpt lat="45.6923277" lon="9.4530753"><ele>209.33333333333334</ele><time>2026-04-02T12:37:46.516Z</time></trkpt><trkpt lat="45.6923926" lon="9.4531229"><ele>207.66666666666669</ele><time>2026-04-02T12:37:47.516Z</time></trkpt><trkpt lat="45.6924533" lon="9.453161"><ele>206.0</ele><time>2026-04-02T12:37:48.516Z</time></trkpt><trkpt lat="45.6925499" lon="9.4532469"><ele>206.0</ele><time>2026-04-02T12:37:50.517Z</time></trkpt><trkpt lat="45.6926281" lon="9.4533185"><ele>206.0</ele><time>2026-04-02T12:37:51.517Z</time></trkpt><trkpt lat="45.6927328" lon="9.4533554"><ele>206.0</ele><time>2026-04-02T12:37:53.517Z</time></trkpt><trkpt lat="45.6927992" lon="9.4533913"><ele>206.0</ele><time>2026-04-02T12:37:54.517Z</time></trkpt><trkpt lat="45.6929101" lon="9.4534306"><ele>206.0</ele><time>2026-04-02T12:37:56.517Z</time></trkpt><trkpt lat="45.6929789" lon="9.453457"><ele>210.20000000000002</ele><time>2026-04-02T12:37:57.516Z</time></trkpt><trkpt lat="45.6930596" lon="9.4535202"><ele>214.4</ele><time>2026-04-02T12:37:58.516Z</time></trkpt><trkpt lat="45.6931161" lon="9.4535719"><ele>218.6</ele><time>2026-04-02T12:37:59.517Z</time></trkpt><trkpt lat="45.693226" lon="9.4536722"><ele>222.8</ele><time>2026-04-02T12:38:01.516Z</time></trkpt><trkpt lat="45.69333" lon="9.4537301"><ele>227.0</ele><time>2026-04-02T12:38:03.516Z</time></trkpt><trkpt lat="45.6933945" lon="9.4537609"><ele>226.0</ele><time>2026-04-02T12:38:04.516Z</time></trkpt><trkpt lat="45.6935161" lon="9.453883"><ele>225.0</ele><time>2026-04-02T12:38:06.517Z</time></trkpt><trkpt lat="45.6935917" lon="9.4539199"><ele>224.0</ele><time>2026-04-02T12:38:07.516Z</time></trkpt><trkpt lat="45.6937098" lon="9.4539974"><ele>223.0</ele><time>2026-04-02T12:38:09.517Z</time></trkpt><trkpt lat="45.6937816" lon="9.4540267"><ele>222.0</ele><time>2026-04-02T12:38:10.516Z</time></trkpt><trkpt lat="45.6939041" lon="9.4540987"><ele>222.0</ele><time>2026-04-02T12:38:12.516Z</time></trkpt><trkpt lat="45.6939685" lon="9.4541344"><ele>222.0</ele><time>2026-04-02T12:38:13.517Z</time></trkpt><trkpt lat="45.6940355" lon="9.4541583"><ele>222.0</ele><time>2026-04-02T12:38:14.516Z</time></trkpt><trkpt lat="45.6941426" lon="9.4542401"><ele>222.0</ele><time>2026-04-02T12:38:16.516Z</time></trkpt><trkpt lat="45.6942018" lon="9.4542959"><ele>222.0</ele><time>2026-04-02T12:38:17.517Z</time></trkpt><trkpt lat="45.6942547" lon="9.4543562"><ele>222.0</ele><time>2026-04-02T12:38:18.517Z</time></trkpt><trkpt lat="45.6943131" lon="9.4544107"><ele>222.0</ele><time>2026-04-02T12:38:19.517Z</time></trkpt><trkpt lat="45.6943879" lon="9.4544592"><ele>222.0</ele><time>2026-04-02T12:38:20.517Z</time></trkpt><trkpt lat="45.6944761" lon="9.4545463"><ele>222.0</ele><time>2026-04-02T12:38:21.516Z</time></trkpt><trkpt lat="45.6945971" lon="9.4546277"><ele>222.0</ele><time>2026-04-02T12:38:23.517Z</time></trkpt><trkpt lat="45.6946662" lon="9.454674"><ele>222.0</ele><time>2026-04-02T12:38:24.516Z</time></trkpt><trkpt lat="45.6947269" lon="9.4547573"><ele>219.2</ele><time>2026-04-02T12:38:26.516Z</time></trkpt><trkpt lat="45.6948304" lon="9.4548151"><ele>216.39999999999998</ele><time>2026-04-02T12:38:28.517Z</time></trkpt><trkpt lat="45.6949019" lon="9.4548295"><ele>213.60000000000002</ele><time>2026-04-02T12:38:29.516Z</time></trkpt><trkpt lat="45.6949605" lon="9.4548788"><ele>210.8</ele><time>2026-04-02T12:38:30.517Z</time></trkpt><trkpt lat="45.6950926" lon="9.4548986"><ele>208.0</ele><time>2026-04-02T12:38:32.517Z</time></trkpt><trkpt lat="45.6951915" lon="9.4549188"><ele>208.66666666666666</ele><time>2026-04-02T12:38:33.517Z</time></trkpt><trkpt lat="45.6952773" lon="9.4549014"><ele>209.33333333333331</ele><time>2026-04-02T12:38:34.516Z</time></trkpt><trkpt lat="45.6953499" lon="9.4549257"><ele>210.0</ele><time>2026-04-02T12:38:35.516Z</time></trkpt><trkpt lat="45.6954392" lon="9.4549337"><ele>210.66666666666669</ele><time>2026-04-02T12:38:36.517Z</time></trkpt><trkpt lat="45.6955173" lon="9.4549433"><ele>211.33333333333334</ele><time>2026-04-02T12:38:37.517Z</time></trkpt><trkpt lat="45.6955898" lon="9.45496"><ele>212.0</ele><time>2026-04-02T12:38:38.517Z</time></trkpt><trkpt lat="45.6956553" lon="9.4549632"><ele>212.00000000000003</ele><time>2026-04-02T12:38:39.516Z</time></trkpt><trkpt lat="45.6957243" lon="9.4550061"><ele>212.0</ele><time>2026-04-02T12:38:40.516Z</time></trkpt><trkpt lat="45.6957813" lon="9.4550558"><ele>212.0</ele><time>2026-04-02T12:38:41.517Z</time></trkpt><trkpt lat="45.6958565" lon="9.4550853"><ele>212.0</ele><time>2026-04-02T12:38:42.517Z</time></trkpt><trkpt lat="45.695922" lon="9.4551138"><ele>212.00000000000003</ele><time>2026-04-02T12:38:43.517Z</time></trkpt><trkpt lat="45.6959977" lon="9.455158"><ele>212.0</ele><time>2026-04-02T12:38:44.517Z</time></trkpt><trkpt lat="45.6961031" lon="9.4551794"><ele>212.0</ele><time>2026-04-02T12:38:46.516Z</time></trkpt><trkpt lat="45.6962265" lon="9.4552152"><ele>212.0</ele><time>2026-04-02T12:38:48.517Z</time></trkpt><trkpt lat="45.6962958" lon="9.455253"><ele>212.0</ele><time>2026-04-02T12:38:49.517Z</time></trkpt><trkpt lat="45.696393" lon="9.4552349"><ele>212.0</ele><time>2026-04-02T12:38:50.517Z</time></trkpt><trkpt lat="45.6965059" lon="9.4552597"><ele>212.0</ele><time>2026-04-02T12:38:52.516Z</time></trkpt><trkpt lat="45.6965763" lon="9.4552585"><ele>212.0</ele><time>2026-04-02T12:38:53.517Z</time></trkpt><trkpt lat="45.6967023" lon="9.4552518"><ele>212.0</ele><time>2026-04-02T12:38:55.516Z</time></trkpt><trkpt lat="45.6968503" lon="9.455201"><ele>212.0</ele><time>2026-04-02T12:38:57.516Z</time></trkpt><trkpt lat="45.6969874" lon="9.4551893"><ele>212.0</ele><time>2026-04-02T12:38:58.516Z</time></trkpt><trkpt lat="45.6970746" lon="9.4551456"><ele>212.00000000000003</ele><time>2026-04-02T12:38:59.517Z</time></trkpt><trkpt lat="45.6971517" lon="9.4551612"><ele>212.0</ele><time>2026-04-02T12:39:01.516Z</time></trkpt><trkpt lat="45.6972087" lon="9.4551193"><ele>212.0</ele><time>2026-04-02T12:39:02.517Z</time></trkpt><trkpt lat="45.6972788" lon="9.4551072"><ele>212.0</ele><time>2026-04-02T12:39:03.516Z</time></trkpt><trkpt lat="45.6973548" lon="9.4551287"><ele>212.00000000000003</ele><time>2026-04-02T12:39:04.516Z</time></trkpt><trkpt lat="45.6974443" lon="9.455126"><ele>212.0</ele><time>2026-04-02T12:39:05.517Z</time></trkpt><trkpt lat="45.6975514" lon="9.4551013"><ele>212.0</ele><time>2026-04-02T12:39:06.516Z</time></trkpt><trkpt lat="45.6976551" lon="9.4550562"><ele>212.0</ele><time>2026-04-02T12:39:07.517Z</time></trkpt><trkpt lat="45.6977624" lon="9.455033"><ele>212.0</ele><time>2026-04-02T12:39:09.516Z</time></trkpt><trkpt lat="45.6978791" lon="9.4549838"><ele>212.0</ele><time>2026-04-02T12:39:11.516Z</time></trkpt><trkpt lat="45.6979542" lon="9.454977"><ele>212.0</ele><time>2026-04-02T12:39:12.517Z</time></trkpt><trkpt lat="45.6980205" lon="9.4549796"><ele>211.16666666666669</ele><time>2026-04-02T12:39:13.517Z</time></trkpt><trkpt lat="45.698098" lon="9.4549784"><ele>210.33333333333334</ele><time>2026-04-02T12:39:14.516Z</time></trkpt><trkpt lat="45.698222" lon="9.4549798"><ele>209.5</ele><time>2026-04-02T12:39:16.517Z</time></trkpt><trkpt lat="45.6982836" lon="9.4550066"><ele>208.66666666666669</ele><time>2026-04-02T12:39:17.517Z</time></trkpt><trkpt lat="45.6983476" lon="9.4550347"><ele>207.83333333333334</ele><time>2026-04-02T12:39:18.516Z</time></trkpt><trkpt lat="45.6984182" lon="9.4550236"><ele>207.0</ele><time>2026-04-02T12:39:19.517Z</time></trkpt><trkpt lat="45.6985186" lon="9.4550357"><ele>206.0</ele><time>2026-04-02T12:39:21.517Z</time></trkpt><trkpt lat="45.6986233" lon="9.4550323"><ele>205.0</ele><time>2026-04-02T12:39:22.516Z</time></trkpt><trkpt lat="45.6986848" lon="9.4550625"><ele>204.0</ele><time>2026-04-02T12:39:23.516Z</time></trkpt><trkpt lat="45.6987654" lon="9.4550944"><ele>203.0</ele><time>2026-04-02T12:39:24.516Z</time></trkpt><trkpt lat="45.6988278" lon="9.455111"><ele>202.0</ele><time>2026-04-02T12:39:25.516Z</time></trkpt><trkpt lat="45.6988968" lon="9.4551414"><ele>201.0</ele><time>2026-04-02T12:39:26.517Z</time></trkpt><trkpt lat="45.6990282" lon="9.4551617"><ele>201.0</ele><time>2026-04-02T12:39:28.516Z</time></trkpt><trkpt lat="45.6991419" lon="9.4552034"><ele>201.0</ele><time>2026-04-02T12:39:30.517Z</time></trkpt><trkpt lat="45.6992454" lon="9.4552265"><ele>201.0</ele><time>2026-04-02T12:39:32.516Z</time></trkpt><trkpt lat="45.6993671" lon="9.4552675"><ele>201.0</ele><time>2026-04-02T12:39:34.517Z</time></trkpt><trkpt lat="45.6994436" lon="9.4552618"><ele>201.0</ele><time>2026-04-02T12:39:35.517Z</time></trkpt><trkpt lat="45.6995704" lon="9.4552261"><ele>200.8</ele><time>2026-04-02T12:39:37.516Z</time></trkpt><trkpt lat="45.6996919" lon="9.4552482"><ele>200.60000000000002</ele><time>2026-04-02T12:39:39.516Z</time></trkpt><trkpt lat="45.6997609" lon="9.4552842"><ele>200.4</ele><time>2026-04-02T12:39:40.517Z</time></trkpt><trkpt lat="45.6998233" lon="9.4553308"><ele>200.2</ele><time>2026-04-02T12:39:41.516Z</time></trkpt><trkpt lat="45.6998896" lon="9.4554059"><ele>200.0</ele><time>2026-04-02T12:39:43.516Z</time></trkpt><trkpt lat="45.6999626" lon="9.4555142"><ele>200.0</ele><time>2026-04-02T12:39:45.516Z</time></trkpt><trkpt lat="45.7000122" lon="9.4555924"><ele>200.0</ele><time>2026-04-02T12:39:46.516Z</time></trkpt><trkpt lat="45.7000586" lon="9.4556543"><ele>200.0</ele><time>2026-04-02T12:39:47.516Z</time></trkpt><trkpt lat="45.7001082" lon="9.4557518"><ele>200.0</ele><time>2026-04-02T12:39:48.516Z</time></trkpt><trkpt lat="45.7002016" lon="9.4558877"><ele>200.0</ele><time>2026-04-02T12:39:50.516Z</time></trkpt><trkpt lat="45.7003084" lon="9.4560004"><ele>200.00000000000003</ele><time>2026-04-02T12:39:52.516Z</time></trkpt><trkpt lat="45.7003772" lon="9.4560985"><ele>200.0</ele><time>2026-04-02T12:39:53.516Z</time></trkpt><trkpt lat="45.7004347" lon="9.4561829"><ele>200.0</ele><time>2026-04-02T12:39:54.517Z</time></trkpt><trkpt lat="45.7004858" lon="9.4562556"><ele>200.0</ele><time>2026-04-02T12:39:55.516Z</time></trkpt><trkpt lat="45.7005464" lon="9.4563277"><ele>200.00000000000003</ele><time>2026-04-02T12:39:56.517Z</time></trkpt><trkpt lat="45.7006169" lon="9.4563907"><ele>200.0</ele><time>2026-04-02T12:39:57.516Z</time></trkpt><trkpt lat="45.7006723" lon="9.4564544"><ele>199.0</ele><time>2026-04-02T12:39:58.516Z</time></trkpt><trkpt lat="45.7007272" lon="9.4565262"><ele>198.0</ele><time>2026-04-02T12:39:59.517Z</time></trkpt><trkpt lat="45.7007775" lon="9.4565843"><ele>197.0</ele><time>2026-04-02T12:40:00.516Z</time></trkpt><trkpt lat="45.7008616" lon="9.456689"><ele>196.0</ele><time>2026-04-02T12:40:02.517Z</time></trkpt><trkpt lat="45.7009397" lon="9.4567553"><ele>195.0</ele><time>2026-04-02T12:40:04.517Z</time></trkpt><trkpt lat="45.7010329" lon="9.4568598"><ele>196.0</ele><time>2026-04-02T12:40:06.516Z</time></trkpt><trkpt lat="45.7011054" lon="9.4569639"><ele>197.0</ele><time>2026-04-02T12:40:07.516Z</time></trkpt><trkpt lat="45.7011977" lon="9.4570731"><ele>198.0</ele><time>2026-04-02T12:40:09.516Z</time></trkpt><trkpt lat="45.7012531" lon="9.4571494"><ele>199.0</ele><time>2026-04-02T12:40:10.517Z</time></trkpt><trkpt lat="45.7013724" lon="9.4572856"><ele>198.99999999999997</ele><time>2026-04-02T12:40:12.516Z</time></trkpt><trkpt lat="45.7014239" lon="9.4573491"><ele>199.0</ele><time>2026-04-02T12:40:13.517Z</time></trkpt><trkpt lat="45.7014928" lon="9.4574173"><ele>199.0</ele><time>2026-04-02T12:40:14.517Z</time></trkpt><trkpt lat="45.7015581" lon="9.4574714"><ele>199.0</ele><time>2026-04-02T12:40:15.517Z</time></trkpt><trkpt lat="45.7016616" lon="9.4575567"><ele>198.99999999999997</ele><time>2026-04-02T12:40:17.516Z</time></trkpt><trkpt lat="45.7017214" lon="9.4576089"><ele>199.0</ele><time>2026-04-02T12:40:18.516Z</time></trkpt><trkpt lat="45.7018278" lon="9.4576818"><ele>199.0</ele><time>2026-04-02T12:40:20.517Z</time></trkpt><trkpt lat="45.7018981" lon="9.4577527"><ele>199.0</ele><time>2026-04-02T12:40:21.517Z</time></trkpt><trkpt lat="45.7020174" lon="9.4578264"><ele>199.0</ele><time>2026-04-02T12:40:23.516Z</time></trkpt><trkpt lat="45.702134" lon="9.4578856"><ele>199.0</ele><time>2026-04-02T12:40:25.516Z</time></trkpt><trkpt lat="45.7022205" lon="9.4579228"><ele>199.0</ele><time>2026-04-02T12:40:26.517Z</time></trkpt><trkpt lat="45.702335" lon="9.4579763"><ele>199.39999999999998</ele><time>2026-04-02T12:40:27.517Z</time></trkpt><trkpt lat="45.7024272" lon="9.4579884"><ele>199.8</ele><time>2026-04-02T12:40:28.517Z</time></trkpt><trkpt lat="45.7025109" lon="9.4580037"><ele>200.2</ele><time>2026-04-02T12:40:29.516Z</time></trkpt><trkpt lat="45.7025986" lon="9.4580215"><ele>200.60000000000002</ele><time>2026-04-02T12:40:30.516Z</time></trkpt><trkpt lat="45.7026996" lon="9.4580361"><ele>201.0</ele><time>2026-04-02T12:40:31.517Z</time></trkpt><trkpt lat="45.7027955" lon="9.4580416"><ele>201.5</ele><time>2026-04-02T12:40:32.516Z</time></trkpt><trkpt lat="45.7028662" lon="9.4580258"><ele>202.0</ele><time>2026-04-02T12:40:33.517Z</time></trkpt><trkpt lat="45.7029348" lon="9.4579985"><ele>202.5</ele><time>2026-04-02T12:40:34.516Z</time></trkpt><trkpt lat="45.7030221" lon="9.4579806"><ele>203.0</ele><time>2026-04-02T12:40:35.516Z</time></trkpt><trkpt lat="45.7030966" lon="9.4579581"><ele>203.5</ele><time>2026-04-02T12:40:36.517Z</time></trkpt><trkpt lat="45.7032004" lon="9.4579137"><ele>204.0</ele><time>2026-04-02T12:40:38.517Z</time></trkpt><trkpt lat="45.703264" lon="9.4578843"><ele>204.5</ele><time>2026-04-02T12:40:39.517Z</time></trkpt><trkpt lat="45.7034136" lon="9.4578407"><ele>205.0</ele><time>2026-04-02T12:40:41.516Z</time></trkpt><trkpt lat="45.7034722" lon="9.4578033"><ele>205.5</ele><time>2026-04-02T12:40:42.516Z</time></trkpt><trkpt lat="45.7035417" lon="9.4577646"><ele>206.0</ele><time>2026-04-02T12:40:43.516Z</time></trkpt><trkpt lat="45.7036119" lon="9.4577337"><ele>206.5</ele><time>2026-04-02T12:40:44.517Z</time></trkpt><trkpt lat="45.7036894" lon="9.4577065"><ele>207.0</ele><time>2026-04-02T12:40:45.517Z</time></trkpt><trkpt lat="45.7037484" lon="9.4576532"><ele>207.0</ele><time>2026-04-02T12:40:46.516Z</time></trkpt><trkpt lat="45.703796" lon="9.4575828"><ele>207.0</ele><time>2026-04-02T12:40:47.517Z</time></trkpt><trkpt lat="45.7038416" lon="9.4575048"><ele>207.0</ele><time>2026-04-02T12:40:48.517Z</time></trkpt><trkpt lat="45.7039639" lon="9.4573702"><ele>207.0</ele><time>2026-04-02T12:40:50.517Z</time></trkpt><trkpt lat="45.7040237" lon="9.457305"><ele>207.0</ele><time>2026-04-02T12:40:51.517Z</time></trkpt><trkpt lat="45.7040835" lon="9.4572325"><ele>207.0</ele><time>2026-04-02T12:40:52.516Z</time></trkpt><trkpt lat="45.7041415" lon="9.457169"><ele>206.8</ele><time>2026-04-02T12:40:53.516Z</time></trkpt><trkpt lat="45.7041911" lon="9.4571114"><ele>206.6</ele><time>2026-04-02T12:40:54.517Z</time></trkpt><trkpt lat="45.7042523" lon="9.4570403"><ele>206.4</ele><time>2026-04-02T12:40:55.517Z</time></trkpt><trkpt lat="45.7043315" lon="9.4569498"><ele>206.20000000000002</ele><time>2026-04-02T12:40:57.516Z</time></trkpt><trkpt lat="45.7044156" lon="9.4568722"><ele>206.0</ele><time>2026-04-02T12:40:59.516Z</time></trkpt><trkpt lat="45.7045432" lon="9.4568038"><ele>206.00000000000003</ele><time>2026-04-02T12:41:01.516Z</time></trkpt><trkpt lat="45.704614" lon="9.4567719"><ele>206.0</ele><time>2026-04-02T12:41:02.516Z</time></trkpt><trkpt lat="45.7046892" lon="9.4567597"><ele>206.0</ele><time>2026-04-02T12:41:03.517Z</time></trkpt><trkpt lat="45.7047919" lon="9.4567555"><ele>206.0</ele><time>2026-04-02T12:41:05.516Z</time></trkpt><trkpt lat="45.7049052" lon="9.4567534"><ele>206.00000000000003</ele><time>2026-04-02T12:41:07.516Z</time></trkpt><trkpt lat="45.7049618" lon="9.4568104"><ele>206.0</ele><time>2026-04-02T12:41:08.516Z</time></trkpt><trkpt lat="45.7050556" lon="9.4568759"><ele>206.00000000000003</ele><time>2026-04-02T12:41:10.517Z</time></trkpt><trkpt lat="45.7051151" lon="9.4569236"><ele>206.0</ele><time>2026-04-02T12:41:11.516Z</time></trkpt><trkpt lat="45.705178" lon="9.4569502"><ele>206.0</ele><time>2026-04-02T12:41:12.516Z</time></trkpt><trkpt lat="45.7053025" lon="9.4569566"><ele>206.0</ele><time>2026-04-02T12:41:14.516Z</time></trkpt><trkpt lat="45.7054162" lon="9.4569043"><ele>206.00000000000003</ele><time>2026-04-02T12:41:16.517Z</time></trkpt><trkpt lat="45.7054861" lon="9.4569004"><ele>206.0</ele><time>2026-04-02T12:41:17.517Z</time></trkpt><trkpt lat="45.7055745" lon="9.4568572"><ele>205.8</ele><time>2026-04-02T12:41:18.516Z</time></trkpt><trkpt lat="45.7056491" lon="9.4568063"><ele>205.60000000000002</ele><time>2026-04-02T12:41:19.517Z</time></trkpt><trkpt lat="45.7057712" lon="9.4567873"><ele>205.4</ele><time>2026-04-02T12:41:21.516Z</time></trkpt><trkpt lat="45.705862" lon="9.4567513"><ele>205.2</ele><time>2026-04-02T12:41:22.517Z</time></trkpt><trkpt lat="45.705938" lon="9.4567378"><ele>205.0</ele><time>2026-04-02T12:41:23.516Z</time></trkpt><trkpt lat="45.7060274" lon="9.4567482"><ele>204.0</ele><time>2026-04-02T12:41:24.517Z</time></trkpt><trkpt lat="45.7061415" lon="9.4567897"><ele>203.0</ele><time>2026-04-02T12:41:26.516Z</time></trkpt><trkpt lat="45.7062472" lon="9.4568136"><ele>202.0</ele><time>2026-04-02T12:41:28.516Z</time></trkpt><trkpt lat="45.7063342" lon="9.4568357"><ele>201.0</ele><time>2026-04-02T12:41:30.517Z</time></trkpt><trkpt lat="45.7064853" lon="9.4568402"><ele>201.0</ele><time>2026-04-02T12:41:32.516Z</time></trkpt><trkpt lat="45.7066145" lon="9.4568405"><ele>201.0</ele><time>2026-04-02T12:41:34.517Z</time></trkpt><trkpt lat="45.7066903" lon="9.4568538"><ele>201.0</ele><time>2026-04-02T12:41:35.517Z</time></trkpt><trkpt lat="45.7067595" lon="9.4568352"><ele>201.0</ele><time>2026-04-02T12:41:36.517Z</time></trkpt><trkpt lat="45.7068664" lon="9.4568269"><ele>201.0</ele><time>2026-04-02T12:41:38.516Z</time></trkpt><trkpt lat="45.706959" lon="9.4567778"><ele>200.16666666666666</ele><time>2026-04-02T12:41:40.516Z</time></trkpt><trkpt lat="45.707059" lon="9.4567582"><ele>199.33333333333331</ele><time>2026-04-02T12:41:42.517Z</time></trkpt><trkpt lat="45.7071134" lon="9.4566998"><ele>198.5</ele><time>2026-04-02T12:41:43.516Z</time></trkpt><trkpt lat="45.7071814" lon="9.4566195"><ele>197.66666666666666</ele><time>2026-04-02T12:41:46.517Z</time></trkpt><trkpt lat="45.7072501" lon="9.4565701"><ele>196.83333333333331</ele><time>2026-04-02T12:41:49.517Z</time></trkpt><trkpt lat="45.7073151" lon="9.456515"><ele>196.0</ele><time>2026-04-02T12:41:51.516Z</time></trkpt><trkpt lat="45.7073942" lon="9.4564425"><ele>195.99999999999997</ele><time>2026-04-02T12:41:53.517Z</time></trkpt><trkpt lat="45.7074567" lon="9.4563549"><ele>196.0</ele><time>2026-04-02T12:41:55.516Z</time></trkpt><trkpt lat="45.7074918" lon="9.4562649"><ele>196.0</ele><time>2026-04-02T12:41:57.517Z</time></trkpt><trkpt lat="45.707527" lon="9.456146"><ele>196.0</ele><time>2026-04-02T12:41:59.517Z</time></trkpt><trkpt lat="45.707504" lon="9.4560242"><ele>195.99999999999997</ele><time>2026-04-02T12:42:02.517Z</time></trkpt><trkpt lat="45.7074814" lon="9.4559297"><ele>196.0</ele><time>2026-04-02T12:42:05.517Z</time></trkpt><trkpt lat="45.7074398" lon="9.4558467"><ele>196.85714285714286</ele><time>2026-04-02T12:42:08.517Z</time></trkpt><trkpt lat="45.7074089" lon="9.4557602"><ele>197.71428571428572</ele><time>2026-04-02T12:42:11.516Z</time></trkpt><trkpt lat="45.7073819" lon="9.4556604"><ele>198.57142857142856</ele><time>2026-04-02T12:42:14.516Z</time></trkpt><trkpt lat="45.7073482" lon="9.4555668"><ele>199.42857142857144</ele><time>2026-04-02T12:42:17.516Z</time></trkpt><trkpt lat="45.7073012" lon="9.4554903"><ele>200.28571428571428</ele><time>2026-04-02T12:42:20.516Z</time></trkpt><trkpt lat="45.7072617" lon="9.4554001"><ele>201.14285714285714</ele><time>2026-04-02T12:42:26.508Z</time></trkpt><trkpt lat="45.7072339" lon="9.4552999"><ele>202.0</ele><time>2026-04-02T12:42:29.517Z</time></trkpt><trkpt lat="45.7072143" lon="9.4552093"><ele>203.14285714285714</ele><time>2026-04-02T12:42:32.516Z</time></trkpt><trkpt lat="45.7071899" lon="9.455095"><ele>204.28571428571428</ele><time>2026-04-02T12:42:36.523Z</time></trkpt><trkpt lat="45.7071552" lon="9.4550069"><ele>205.42857142857144</ele><time>2026-04-02T12:42:39.517Z</time></trkpt><trkpt lat="45.7071149" lon="9.4549255"><ele>206.57142857142856</ele><time>2026-04-02T12:42:42.517Z</time></trkpt><trkpt lat="45.7070637" lon="9.4548377"><ele>207.71428571428572</ele><time>2026-04-02T12:42:45.516Z</time></trkpt><trkpt lat="45.7070172" lon="9.4547726"><ele>208.85714285714286</ele><time>2026-04-02T12:42:48.583Z</time></trkpt><trkpt lat="45.7069709" lon="9.454688"><ele>210.0</ele><time>2026-04-02T12:42:51.517Z</time></trkpt><trkpt lat="45.7069372" lon="9.4546025"><ele>210.85714285714286</ele><time>2026-04-02T12:42:54.517Z</time></trkpt><trkpt lat="45.7069142" lon="9.4545101"><ele>211.71428571428572</ele><time>2026-04-02T12:42:57.519Z</time></trkpt><trkpt lat="45.7068929" lon="9.45441"><ele>212.57142857142856</ele><time>2026-04-02T12:43:00.517Z</time></trkpt><trkpt lat="45.7068785" lon="9.4543088"><ele>213.42857142857144</ele><time>2026-04-02T12:43:03.516Z</time></trkpt><trkpt lat="45.7068678" lon="9.454209"><ele>214.28571428571428</ele><time>2026-04-02T12:43:06.516Z</time></trkpt><trkpt lat="45.7068422" lon="9.4541266"><ele>215.14285714285714</ele><time>2026-04-02T12:43:09.562Z</time></trkpt><trkpt lat="45.7067973" lon="9.454039"><ele>216.0</ele><time>2026-04-02T12:43:12.517Z</time></trkpt><trkpt lat="45.706771" lon="9.4539433"><ele>217.66666666666666</ele><time>2026-04-02T12:43:15.516Z</time></trkpt><trkpt lat="45.7067365" lon="9.4538337"><ele>219.33333333333331</ele><time>2026-04-02T12:43:19.516Z</time></trkpt><trkpt lat="45.7067189" lon="9.4537103"><ele>221.0</ele><time>2026-04-02T12:43:23.517Z</time></trkpt><trkpt lat="45.7067183" lon="9.4536112"><ele>222.66666666666666</ele><time>2026-04-02T12:43:26.517Z</time></trkpt><trkpt lat="45.7067191" lon="9.4535205"><ele>224.33333333333331</ele><time>2026-04-02T12:43:29.443Z</time></trkpt><trkpt lat="45.7067244" lon="9.4534149"><ele>226.0</ele><time>2026-04-02T12:43:32.516Z</time></trkpt><trkpt lat="45.7067356" lon="9.4533022"><ele>227.0</ele><time>2026-04-02T12:43:36.526Z</time></trkpt><trkpt lat="45.7067458" lon="9.4532065"><ele>228.0</ele><time>2026-04-02T12:43:39.516Z</time></trkpt><trkpt lat="45.7067596" lon="9.4531131"><ele>229.0</ele><time>2026-04-02T12:43:42.516Z</time></trkpt><trkpt lat="45.706773" lon="9.4530227"><ele>230.0</ele><time>2026-04-02T12:43:45.516Z</time></trkpt><trkpt lat="45.7067968" lon="9.4529339"><ele>231.0</ele><time>2026-04-02T12:43:48.516Z</time></trkpt><trkpt lat="45.7068156" lon="9.4528437"><ele>232.0</ele><time>2026-04-02T12:43:51.618Z</time></trkpt><trkpt lat="45.7068245" lon="9.4527456"><ele>233.0</ele><time>2026-04-02T12:43:54.516Z</time></trkpt><trkpt lat="45.7068407" lon="9.452633"><ele>233.4</ele><time>2026-04-02T12:43:58.62Z</time></trkpt><trkpt lat="45.7068499" lon="9.4525234"><ele>233.8</ele><time>2026-04-02T12:44:01.924Z</time></trkpt><trkpt lat="45.7068622" lon="9.4524182"><ele>234.2</ele><time>2026-04-02T12:44:05.148Z</time></trkpt><trkpt lat="45.706899" lon="9.4521817"><ele>234.6</ele><time>2026-04-02T12:44:07.517Z</time></trkpt><trkpt lat="45.7069155" lon="9.4520574"><ele>235.0</ele><time>2026-04-02T12:44:10.516Z</time></trkpt><trkpt lat="45.7069186" lon="9.4519612"><ele>234.99999999999997</ele><time>2026-04-02T12:44:12.516Z</time></trkpt><trkpt lat="45.7069187" lon="9.451831"><ele>235.0</ele><time>2026-04-02T12:44:15.517Z</time></trkpt><trkpt lat="45.7069038" lon="9.4517084"><ele>235.0</ele><time>2026-04-02T12:44:18.517Z</time></trkpt><trkpt lat="45.7068906" lon="9.4515861"><ele>235.0</ele><time>2026-04-02T12:44:21.517Z</time></trkpt><trkpt lat="45.7068716" lon="9.4514599"><ele>234.99999999999997</ele><time>2026-04-02T12:44:24.517Z</time></trkpt><trkpt lat="45.7068551" lon="9.4513332"><ele>235.0</ele><time>2026-04-02T12:44:27.516Z</time></trkpt><trkpt lat="45.7068445" lon="9.4512424"><ele>235.7142857142857</ele><time>2026-04-02T12:44:29.516Z</time></trkpt><trkpt lat="45.7068378" lon="9.451152"><ele>236.4285714285714</ele><time>2026-04-02T12:44:31.517Z</time></trkpt><trkpt lat="45.7068246" lon="9.4510588"><ele>237.14285714285714</ele><time>2026-04-02T12:44:33.517Z</time></trkpt><trkpt lat="45.7068141" lon="9.4509597"><ele>237.85714285714283</ele><time>2026-04-02T12:44:35.516Z</time></trkpt><trkpt lat="45.7068084" lon="9.4508559"><ele>238.57142857142856</ele><time>2026-04-02T12:44:37.517Z</time></trkpt><trkpt lat="45.7067994" lon="9.4507526"><ele>239.28571428571428</ele><time>2026-04-02T12:44:39.516Z</time></trkpt><trkpt lat="45.7067885" lon="9.4506509"><ele>240.0</ele><time>2026-04-02T12:44:41.517Z</time></trkpt><trkpt lat="45.706778" lon="9.4505511"><ele>240.42857142857144</ele><time>2026-04-02T12:44:43.516Z</time></trkpt><trkpt lat="45.7067687" lon="9.4504471"><ele>240.85714285714283</ele><time>2026-04-02T12:44:45.516Z</time></trkpt><trkpt lat="45.706758" lon="9.4503536"><ele>241.28571428571428</ele><time>2026-04-02T12:44:47.516Z</time></trkpt><trkpt lat="45.7067454" lon="9.4502531"><ele>241.71428571428572</ele><time>2026-04-02T12:44:49.516Z</time></trkpt><trkpt lat="45.7067516" lon="9.4501548"><ele>242.14285714285717</ele><time>2026-04-02T12:44:51.516Z</time></trkpt><trkpt lat="45.7067497" lon="9.4500561"><ele>242.57142857142856</ele><time>2026-04-02T12:44:53.517Z</time></trkpt><trkpt lat="45.7067464" lon="9.4499536"><ele>243.0</ele><time>2026-04-02T12:44:55.517Z</time></trkpt><trkpt lat="45.7067455" lon="9.4498477"><ele>243.0</ele><time>2026-04-02T12:44:57.516Z</time></trkpt><trkpt lat="45.7067533" lon="9.4497305"><ele>243.0</ele><time>2026-04-02T12:44:59.516Z</time></trkpt><trkpt lat="45.7067738" lon="9.4496252"><ele>243.0</ele><time>2026-04-02T12:45:01.516Z</time></trkpt><trkpt lat="45.7068232" lon="9.4495409"><ele>243.0</ele><time>2026-04-02T12:45:03.516Z</time></trkpt><trkpt lat="45.7068993" lon="9.4495065"><ele>243.0</ele><time>2026-04-02T12:45:05.516Z</time></trkpt><trkpt lat="45.7069757" lon="9.4494882"><ele>243.0</ele><time>2026-04-02T12:45:07.516Z</time></trkpt><trkpt lat="45.7070604" lon="9.4494568"><ele>243.4</ele><time>2026-04-02T12:45:09.517Z</time></trkpt><trkpt lat="45.7071522" lon="9.4494312"><ele>243.8</ele><time>2026-04-02T12:45:11.517Z</time></trkpt><trkpt lat="45.7072438" lon="9.4494052"><ele>244.2</ele><time>2026-04-02T12:45:13.517Z</time></trkpt><trkpt lat="45.707334" lon="9.4493716"><ele>244.6</ele><time>2026-04-02T12:45:15.516Z</time></trkpt><trkpt lat="45.7074333" lon="9.4493416"><ele>245.0</ele><time>2026-04-02T12:45:17.516Z</time></trkpt><trkpt lat="45.7075243" lon="9.4493107"><ele>245.0</ele><time>2026-04-02T12:45:19.517Z</time></trkpt><trkpt lat="45.7076239" lon="9.4492782"><ele>245.0</ele><time>2026-04-02T12:45:21.516Z</time></trkpt><trkpt lat="45.7077298" lon="9.4492484"><ele>245.0</ele><time>2026-04-02T12:45:23.516Z</time></trkpt><trkpt lat="45.7077929" lon="9.4492316"><ele>245.0</ele><time>2026-04-02T12:45:24.517Z</time></trkpt><trkpt lat="45.7080125" lon="9.449214"><ele>244.8</ele><time>2026-04-02T12:45:26.517Z</time></trkpt><trkpt lat="45.7080807" lon="9.4492058"><ele>244.6</ele><time>2026-04-02T12:45:27.517Z</time></trkpt><trkpt lat="45.7082052" lon="9.4491817"><ele>244.39999999999998</ele><time>2026-04-02T12:45:29.517Z</time></trkpt><trkpt lat="45.708326" lon="9.4491523"><ele>244.2</ele><time>2026-04-02T12:45:31.517Z</time></trkpt><trkpt lat="45.7083919" lon="9.4491382"><ele>244.0</ele><time>2026-04-02T12:45:32.517Z</time></trkpt><trkpt lat="45.7084589" lon="9.4491256"><ele>243.99999999999997</ele><time>2026-04-02T12:45:33.517Z</time></trkpt><trkpt lat="45.7085237" lon="9.4491185"><ele>244.0</ele><time>2026-04-02T12:45:34.517Z</time></trkpt><trkpt lat="45.7085937" lon="9.4491023"><ele>244.0</ele><time>2026-04-02T12:45:35.517Z</time></trkpt><trkpt lat="45.7086598" lon="9.4490824"><ele>244.0</ele><time>2026-04-02T12:45:36.516Z</time></trkpt><trkpt lat="45.7087304" lon="9.4490666"><ele>243.99999999999997</ele><time>2026-04-02T12:45:37.517Z</time></trkpt><trkpt lat="45.7088405" lon="9.4490558"><ele>244.0</ele><time>2026-04-02T12:45:39.516Z</time></trkpt><trkpt lat="45.7089161" lon="9.4490446"><ele>243.85714285714283</ele><time>2026-04-02T12:45:40.516Z</time></trkpt><trkpt lat="45.7089836" lon="9.4490221"><ele>243.71428571428572</ele><time>2026-04-02T12:45:41.516Z</time></trkpt><trkpt lat="45.7090602" lon="9.4490069"><ele>243.57142857142856</ele><time>2026-04-02T12:45:42.516Z</time></trkpt><trkpt lat="45.7091353" lon="9.448987"><ele>243.42857142857142</ele><time>2026-04-02T12:45:43.516Z</time></trkpt><trkpt lat="45.7091984" lon="9.4489724"><ele>243.28571428571428</ele><time>2026-04-02T12:45:44.517Z</time></trkpt><trkpt lat="45.709264" lon="9.4489616"><ele>243.14285714285714</ele><time>2026-04-02T12:45:45.517Z</time></trkpt><trkpt lat="45.7093344" lon="9.4489642"><ele>243.0</ele><time>2026-04-02T12:45:46.516Z</time></trkpt><trkpt lat="45.7094059" lon="9.4489523"><ele>243.28571428571428</ele><time>2026-04-02T12:45:47.516Z</time></trkpt><trkpt lat="45.7094769" lon="9.4489357"><ele>243.57142857142858</ele><time>2026-04-02T12:45:48.517Z</time></trkpt><trkpt lat="45.7095504" lon="9.4489262"><ele>243.85714285714286</ele><time>2026-04-02T12:45:49.517Z</time></trkpt><trkpt lat="45.7096205" lon="9.4489127"><ele>244.14285714285714</ele><time>2026-04-02T12:45:50.517Z</time></trkpt><trkpt lat="45.7096911" lon="9.4489021"><ele>244.42857142857144</ele><time>2026-04-02T12:45:51.517Z</time></trkpt><trkpt lat="45.709769" lon="9.4488829"><ele>244.71428571428572</ele><time>2026-04-02T12:45:52.517Z</time></trkpt><trkpt lat="45.7098376" lon="9.448872"><ele>245.0</ele><time>2026-04-02T12:45:53.516Z</time></trkpt><trkpt lat="45.7099048" lon="9.4488509"><ele>245.0</ele><time>2026-04-02T12:45:54.516Z</time></trkpt><trkpt lat="45.7099737" lon="9.4488291"><ele>245.0</ele><time>2026-04-02T12:45:55.516Z</time></trkpt><trkpt lat="45.7100427" lon="9.4488055"><ele>245.0</ele><time>2026-04-02T12:45:56.517Z</time></trkpt><trkpt lat="45.7101112" lon="9.4487873"><ele>245.0</ele><time>2026-04-02T12:45:57.516Z</time></trkpt><trkpt lat="45.7101725" lon="9.4487515"><ele>245.0</ele><time>2026-04-02T12:45:58.516Z</time></trkpt><trkpt lat="45.7102461" lon="9.4487213"><ele>245.0</ele><time>2026-04-02T12:45:59.516Z</time></trkpt><trkpt lat="45.7103126" lon="9.4486768"><ele>245.0</ele><time>2026-04-02T12:46:00.517Z</time></trkpt><trkpt lat="45.7103747" lon="9.4486224"><ele>245.33333333333334</ele><time>2026-04-02T12:46:01.516Z</time></trkpt><trkpt lat="45.7104302" lon="9.4485668"><ele>245.66666666666669</ele><time>2026-04-02T12:46:02.517Z</time></trkpt><trkpt lat="45.7104889" lon="9.4485089"><ele>246.0</ele><time>2026-04-02T12:46:03.516Z</time></trkpt><trkpt lat="45.7106035" lon="9.4483973"><ele>246.33333333333331</ele><time>2026-04-02T12:46:05.516Z</time></trkpt><trkpt lat="45.7106608" lon="9.4483469"><ele>246.66666666666666</ele><time>2026-04-02T12:46:06.516Z</time></trkpt><trkpt lat="45.710721" lon="9.4483091"><ele>247.0</ele><time>2026-04-02T12:46:07.516Z</time></trkpt><trkpt lat="45.7107783" lon="9.4482646"><ele>246.99999999999997</ele><time>2026-04-02T12:46:08.517Z</time></trkpt><trkpt lat="45.7108493" lon="9.4481329"><ele>247.0</ele><time>2026-04-02T12:46:10.517Z</time></trkpt><trkpt lat="45.7108458" lon="9.4480067"><ele>247.0</ele><time>2026-04-02T12:46:12.517Z</time></trkpt><trkpt lat="45.7108234" lon="9.4478749"><ele>247.0</ele><time>2026-04-02T12:46:14.517Z</time></trkpt><trkpt lat="45.7108294" lon="9.4477766"><ele>246.99999999999997</ele><time>2026-04-02T12:46:16.516Z</time></trkpt><trkpt lat="45.7108631" lon="9.4476713"><ele>247.0</ele><time>2026-04-02T12:46:19.516Z</time></trkpt><trkpt lat="45.7109129" lon="9.4475748"><ele>247.99999999999997</ele><time>2026-04-02T12:46:23.517Z</time></trkpt><trkpt lat="45.7109581" lon="9.4474725"><ele>249.0</ele><time>2026-04-02T12:46:27.516Z</time></trkpt><trkpt lat="45.7109999" lon="9.4473948"><ele>250.0</ele><time>2026-04-02T12:46:30.516Z</time></trkpt><trkpt lat="45.7110624" lon="9.4473147"><ele>251.0</ele><time>2026-04-02T12:46:34.517Z</time></trkpt><trkpt lat="45.7111091" lon="9.4472421"><ele>251.99999999999997</ele><time>2026-04-02T12:46:37.516Z</time></trkpt><trkpt lat="45.7111637" lon="9.4471679"><ele>253.0</ele><time>2026-04-02T12:46:40.517Z</time></trkpt><trkpt lat="45.7112403" lon="9.4471074"><ele>255.60000000000002</ele><time>2026-04-02T12:46:45.516Z</time></trkpt><trkpt lat="45.7113209" lon="9.4470012"><ele>258.20000000000005</ele><time>2026-04-02T12:46:47.516Z</time></trkpt><trkpt lat="45.7113616" lon="9.446928"><ele>260.8</ele><time>2026-04-02T12:46:50.516Z</time></trkpt><trkpt lat="45.7114879" lon="9.4467408"><ele>263.40000000000003</ele><time>2026-04-02T12:46:59.517Z</time></trkpt><trkpt lat="45.7115426" lon="9.4466782"><ele>266.0</ele><time>2026-04-02T12:47:02.516Z</time></trkpt><trkpt lat="45.7115993" lon="9.4466106"><ele>266.0</ele><time>2026-04-02T12:47:05.516Z</time></trkpt><trkpt lat="45.7116519" lon="9.4465415"><ele>266.0</ele><time>2026-04-02T12:47:08.516Z</time></trkpt><trkpt lat="45.7117046" lon="9.446472"><ele>266.0</ele><time>2026-04-02T12:47:11.517Z</time></trkpt><trkpt lat="45.7117533" lon="9.4464023"><ele>266.0</ele><time>2026-04-02T12:47:14.516Z</time></trkpt><trkpt lat="45.7118028" lon="9.446332"><ele>266.0</ele><time>2026-04-02T12:47:17.516Z</time></trkpt><trkpt lat="45.7118624" lon="9.4462448"><ele>266.0</ele><time>2026-04-02T12:47:21.516Z</time></trkpt><trkpt lat="45.7119262" lon="9.4461803"><ele>266.0</ele><time>2026-04-02T12:47:24.516Z</time></trkpt><trkpt lat="45.7119853" lon="9.4461111"><ele>266.5</ele><time>2026-04-02T12:47:27.517Z</time></trkpt><trkpt lat="45.7120337" lon="9.4460303"><ele>267.0</ele><time>2026-04-02T12:47:30.516Z</time></trkpt><trkpt lat="45.712095" lon="9.4459535"><ele>267.5</ele><time>2026-04-02T12:47:33.516Z</time></trkpt><trkpt lat="45.7121616" lon="9.4458795"><ele>268.0</ele><time>2026-04-02T12:47:36.517Z</time></trkpt><trkpt lat="45.7122195" lon="9.4458059"><ele>268.5</ele><time>2026-04-02T12:47:39.517Z</time></trkpt><trkpt lat="45.712271" lon="9.4457441"><ele>269.0</ele><time>2026-04-02T12:47:41.517Z</time></trkpt><trkpt lat="45.712337" lon="9.4456723"><ele>269.0</ele><time>2026-04-02T12:47:44.517Z</time></trkpt><trkpt lat="45.7123999" lon="9.445597"><ele>269.0</ele><time>2026-04-02T12:47:47.517Z</time></trkpt><trkpt lat="45.7124631" lon="9.4455212"><ele>269.0</ele><time>2026-04-02T12:47:50.517Z</time></trkpt><trkpt lat="45.7125194" lon="9.4454504"><ele>269.0</ele><time>2026-04-02T12:47:53.517Z</time></trkpt><trkpt lat="45.7125761" lon="9.4453898"><ele>269.0</ele><time>2026-04-02T12:47:56.517Z</time></trkpt><trkpt lat="45.7126378" lon="9.4453121"><ele>269.0</ele><time>2026-04-02T12:47:59.517Z</time></trkpt><trkpt lat="45.7126979" lon="9.4452305"><ele>268.6666666666667</ele><time>2026-04-02T12:48:02.517Z</time></trkpt><trkpt lat="45.7127426" lon="9.4451394"><ele>268.33333333333337</ele><time>2026-04-02T12:48:05.517Z</time></trkpt><trkpt lat="45.7128479" lon="9.4450865"><ele>268.0</ele><time>2026-04-02T12:48:09.517Z</time></trkpt><trkpt lat="45.7129031" lon="9.4450022"><ele>267.6666666666667</ele><time>2026-04-02T12:48:12.516Z</time></trkpt><trkpt lat="45.7129574" lon="9.4449303"><ele>267.3333333333333</ele><time>2026-04-02T12:48:15.517Z</time></trkpt><trkpt lat="45.7130157" lon="9.4448483"><ele>267.0</ele><time>2026-04-02T12:48:18.517Z</time></trkpt><trkpt lat="45.7130656" lon="9.4447659"><ele>267.0</ele><time>2026-04-02T12:48:21.516Z</time></trkpt><trkpt lat="45.713106" lon="9.4446783"><ele>267.0</ele><time>2026-04-02T12:48:24.516Z</time></trkpt><trkpt lat="45.713141" lon="9.4445834"><ele>267.0</ele><time>2026-04-02T12:48:27.516Z</time></trkpt><trkpt lat="45.7131731" lon="9.4444841"><ele>267.0</ele><time>2026-04-02T12:48:30.516Z</time></trkpt><trkpt lat="45.7132024" lon="9.4443801"><ele>267.0</ele><time>2026-04-02T12:48:33.516Z</time></trkpt><trkpt lat="45.7132304" lon="9.4442778"><ele>267.0</ele><time>2026-04-02T12:48:36.516Z</time></trkpt><trkpt lat="45.713264" lon="9.4441877"><ele>272.3333333333333</ele><time>2026-04-02T12:48:39.516Z</time></trkpt><trkpt lat="45.7133071" lon="9.4440931"><ele>277.6666666666667</ele><time>2026-04-02T12:48:42.517Z</time></trkpt><trkpt lat="45.7133581" lon="9.4439908"><ele>283.0</ele><time>2026-04-02T12:48:45.516Z</time></trkpt><trkpt lat="45.7133918" lon="9.4438884"><ele>288.33333333333337</ele><time>2026-04-02T12:48:47.516Z</time></trkpt><trkpt lat="45.713419" lon="9.443781"><ele>293.6666666666667</ele><time>2026-04-02T12:48:50.517Z</time></trkpt><trkpt lat="45.7134732" lon="9.4437087"><ele>299.0</ele><time>2026-04-02T12:48:53.516Z</time></trkpt><trkpt lat="45.7135252" lon="9.4436463"><ele>297.5</ele><time>2026-04-02T12:48:55.516Z</time></trkpt><trkpt lat="45.7135537" lon="9.4435595"><ele>296.0</ele><time>2026-04-02T12:48:58.517Z</time></trkpt><trkpt lat="45.7136104" lon="9.4434596"><ele>294.5</ele><time>2026-04-02T12:49:01.517Z</time></trkpt><trkpt lat="45.7136791" lon="9.4433703"><ele>293.0</ele><time>2026-04-02T12:49:04.517Z</time></trkpt><trkpt lat="45.7137293" lon="9.4432692"><ele>291.5</ele><time>2026-04-02T12:49:06.517Z</time></trkpt><trkpt lat="45.7137759" lon="9.4431805"><ele>290.0</ele><time>2026-04-02T12:49:08.517Z</time></trkpt><trkpt lat="45.7138141" lon="9.4430872"><ele>290.0</ele><time>2026-04-02T12:49:10.517Z</time></trkpt><trkpt lat="45.7138398" lon="9.4429921"><ele>290.0</ele><time>2026-04-02T12:49:12.516Z</time></trkpt><trkpt lat="45.7138566" lon="9.4429041"><ele>290.0</ele><time>2026-04-02T12:49:14.516Z</time></trkpt><trkpt lat="45.71388" lon="9.4427979"><ele>290.0</ele><time>2026-04-02T12:49:19.516Z</time></trkpt><trkpt lat="45.7139026" lon="9.4426882"><ele>290.0</ele><time>2026-04-02T12:49:22.516Z</time></trkpt><trkpt lat="45.7139407" lon="9.4426051"><ele>290.0</ele><time>2026-04-02T12:49:24.516Z</time></trkpt><trkpt lat="45.7140142" lon="9.4425932"><ele>290.0</ele><time>2026-04-02T12:49:29.516Z</time></trkpt><trkpt lat="45.7140974" lon="9.4425748"><ele>290.5</ele><time>2026-04-02T12:49:34.517Z</time></trkpt><trkpt lat="45.7141699" lon="9.442546"><ele>291.0</ele><time>2026-04-02T12:49:37.516Z</time></trkpt><trkpt lat="45.7142548" lon="9.4425099"><ele>291.5</ele><time>2026-04-02T12:49:40.516Z</time></trkpt><trkpt lat="45.7143302" lon="9.4424636"><ele>292.0</ele><time>2026-04-02T12:49:43.516Z</time></trkpt><trkpt lat="45.7144127" lon="9.4424047"><ele>292.5</ele><time>2026-04-02T12:49:46.517Z</time></trkpt><trkpt lat="45.7144839" lon="9.4423306"><ele>293.0</ele><time>2026-04-02T12:49:49.517Z</time></trkpt><trkpt lat="45.7145415" lon="9.4422635"><ele>293.0</ele><time>2026-04-02T12:49:52.517Z</time></trkpt><trkpt lat="45.7146086" lon="9.4421926"><ele>293.0</ele><time>2026-04-02T12:49:55.517Z</time></trkpt><trkpt lat="45.7146638" lon="9.4421291"><ele>293.0</ele><time>2026-04-02T12:49:57.516Z</time></trkpt><trkpt lat="45.7147243" lon="9.442063"><ele>293.0</ele><time>2026-04-02T12:49:59.516Z</time></trkpt><trkpt lat="45.7147968" lon="9.4420168"><ele>293.0</ele><time>2026-04-02T12:50:01.516Z</time></trkpt><trkpt lat="45.7148675" lon="9.4419714"><ele>293.0</ele><time>2026-04-02T12:50:03.516Z</time></trkpt><trkpt lat="45.7149344" lon="9.441935"><ele>295.33333333333337</ele><time>2026-04-02T12:50:05.516Z</time></trkpt><trkpt lat="45.7150213" lon="9.441874"><ele>297.6666666666667</ele><time>2026-04-02T12:50:07.517Z</time></trkpt><trkpt lat="45.7151112" lon="9.4418068"><ele>300.0</ele><time>2026-04-02T12:50:09.516Z</time></trkpt><trkpt lat="45.7151871" lon="9.4417567"><ele>302.3333333333333</ele><time>2026-04-02T12:50:11.517Z</time></trkpt><trkpt lat="45.7152569" lon="9.4416964"><ele>304.66666666666663</ele><time>2026-04-02T12:50:13.516Z</time></trkpt><trkpt lat="45.7153262" lon="9.4416339"><ele>307.0</ele><time>2026-04-02T12:50:15.517Z</time></trkpt><trkpt lat="45.7153929" lon="9.44157"><ele>307.0</ele><time>2026-04-02T12:50:17.517Z</time></trkpt><trkpt lat="45.7154565" lon="9.4415109"><ele>307.0</ele><time>2026-04-02T12:50:19.516Z</time></trkpt><trkpt lat="45.7155213" lon="9.4414545"><ele>307.0</ele><time>2026-04-02T12:50:21.516Z</time></trkpt><trkpt lat="45.7155915" lon="9.4413963"><ele>307.0</ele><time>2026-04-02T12:50:23.516Z</time></trkpt><trkpt lat="45.7156633" lon="9.4413442"><ele>307.0</ele><time>2026-04-02T12:50:25.517Z</time></trkpt><trkpt lat="45.7157347" lon="9.4413028"><ele>307.0</ele><time>2026-04-02T12:50:27.516Z</time></trkpt><trkpt lat="45.7157977" lon="9.4412506"><ele>308.16666666666663</ele><time>2026-04-02T12:50:29.517Z</time></trkpt><trkpt lat="45.7158631" lon="9.4411945"><ele>309.3333333333333</ele><time>2026-04-02T12:50:31.517Z</time></trkpt><trkpt lat="45.7159322" lon="9.4411393"><ele>310.5</ele><time>2026-04-02T12:50:33.517Z</time></trkpt><trkpt lat="45.7160099" lon="9.441088"><ele>311.6666666666667</ele><time>2026-04-02T12:50:35.517Z</time></trkpt><trkpt lat="45.716083" lon="9.4410309"><ele>312.83333333333337</ele><time>2026-04-02T12:50:37.516Z</time></trkpt><trkpt lat="45.7161506" lon="9.4409767"><ele>314.0</ele><time>2026-04-02T12:50:39.516Z</time></trkpt><trkpt lat="45.7162158" lon="9.4409152"><ele>314.0</ele><time>2026-04-02T12:50:41.517Z</time></trkpt><trkpt lat="45.7162802" lon="9.4408543"><ele>314.0</ele><time>2026-04-02T12:50:43.516Z</time></trkpt><trkpt lat="45.7163423" lon="9.4407942"><ele>314.0</ele><time>2026-04-02T12:50:45.517Z</time></trkpt><trkpt lat="45.7163986" lon="9.4407382"><ele>314.0</ele><time>2026-04-02T12:50:47.516Z</time></trkpt><trkpt lat="45.7164652" lon="9.4406797"><ele>314.0</ele><time>2026-04-02T12:50:49.516Z</time></trkpt><trkpt lat="45.7165412" lon="9.4406156"><ele>314.0</ele><time>2026-04-02T12:50:51.516Z</time></trkpt><trkpt lat="45.7166108" lon="9.4405636"><ele>314.0</ele><time>2026-04-02T12:50:53.517Z</time></trkpt><trkpt lat="45.716663" lon="9.4405045"><ele>314.0</ele><time>2026-04-02T12:50:55.517Z</time></trkpt><trkpt lat="45.7167154" lon="9.4404458"><ele>314.0</ele><time>2026-04-02T12:50:57.516Z</time></trkpt><trkpt lat="45.7167896" lon="9.4403567"><ele>314.0</ele><time>2026-04-02T12:51:00.517Z</time></trkpt><trkpt lat="45.7168405" lon="9.4402929"><ele>314.0</ele><time>2026-04-02T12:51:02.517Z</time></trkpt><trkpt lat="45.7168862" lon="9.4402252"><ele>314.0</ele><time>2026-04-02T12:51:04.516Z</time></trkpt><trkpt lat="45.7169488" lon="9.4401401"><ele>314.83333333333337</ele><time>2026-04-02T12:51:07.516Z</time></trkpt><trkpt lat="45.7169984" lon="9.4400694"><ele>315.6666666666667</ele><time>2026-04-02T12:51:10.517Z</time></trkpt><trkpt lat="45.7170557" lon="9.4400034"><ele>316.5</ele><time>2026-04-02T12:51:13.517Z</time></trkpt><trkpt lat="45.7171183" lon="9.4399231"><ele>317.3333333333333</ele><time>2026-04-02T12:51:16.516Z</time></trkpt><trkpt lat="45.7171752" lon="9.4398454"><ele>318.16666666666663</ele><time>2026-04-02T12:51:19.517Z</time></trkpt><trkpt lat="45.717219" lon="9.4397638"><ele>319.0</ele><time>2026-04-02T12:51:26.257Z</time></trkpt><trkpt lat="45.7172751" lon="9.4396986"><ele>321.66666666666663</ele><time>2026-04-02T12:51:29.072Z</time></trkpt><trkpt lat="45.7173361" lon="9.4396289"><ele>324.3333333333333</ele><time>2026-04-02T12:51:31.859Z</time></trkpt><trkpt lat="45.7173939" lon="9.4395473"><ele>327.0</ele><time>2026-04-02T12:51:34.638Z</time></trkpt><trkpt lat="45.7174516" lon="9.4394613"><ele>329.6666666666667</ele><time>2026-04-02T12:51:37.516Z</time></trkpt><trkpt lat="45.7174999" lon="9.439402"><ele>332.33333333333337</ele><time>2026-04-02T12:51:39.517Z</time></trkpt><trkpt lat="45.717547" lon="9.4393254"><ele>335.0</ele><time>2026-04-02T12:51:41.516Z</time></trkpt><trkpt lat="45.7176388" lon="9.4391618"><ele>335.0</ele><time>2026-04-02T12:51:42.516Z</time></trkpt><trkpt lat="45.7176915" lon="9.4390754"><ele>335.0</ele><time>2026-04-02T12:51:44.516Z</time></trkpt><trkpt lat="45.7177285" lon="9.4389799"><ele>335.0</ele><time>2026-04-02T12:51:46.516Z</time></trkpt><trkpt lat="45.7177745" lon="9.4388989"><ele>335.0</ele><time>2026-04-02T12:51:48.517Z</time></trkpt><trkpt lat="45.7178302" lon="9.438825"><ele>335.0</ele><time>2026-04-02T12:51:50.516Z</time></trkpt><trkpt lat="45.7178842" lon="9.4387543"><ele>335.0</ele><time>2026-04-02T12:51:52.516Z</time></trkpt><trkpt lat="45.7179466" lon="9.4386466"><ele>333.99999999999994</ele><time>2026-04-02T12:51:54.516Z</time></trkpt><trkpt lat="45.7179775" lon="9.4385314"><ele>333.0</ele><time>2026-04-02T12:51:56.517Z</time></trkpt><trkpt lat="45.7179872" lon="9.4384197"><ele>332.0</ele><time>2026-04-02T12:51:58.517Z</time></trkpt><trkpt lat="45.7179811" lon="9.4383129"><ele>331.0</ele><time>2026-04-02T12:52:00.516Z</time></trkpt><trkpt lat="45.7179836" lon="9.4382152"><ele>330.0</ele><time>2026-04-02T12:52:02.517Z</time></trkpt><trkpt lat="45.7179779" lon="9.4381154"><ele>328.99999999999994</ele><time>2026-04-02T12:52:04.517Z</time></trkpt><trkpt lat="45.717971" lon="9.4380183"><ele>328.0</ele><time>2026-04-02T12:52:06.517Z</time></trkpt><trkpt lat="45.7179694" lon="9.4379131"><ele>328.0</ele><time>2026-04-02T12:52:08.517Z</time></trkpt><trkpt lat="45.7179833" lon="9.437802"><ele>328.0</ele><time>2026-04-02T12:52:10.517Z</time></trkpt><trkpt lat="45.7179976" lon="9.437685"><ele>328.0</ele><time>2026-04-02T12:52:12.517Z</time></trkpt><trkpt lat="45.7180197" lon="9.4375786"><ele>328.0</ele><time>2026-04-02T12:52:14.517Z</time></trkpt><trkpt lat="45.7180128" lon="9.4374776"><ele>328.0</ele><time>2026-04-02T12:52:16.516Z</time></trkpt><trkpt lat="45.7180175" lon="9.4373815"><ele>328.0</ele><time>2026-04-02T12:52:18.516Z</time></trkpt><trkpt lat="45.7180165" lon="9.4372416"><ele>327.59999999999997</ele><time>2026-04-02T12:52:20.516Z</time></trkpt><trkpt lat="45.7179963" lon="9.437096"><ele>327.2</ele><time>2026-04-02T12:52:22.516Z</time></trkpt><trkpt lat="45.717962" lon="9.4369743"><ele>326.8</ele><time>2026-04-02T12:52:24.516Z</time></trkpt><trkpt lat="45.717904" lon="9.4368715"><ele>326.4</ele><time>2026-04-02T12:52:26.517Z</time></trkpt><trkpt lat="45.7178338" lon="9.4367667"><ele>326.0</ele><time>2026-04-02T12:52:28.517Z</time></trkpt><trkpt lat="45.7177138" lon="9.4365425"><ele>327.5</ele><time>2026-04-02T12:52:30.517Z</time></trkpt><trkpt lat="45.7176261" lon="9.4364215"><ele>329.0</ele><time>2026-04-02T12:52:32.517Z</time></trkpt><trkpt lat="45.7175486" lon="9.4363096"><ele>330.5</ele><time>2026-04-02T12:52:34.517Z</time></trkpt><trkpt lat="45.7174623" lon="9.4361886"><ele>332.0</ele><time>2026-04-02T12:52:36.517Z</time></trkpt><trkpt lat="45.7173997" lon="9.4360705"><ele>332.0</ele><time>2026-04-02T12:52:38.516Z</time></trkpt><trkpt lat="45.7173294" lon="9.435928"><ele>332.0</ele><time>2026-04-02T12:52:40.516Z</time></trkpt><trkpt lat="45.7173194" lon="9.4357993"><ele>332.0</ele><time>2026-04-02T12:52:42.517Z</time></trkpt><trkpt lat="45.7173244" lon="9.4356345"><ele>332.0</ele><time>2026-04-02T12:52:44.517Z</time></trkpt><trkpt lat="45.7173221" lon="9.4355422"><ele>332.0</ele><time>2026-04-02T12:52:45.517Z</time></trkpt><trkpt lat="45.7173548" lon="9.4353886"><ele>331.8</ele><time>2026-04-02T12:52:47.517Z</time></trkpt><trkpt lat="45.7173843" lon="9.4353005"><ele>331.6</ele><time>2026-04-02T12:52:48.517Z</time></trkpt><trkpt lat="45.7174279" lon="9.4351512"><ele>331.40000000000003</ele><time>2026-04-02T12:52:50.516Z</time></trkpt><trkpt lat="45.7174466" lon="9.4349891"><ele>331.20000000000005</ele><time>2026-04-02T12:52:52.517Z</time></trkpt><trkpt lat="45.7174142" lon="9.4348614"><ele>331.0</ele><time>2026-04-02T12:52:54.516Z</time></trkpt><trkpt lat="45.7173666" lon="9.4347866"><ele>331.0</ele><time>2026-04-02T12:52:57.516Z</time></trkpt><trkpt lat="45.7173076" lon="9.4347407"><ele>331.0</ele><time>2026-04-02T12:53:03.517Z</time></trkpt><trkpt lat="45.7172599" lon="9.4348006"><ele>331.0</ele><time>2026-04-02T12:53:12.516Z</time></trkpt><trkpt lat="45.7172011" lon="9.4348625"><ele>331.0</ele><time>2026-04-02T12:53:16.516Z</time></trkpt><trkpt lat="45.7171515" lon="9.4349382"><ele>331.0</ele><time>2026-04-02T12:53:19.516Z</time></trkpt><trkpt lat="45.7171279" lon="9.4350218"><ele>331.0</ele><time>2026-04-02T12:53:22.517Z</time></trkpt><trkpt lat="45.7170777" lon="9.4351201"><ele>331.0</ele><time>2026-04-02T12:53:26.517Z</time></trkpt><trkpt lat="45.7170266" lon="9.4352036"><ele>331.0</ele><time>2026-04-02T12:53:29.516Z</time></trkpt><trkpt lat="45.7169914" lon="9.435291"><ele>331.0</ele><time>2026-04-02T12:53:32.517Z</time></trkpt><trkpt lat="45.7169751" lon="9.4353985"><ele>331.0</ele><time>2026-04-02T12:53:35.516Z</time></trkpt><trkpt lat="45.716956" lon="9.4354965"><ele>331.0</ele><time>2026-04-02T12:53:38.516Z</time></trkpt><trkpt lat="45.7169388" lon="9.4355848"><ele>331.0</ele><time>2026-04-02T12:53:41.517Z</time></trkpt><trkpt lat="45.7169181" lon="9.4356761"><ele>331.0</ele><time>2026-04-02T12:53:44.517Z</time></trkpt><trkpt lat="45.7168928" lon="9.4357725"><ele>331.0</ele><time>2026-04-02T12:53:47.517Z</time></trkpt><trkpt lat="45.7168716" lon="9.4358867"><ele>333.8333333333333</ele><time>2026-04-02T12:53:49.516Z</time></trkpt><trkpt lat="45.7168805" lon="9.4359905"><ele>336.66666666666663</ele><time>2026-04-02T12:54:00.516Z</time></trkpt><trkpt lat="45.7168727" lon="9.4361055"><ele>339.5</ele><time>2026-04-02T12:54:03.516Z</time></trkpt><trkpt lat="45.7168727" lon="9.4361998"><ele>342.3333333333333</ele><time>2026-04-02T12:54:06.517Z</time></trkpt><trkpt lat="45.7168512" lon="9.4363125"><ele>345.1666666666667</ele><time>2026-04-02T12:54:09.517Z</time></trkpt><trkpt lat="45.7168275" lon="9.4364291"><ele>348.0</ele><time>2026-04-02T12:54:12.516Z</time></trkpt><trkpt lat="45.7168164" lon="9.4365347"><ele>348.5</ele><time>2026-04-02T12:54:15.517Z</time></trkpt><trkpt lat="45.7168128" lon="9.4366283"><ele>349.0</ele><time>2026-04-02T12:54:18.516Z</time></trkpt><trkpt lat="45.71681" lon="9.4367186"><ele>349.5</ele><time>2026-04-02T12:54:21.516Z</time></trkpt><trkpt lat="45.7167949" lon="9.4368242"><ele>350.0</ele><time>2026-04-02T12:54:24.516Z</time></trkpt><trkpt lat="45.7167743" lon="9.4369467"><ele>350.5</ele><time>2026-04-02T12:54:27.517Z</time></trkpt><trkpt lat="45.7167516" lon="9.4370615"><ele>351.0</ele><time>2026-04-02T12:54:30.516Z</time></trkpt><trkpt lat="45.7167322" lon="9.4371819"><ele>351.5</ele><time>2026-04-02T12:54:33.516Z</time></trkpt><trkpt lat="45.7167143" lon="9.4373092"><ele>352.0</ele><time>2026-04-02T12:54:36.516Z</time></trkpt><trkpt lat="45.7167109" lon="9.4374049"><ele>352.5</ele><time>2026-04-02T12:54:38.517Z</time></trkpt><trkpt lat="45.7167119" lon="9.4375143"><ele>353.0</ele><time>2026-04-02T12:54:42.516Z</time></trkpt><trkpt lat="45.716716" lon="9.437615"><ele>353.5</ele><time>2026-04-02T12:54:45.517Z</time></trkpt><trkpt lat="45.7167423" lon="9.437721"><ele>354.0</ele><time>2026-04-02T12:54:49.516Z</time></trkpt><trkpt lat="45.7167875" lon="9.4378165"><ele>354.0</ele><time>2026-04-02T12:54:53.516Z</time></trkpt><trkpt lat="45.7168336" lon="9.4379163"><ele>354.0</ele><time>2026-04-02T12:54:57.517Z</time></trkpt><trkpt lat="45.7168828" lon="9.4379968"><ele>354.0</ele><time>2026-04-02T12:55:00.517Z</time></trkpt><trkpt lat="45.7168866" lon="9.4381285"><ele>354.0</ele><time>2026-04-02T12:55:03.517Z</time></trkpt><trkpt lat="45.7168841" lon="9.4382289"><ele>354.0</ele><time>2026-04-02T12:55:05.517Z</time></trkpt><trkpt lat="45.7168653" lon="9.4383182"><ele>354.0</ele><time>2026-04-02T12:55:08.517Z</time></trkpt><trkpt lat="45.716839" lon="9.43843"><ele>354.5</ele><time>2026-04-02T12:55:11.517Z</time></trkpt><trkpt lat="45.7168049" lon="9.4385071"><ele>355.0</ele><time>2026-04-02T12:55:13.517Z</time></trkpt><trkpt lat="45.7167514" lon="9.4385825"><ele>355.5</ele><time>2026-04-02T12:55:15.517Z</time></trkpt><trkpt lat="45.7166941" lon="9.4386733"><ele>356.0</ele><time>2026-04-02T12:55:17.516Z</time></trkpt><trkpt lat="45.716608" lon="9.4387479"><ele>356.5</ele><time>2026-04-02T12:55:19.517Z</time></trkpt><trkpt lat="45.71654" lon="9.4387947"><ele>357.0</ele><time>2026-04-02T12:55:21.516Z</time></trkpt><trkpt lat="45.7164462" lon="9.4388553"><ele>356.40000000000003</ele><time>2026-04-02T12:55:23.517Z</time></trkpt><trkpt lat="45.7163512" lon="9.4389379"><ele>355.8</ele><time>2026-04-02T12:55:25.516Z</time></trkpt><trkpt lat="45.7162946" lon="9.4389849"><ele>355.2</ele><time>2026-04-02T12:55:26.517Z</time></trkpt><trkpt lat="45.7161888" lon="9.4390779"><ele>354.6</ele><time>2026-04-02T12:55:28.517Z</time></trkpt><trkpt lat="45.7160875" lon="9.4391565"><ele>354.0</ele><time>2026-04-02T12:55:30.517Z</time></trkpt><trkpt lat="45.7159726" lon="9.4392648"><ele>354.0</ele><time>2026-04-02T12:55:32.517Z</time></trkpt><trkpt lat="45.7159127" lon="9.439348"><ele>354.0</ele><time>2026-04-02T12:55:33.516Z</time></trkpt><trkpt lat="45.7158664" lon="9.4394225"><ele>354.0</ele><time>2026-04-02T12:55:34.517Z</time></trkpt><trkpt lat="45.7158082" lon="9.4395131"><ele>354.0</ele><time>2026-04-02T12:55:35.516Z</time></trkpt><trkpt lat="45.7157519" lon="9.4395979"><ele>354.0</ele><time>2026-04-02T12:55:36.516Z</time></trkpt><trkpt lat="45.7155453" lon="9.4397874"><ele>353.4</ele><time>2026-04-02T12:55:37.517Z</time></trkpt><trkpt lat="45.715473" lon="9.439873"><ele>352.79999999999995</ele><time>2026-04-02T12:55:39.516Z</time></trkpt><trkpt lat="45.7154029" lon="9.439925"><ele>352.20000000000005</ele><time>2026-04-02T12:55:40.516Z</time></trkpt><trkpt lat="45.7152904" lon="9.4399721"><ele>351.6</ele><time>2026-04-02T12:55:41.516Z</time></trkpt><trkpt lat="45.715181" lon="9.4400866"><ele>351.0</ele><time>2026-04-02T12:55:43.516Z</time></trkpt><trkpt lat="45.7151306" lon="9.4401553"><ele>351.0</ele><time>2026-04-02T12:55:44.516Z</time></trkpt><trkpt lat="45.71507" lon="9.4402218"><ele>351.0</ele><time>2026-04-02T12:55:45.516Z</time></trkpt><trkpt lat="45.715007" lon="9.4402999"><ele>351.0</ele><time>2026-04-02T12:55:46.517Z</time></trkpt><trkpt lat="45.7149565" lon="9.4403586"><ele>351.0</ele><time>2026-04-02T12:55:47.516Z</time></trkpt><trkpt lat="45.7148949" lon="9.440439"><ele>351.0</ele><time>2026-04-02T12:55:49.516Z</time></trkpt><trkpt lat="45.7148428" lon="9.4404946"><ele>351.0</ele><time>2026-04-02T12:55:51.516Z</time></trkpt><trkpt lat="45.7147726" lon="9.4405562"><ele>350.8333333333333</ele><time>2026-04-02T12:55:53.516Z</time></trkpt><trkpt lat="45.7147018" lon="9.4406259"><ele>350.6666666666667</ele><time>2026-04-02T12:55:55.517Z</time></trkpt><trkpt lat="45.7146411" lon="9.4406758"><ele>350.5</ele><time>2026-04-02T12:55:57.517Z</time></trkpt><trkpt lat="45.7145585" lon="9.440742"><ele>350.33333333333337</ele><time>2026-04-02T12:55:59.517Z</time></trkpt><trkpt lat="45.714486" lon="9.4408017"><ele>350.1666666666667</ele><time>2026-04-02T12:56:01.517Z</time></trkpt><trkpt lat="45.7144106" lon="9.4408694"><ele>350.0</ele><time>2026-04-02T12:56:03.517Z</time></trkpt><trkpt lat="45.7143255" lon="9.4409542"><ele>350.0</ele><time>2026-04-02T12:56:05.516Z</time></trkpt><trkpt lat="45.7142439" lon="9.4410076"><ele>350.0</ele><time>2026-04-02T12:56:07.517Z</time></trkpt><trkpt lat="45.7141721" lon="9.441036"><ele>350.0</ele><time>2026-04-02T12:56:09.517Z</time></trkpt><trkpt lat="45.7139946" lon="9.4410473"><ele>350.0</ele><time>2026-04-02T12:56:11.517Z</time></trkpt><trkpt lat="45.7139205" lon="9.4410465"><ele>350.0</ele><time>2026-04-02T12:56:12.517Z</time></trkpt><trkpt lat="45.713827" lon="9.4410539"><ele>350.0</ele><time>2026-04-02T12:56:13.517Z</time></trkpt><trkpt lat="45.7137582" lon="9.4410481"><ele>350.0</ele><time>2026-04-02T12:56:14.517Z</time></trkpt><trkpt lat="45.7136891" lon="9.4410609"><ele>350.0</ele><time>2026-04-02T12:56:15.517Z</time></trkpt><trkpt lat="45.7135433" lon="9.4410557"><ele>350.0</ele><time>2026-04-02T12:56:17.516Z</time></trkpt><trkpt lat="45.7134673" lon="9.4410568"><ele>350.0</ele><time>2026-04-02T12:56:18.517Z</time></trkpt><trkpt lat="45.7133785" lon="9.4410474"><ele>350.0</ele><time>2026-04-02T12:56:19.517Z</time></trkpt><trkpt lat="45.7133025" lon="9.4410397"><ele>348.6</ele><time>2026-04-02T12:56:20.517Z</time></trkpt><trkpt lat="45.7131981" lon="9.441005"><ele>347.2</ele><time>2026-04-02T12:56:21.517Z</time></trkpt><trkpt lat="45.7131034" lon="9.4409841"><ele>345.79999999999995</ele><time>2026-04-02T12:56:22.517Z</time></trkpt><trkpt lat="45.7129964" lon="9.4409558"><ele>344.4</ele><time>2026-04-02T12:56:23.516Z</time></trkpt><trkpt lat="45.7129098" lon="9.4409139"><ele>343.0</ele><time>2026-04-02T12:56:24.516Z</time></trkpt><trkpt lat="45.7128356" lon="9.4408622"><ele>343.0</ele><time>2026-04-02T12:56:25.517Z</time></trkpt><trkpt lat="45.7127626" lon="9.4408273"><ele>343.0</ele><time>2026-04-02T12:56:26.516Z</time></trkpt><trkpt lat="45.7126573" lon="9.4407837"><ele>343.0</ele><time>2026-04-02T12:56:28.516Z</time></trkpt><trkpt lat="45.7125792" lon="9.4407303"><ele>343.0</ele><time>2026-04-02T12:56:30.517Z</time></trkpt><trkpt lat="45.7125018" lon="9.4407508"><ele>343.0</ele><time>2026-04-02T12:56:34.516Z</time></trkpt><trkpt lat="45.7124674" lon="9.4408523"><ele>343.0</ele><time>2026-04-02T12:56:36.517Z</time></trkpt><trkpt lat="45.7124268" lon="9.4409645"><ele>342.42857142857144</ele><time>2026-04-02T12:56:38.516Z</time></trkpt><trkpt lat="45.7123867" lon="9.4410374"><ele>341.8571428571429</ele><time>2026-04-02T12:56:39.516Z</time></trkpt><trkpt lat="45.7123279" lon="9.4411083"><ele>341.2857142857143</ele><time>2026-04-02T12:56:40.517Z</time></trkpt><trkpt lat="45.7122828" lon="9.4411798"><ele>340.7142857142857</ele><time>2026-04-02T12:56:41.516Z</time></trkpt><trkpt lat="45.7122301" lon="9.441268"><ele>340.14285714285717</ele><time>2026-04-02T12:56:42.516Z</time></trkpt><trkpt lat="45.7121811" lon="9.4413437"><ele>339.57142857142856</ele><time>2026-04-02T12:56:43.517Z</time></trkpt><trkpt lat="45.7121267" lon="9.441426"><ele>339.0</ele><time>2026-04-02T12:56:44.517Z</time></trkpt><trkpt lat="45.7120758" lon="9.4415167"><ele>339.0</ele><time>2026-04-02T12:56:45.516Z</time></trkpt><trkpt lat="45.7120349" lon="9.4415918"><ele>339.0</ele><time>2026-04-02T12:56:46.517Z</time></trkpt><trkpt lat="45.7120066" lon="9.441688"><ele>339.0</ele><time>2026-04-02T12:56:47.517Z</time></trkpt><trkpt lat="45.7119555" lon="9.4417753"><ele>339.0</ele><time>2026-04-02T12:56:49.517Z</time></trkpt><trkpt lat="45.7118821" lon="9.4417795"><ele>339.0</ele><time>2026-04-02T12:56:52.516Z</time></trkpt><trkpt lat="45.7118843" lon="9.4416778"><ele>339.0</ele><time>2026-04-02T12:56:54.517Z</time></trkpt><trkpt lat="45.7119347" lon="9.441567"><ele>339.0</ele><time>2026-04-02T12:56:56.516Z</time></trkpt><trkpt lat="45.7119943" lon="9.4414196"><ele>339.0</ele><time>2026-04-02T12:56:58.516Z</time></trkpt><trkpt lat="45.7120133" lon="9.4413297"><ele>339.0</ele><time>2026-04-02T12:56:59.517Z</time></trkpt><trkpt lat="45.7120319" lon="9.4412345"><ele>339.0</ele><time>2026-04-02T12:57:00.516Z</time></trkpt><trkpt lat="45.7120545" lon="9.4411156"><ele>339.0</ele><time>2026-04-02T12:57:01.516Z</time></trkpt><trkpt lat="45.7120321" lon="9.4409717"><ele>339.0</ele><time>2026-04-02T12:57:03.516Z</time></trkpt><trkpt lat="45.7119752" lon="9.4408974"><ele>336.6</ele><time>2026-04-02T12:57:04.517Z</time></trkpt><trkpt lat="45.7119062" lon="9.4407875"><ele>334.2</ele><time>2026-04-02T12:57:06.516Z</time></trkpt><trkpt lat="45.7118719" lon="9.4407096"><ele>331.8</ele><time>2026-04-02T12:57:07.516Z</time></trkpt><trkpt lat="45.7117984" lon="9.4406287"><ele>329.40000000000003</ele><time>2026-04-02T12:57:09.517Z</time></trkpt><trkpt lat="45.7117446" lon="9.4405088"><ele>327.0</ele><time>2026-04-02T12:57:11.517Z</time></trkpt><trkpt lat="45.711676" lon="9.4404179"><ele>327.0</ele><time>2026-04-02T12:57:13.516Z</time></trkpt><trkpt lat="45.7115977" lon="9.4403479"><ele>327.0</ele><time>2026-04-02T12:57:15.516Z</time></trkpt><trkpt lat="45.7115361" lon="9.440271"><ele>327.0</ele><time>2026-04-02T12:57:17.517Z</time></trkpt><trkpt lat="45.7114753" lon="9.4402029"><ele>327.0</ele><time>2026-04-02T12:57:19.517Z</time></trkpt><trkpt lat="45.711416" lon="9.4401439"><ele>327.0</ele><time>2026-04-02T12:57:21.517Z</time></trkpt><trkpt lat="45.7113489" lon="9.4400847"><ele>327.0</ele><time>2026-04-02T12:57:23.516Z</time></trkpt><trkpt lat="45.7112906" lon="9.4400164"><ele>327.0</ele><time>2026-04-02T12:57:25.516Z</time></trkpt><trkpt lat="45.7112336" lon="9.4399211"><ele>327.0</ele><time>2026-04-02T12:57:27.517Z</time></trkpt><trkpt lat="45.7111682" lon="9.4398175"><ele>327.0</ele><time>2026-04-02T12:57:29.517Z</time></trkpt><trkpt lat="45.7111063" lon="9.439722"><ele>327.0</ele><time>2026-04-02T12:57:31.517Z</time></trkpt><trkpt lat="45.7110287" lon="9.4396195"><ele>327.0</ele><time>2026-04-02T12:57:33.517Z</time></trkpt><trkpt lat="45.7109521" lon="9.4395282"><ele>326.40000000000003</ele><time>2026-04-02T12:57:35.517Z</time></trkpt><trkpt lat="45.7108709" lon="9.4394374"><ele>325.8</ele><time>2026-04-02T12:57:37.516Z</time></trkpt><trkpt lat="45.7107879" lon="9.4393653"><ele>325.2</ele><time>2026-04-02T12:57:39.516Z</time></trkpt><trkpt lat="45.7107008" lon="9.4393253"><ele>324.6</ele><time>2026-04-02T12:57:41.516Z</time></trkpt><trkpt lat="45.7106011" lon="9.4393063"><ele>324.0</ele><time>2026-04-02T12:57:43.516Z</time></trkpt><trkpt lat="45.7105206" lon="9.4392208"><ele>324.0</ele><time>2026-04-02T12:57:45.516Z</time></trkpt><trkpt lat="45.7104675" lon="9.4390723"><ele>324.0</ele><time>2026-04-02T12:57:47.517Z</time></trkpt><trkpt lat="45.7104137" lon="9.4389048"><ele>324.0</ele><time>2026-04-02T12:57:49.517Z</time></trkpt><trkpt lat="45.7103882" lon="9.4388115"><ele>324.0</ele><time>2026-04-02T12:57:50.517Z</time></trkpt><trkpt lat="45.7103393" lon="9.4386103"><ele>323.0</ele><time>2026-04-02T12:57:52.517Z</time></trkpt><trkpt lat="45.7103243" lon="9.4385148"><ele>322.0</ele><time>2026-04-02T12:57:53.516Z</time></trkpt><trkpt lat="45.7103062" lon="9.4383345"><ele>321.0</ele><time>2026-04-02T12:57:55.517Z</time></trkpt><trkpt lat="45.7102918" lon="9.4381675"><ele>320.0</ele><time>2026-04-02T12:57:57.516Z</time></trkpt><trkpt lat="45.710289" lon="9.438056"><ele>319.0</ele><time>2026-04-02T12:57:58.516Z</time></trkpt><trkpt lat="45.7102899" lon="9.4379609"><ele>318.66666666666663</ele><time>2026-04-02T12:57:59.516Z</time></trkpt><trkpt lat="45.7102859" lon="9.4378642"><ele>318.3333333333333</ele><time>2026-04-02T12:58:00.517Z</time></trkpt><trkpt lat="45.7102952" lon="9.4376847"><ele>318.0</ele><time>2026-04-02T12:58:02.517Z</time></trkpt><trkpt lat="45.710303" lon="9.4375888"><ele>317.6666666666667</ele><time>2026-04-02T12:58:03.517Z</time></trkpt><trkpt lat="45.7103194" lon="9.4375017"><ele>317.33333333333337</ele><time>2026-04-02T12:58:04.516Z</time></trkpt><trkpt lat="45.710336" lon="9.4374114"><ele>317.0</ele><time>2026-04-02T12:58:05.516Z</time></trkpt><trkpt lat="45.7103454" lon="9.4373213"><ele>317.0</ele><time>2026-04-02T12:58:06.517Z</time></trkpt><trkpt lat="45.7103596" lon="9.4372311"><ele>317.0</ele><time>2026-04-02T12:58:07.517Z</time></trkpt><trkpt lat="45.710379" lon="9.4371386"><ele>317.0</ele><time>2026-04-02T12:58:08.517Z</time></trkpt><trkpt lat="45.7103968" lon="9.4370516"><ele>317.0</ele><time>2026-04-02T12:58:09.517Z</time></trkpt><trkpt lat="45.7104173" lon="9.4369616"><ele>317.0</ele><time>2026-04-02T12:58:10.517Z</time></trkpt><trkpt lat="45.7104364" lon="9.4368721"><ele>317.0</ele><time>2026-04-02T12:58:11.517Z</time></trkpt><trkpt lat="45.7104664" lon="9.4367766"><ele>317.0</ele><time>2026-04-02T12:58:12.516Z</time></trkpt><trkpt lat="45.7104836" lon="9.4366825"><ele>317.1666666666667</ele><time>2026-04-02T12:58:13.516Z</time></trkpt><trkpt lat="45.710507" lon="9.4365928"><ele>317.33333333333337</ele><time>2026-04-02T12:58:14.517Z</time></trkpt><trkpt lat="45.7105159" lon="9.4364853"><ele>317.5</ele><time>2026-04-02T12:58:15.516Z</time></trkpt><trkpt lat="45.7105167" lon="9.436382"><ele>317.6666666666667</ele><time>2026-04-02T12:58:16.516Z</time></trkpt><trkpt lat="45.7105044" lon="9.4362666"><ele>317.8333333333333</ele><time>2026-04-02T12:58:17.517Z</time></trkpt><trkpt lat="45.7104877" lon="9.4361559"><ele>318.0</ele><time>2026-04-02T12:58:18.517Z</time></trkpt><trkpt lat="45.7104538" lon="9.4360531"><ele>318.1428571428571</ele><time>2026-04-02T12:58:19.517Z</time></trkpt><trkpt lat="45.7104176" lon="9.4359555"><ele>318.28571428571433</ele><time>2026-04-02T12:58:20.516Z</time></trkpt><trkpt lat="45.7103792" lon="9.4358586"><ele>318.42857142857144</ele><time>2026-04-02T12:58:21.516Z</time></trkpt><trkpt lat="45.7103385" lon="9.4357631"><ele>318.57142857142856</ele><time>2026-04-02T12:58:22.516Z</time></trkpt><trkpt lat="45.710305" lon="9.4356611"><ele>318.71428571428567</ele><time>2026-04-02T12:58:23.516Z</time></trkpt><trkpt lat="45.7102698" lon="9.4355787"><ele>318.8571428571429</ele><time>2026-04-02T12:58:24.517Z</time></trkpt><trkpt lat="45.710231" lon="9.4355014"><ele>319.0</ele><time>2026-04-02T12:58:25.516Z</time></trkpt><trkpt lat="45.7101888" lon="9.435429"><ele>319.0</ele><time>2026-04-02T12:58:26.516Z</time></trkpt><trkpt lat="45.7101516" lon="9.4353521"><ele>319.0</ele><time>2026-04-02T12:58:27.517Z</time></trkpt><trkpt lat="45.7101157" lon="9.4352673"><ele>319.0</ele><time>2026-04-02T12:58:28.516Z</time></trkpt><trkpt lat="45.7100693" lon="9.4352006"><ele>319.0</ele><time>2026-04-02T12:58:29.516Z</time></trkpt><trkpt lat="45.7100228" lon="9.4351367"><ele>319.0</ele><time>2026-04-02T12:58:30.516Z</time></trkpt><trkpt lat="45.7099366" lon="9.4350019"><ele>319.0</ele><time>2026-04-02T12:58:32.517Z</time></trkpt><trkpt lat="45.7098897" lon="9.4349271"><ele>319.0</ele><time>2026-04-02T12:58:33.517Z</time></trkpt><trkpt lat="45.709844" lon="9.4348553"><ele>319.0</ele><time>2026-04-02T12:58:34.517Z</time></trkpt><trkpt lat="45.7097995" lon="9.434781"><ele>319.0</ele><time>2026-04-02T12:58:35.516Z</time></trkpt><trkpt lat="45.7097532" lon="9.4347127"><ele>319.0</ele><time>2026-04-02T12:58:36.517Z</time></trkpt><trkpt lat="45.7097016" lon="9.43464"><ele>319.0</ele><time>2026-04-02T12:58:37.516Z</time></trkpt><trkpt lat="45.7096515" lon="9.4345621"><ele>319.0</ele><time>2026-04-02T12:58:38.517Z</time></trkpt><trkpt lat="45.7096071" lon="9.4344847"><ele>319.0</ele><time>2026-04-02T12:58:39.517Z</time></trkpt><trkpt lat="45.7095508" lon="9.4344084"><ele>319.2</ele><time>2026-04-02T12:58:40.517Z</time></trkpt><trkpt lat="45.7095044" lon="9.4343384"><ele>319.4</ele><time>2026-04-02T12:58:41.516Z</time></trkpt><trkpt lat="45.7094181" lon="9.4341879"><ele>319.6</ele><time>2026-04-02T12:58:43.516Z</time></trkpt><trkpt lat="45.7093719" lon="9.4340831"><ele>319.8</ele><time>2026-04-02T12:58:44.517Z</time></trkpt><trkpt lat="45.70932" lon="9.4339943"><ele>320.0</ele><time>2026-04-02T12:58:45.516Z</time></trkpt><trkpt lat="45.7092689" lon="9.4338888"><ele>318.4</ele><time>2026-04-02T12:58:46.517Z</time></trkpt><trkpt lat="45.7092385" lon="9.4337701"><ele>316.8</ele><time>2026-04-02T12:58:47.516Z</time></trkpt><trkpt lat="45.7092051" lon="9.4336482"><ele>315.2</ele><time>2026-04-02T12:58:48.517Z</time></trkpt><trkpt lat="45.7091727" lon="9.4335249"><ele>313.6</ele><time>2026-04-02T12:58:49.517Z</time></trkpt><trkpt lat="45.7091568" lon="9.433406"><ele>312.0</ele><time>2026-04-02T12:58:50.517Z</time></trkpt><trkpt lat="45.7091185" lon="9.4332703"><ele>312.0</ele><time>2026-04-02T12:58:51.516Z</time></trkpt><trkpt lat="45.7090908" lon="9.4331517"><ele>312.0</ele><time>2026-04-02T12:58:52.517Z</time></trkpt><trkpt lat="45.7090638" lon="9.4330285"><ele>312.0</ele><time>2026-04-02T12:58:53.516Z</time></trkpt><trkpt lat="45.7090413" lon="9.4328995"><ele>312.0</ele><time>2026-04-02T12:58:54.516Z</time></trkpt><trkpt lat="45.7090086" lon="9.4327809"><ele>312.0</ele><time>2026-04-02T12:58:55.517Z</time></trkpt><trkpt lat="45.7089655" lon="9.4326578"><ele>311.6666666666667</ele><time>2026-04-02T12:58:56.516Z</time></trkpt><trkpt lat="45.7089395" lon="9.4325437"><ele>311.3333333333333</ele><time>2026-04-02T12:58:57.517Z</time></trkpt><trkpt lat="45.7089074" lon="9.4324541"><ele>311.0</ele><time>2026-04-02T12:58:58.517Z</time></trkpt><trkpt lat="45.7088822" lon="9.4323479"><ele>310.66666666666663</ele><time>2026-04-02T12:58:59.516Z</time></trkpt><trkpt lat="45.7088552" lon="9.4322307"><ele>310.3333333333333</ele><time>2026-04-02T12:59:00.516Z</time></trkpt><trkpt lat="45.7088348" lon="9.4321178"><ele>310.0</ele><time>2026-04-02T12:59:01.517Z</time></trkpt><trkpt lat="45.7088071" lon="9.432023"><ele>310.8</ele><time>2026-04-02T12:59:02.516Z</time></trkpt><trkpt lat="45.7087864" lon="9.4319257"><ele>311.6</ele><time>2026-04-02T12:59:03.516Z</time></trkpt><trkpt lat="45.708719" lon="9.4317622"><ele>312.4</ele><time>2026-04-02T12:59:05.516Z</time></trkpt><trkpt lat="45.7086485" lon="9.4316543"><ele>313.2</ele><time>2026-04-02T12:59:07.517Z</time></trkpt><trkpt lat="45.7085733" lon="9.431545"><ele>314.0</ele><time>2026-04-02T12:59:09.516Z</time></trkpt><trkpt lat="45.7085103" lon="9.4314619"><ele>314.5</ele><time>2026-04-02T12:59:11.516Z</time></trkpt><trkpt lat="45.7084627" lon="9.4313531"><ele>315.0</ele><time>2026-04-02T12:59:13.516Z</time></trkpt><trkpt lat="45.7084017" lon="9.4312718"><ele>315.5</ele><time>2026-04-02T12:59:15.516Z</time></trkpt><trkpt lat="45.7083599" lon="9.4311866"><ele>316.0</ele><time>2026-04-02T12:59:17.516Z</time></trkpt><trkpt lat="45.7083192" lon="9.4310993"><ele>316.5</ele><time>2026-04-02T12:59:19.517Z</time></trkpt><trkpt lat="45.7082774" lon="9.4310226"><ele>317.0</ele><time>2026-04-02T12:59:21.517Z</time></trkpt><trkpt lat="45.7082312" lon="9.4309386"><ele>317.6</ele><time>2026-04-02T12:59:23.517Z</time></trkpt><trkpt lat="45.7081993" lon="9.4308244"><ele>318.2</ele><time>2026-04-02T12:59:25.517Z</time></trkpt><trkpt lat="45.7081737" lon="9.4307094"><ele>318.8</ele><time>2026-04-02T12:59:27.517Z</time></trkpt><trkpt lat="45.7081455" lon="9.4305769"><ele>319.4</ele><time>2026-04-02T12:59:29.516Z</time></trkpt><trkpt lat="45.7081225" lon="9.4304229"><ele>320.0</ele><time>2026-04-02T12:59:31.516Z</time></trkpt><trkpt lat="45.7080806" lon="9.4302611"><ele>320.0</ele><time>2026-04-02T12:59:33.516Z</time></trkpt><trkpt lat="45.7080357" lon="9.4301258"><ele>320.0</ele><time>2026-04-02T12:59:35.516Z</time></trkpt><trkpt lat="45.7079682" lon="9.4299825"><ele>320.0</ele><time>2026-04-02T12:59:37.516Z</time></trkpt><trkpt lat="45.7078857" lon="9.4298445"><ele>320.0</ele><time>2026-04-02T12:59:39.517Z</time></trkpt><trkpt lat="45.7078016" lon="9.4297187"><ele>320.0</ele><time>2026-04-02T12:59:41.517Z</time></trkpt><trkpt lat="45.7077289" lon="9.4296056"><ele>320.0</ele><time>2026-04-02T12:59:43.517Z</time></trkpt><trkpt lat="45.7076363" lon="9.42955"><ele>320.0</ele><time>2026-04-02T12:59:45.517Z</time></trkpt><trkpt lat="45.7075464" lon="9.4295755"><ele>320.0</ele><time>2026-04-02T12:59:47.517Z</time></trkpt><trkpt lat="45.7074824" lon="9.4296264"><ele>320.0</ele><time>2026-04-02T12:59:49.516Z</time></trkpt><trkpt lat="45.7074098" lon="9.4296636"><ele>320.0</ele><time>2026-04-02T12:59:51.517Z</time></trkpt><trkpt lat="45.7073349" lon="9.4297043"><ele>320.0</ele><time>2026-04-02T12:59:53.517Z</time></trkpt><trkpt lat="45.707252" lon="9.4297453"><ele>320.0</ele><time>2026-04-02T12:59:55.517Z</time></trkpt><trkpt lat="45.7071694" lon="9.429807"><ele>320.0</ele><time>2026-04-02T12:59:57.516Z</time></trkpt><trkpt lat="45.7070932" lon="9.4298737"><ele>320.0</ele><time>2026-04-02T12:59:59.516Z</time></trkpt><trkpt lat="45.7070182" lon="9.4299384"><ele>320.0</ele><time>2026-04-02T13:00:01.516Z</time></trkpt><trkpt lat="45.7069437" lon="9.4300001"><ele>321.33333333333337</ele><time>2026-04-02T13:00:03.516Z</time></trkpt><trkpt lat="45.7068694" lon="9.4300569"><ele>322.6666666666667</ele><time>2026-04-02T13:00:05.516Z</time></trkpt><trkpt lat="45.706799" lon="9.4300991"><ele>324.0</ele><time>2026-04-02T13:00:07.517Z</time></trkpt><trkpt lat="45.7066955" lon="9.4301242"><ele>325.3333333333333</ele><time>2026-04-02T13:00:09.516Z</time></trkpt><trkpt lat="45.7066079" lon="9.4301316"><ele>326.66666666666663</ele><time>2026-04-02T13:00:11.516Z</time></trkpt><trkpt lat="45.7065368" lon="9.4301558"><ele>328.0</ele><time>2026-04-02T13:00:13.517Z</time></trkpt><trkpt lat="45.7064579" lon="9.4301742"><ele>328.0</ele><time>2026-04-02T13:00:16.516Z</time></trkpt><trkpt lat="45.7063703" lon="9.4301928"><ele>328.0</ele><time>2026-04-02T13:00:19.517Z</time></trkpt><trkpt lat="45.7062785" lon="9.430215"><ele>328.0</ele><time>2026-04-02T13:00:22.516Z</time></trkpt><trkpt lat="45.7061955" lon="9.43025"><ele>328.0</ele><time>2026-04-02T13:00:25.516Z</time></trkpt><trkpt lat="45.7061084" lon="9.4302853"><ele>328.0</ele><time>2026-04-02T13:00:28.517Z</time></trkpt><trkpt lat="45.7060528" lon="9.4303476"><ele>328.0</ele><time>2026-04-02T13:00:34.516Z</time></trkpt><trkpt lat="45.7062555" lon="9.4304228"><ele>328.0</ele><time>2026-04-02T13:00:37.516Z</time></trkpt><trkpt lat="45.7061832" lon="9.4304719"><ele>328.0</ele><time>2026-04-02T13:00:39.517Z</time></trkpt><trkpt lat="45.7061157" lon="9.4306073"><ele>328.0</ele><time>2026-04-02T13:00:41.517Z</time></trkpt><trkpt lat="45.7060622" lon="9.4306606"><ele>328.0</ele><time>2026-04-02T13:00:42.516Z</time></trkpt><trkpt lat="45.7059532" lon="9.4307667"><ele>328.0</ele><time>2026-04-02T13:00:44.516Z</time></trkpt><trkpt lat="45.7058805" lon="9.4308503"><ele>327.3333333333333</ele><time>2026-04-02T13:00:45.517Z</time></trkpt><trkpt lat="45.7058246" lon="9.4309661"><ele>326.66666666666663</ele><time>2026-04-02T13:00:46.516Z</time></trkpt><trkpt lat="45.705756" lon="9.4310277"><ele>326.0</ele><time>2026-04-02T13:00:47.517Z</time></trkpt><trkpt lat="45.7056974" lon="9.4310981"><ele>325.3333333333333</ele><time>2026-04-02T13:00:48.517Z</time></trkpt><trkpt lat="45.7056434" lon="9.4311695"><ele>324.6666666666667</ele><time>2026-04-02T13:00:49.517Z</time></trkpt><trkpt lat="45.7056119" lon="9.4312563"><ele>324.0</ele><time>2026-04-02T13:00:50.516Z</time></trkpt><trkpt lat="45.7055191" lon="9.4313869"><ele>323.6666666666667</ele><time>2026-04-02T13:00:52.516Z</time></trkpt><trkpt lat="45.7054385" lon="9.4315253"><ele>323.3333333333333</ele><time>2026-04-02T13:00:54.516Z</time></trkpt><trkpt lat="45.70539" lon="9.4315905"><ele>323.0</ele><time>2026-04-02T13:00:55.516Z</time></trkpt><trkpt lat="45.7053312" lon="9.4316616"><ele>322.66666666666663</ele><time>2026-04-02T13:00:56.517Z</time></trkpt><trkpt lat="45.705273" lon="9.4317363"><ele>322.3333333333333</ele><time>2026-04-02T13:00:57.516Z</time></trkpt><trkpt lat="45.7052069" lon="9.4318111"><ele>322.0</ele><time>2026-04-02T13:00:58.517Z</time></trkpt><trkpt lat="45.7051386" lon="9.4318994"><ele>322.0</ele><time>2026-04-02T13:00:59.516Z</time></trkpt><trkpt lat="45.7050883" lon="9.4319852"><ele>322.0</ele><time>2026-04-02T13:01:00.516Z</time></trkpt><trkpt lat="45.7050222" lon="9.4320604"><ele>322.0</ele><time>2026-04-02T13:01:01.516Z</time></trkpt><trkpt lat="45.7049708" lon="9.4321367"><ele>322.0</ele><time>2026-04-02T13:01:02.517Z</time></trkpt><trkpt lat="45.7048832" lon="9.4322051"><ele>322.0</ele><time>2026-04-02T13:01:03.516Z</time></trkpt><trkpt lat="45.7048249" lon="9.4322693"><ele>322.0</ele><time>2026-04-02T13:01:04.517Z</time></trkpt><trkpt lat="45.7047546" lon="9.4323252"><ele>320.20000000000005</ele><time>2026-04-02T13:01:05.516Z</time></trkpt><trkpt lat="45.704687" lon="9.4323846"><ele>318.40000000000003</ele><time>2026-04-02T13:01:06.516Z</time></trkpt><trkpt lat="45.704613" lon="9.432435"><ele>316.6</ele><time>2026-04-02T13:01:07.517Z</time></trkpt><trkpt lat="45.7045483" lon="9.4324879"><ele>314.8</ele><time>2026-04-02T13:01:08.517Z</time></trkpt><trkpt lat="45.7044703" lon="9.4325362"><ele>313.0</ele><time>2026-04-02T13:01:09.516Z</time></trkpt><trkpt lat="45.7043537" lon="9.4326395"><ele>312.57142857142856</ele><time>2026-04-02T13:01:11.516Z</time></trkpt><trkpt lat="45.7042881" lon="9.432671"><ele>312.14285714285717</ele><time>2026-04-02T13:01:12.516Z</time></trkpt><trkpt lat="45.7042205" lon="9.4326947"><ele>311.7142857142857</ele><time>2026-04-02T13:01:13.516Z</time></trkpt><trkpt lat="45.7041527" lon="9.4326988"><ele>311.2857142857143</ele><time>2026-04-02T13:01:14.517Z</time></trkpt><trkpt lat="45.7040822" lon="9.4326982"><ele>310.85714285714283</ele><time>2026-04-02T13:01:18.516Z</time></trkpt><trkpt lat="45.7040031" lon="9.432752"><ele>310.42857142857144</ele><time>2026-04-02T13:01:22.516Z</time></trkpt><trkpt lat="45.7039252" lon="9.4327983"><ele>310.0</ele><time>2026-04-02T13:01:24.516Z</time></trkpt><trkpt lat="45.7038341" lon="9.4328679"><ele>310.0</ele><time>2026-04-02T13:01:26.517Z</time></trkpt><trkpt lat="45.7037161" lon="9.4329316"><ele>310.0</ele><time>2026-04-02T13:01:28.517Z</time></trkpt><trkpt lat="45.7036531" lon="9.4329614"><ele>310.0</ele><time>2026-04-02T13:01:29.517Z</time></trkpt><trkpt lat="45.7035403" lon="9.4329961"><ele>310.0</ele><time>2026-04-02T13:01:31.517Z</time></trkpt><trkpt lat="45.7034697" lon="9.4330143"><ele>310.0</ele><time>2026-04-02T13:01:32.517Z</time></trkpt><trkpt lat="45.7034058" lon="9.4330312"><ele>310.0</ele><time>2026-04-02T13:01:33.517Z</time></trkpt><trkpt lat="45.7033494" lon="9.4330736"><ele>309.2</ele><time>2026-04-02T13:01:34.516Z</time></trkpt><trkpt lat="45.7032788" lon="9.4331896"><ele>308.4</ele><time>2026-04-02T13:01:36.516Z</time></trkpt><trkpt lat="45.7032067" lon="9.4333099"><ele>307.6</ele><time>2026-04-02T13:01:38.516Z</time></trkpt><trkpt lat="45.703167" lon="9.4333883"><ele>306.8</ele><time>2026-04-02T13:01:39.516Z</time></trkpt><trkpt lat="45.7031247" lon="9.4334605"><ele>306.0</ele><time>2026-04-02T13:01:40.516Z</time></trkpt><trkpt lat="45.7030502" lon="9.4335857"><ele>306.0</ele><time>2026-04-02T13:01:42.517Z</time></trkpt><trkpt lat="45.7029875" lon="9.4337116"><ele>306.0</ele><time>2026-04-02T13:01:44.516Z</time></trkpt><trkpt lat="45.702906" lon="9.433834"><ele>306.0</ele><time>2026-04-02T13:01:46.517Z</time></trkpt><trkpt lat="45.7028245" lon="9.4339287"><ele>306.0</ele><time>2026-04-02T13:01:48.516Z</time></trkpt><trkpt lat="45.7027561" lon="9.4340579"><ele>306.0</ele><time>2026-04-02T13:01:50.516Z</time></trkpt><trkpt lat="45.7026937" lon="9.4341752"><ele>306.0</ele><time>2026-04-02T13:01:52.517Z</time></trkpt><trkpt lat="45.7026341" lon="9.4342923"><ele>306.0</ele><time>2026-04-02T13:01:54.517Z</time></trkpt><trkpt lat="45.7025603" lon="9.4344074"><ele>306.0</ele><time>2026-04-02T13:01:56.517Z</time></trkpt><trkpt lat="45.7024828" lon="9.4345314"><ele>306.0</ele><time>2026-04-02T13:01:58.516Z</time></trkpt><trkpt lat="45.702423" lon="9.4346597"><ele>306.0</ele><time>2026-04-02T13:02:00.517Z</time></trkpt><trkpt lat="45.702347" lon="9.434796"><ele>306.0</ele><time>2026-04-02T13:02:02.517Z</time></trkpt><trkpt lat="45.7022575" lon="9.4349142"><ele>306.0</ele><time>2026-04-02T13:02:04.516Z</time></trkpt><trkpt lat="45.7022032" lon="9.4350569"><ele>306.0</ele><time>2026-04-02T13:02:06.517Z</time></trkpt><trkpt lat="45.7021429" lon="9.4352033"><ele>306.0</ele><time>2026-04-02T13:02:08.516Z</time></trkpt><trkpt lat="45.7020895" lon="9.4353547"><ele>306.0</ele><time>2026-04-02T13:02:10.516Z</time></trkpt><trkpt lat="45.7020457" lon="9.4355077"><ele>306.0</ele><time>2026-04-02T13:02:12.517Z</time></trkpt><trkpt lat="45.7020062" lon="9.4356647"><ele>306.0</ele><time>2026-04-02T13:02:14.516Z</time></trkpt><trkpt lat="45.7019438" lon="9.4358154"><ele>306.0</ele><time>2026-04-02T13:02:16.516Z</time></trkpt><trkpt lat="45.7018723" lon="9.4359557"><ele>306.2</ele><time>2026-04-02T13:02:18.516Z</time></trkpt><trkpt lat="45.7018077" lon="9.4360908"><ele>306.40000000000003</ele><time>2026-04-02T13:02:20.516Z</time></trkpt><trkpt lat="45.701721" lon="9.4362325"><ele>306.6</ele><time>2026-04-02T13:02:22.517Z</time></trkpt><trkpt lat="45.7016447" lon="9.4363739"><ele>306.8</ele><time>2026-04-02T13:02:24.516Z</time></trkpt><trkpt lat="45.7016058" lon="9.4364503"><ele>307.0</ele><time>2026-04-02T13:02:25.517Z</time></trkpt><trkpt lat="45.7015688" lon="9.4365267"><ele>306.6</ele><time>2026-04-02T13:02:26.516Z</time></trkpt><trkpt lat="45.7015338" lon="9.4366036"><ele>306.2</ele><time>2026-04-02T13:02:27.516Z</time></trkpt><trkpt lat="45.7014548" lon="9.4367496"><ele>305.8</ele><time>2026-04-02T13:02:29.517Z</time></trkpt><trkpt lat="45.7014206" lon="9.4369223"><ele>305.4</ele><time>2026-04-02T13:02:31.516Z</time></trkpt><trkpt lat="45.7013706" lon="9.4370877"><ele>305.0</ele><time>2026-04-02T13:02:33.516Z</time></trkpt><trkpt lat="45.7013381" lon="9.4371748"><ele>305.0</ele><time>2026-04-02T13:02:34.516Z</time></trkpt><trkpt lat="45.7013012" lon="9.4372507"><ele>305.0</ele><time>2026-04-02T13:02:35.517Z</time></trkpt><trkpt lat="45.7012656" lon="9.4373252"><ele>305.0</ele><time>2026-04-02T13:02:36.517Z</time></trkpt><trkpt lat="45.7012293" lon="9.4373992"><ele>305.0</ele><time>2026-04-02T13:02:37.517Z</time></trkpt><trkpt lat="45.7011574" lon="9.4375184"><ele>305.0</ele><time>2026-04-02T13:02:39.517Z</time></trkpt><trkpt lat="45.7010944" lon="9.4376203"><ele>305.0</ele><time>2026-04-02T13:02:41.516Z</time></trkpt><trkpt lat="45.7009986" lon="9.4376974"><ele>304.75</ele><time>2026-04-02T13:02:43.517Z</time></trkpt><trkpt lat="45.700886" lon="9.437723"><ele>304.5</ele><time>2026-04-02T13:02:45.516Z</time></trkpt><trkpt lat="45.700771" lon="9.4377174"><ele>304.25</ele><time>2026-04-02T13:02:47.517Z</time></trkpt><trkpt lat="45.7006541" lon="9.4377186"><ele>304.0</ele><time>2026-04-02T13:02:49.516Z</time></trkpt><trkpt lat="45.7005502" lon="9.4377396"><ele>304.0</ele><time>2026-04-02T13:02:51.516Z</time></trkpt><trkpt lat="45.7004479" lon="9.4377791"><ele>304.0</ele><time>2026-04-02T13:02:53.516Z</time></trkpt><trkpt lat="45.7003591" lon="9.4378545"><ele>304.0</ele><time>2026-04-02T13:02:55.516Z</time></trkpt><trkpt lat="45.7002526" lon="9.4379226"><ele>304.0</ele><time>2026-04-02T13:02:57.517Z</time></trkpt><trkpt lat="45.700197" lon="9.4379666"><ele>304.0</ele><time>2026-04-02T13:02:58.516Z</time></trkpt><trkpt lat="45.7000952" lon="9.4380341"><ele>304.8</ele><time>2026-04-02T13:03:00.516Z</time></trkpt><trkpt lat="45.7000389" lon="9.438077"><ele>305.59999999999997</ele><time>2026-04-02T13:03:01.516Z</time></trkpt><trkpt lat="45.699964" lon="9.4381273"><ele>306.4</ele><time>2026-04-02T13:03:03.517Z</time></trkpt><trkpt lat="45.6998823" lon="9.4381572"><ele>307.2</ele><time>2026-04-02T13:03:05.516Z</time></trkpt><trkpt lat="45.6997637" lon="9.4381753"><ele>308.0</ele><time>2026-04-02T13:03:07.517Z</time></trkpt><trkpt lat="45.6996543" lon="9.438214"><ele>308.0</ele><time>2026-04-02T13:03:09.517Z</time></trkpt><trkpt lat="45.6995518" lon="9.4382802"><ele>308.0</ele><time>2026-04-02T13:03:11.517Z</time></trkpt><trkpt lat="45.6994437" lon="9.4383526"><ele>308.0</ele><time>2026-04-02T13:03:13.517Z</time></trkpt><trkpt lat="45.6993894" lon="9.4384118"><ele>308.0</ele><time>2026-04-02T13:03:14.517Z</time></trkpt><trkpt lat="45.6993329" lon="9.4385185"><ele>308.0</ele><time>2026-04-02T13:03:16.517Z</time></trkpt><trkpt lat="45.6992673" lon="9.4386209"><ele>307.8</ele><time>2026-04-02T13:03:18.517Z</time></trkpt><trkpt lat="45.6992153" lon="9.4387626"><ele>307.6</ele><time>2026-04-02T13:03:20.517Z</time></trkpt><trkpt lat="45.6991527" lon="9.4389011"><ele>307.4</ele><time>2026-04-02T13:03:22.517Z</time></trkpt><trkpt lat="45.6991252" lon="9.4390289"><ele>307.2</ele><time>2026-04-02T13:03:24.516Z</time></trkpt><trkpt lat="45.6990723" lon="9.4390835"><ele>307.0</ele><time>2026-04-02T13:03:25.517Z</time></trkpt><trkpt lat="45.6990094" lon="9.4392197"><ele>307.0</ele><time>2026-04-02T13:03:27.516Z</time></trkpt><trkpt lat="45.6989511" lon="9.4393596"><ele>307.0</ele><time>2026-04-02T13:03:29.517Z</time></trkpt><trkpt lat="45.6988949" lon="9.4395043"><ele>307.0</ele><time>2026-04-02T13:03:31.517Z</time></trkpt><trkpt lat="45.6988549" lon="9.4395759"><ele>307.0</ele><time>2026-04-02T13:03:32.516Z</time></trkpt><trkpt lat="45.6987901" lon="9.4397069"><ele>307.0</ele><time>2026-04-02T13:03:34.516Z</time></trkpt><trkpt lat="45.6987481" lon="9.4397952"><ele>306.8333333333333</ele><time>2026-04-02T13:03:35.517Z</time></trkpt><trkpt lat="45.6986933" lon="9.4398617"><ele>306.66666666666663</ele><time>2026-04-02T13:03:36.516Z</time></trkpt><trkpt lat="45.6986487" lon="9.439942"><ele>306.5</ele><time>2026-04-02T13:03:37.517Z</time></trkpt><trkpt lat="45.6985808" lon="9.4400247"><ele>306.3333333333333</ele><time>2026-04-02T13:03:38.517Z</time></trkpt><trkpt lat="45.6985192" lon="9.4400997"><ele>306.1666666666667</ele><time>2026-04-02T13:03:39.516Z</time></trkpt><trkpt lat="45.6984912" lon="9.4402001"><ele>306.0</ele><time>2026-04-02T13:03:41.516Z</time></trkpt><trkpt lat="45.6984593" lon="9.4402817"><ele>307.8</ele><time>2026-04-02T13:03:43.517Z</time></trkpt><trkpt lat="45.6983534" lon="9.4403127"><ele>309.6</ele><time>2026-04-02T13:03:46.516Z</time></trkpt><trkpt lat="45.6982611" lon="9.4403407"><ele>311.4</ele><time>2026-04-02T13:03:48.516Z</time></trkpt><trkpt lat="45.6981999" lon="9.4403652"><ele>313.2</ele><time>2026-04-02T13:03:49.516Z</time></trkpt><trkpt lat="45.6980842" lon="9.4404194"><ele>315.0</ele><time>2026-04-02T13:03:51.517Z</time></trkpt><trkpt lat="45.6980206" lon="9.440458"><ele>314.0</ele><time>2026-04-02T13:03:52.516Z</time></trkpt><trkpt lat="45.6979486" lon="9.4405094"><ele>313.0</ele><time>2026-04-02T13:03:53.516Z</time></trkpt><trkpt lat="45.697878" lon="9.4405377"><ele>312.0</ele><time>2026-04-02T13:03:54.517Z</time></trkpt><trkpt lat="45.6978023" lon="9.4405844"><ele>311.0</ele><time>2026-04-02T13:03:55.517Z</time></trkpt><trkpt lat="45.6977197" lon="9.4406348"><ele>310.0</ele><time>2026-04-02T13:03:56.517Z</time></trkpt><trkpt lat="45.6976399" lon="9.4406464"><ele>309.0</ele><time>2026-04-02T13:03:57.516Z</time></trkpt><trkpt lat="45.6975752" lon="9.4406385"><ele>308.3333333333333</ele><time>2026-04-02T13:03:58.516Z</time></trkpt><trkpt lat="45.6974633" lon="9.4406154"><ele>307.6666666666667</ele><time>2026-04-02T13:04:00.517Z</time></trkpt><trkpt lat="45.6973866" lon="9.4406188"><ele>307.0</ele><time>2026-04-02T13:04:02.517Z</time></trkpt><trkpt lat="45.6973015" lon="9.4406509"><ele>306.33333333333337</ele><time>2026-04-02T13:04:06.517Z</time></trkpt><trkpt lat="45.6972127" lon="9.4407113"><ele>305.6666666666667</ele><time>2026-04-02T13:04:08.517Z</time></trkpt><trkpt lat="45.697148" lon="9.4407468"><ele>305.0</ele><time>2026-04-02T13:04:09.516Z</time></trkpt><trkpt lat="45.69708" lon="9.4407631"><ele>305.0</ele><time>2026-04-02T13:04:10.517Z</time></trkpt><trkpt lat="45.6969512" lon="9.4407861"><ele>305.0</ele><time>2026-04-02T13:04:12.517Z</time></trkpt><trkpt lat="45.6968567" lon="9.4407926"><ele>305.0</ele><time>2026-04-02T13:04:13.516Z</time></trkpt><trkpt lat="45.6967854" lon="9.4408039"><ele>305.0</ele><time>2026-04-02T13:04:14.517Z</time></trkpt><trkpt lat="45.6967117" lon="9.4408081"><ele>305.0</ele><time>2026-04-02T13:04:15.517Z</time></trkpt><trkpt lat="45.6966367" lon="9.4408154"><ele>305.0</ele><time>2026-04-02T13:04:16.517Z</time></trkpt><trkpt lat="45.6965433" lon="9.4408184"><ele>303.5</ele><time>2026-04-02T13:04:17.517Z</time></trkpt><trkpt lat="45.6964623" lon="9.4408264"><ele>302.0</ele><time>2026-04-02T13:04:18.517Z</time></trkpt><trkpt lat="45.69638" lon="9.4408432"><ele>300.5</ele><time>2026-04-02T13:04:19.517Z</time></trkpt><trkpt lat="45.6962901" lon="9.4408519"><ele>299.0</ele><time>2026-04-02T13:04:20.516Z</time></trkpt><trkpt lat="45.6962003" lon="9.4408649"><ele>297.5</ele><time>2026-04-02T13:04:21.516Z</time></trkpt><trkpt lat="45.6961073" lon="9.4408799"><ele>296.0</ele><time>2026-04-02T13:04:22.516Z</time></trkpt><trkpt lat="45.6960091" lon="9.4408866"><ele>295.2</ele><time>2026-04-02T13:04:23.517Z</time></trkpt><trkpt lat="45.695913" lon="9.4408928"><ele>294.40000000000003</ele><time>2026-04-02T13:04:24.517Z</time></trkpt><trkpt lat="45.6958192" lon="9.4408881"><ele>293.6</ele><time>2026-04-02T13:04:25.517Z</time></trkpt><trkpt lat="45.6957126" lon="9.4408749"><ele>292.8</ele><time>2026-04-02T13:04:26.517Z</time></trkpt><trkpt lat="45.6956157" lon="9.4408673"><ele>292.0</ele><time>2026-04-02T13:04:27.516Z</time></trkpt><trkpt lat="45.6955169" lon="9.4408494"><ele>292.0</ele><time>2026-04-02T13:04:28.517Z</time></trkpt><trkpt lat="45.6954203" lon="9.4408331"><ele>292.0</ele><time>2026-04-02T13:04:29.517Z</time></trkpt><trkpt lat="45.6953204" lon="9.4408139"><ele>292.0</ele><time>2026-04-02T13:04:30.517Z</time></trkpt><trkpt lat="45.6952187" lon="9.4407965"><ele>292.0</ele><time>2026-04-02T13:04:31.516Z</time></trkpt><trkpt lat="45.6951205" lon="9.4407753"><ele>292.0</ele><time>2026-04-02T13:04:32.517Z</time></trkpt><trkpt lat="45.6950248" lon="9.4407605"><ele>290.8</ele><time>2026-04-02T13:04:33.517Z</time></trkpt><trkpt lat="45.6949208" lon="9.4407765"><ele>289.6</ele><time>2026-04-02T13:04:34.517Z</time></trkpt><trkpt lat="45.6948228" lon="9.440802"><ele>288.40000000000003</ele><time>2026-04-02T13:04:35.516Z</time></trkpt><trkpt lat="45.6947259" lon="9.4408533"><ele>287.2</ele><time>2026-04-02T13:04:36.516Z</time></trkpt><trkpt lat="45.6946411" lon="9.4409172"><ele>286.0</ele><time>2026-04-02T13:04:37.516Z</time></trkpt><trkpt lat="45.6945517" lon="9.4409753"><ele>286.0</ele><time>2026-04-02T13:04:38.516Z</time></trkpt><trkpt lat="45.6944721" lon="9.4410236"><ele>286.0</ele><time>2026-04-02T13:04:39.517Z</time></trkpt><trkpt lat="45.6943752" lon="9.441075"><ele>286.0</ele><time>2026-04-02T13:04:40.516Z</time></trkpt><trkpt lat="45.6942919" lon="9.4411387"><ele>286.0</ele><time>2026-04-02T13:04:41.517Z</time></trkpt><trkpt lat="45.6942067" lon="9.4411743"><ele>286.0</ele><time>2026-04-02T13:04:42.516Z</time></trkpt><trkpt lat="45.6941099" lon="9.4412278"><ele>285.5</ele><time>2026-04-02T13:04:43.517Z</time></trkpt><trkpt lat="45.6940195" lon="9.4412717"><ele>285.0</ele><time>2026-04-02T13:04:44.517Z</time></trkpt><trkpt lat="45.6939322" lon="9.4413132"><ele>284.5</ele><time>2026-04-02T13:04:45.517Z</time></trkpt><trkpt lat="45.6938454" lon="9.4413402"><ele>284.0</ele><time>2026-04-02T13:04:46.517Z</time></trkpt><trkpt lat="45.693765" lon="9.4413662"><ele>283.5</ele><time>2026-04-02T13:04:47.517Z</time></trkpt><trkpt lat="45.6936918" lon="9.441396"><ele>283.0</ele><time>2026-04-02T13:04:48.516Z</time></trkpt><trkpt lat="45.6936088" lon="9.4414297"><ele>282.6</ele><time>2026-04-02T13:04:49.516Z</time></trkpt><trkpt lat="45.6935101" lon="9.4414653"><ele>282.20000000000005</ele><time>2026-04-02T13:04:50.517Z</time></trkpt><trkpt lat="45.6934334" lon="9.4415045"><ele>281.8</ele><time>2026-04-02T13:04:51.517Z</time></trkpt><trkpt lat="45.6933568" lon="9.4415135"><ele>281.40000000000003</ele><time>2026-04-02T13:04:52.516Z</time></trkpt><trkpt lat="45.6932671" lon="9.4415444"><ele>281.0</ele><time>2026-04-02T13:04:53.516Z</time></trkpt><trkpt lat="45.6931739" lon="9.4415894"><ele>281.0</ele><time>2026-04-02T13:04:54.516Z</time></trkpt><trkpt lat="45.6930882" lon="9.441616"><ele>281.0</ele><time>2026-04-02T13:04:55.517Z</time></trkpt><trkpt lat="45.6929924" lon="9.4416522"><ele>281.0</ele><time>2026-04-02T13:04:56.517Z</time></trkpt><trkpt lat="45.6929079" lon="9.4416733"><ele>281.0</ele><time>2026-04-02T13:04:57.516Z</time></trkpt><trkpt lat="45.6928266" lon="9.4417077"><ele>281.0</ele><time>2026-04-02T13:04:58.517Z</time></trkpt><trkpt lat="45.6927489" lon="9.4417277"><ele>281.0</ele><time>2026-04-02T13:04:59.516Z</time></trkpt><trkpt lat="45.6926661" lon="9.44176"><ele>280.0</ele><time>2026-04-02T13:05:00.517Z</time></trkpt><trkpt lat="45.6925788" lon="9.4417776"><ele>279.0</ele><time>2026-04-02T13:05:01.516Z</time></trkpt><trkpt lat="45.6925074" lon="9.4417813"><ele>278.0</ele><time>2026-04-02T13:05:02.516Z</time></trkpt><trkpt lat="45.6924185" lon="9.4417768"><ele>277.0</ele><time>2026-04-02T13:05:03.517Z</time></trkpt><trkpt lat="45.6923365" lon="9.4417768"><ele>276.0</ele><time>2026-04-02T13:05:04.516Z</time></trkpt><trkpt lat="45.6922479" lon="9.4417853"><ele>275.0</ele><time>2026-04-02T13:05:05.517Z</time></trkpt><trkpt lat="45.6921697" lon="9.4417684"><ele>275.0</ele><time>2026-04-02T13:05:06.517Z</time></trkpt><trkpt lat="45.6920877" lon="9.4417581"><ele>275.0</ele><time>2026-04-02T13:05:07.516Z</time></trkpt><trkpt lat="45.6920146" lon="9.44174"><ele>275.0</ele><time>2026-04-02T13:05:08.516Z</time></trkpt><trkpt lat="45.6919433" lon="9.4417261"><ele>275.0</ele><time>2026-04-02T13:05:09.516Z</time></trkpt><trkpt lat="45.69188" lon="9.4417198"><ele>275.0</ele><time>2026-04-02T13:05:10.517Z</time></trkpt><trkpt lat="45.6917678" lon="9.4417034"><ele>275.0</ele><time>2026-04-02T13:05:12.517Z</time></trkpt><trkpt lat="45.6916944" lon="9.4417149"><ele>274.6666666666667</ele><time>2026-04-02T13:05:14.517Z</time></trkpt><trkpt lat="45.6916202" lon="9.4417427"><ele>274.33333333333337</ele><time>2026-04-02T13:05:17.516Z</time></trkpt><trkpt lat="45.6915594" lon="9.4418008"><ele>274.0</ele><time>2026-04-02T13:05:19.517Z</time></trkpt><trkpt lat="45.691519" lon="9.4418786"><ele>273.6666666666667</ele><time>2026-04-02T13:05:21.516Z</time></trkpt><trkpt lat="45.6914703" lon="9.4419557"><ele>273.3333333333333</ele><time>2026-04-02T13:05:23.516Z</time></trkpt><trkpt lat="45.6913858" lon="9.4419887"><ele>273.0</ele><time>2026-04-02T13:05:25.516Z</time></trkpt><trkpt lat="45.6912939" lon="9.4420299"><ele>273.0</ele><time>2026-04-02T13:05:27.517Z</time></trkpt><trkpt lat="45.6911813" lon="9.442092"><ele>273.0</ele><time>2026-04-02T13:05:29.517Z</time></trkpt><trkpt lat="45.6910819" lon="9.4421001"><ele>273.0</ele><time>2026-04-02T13:05:31.516Z</time></trkpt><trkpt lat="45.6909818" lon="9.4421164"><ele>273.0</ele><time>2026-04-02T13:05:33.517Z</time></trkpt><trkpt lat="45.6908858" lon="9.4421813"><ele>273.0</ele><time>2026-04-02T13:05:35.516Z</time></trkpt><trkpt lat="45.6907967" lon="9.4422513"><ele>274.0</ele><time>2026-04-02T13:05:37.517Z</time></trkpt><trkpt lat="45.6906977" lon="9.4423176"><ele>275.0</ele><time>2026-04-02T13:05:39.517Z</time></trkpt><trkpt lat="45.6905765" lon="9.4423558"><ele>276.0</ele><time>2026-04-02T13:05:41.516Z</time></trkpt><trkpt lat="45.6904574" lon="9.4423994"><ele>277.0</ele><time>2026-04-02T13:05:43.517Z</time></trkpt><trkpt lat="45.6903684" lon="9.4424238"><ele>278.0</ele><time>2026-04-02T13:05:44.516Z</time></trkpt><trkpt lat="45.6902769" lon="9.4425154"><ele>277.0</ele><time>2026-04-02T13:05:46.517Z</time></trkpt><trkpt lat="45.6901789" lon="9.4426116"><ele>276.0</ele><time>2026-04-02T13:05:48.516Z</time></trkpt><trkpt lat="45.6901179" lon="9.4426814"><ele>275.0</ele><time>2026-04-02T13:05:49.516Z</time></trkpt><trkpt lat="45.690007" lon="9.4427716"><ele>274.0</ele><time>2026-04-02T13:05:51.517Z</time></trkpt><trkpt lat="45.6899396" lon="9.4428035"><ele>273.0</ele><time>2026-04-02T13:05:52.516Z</time></trkpt><trkpt lat="45.6898928" lon="9.4428653"><ele>273.8</ele><time>2026-04-02T13:05:53.517Z</time></trkpt><trkpt lat="45.6898107" lon="9.4429656"><ele>274.6</ele><time>2026-04-02T13:05:55.517Z</time></trkpt><trkpt lat="45.6897233" lon="9.4430658"><ele>275.4</ele><time>2026-04-02T13:05:57.517Z</time></trkpt><trkpt lat="45.6896715" lon="9.4431216"><ele>276.2</ele><time>2026-04-02T13:05:58.517Z</time></trkpt><trkpt lat="45.689554" lon="9.4432092"><ele>277.0</ele><time>2026-04-02T13:06:00.516Z</time></trkpt><trkpt lat="45.6895057" lon="9.4432693"><ele>277.0</ele><time>2026-04-02T13:06:01.516Z</time></trkpt><trkpt lat="45.6894472" lon="9.4433211"><ele>277.0</ele><time>2026-04-02T13:06:02.517Z</time></trkpt><trkpt lat="45.6893858" lon="9.4433682"><ele>277.0</ele><time>2026-04-02T13:06:03.516Z</time></trkpt><trkpt lat="45.6893256" lon="9.443424"><ele>277.0</ele><time>2026-04-02T13:06:04.516Z</time></trkpt><trkpt lat="45.6892141" lon="9.4435195"><ele>277.0</ele><time>2026-04-02T13:06:06.516Z</time></trkpt><trkpt lat="45.6890966" lon="9.443606"><ele>277.0</ele><time>2026-04-02T13:06:08.516Z</time></trkpt><trkpt lat="45.6890391" lon="9.4436593"><ele>277.0</ele><time>2026-04-02T13:06:09.516Z</time></trkpt><trkpt lat="45.6889816" lon="9.4436988"><ele>277.0</ele><time>2026-04-02T13:06:10.516Z</time></trkpt><trkpt lat="45.6889112" lon="9.4437569"><ele>277.0</ele><time>2026-04-02T13:06:11.517Z</time></trkpt><trkpt lat="45.6888404" lon="9.443793"><ele>277.0</ele><time>2026-04-02T13:06:12.517Z</time></trkpt><trkpt lat="45.6887768" lon="9.4438426"><ele>277.0</ele><time>2026-04-02T13:06:13.516Z</time></trkpt><trkpt lat="45.6887173" lon="9.4438898"><ele>277.0</ele><time>2026-04-02T13:06:14.517Z</time></trkpt><trkpt lat="45.6886132" lon="9.4439847"><ele>276.8333333333333</ele><time>2026-04-02T13:06:16.517Z</time></trkpt><trkpt lat="45.688527" lon="9.4440575"><ele>276.66666666666663</ele><time>2026-04-02T13:06:18.517Z</time></trkpt><trkpt lat="45.6884736" lon="9.4441327"><ele>276.5</ele><time>2026-04-02T13:06:19.517Z</time></trkpt><trkpt lat="45.6884224" lon="9.4441883"><ele>276.3333333333333</ele><time>2026-04-02T13:06:20.516Z</time></trkpt><trkpt lat="45.68835" lon="9.444244"><ele>276.1666666666667</ele><time>2026-04-02T13:06:21.516Z</time></trkpt><trkpt lat="45.6882896" lon="9.4442969"><ele>276.0</ele><time>2026-04-02T13:06:22.517Z</time></trkpt><trkpt lat="45.6882239" lon="9.4443508"><ele>276.0</ele><time>2026-04-02T13:06:23.516Z</time></trkpt><trkpt lat="45.6881588" lon="9.4444113"><ele>276.0</ele><time>2026-04-02T13:06:24.517Z</time></trkpt><trkpt lat="45.6880931" lon="9.4444793"><ele>276.0</ele><time>2026-04-02T13:06:25.516Z</time></trkpt><trkpt lat="45.6880158" lon="9.4445287"><ele>276.0</ele><time>2026-04-02T13:06:26.517Z</time></trkpt><trkpt lat="45.68797" lon="9.4445935"><ele>276.0</ele><time>2026-04-02T13:06:27.517Z</time></trkpt><trkpt lat="45.6879129" lon="9.4446382"><ele>276.0</ele><time>2026-04-02T13:06:28.516Z</time></trkpt><trkpt lat="45.6878433" lon="9.4446985"><ele>275.8571428571429</ele><time>2026-04-02T13:06:29.517Z</time></trkpt><trkpt lat="45.687766" lon="9.4447317"><ele>275.7142857142857</ele><time>2026-04-02T13:06:30.516Z</time></trkpt><trkpt lat="45.687709" lon="9.4447745"><ele>275.57142857142856</ele><time>2026-04-02T13:06:31.517Z</time></trkpt><trkpt lat="45.6876523" lon="9.4448338"><ele>275.42857142857144</ele><time>2026-04-02T13:06:32.517Z</time></trkpt><trkpt lat="45.6875891" lon="9.4448928"><ele>275.2857142857143</ele><time>2026-04-02T13:06:33.517Z</time></trkpt><trkpt lat="45.6875306" lon="9.4449406"><ele>275.14285714285717</ele><time>2026-04-02T13:06:34.516Z</time></trkpt><trkpt lat="45.6874576" lon="9.4449979"><ele>275.0</ele><time>2026-04-02T13:06:35.516Z</time></trkpt><trkpt lat="45.6874048" lon="9.4450482"><ele>275.0</ele><time>2026-04-02T13:06:36.517Z</time></trkpt><trkpt lat="45.6872865" lon="9.445126"><ele>275.0</ele><time>2026-04-02T13:06:38.517Z</time></trkpt><trkpt lat="45.6871994" lon="9.4451634"><ele>275.0</ele><time>2026-04-02T13:06:39.517Z</time></trkpt><trkpt lat="45.6871257" lon="9.4451723"><ele>275.0</ele><time>2026-04-02T13:06:40.517Z</time></trkpt><trkpt lat="45.687063" lon="9.4451808"><ele>275.0</ele><time>2026-04-02T13:06:41.516Z</time></trkpt><trkpt lat="45.6869985" lon="9.445215"><ele>275.0</ele><time>2026-04-02T13:06:42.516Z</time></trkpt><trkpt lat="45.6869327" lon="9.4452544"><ele>274.83333333333337</ele><time>2026-04-02T13:06:43.516Z</time></trkpt><trkpt lat="45.6868496" lon="9.4452671"><ele>274.6666666666667</ele><time>2026-04-02T13:06:44.517Z</time></trkpt><trkpt lat="45.6867821" lon="9.4452777"><ele>274.5</ele><time>2026-04-02T13:06:45.516Z</time></trkpt><trkpt lat="45.6867002" lon="9.4452686"><ele>274.3333333333333</ele><time>2026-04-02T13:06:46.517Z</time></trkpt><trkpt lat="45.6866279" lon="9.4452458"><ele>274.16666666666663</ele><time>2026-04-02T13:06:47.516Z</time></trkpt><trkpt lat="45.6865522" lon="9.4452496"><ele>274.0</ele><time>2026-04-02T13:06:48.516Z</time></trkpt><trkpt lat="45.6864818" lon="9.4452245"><ele>274.00000000000006</ele><time>2026-04-02T13:06:49.516Z</time></trkpt><trkpt lat="45.6864174" lon="9.4452209"><ele>274.0</ele><time>2026-04-02T13:06:50.516Z</time></trkpt><trkpt lat="45.6863466" lon="9.4452001"><ele>274.0</ele><time>2026-04-02T13:06:51.516Z</time></trkpt><trkpt lat="45.6862749" lon="9.4451902"><ele>274.0</ele><time>2026-04-02T13:06:52.517Z</time></trkpt><trkpt lat="45.6861994" lon="9.4451764"><ele>274.0</ele><time>2026-04-02T13:06:53.516Z</time></trkpt><trkpt lat="45.6861306" lon="9.4451601"><ele>274.00000000000006</ele><time>2026-04-02T13:06:54.516Z</time></trkpt><trkpt lat="45.6860585" lon="9.4451419"><ele>274.0</ele><time>2026-04-02T13:06:55.516Z</time></trkpt><trkpt lat="45.6859896" lon="9.4451276"><ele>273.66666666666663</ele><time>2026-04-02T13:06:56.516Z</time></trkpt><trkpt lat="45.6859145" lon="9.4451048"><ele>273.3333333333333</ele><time>2026-04-02T13:06:57.517Z</time></trkpt><trkpt lat="45.6857905" lon="9.4450548"><ele>273.0</ele><time>2026-04-02T13:06:59.516Z</time></trkpt><trkpt lat="45.6857249" lon="9.4450382"><ele>272.6666666666667</ele><time>2026-04-02T13:07:00.517Z</time></trkpt><trkpt lat="45.6856535" lon="9.4450184"><ele>272.33333333333337</ele><time>2026-04-02T13:07:01.516Z</time></trkpt><trkpt lat="45.6855806" lon="9.4449887"><ele>272.0</ele><time>2026-04-02T13:07:02.516Z</time></trkpt><trkpt lat="45.6855046" lon="9.4449702"><ele>272.0</ele><time>2026-04-02T13:07:03.516Z</time></trkpt><trkpt lat="45.6854322" lon="9.4449573"><ele>272.0</ele><time>2026-04-02T13:07:04.517Z</time></trkpt><trkpt lat="45.6853612" lon="9.4449268"><ele>272.0</ele><time>2026-04-02T13:07:05.516Z</time></trkpt><trkpt lat="45.6852759" lon="9.4449053"><ele>272.0</ele><time>2026-04-02T13:07:06.517Z</time></trkpt><trkpt lat="45.685204" lon="9.4448894"><ele>272.0</ele><time>2026-04-02T13:07:07.517Z</time></trkpt><trkpt lat="45.6851224" lon="9.4448687"><ele>272.0</ele><time>2026-04-02T13:07:08.516Z</time></trkpt><trkpt lat="45.6850491" lon="9.4448453"><ele>272.1428571428571</ele><time>2026-04-02T13:07:09.516Z</time></trkpt><trkpt lat="45.6849791" lon="9.4448221"><ele>272.2857142857143</ele><time>2026-04-02T13:07:10.517Z</time></trkpt><trkpt lat="45.6849092" lon="9.4448049"><ele>272.42857142857144</ele><time>2026-04-02T13:07:11.517Z</time></trkpt><trkpt lat="45.6848434" lon="9.4447824"><ele>272.57142857142856</ele><time>2026-04-02T13:07:12.516Z</time></trkpt><trkpt lat="45.6847614" lon="9.4447559"><ele>272.7142857142857</ele><time>2026-04-02T13:07:13.517Z</time></trkpt><trkpt lat="45.6846888" lon="9.444722"><ele>272.85714285714283</ele><time>2026-04-02T13:07:14.516Z</time></trkpt><trkpt lat="45.6846185" lon="9.4446858"><ele>273.0</ele><time>2026-04-02T13:07:15.517Z</time></trkpt><trkpt lat="45.684549" lon="9.4446507"><ele>273.1666666666667</ele><time>2026-04-02T13:07:16.517Z</time></trkpt><trkpt lat="45.6844745" lon="9.4446161"><ele>273.3333333333333</ele><time>2026-04-02T13:07:17.517Z</time></trkpt><trkpt lat="45.684408" lon="9.4446035"><ele>273.5</ele><time>2026-04-02T13:07:18.517Z</time></trkpt><trkpt lat="45.6843345" lon="9.4445936"><ele>273.66666666666663</ele><time>2026-04-02T13:07:19.517Z</time></trkpt><trkpt lat="45.684268" lon="9.444586"><ele>273.8333333333333</ele><time>2026-04-02T13:07:20.516Z</time></trkpt><trkpt lat="45.6841849" lon="9.4445736"><ele>274.0</ele><time>2026-04-02T13:07:21.517Z</time></trkpt><trkpt lat="45.6840979" lon="9.4445569"><ele>274.0</ele><time>2026-04-02T13:07:22.516Z</time></trkpt><trkpt lat="45.6840229" lon="9.4445579"><ele>274.0</ele><time>2026-04-02T13:07:23.516Z</time></trkpt><trkpt lat="45.6839439" lon="9.4445695"><ele>274.0</ele><time>2026-04-02T13:07:24.517Z</time></trkpt><trkpt lat="45.6838715" lon="9.4445665"><ele>274.0</ele><time>2026-04-02T13:07:25.516Z</time></trkpt><trkpt lat="45.683778" lon="9.4445575"><ele>274.0</ele><time>2026-04-02T13:07:26.517Z</time></trkpt><trkpt lat="45.68371" lon="9.44456"><ele>274.0</ele><time>2026-04-02T13:07:27.516Z</time></trkpt><trkpt lat="45.6835871" lon="9.4445619"><ele>274.0</ele><time>2026-04-02T13:07:29.516Z</time></trkpt><trkpt lat="45.6835183" lon="9.444564"><ele>274.0</ele><time>2026-04-02T13:07:30.516Z</time></trkpt><trkpt lat="45.6834467" lon="9.4445648"><ele>274.0</ele><time>2026-04-02T13:07:31.517Z</time></trkpt><trkpt lat="45.6833706" lon="9.4445441"><ele>274.0</ele><time>2026-04-02T13:07:32.517Z</time></trkpt><trkpt lat="45.6832119" lon="9.4445392"><ele>274.0</ele><time>2026-04-02T13:07:34.517Z</time></trkpt><trkpt lat="45.6831313" lon="9.4445514"><ele>274.0</ele><time>2026-04-02T13:07:35.517Z</time></trkpt><trkpt lat="45.6830483" lon="9.4445438"><ele>274.0</ele><time>2026-04-02T13:07:36.516Z</time></trkpt><trkpt lat="45.6829077" lon="9.4445216"><ele>274.0</ele><time>2026-04-02T13:07:38.517Z</time></trkpt><trkpt lat="45.6828295" lon="9.4445332"><ele>274.0</ele><time>2026-04-02T13:07:39.517Z</time></trkpt><trkpt lat="45.6827559" lon="9.4445374"><ele>274.0</ele><time>2026-04-02T13:07:40.516Z</time></trkpt><trkpt lat="45.6826323" lon="9.4445712"><ele>273.66666666666663</ele><time>2026-04-02T13:07:42.516Z</time></trkpt><trkpt lat="45.6825568" lon="9.4445854"><ele>273.3333333333333</ele><time>2026-04-02T13:07:43.517Z</time></trkpt><trkpt lat="45.6824915" lon="9.4446018"><ele>273.0</ele><time>2026-04-02T13:07:44.517Z</time></trkpt><trkpt lat="45.6824203" lon="9.4446461"><ele>272.6666666666667</ele><time>2026-04-02T13:07:45.517Z</time></trkpt><trkpt lat="45.682312" lon="9.4447248"><ele>272.33333333333337</ele><time>2026-04-02T13:07:47.517Z</time></trkpt><trkpt lat="45.6822492" lon="9.4447471"><ele>272.0</ele><time>2026-04-02T13:07:48.517Z</time></trkpt><trkpt lat="45.6821463" lon="9.4447441"><ele>272.0</ele><time>2026-04-02T13:07:50.516Z</time></trkpt><trkpt lat="45.6820401" lon="9.4447447"><ele>272.0</ele><time>2026-04-02T13:07:51.516Z</time></trkpt><trkpt lat="45.681909" lon="9.444684"><ele>272.0</ele><time>2026-04-02T13:07:54.517Z</time></trkpt><trkpt lat="45.6818395" lon="9.4446443"><ele>272.0</ele><time>2026-04-02T13:07:55.516Z</time></trkpt><trkpt lat="45.6817529" lon="9.4446366"><ele>272.0</ele><time>2026-04-02T13:07:57.517Z</time></trkpt><trkpt lat="45.68169" lon="9.4446124"><ele>272.0</ele><time>2026-04-02T13:07:58.517Z</time></trkpt><trkpt lat="45.6816183" lon="9.4446092"><ele>272.0</ele><time>2026-04-02T13:07:59.516Z</time></trkpt><trkpt lat="45.6815292" lon="9.4445889"><ele>272.0</ele><time>2026-04-02T13:08:01.517Z</time></trkpt><trkpt lat="45.681459" lon="9.4446124"><ele>272.0</ele><time>2026-04-02T13:08:02.516Z</time></trkpt><trkpt lat="45.6813964" lon="9.4446309"><ele>272.0</ele><time>2026-04-02T13:08:04.517Z</time></trkpt><trkpt lat="45.6813032" lon="9.4445977"><ele>272.0</ele><time>2026-04-02T13:08:07.516Z</time></trkpt><trkpt lat="45.6812384" lon="9.4445621"><ele>271.83333333333337</ele><time>2026-04-02T13:08:09.516Z</time></trkpt><trkpt lat="45.6811556" lon="9.4445515"><ele>271.6666666666667</ele><time>2026-04-02T13:08:11.516Z</time></trkpt><trkpt lat="45.6810879" lon="9.4445591"><ele>271.5</ele><time>2026-04-02T13:08:13.516Z</time></trkpt><trkpt lat="45.6810233" lon="9.4445457"><ele>271.3333333333333</ele><time>2026-04-02T13:08:15.517Z</time></trkpt><trkpt lat="45.6809302" lon="9.4445008"><ele>271.16666666666663</ele><time>2026-04-02T13:08:16.516Z</time></trkpt><trkpt lat="45.6808541" lon="9.4444439"><ele>271.0</ele><time>2026-04-02T13:08:17.516Z</time></trkpt><trkpt lat="45.6807827" lon="9.4444021"><ele>271.3333333333333</ele><time>2026-04-02T13:08:18.516Z</time></trkpt><trkpt lat="45.6806969" lon="9.444394"><ele>271.66666666666663</ele><time>2026-04-02T13:08:19.517Z</time></trkpt><trkpt lat="45.6806302" lon="9.4443848"><ele>272.0</ele><time>2026-04-02T13:08:20.516Z</time></trkpt><trkpt lat="45.6805616" lon="9.4443826"><ele>272.3333333333333</ele><time>2026-04-02T13:08:21.517Z</time></trkpt><trkpt lat="45.6804958" lon="9.4443679"><ele>272.6666666666667</ele><time>2026-04-02T13:08:23.517Z</time></trkpt><trkpt lat="45.6803866" lon="9.4443645"><ele>273.0</ele><time>2026-04-02T13:08:24.516Z</time></trkpt><trkpt lat="45.6803176" lon="9.4443844"><ele>272.4</ele><time>2026-04-02T13:08:26.516Z</time></trkpt><trkpt lat="45.6802129" lon="9.4443597"><ele>271.8</ele><time>2026-04-02T13:08:28.517Z</time></trkpt><trkpt lat="45.6800857" lon="9.4443205"><ele>271.2</ele><time>2026-04-02T13:08:30.517Z</time></trkpt><trkpt lat="45.6800188" lon="9.4442898"><ele>270.6</ele><time>2026-04-02T13:08:31.517Z</time></trkpt><trkpt lat="45.6799368" lon="9.4442957"><ele>270.0</ele><time>2026-04-02T13:08:32.517Z</time></trkpt><trkpt lat="45.6798376" lon="9.4442995"><ele>270.0</ele><time>2026-04-02T13:08:33.516Z</time></trkpt><trkpt lat="45.6797297" lon="9.4442598"><ele>270.0</ele><time>2026-04-02T13:08:35.517Z</time></trkpt><trkpt lat="45.679647" lon="9.4442606"><ele>270.0</ele><time>2026-04-02T13:08:36.516Z</time></trkpt><trkpt lat="45.6795721" lon="9.4442519"><ele>270.0</ele><time>2026-04-02T13:08:37.517Z</time></trkpt><trkpt lat="45.6794391" lon="9.4442489"><ele>270.0</ele><time>2026-04-02T13:08:39.516Z</time></trkpt><trkpt lat="45.6793724" lon="9.4442362"><ele>269.5</ele><time>2026-04-02T13:08:40.517Z</time></trkpt><trkpt lat="45.6792996" lon="9.4442172"><ele>269.0</ele><time>2026-04-02T13:08:41.517Z</time></trkpt><trkpt lat="45.6792357" lon="9.444205"><ele>268.5</ele><time>2026-04-02T13:08:42.516Z</time></trkpt><trkpt lat="45.6791692" lon="9.4441964"><ele>268.0</ele><time>2026-04-02T13:08:43.517Z</time></trkpt><trkpt lat="45.6790321" lon="9.4441695"><ele>267.5</ele><time>2026-04-02T13:08:45.516Z</time></trkpt><trkpt lat="45.6789601" lon="9.4441552"><ele>267.0</ele><time>2026-04-02T13:08:46.517Z</time></trkpt><trkpt lat="45.678887" lon="9.4441371"><ele>267.0</ele><time>2026-04-02T13:08:47.517Z</time></trkpt><trkpt lat="45.67882" lon="9.4441245"><ele>267.0</ele><time>2026-04-02T13:08:48.517Z</time></trkpt><trkpt lat="45.6786871" lon="9.4441086"><ele>267.0</ele><time>2026-04-02T13:08:50.516Z</time></trkpt><trkpt lat="45.6786176" lon="9.4440832"><ele>267.0</ele><time>2026-04-02T13:08:51.516Z</time></trkpt><trkpt lat="45.6785407" lon="9.4440663"><ele>267.0</ele><time>2026-04-02T13:08:52.516Z</time></trkpt><trkpt lat="45.6783898" lon="9.4440212"><ele>267.00000000000006</ele><time>2026-04-02T13:08:54.516Z</time></trkpt><trkpt lat="45.6783138" lon="9.4440132"><ele>267.0</ele><time>2026-04-02T13:08:55.517Z</time></trkpt><trkpt lat="45.6782323" lon="9.444013"><ele>267.0</ele><time>2026-04-02T13:08:56.517Z</time></trkpt><trkpt lat="45.6781607" lon="9.4440101"><ele>267.0</ele><time>2026-04-02T13:08:57.517Z</time></trkpt><trkpt lat="45.6780886" lon="9.4439984"><ele>267.0</ele><time>2026-04-02T13:08:58.516Z</time></trkpt><trkpt lat="45.6780182" lon="9.4439724"><ele>267.00000000000006</ele><time>2026-04-02T13:08:59.516Z</time></trkpt><trkpt lat="45.6779464" lon="9.4439477"><ele>267.0</ele><time>2026-04-02T13:09:00.517Z</time></trkpt><trkpt lat="45.6778681" lon="9.443932"><ele>267.0</ele><time>2026-04-02T13:09:01.517Z</time></trkpt><trkpt lat="45.6777978" lon="9.4439144"><ele>267.0</ele><time>2026-04-02T13:09:02.517Z</time></trkpt><trkpt lat="45.6777249" lon="9.4438963"><ele>267.0</ele><time>2026-04-02T13:09:03.516Z</time></trkpt><trkpt lat="45.6776477" lon="9.4438718"><ele>267.0</ele><time>2026-04-02T13:09:04.516Z</time></trkpt><trkpt lat="45.6775601" lon="9.4438629"><ele>267.0</ele><time>2026-04-02T13:09:05.517Z</time></trkpt><trkpt lat="45.6774841" lon="9.443848"><ele>267.0</ele><time>2026-04-02T13:09:06.517Z</time></trkpt><trkpt lat="45.6774158" lon="9.4438426"><ele>266.8</ele><time>2026-04-02T13:09:07.516Z</time></trkpt><trkpt lat="45.6773423" lon="9.4438257"><ele>266.6</ele><time>2026-04-02T13:09:08.516Z</time></trkpt><trkpt lat="45.6772195" lon="9.443802"><ele>266.40000000000003</ele><time>2026-04-02T13:09:10.517Z</time></trkpt><trkpt lat="45.6771501" lon="9.4437877"><ele>266.2</ele><time>2026-04-02T13:09:11.516Z</time></trkpt><trkpt lat="45.6770193" lon="9.4437603"><ele>266.0</ele><time>2026-04-02T13:09:13.517Z</time></trkpt><trkpt lat="45.6769523" lon="9.4437414"><ele>265.83333333333337</ele><time>2026-04-02T13:09:14.517Z</time></trkpt><trkpt lat="45.6768908" lon="9.4437217"><ele>265.6666666666667</ele><time>2026-04-02T13:09:15.517Z</time></trkpt><trkpt lat="45.676822" lon="9.4437073"><ele>265.5</ele><time>2026-04-02T13:09:16.517Z</time></trkpt><trkpt lat="45.6767474" lon="9.4436809"><ele>265.3333333333333</ele><time>2026-04-02T13:09:17.516Z</time></trkpt><trkpt lat="45.676608" lon="9.4436155"><ele>265.16666666666663</ele><time>2026-04-02T13:09:19.517Z</time></trkpt><trkpt lat="45.6765387" lon="9.4435962"><ele>265.0</ele><time>2026-04-02T13:09:20.516Z</time></trkpt><trkpt lat="45.6764662" lon="9.443588"><ele>265.0</ele><time>2026-04-02T13:09:21.516Z</time></trkpt><trkpt lat="45.6763738" lon="9.4435716"><ele>265.0</ele><time>2026-04-02T13:09:22.516Z</time></trkpt><trkpt lat="45.6762627" lon="9.4434926"><ele>265.0</ele><time>2026-04-02T13:09:24.516Z</time></trkpt><trkpt lat="45.6761941" lon="9.4434687"><ele>265.0</ele><time>2026-04-02T13:09:25.516Z</time></trkpt><trkpt lat="45.6761276" lon="9.4434257"><ele>265.0</ele><time>2026-04-02T13:09:26.517Z</time></trkpt><trkpt lat="45.6760665" lon="9.4433907"><ele>265.0</ele><time>2026-04-02T13:09:27.516Z</time></trkpt><trkpt lat="45.6759973" lon="9.4433887"><ele>264.85714285714283</ele><time>2026-04-02T13:09:28.516Z</time></trkpt><trkpt lat="45.6759241" lon="9.4433749"><ele>264.7142857142857</ele><time>2026-04-02T13:09:29.517Z</time></trkpt><trkpt lat="45.6758563" lon="9.4433394"><ele>264.57142857142856</ele><time>2026-04-02T13:09:30.516Z</time></trkpt><trkpt lat="45.6757885" lon="9.4433172"><ele>264.42857142857144</ele><time>2026-04-02T13:09:31.516Z</time></trkpt><trkpt lat="45.6757118" lon="9.4432862"><ele>264.2857142857143</ele><time>2026-04-02T13:09:32.517Z</time></trkpt><trkpt lat="45.6756429" lon="9.4432733"><ele>264.1428571428571</ele><time>2026-04-02T13:09:33.516Z</time></trkpt><trkpt lat="45.6755622" lon="9.4432363"><ele>264.0</ele><time>2026-04-02T13:09:34.517Z</time></trkpt><trkpt lat="45.6754897" lon="9.4431839"><ele>264.0</ele><time>2026-04-02T13:09:35.516Z</time></trkpt><trkpt lat="45.6754239" lon="9.4431681"><ele>264.0</ele><time>2026-04-02T13:09:36.516Z</time></trkpt><trkpt lat="45.6753502" lon="9.4431539"><ele>264.0</ele><time>2026-04-02T13:09:37.517Z</time></trkpt><trkpt lat="45.6752797" lon="9.4431294"><ele>264.0</ele><time>2026-04-02T13:09:38.516Z</time></trkpt><trkpt lat="45.6752112" lon="9.4431074"><ele>264.0</ele><time>2026-04-02T13:09:39.516Z</time></trkpt><trkpt lat="45.6751385" lon="9.443092"><ele>264.0</ele><time>2026-04-02T13:09:40.516Z</time></trkpt><trkpt lat="45.6750543" lon="9.4430671"><ele>264.0</ele><time>2026-04-02T13:09:41.516Z</time></trkpt><trkpt lat="45.674986" lon="9.4430515"><ele>263.6666666666667</ele><time>2026-04-02T13:09:42.516Z</time></trkpt><trkpt lat="45.6749095" lon="9.44302"><ele>263.3333333333333</ele><time>2026-04-02T13:09:43.517Z</time></trkpt><trkpt lat="45.6748327" lon="9.4429815"><ele>263.0</ele><time>2026-04-02T13:09:44.516Z</time></trkpt><trkpt lat="45.6747617" lon="9.442963"><ele>262.66666666666663</ele><time>2026-04-02T13:09:45.517Z</time></trkpt><trkpt lat="45.6746893" lon="9.4429408"><ele>262.3333333333333</ele><time>2026-04-02T13:09:46.517Z</time></trkpt><trkpt lat="45.6746152" lon="9.4429001"><ele>262.0</ele><time>2026-04-02T13:09:47.517Z</time></trkpt><trkpt lat="45.6745457" lon="9.442881"><ele>261.8333333333333</ele><time>2026-04-02T13:09:48.516Z</time></trkpt><trkpt lat="45.674472" lon="9.4428578"><ele>261.66666666666663</ele><time>2026-04-02T13:09:49.516Z</time></trkpt><trkpt lat="45.6743999" lon="9.4428359"><ele>261.5</ele><time>2026-04-02T13:09:50.517Z</time></trkpt><trkpt lat="45.6743284" lon="9.4428092"><ele>261.3333333333333</ele><time>2026-04-02T13:09:51.517Z</time></trkpt><trkpt lat="45.6742561" lon="9.442779"><ele>261.1666666666667</ele><time>2026-04-02T13:09:52.516Z</time></trkpt><trkpt lat="45.6741911" lon="9.4427778"><ele>261.0</ele><time>2026-04-02T13:09:53.517Z</time></trkpt><trkpt lat="45.6740922" lon="9.442801"><ele>261.0</ele><time>2026-04-02T13:09:55.516Z</time></trkpt><trkpt lat="45.6740294" lon="9.4427393"><ele>261.0</ele><time>2026-04-02T13:09:57.516Z</time></trkpt><trkpt lat="45.6739267" lon="9.4426733"><ele>261.0</ele><time>2026-04-02T13:09:59.516Z</time></trkpt><trkpt lat="45.6738326" lon="9.4425796"><ele>261.0</ele><time>2026-04-02T13:10:01.517Z</time></trkpt><trkpt lat="45.6737236" lon="9.4424674"><ele>261.0</ele><time>2026-04-02T13:10:03.517Z</time></trkpt><trkpt lat="45.6736672" lon="9.4424011"><ele>261.0</ele><time>2026-04-02T13:10:04.517Z</time></trkpt><trkpt lat="45.6736133" lon="9.4423262"><ele>261.0</ele><time>2026-04-02T13:10:05.516Z</time></trkpt><trkpt lat="45.6735553" lon="9.4422606"><ele>261.0</ele><time>2026-04-02T13:10:06.517Z</time></trkpt><trkpt lat="45.6735033" lon="9.4421793"><ele>261.0</ele><time>2026-04-02T13:10:07.517Z</time></trkpt><trkpt lat="45.6734477" lon="9.4421021"><ele>261.0</ele><time>2026-04-02T13:10:08.517Z</time></trkpt><trkpt lat="45.6733957" lon="9.4420232"><ele>261.0</ele><time>2026-04-02T13:10:09.516Z</time></trkpt><trkpt lat="45.6733478" lon="9.441955"><ele>261.0</ele><time>2026-04-02T13:10:10.517Z</time></trkpt><trkpt lat="45.6732885" lon="9.4418743"><ele>260.8333333333333</ele><time>2026-04-02T13:10:11.517Z</time></trkpt><trkpt lat="45.6732362" lon="9.4418024"><ele>260.6666666666667</ele><time>2026-04-02T13:10:12.516Z</time></trkpt><trkpt lat="45.6731776" lon="9.4417239"><ele>260.5</ele><time>2026-04-02T13:10:13.516Z</time></trkpt><trkpt lat="45.6731151" lon="9.4416492"><ele>260.33333333333337</ele><time>2026-04-02T13:10:14.516Z</time></trkpt><trkpt lat="45.6730626" lon="9.4415667"><ele>260.1666666666667</ele><time>2026-04-02T13:10:15.516Z</time></trkpt><trkpt lat="45.6729998" lon="9.4414841"><ele>260.0</ele><time>2026-04-02T13:10:16.516Z</time></trkpt><trkpt lat="45.6729446" lon="9.441397"><ele>260.0</ele><time>2026-04-02T13:10:17.517Z</time></trkpt><trkpt lat="45.6728976" lon="9.4412991"><ele>260.0</ele><time>2026-04-02T13:10:18.517Z</time></trkpt><trkpt lat="45.6728577" lon="9.4412076"><ele>260.0</ele><time>2026-04-02T13:10:19.517Z</time></trkpt><trkpt lat="45.6728106" lon="9.441041"><ele>260.0</ele><time>2026-04-02T13:10:21.516Z</time></trkpt><trkpt lat="45.6727378" lon="9.4409491"><ele>260.0</ele><time>2026-04-02T13:10:23.516Z</time></trkpt><trkpt lat="45.6726738" lon="9.4408787"><ele>259.5</ele><time>2026-04-02T13:10:24.516Z</time></trkpt><trkpt lat="45.6725956" lon="9.4408682"><ele>259.0</ele><time>2026-04-02T13:10:25.516Z</time></trkpt><trkpt lat="45.6725282" lon="9.4408042"><ele>258.5</ele><time>2026-04-02T13:10:26.516Z</time></trkpt><trkpt lat="45.6724321" lon="9.4407052"><ele>258.0</ele><time>2026-04-02T13:10:28.516Z</time></trkpt><trkpt lat="45.6723763" lon="9.4406606"><ele>257.5</ele><time>2026-04-02T13:10:29.517Z</time></trkpt><trkpt lat="45.672316" lon="9.4405949"><ele>257.0</ele><time>2026-04-02T13:10:30.516Z</time></trkpt><trkpt lat="45.6722487" lon="9.440541"><ele>257.0</ele><time>2026-04-02T13:10:31.516Z</time></trkpt><trkpt lat="45.6721842" lon="9.4404856"><ele>257.0</ele><time>2026-04-02T13:10:32.516Z</time></trkpt><trkpt lat="45.6721235" lon="9.4404148"><ele>257.0</ele><time>2026-04-02T13:10:33.517Z</time></trkpt><trkpt lat="45.6720631" lon="9.4403419"><ele>257.0</ele><time>2026-04-02T13:10:34.516Z</time></trkpt><trkpt lat="45.6719997" lon="9.4402747"><ele>257.0</ele><time>2026-04-02T13:10:35.517Z</time></trkpt><trkpt lat="45.6718608" lon="9.4401865"><ele>256.6666666666667</ele><time>2026-04-02T13:10:37.516Z</time></trkpt><trkpt lat="45.671791" lon="9.4401257"><ele>256.33333333333337</ele><time>2026-04-02T13:10:38.516Z</time></trkpt><trkpt lat="45.6717193" lon="9.440056"><ele>256.0</ele><time>2026-04-02T13:10:39.517Z</time></trkpt><trkpt lat="45.6716591" lon="9.4400032"><ele>255.66666666666669</ele><time>2026-04-02T13:10:40.517Z</time></trkpt><trkpt lat="45.6715815" lon="9.4399341"><ele>255.33333333333334</ele><time>2026-04-02T13:10:41.516Z</time></trkpt><trkpt lat="45.6715138" lon="9.4398669"><ele>255.0</ele><time>2026-04-02T13:10:42.516Z</time></trkpt><trkpt lat="45.6714399" lon="9.4397941"><ele>255.0</ele><time>2026-04-02T13:10:43.517Z</time></trkpt><trkpt lat="45.6713662" lon="9.4397258"><ele>255.0</ele><time>2026-04-02T13:10:44.517Z</time></trkpt><trkpt lat="45.6713012" lon="9.4396523"><ele>255.0</ele><time>2026-04-02T13:10:45.516Z</time></trkpt><trkpt lat="45.6712263" lon="9.439586"><ele>255.0</ele><time>2026-04-02T13:10:46.516Z</time></trkpt><trkpt lat="45.6711595" lon="9.4394932"><ele>255.0</ele><time>2026-04-02T13:10:47.517Z</time></trkpt><trkpt lat="45.671094" lon="9.4394437"><ele>255.0</ele><time>2026-04-02T13:10:48.517Z</time></trkpt><trkpt lat="45.6710256" lon="9.4393647"><ele>254.66666666666666</ele><time>2026-04-02T13:10:49.517Z</time></trkpt><trkpt lat="45.6709616" lon="9.4392931"><ele>254.33333333333331</ele><time>2026-04-02T13:10:50.516Z</time></trkpt><trkpt lat="45.6708844" lon="9.4392276"><ele>254.0</ele><time>2026-04-02T13:10:51.516Z</time></trkpt><trkpt lat="45.6708116" lon="9.4391617"><ele>253.66666666666666</ele><time>2026-04-02T13:10:52.516Z</time></trkpt><trkpt lat="45.6707453" lon="9.4391028"><ele>253.33333333333331</ele><time>2026-04-02T13:10:53.517Z</time></trkpt><trkpt lat="45.6706734" lon="9.4390456"><ele>253.0</ele><time>2026-04-02T13:10:54.516Z</time></trkpt><trkpt lat="45.6706154" lon="9.4389781"><ele>252.99999999999997</ele><time>2026-04-02T13:10:55.517Z</time></trkpt><trkpt lat="45.6705339" lon="9.4389006"><ele>253.0</ele><time>2026-04-02T13:10:56.516Z</time></trkpt><trkpt lat="45.6704728" lon="9.4388404"><ele>253.0</ele><time>2026-04-02T13:10:57.516Z</time></trkpt><trkpt lat="45.6704047" lon="9.4387792"><ele>253.0</ele><time>2026-04-02T13:10:58.516Z</time></trkpt><trkpt lat="45.6703448" lon="9.4387269"><ele>252.99999999999997</ele><time>2026-04-02T13:10:59.516Z</time></trkpt><trkpt lat="45.6702743" lon="9.4386557"><ele>253.0</ele><time>2026-04-02T13:11:00.516Z</time></trkpt><trkpt lat="45.6702015" lon="9.4385768"><ele>252.49999999999997</ele><time>2026-04-02T13:11:01.516Z</time></trkpt><trkpt lat="45.6701296" lon="9.4385087"><ele>252.0</ele><time>2026-04-02T13:11:02.517Z</time></trkpt><trkpt lat="45.6700485" lon="9.4384681"><ele>251.5</ele><time>2026-04-02T13:11:03.517Z</time></trkpt><trkpt lat="45.6699776" lon="9.438412"><ele>251.0</ele><time>2026-04-02T13:11:04.516Z</time></trkpt><trkpt lat="45.6699139" lon="9.438356"><ele>250.49999999999997</ele><time>2026-04-02T13:11:05.517Z</time></trkpt><trkpt lat="45.6698638" lon="9.4382949"><ele>250.0</ele><time>2026-04-02T13:11:06.516Z</time></trkpt><trkpt lat="45.6697851" lon="9.4381783"><ele>249.99999999999997</ele><time>2026-04-02T13:11:08.517Z</time></trkpt><trkpt lat="45.6697423" lon="9.4380532"><ele>250.0</ele><time>2026-04-02T13:11:11.516Z</time></trkpt><trkpt lat="45.6696818" lon="9.4379446"><ele>250.0</ele><time>2026-04-02T13:11:14.517Z</time></trkpt><trkpt lat="45.6696146" lon="9.4379427"><ele>250.0</ele><time>2026-04-02T13:11:16.517Z</time></trkpt><trkpt lat="45.6695473" lon="9.4379968"><ele>249.99999999999997</ele><time>2026-04-02T13:11:18.516Z</time></trkpt><trkpt lat="45.6694696" lon="9.4379826"><ele>250.0</ele><time>2026-04-02T13:11:20.517Z</time></trkpt><trkpt lat="45.6693674" lon="9.4378913"><ele>249.83333333333331</ele><time>2026-04-02T13:11:22.517Z</time></trkpt><trkpt lat="45.6693136" lon="9.4378316"><ele>249.66666666666666</ele><time>2026-04-02T13:11:23.517Z</time></trkpt><trkpt lat="45.669255" lon="9.4377912"><ele>249.5</ele><time>2026-04-02T13:11:24.517Z</time></trkpt><trkpt lat="45.6692114" lon="9.4377261"><ele>249.33333333333331</ele><time>2026-04-02T13:11:25.517Z</time></trkpt><trkpt lat="45.6691285" lon="9.4376656"><ele>249.16666666666666</ele><time>2026-04-02T13:11:27.516Z</time></trkpt><trkpt lat="45.6690706" lon="9.4375949"><ele>249.0</ele><time>2026-04-02T13:11:28.516Z</time></trkpt><trkpt lat="45.6689676" lon="9.4374827"><ele>249.0</ele><time>2026-04-02T13:11:30.516Z</time></trkpt><trkpt lat="45.6688703" lon="9.4373584"><ele>249.0</ele><time>2026-04-02T13:11:32.517Z</time></trkpt><trkpt lat="45.668808" lon="9.4373037"><ele>249.0</ele><time>2026-04-02T13:11:33.517Z</time></trkpt><trkpt lat="45.6687508" lon="9.4372421"><ele>249.0</ele><time>2026-04-02T13:11:34.517Z</time></trkpt><trkpt lat="45.6686941" lon="9.4371846"><ele>249.0</ele><time>2026-04-02T13:11:35.516Z</time></trkpt><trkpt lat="45.6686343" lon="9.4371422"><ele>249.0</ele><time>2026-04-02T13:11:36.517Z</time></trkpt><trkpt lat="45.6685635" lon="9.4370972"><ele>249.14285714285714</ele><time>2026-04-02T13:11:37.516Z</time></trkpt><trkpt lat="45.6685003" lon="9.4370658"><ele>249.28571428571428</ele><time>2026-04-02T13:11:38.516Z</time></trkpt><trkpt lat="45.6684324" lon="9.4370472"><ele>249.42857142857142</ele><time>2026-04-02T13:11:39.516Z</time></trkpt><trkpt lat="45.6683647" lon="9.4370171"><ele>249.57142857142856</ele><time>2026-04-02T13:11:40.517Z</time></trkpt><trkpt lat="45.6683043" lon="9.4369693"><ele>249.71428571428572</ele><time>2026-04-02T13:11:41.516Z</time></trkpt><trkpt lat="45.6682448" lon="9.4368993"><ele>249.85714285714283</ele><time>2026-04-02T13:11:42.516Z</time></trkpt><trkpt lat="45.6681813" lon="9.4368403"><ele>250.0</ele><time>2026-04-02T13:11:43.516Z</time></trkpt><trkpt lat="45.6681284" lon="9.4367801"><ele>249.99999999999997</ele><time>2026-04-02T13:11:44.517Z</time></trkpt><trkpt lat="45.6680486" lon="9.4367273"><ele>250.0</ele><time>2026-04-02T13:11:45.516Z</time></trkpt><trkpt lat="45.6679933" lon="9.4366651"><ele>250.0</ele><time>2026-04-02T13:11:46.517Z</time></trkpt><trkpt lat="45.6679258" lon="9.4366024"><ele>250.0</ele><time>2026-04-02T13:11:47.516Z</time></trkpt><trkpt lat="45.6678582" lon="9.436549"><ele>249.99999999999997</ele><time>2026-04-02T13:11:48.517Z</time></trkpt><trkpt lat="45.6677925" lon="9.436493"><ele>250.0</ele><time>2026-04-02T13:11:49.517Z</time></trkpt><trkpt lat="45.6677362" lon="9.436441"><ele>249.49999999999997</ele><time>2026-04-02T13:11:50.517Z</time></trkpt><trkpt lat="45.667673" lon="9.436382"><ele>249.0</ele><time>2026-04-02T13:11:51.517Z</time></trkpt><trkpt lat="45.6676097" lon="9.4363221"><ele>248.5</ele><time>2026-04-02T13:11:52.516Z</time></trkpt><trkpt lat="45.6675484" lon="9.436261"><ele>248.0</ele><time>2026-04-02T13:11:53.516Z</time></trkpt><trkpt lat="45.6674941" lon="9.4362067"><ele>247.49999999999997</ele><time>2026-04-02T13:11:54.517Z</time></trkpt><trkpt lat="45.6673736" lon="9.4361104"><ele>247.0</ele><time>2026-04-02T13:11:56.517Z</time></trkpt><trkpt lat="45.6673154" lon="9.4360472"><ele>246.85714285714286</ele><time>2026-04-02T13:11:57.517Z</time></trkpt><trkpt lat="45.667258" lon="9.4359837"><ele>246.71428571428572</ele><time>2026-04-02T13:11:58.516Z</time></trkpt><trkpt lat="45.6672054" lon="9.4359278"><ele>246.57142857142858</ele><time>2026-04-02T13:11:59.517Z</time></trkpt><trkpt lat="45.6671455" lon="9.4358882"><ele>246.42857142857144</ele><time>2026-04-02T13:12:00.517Z</time></trkpt><trkpt lat="45.6670849" lon="9.4358089"><ele>246.28571428571428</ele><time>2026-04-02T13:12:01.516Z</time></trkpt><trkpt lat="45.6670245" lon="9.4357555"><ele>246.14285714285717</ele><time>2026-04-02T13:12:02.516Z</time></trkpt><trkpt lat="45.6669717" lon="9.4356771"><ele>246.00000000000003</ele><time>2026-04-02T13:12:03.517Z</time></trkpt><trkpt lat="45.6668758" lon="9.4355506"><ele>245.5</ele><time>2026-04-02T13:12:05.517Z</time></trkpt><trkpt lat="45.6667973" lon="9.4354384"><ele>245.0</ele><time>2026-04-02T13:12:07.517Z</time></trkpt><trkpt lat="45.6667137" lon="9.4353325"><ele>244.5</ele><time>2026-04-02T13:12:09.517Z</time></trkpt><trkpt lat="45.6666212" lon="9.4352107"><ele>244.0</ele><time>2026-04-02T13:12:11.516Z</time></trkpt><trkpt lat="45.6665328" lon="9.4350934"><ele>244.0</ele><time>2026-04-02T13:12:13.517Z</time></trkpt><trkpt lat="45.66647" lon="9.4350009"><ele>243.99999999999997</ele><time>2026-04-02T13:12:15.517Z</time></trkpt><trkpt lat="45.6664142" lon="9.4349289"><ele>243.99999999999997</ele><time>2026-04-02T13:12:16.516Z</time></trkpt><trkpt lat="45.6663222" lon="9.4348355"><ele>244.0</ele><time>2026-04-02T13:12:18.516Z</time></trkpt><trkpt lat="45.6662421" lon="9.4347065"><ele>244.0</ele><time>2026-04-02T13:12:20.517Z</time></trkpt><trkpt lat="45.6662496" lon="9.4345476"><ele>243.5</ele><time>2026-04-02T13:12:22.516Z</time></trkpt><trkpt lat="45.6663022" lon="9.4344008"><ele>243.0</ele><time>2026-04-02T13:12:24.517Z</time></trkpt><trkpt lat="45.6663621" lon="9.4342491"><ele>242.5</ele><time>2026-04-02T13:12:26.516Z</time></trkpt><trkpt lat="45.666418" lon="9.4340951"><ele>242.0</ele><time>2026-04-02T13:12:28.516Z</time></trkpt><trkpt lat="45.6664805" lon="9.433931"><ele>242.00000000000003</ele><time>2026-04-02T13:12:30.517Z</time></trkpt><trkpt lat="45.6665493" lon="9.4337706"><ele>242.0</ele><time>2026-04-02T13:12:32.517Z</time></trkpt><trkpt lat="45.6665829" lon="9.4336918"><ele>242.0</ele><time>2026-04-02T13:12:33.516Z</time></trkpt><trkpt lat="45.6666222" lon="9.4335958"><ele>242.0</ele><time>2026-04-02T13:12:34.516Z</time></trkpt><trkpt lat="45.6666551" lon="9.4335097"><ele>242.00000000000003</ele><time>2026-04-02T13:12:35.516Z</time></trkpt><trkpt lat="45.6666964" lon="9.4334404"><ele>242.0</ele><time>2026-04-02T13:12:36.516Z</time></trkpt><trkpt lat="45.6667562" lon="9.4332783"><ele>242.0</ele><time>2026-04-02T13:12:38.517Z</time></trkpt><trkpt lat="45.6668015" lon="9.4331343"><ele>242.0</ele><time>2026-04-02T13:12:40.517Z</time></trkpt><trkpt lat="45.6668249" lon="9.433041"><ele>242.0</ele><time>2026-04-02T13:12:41.517Z</time></trkpt><trkpt lat="45.6668883" lon="9.432887"><ele>242.0</ele><time>2026-04-02T13:12:43.517Z</time></trkpt><trkpt lat="45.6669148" lon="9.4327381"><ele>242.0</ele><time>2026-04-02T13:12:45.517Z</time></trkpt><trkpt lat="45.6669304" lon="9.432575"><ele>242.16666666666669</ele><time>2026-04-02T13:12:47.517Z</time></trkpt><trkpt lat="45.6669557" lon="9.4324516"><ele>242.33333333333334</ele><time>2026-04-02T13:12:49.517Z</time></trkpt><trkpt lat="45.6669271" lon="9.4323568"><ele>242.5</ele><time>2026-04-02T13:12:52.517Z</time></trkpt><trkpt lat="45.6668788" lon="9.4322934"><ele>242.66666666666669</ele><time>2026-04-02T13:12:54.517Z</time></trkpt><trkpt lat="45.6668111" lon="9.4322098"><ele>242.83333333333334</ele><time>2026-04-02T13:12:57.517Z</time></trkpt><trkpt lat="45.6667469" lon="9.4321153"><ele>243.0</ele><time>2026-04-02T13:12:59.516Z</time></trkpt><trkpt lat="45.6667096" lon="9.4320332"><ele>242.60000000000002</ele><time>2026-04-02T13:13:01.517Z</time></trkpt><trkpt lat="45.666618" lon="9.431956"><ele>242.20000000000002</ele><time>2026-04-02T13:13:03.517Z</time></trkpt><trkpt lat="45.6666046" lon="9.4318526"><ele>241.8</ele><time>2026-04-02T13:13:05.876Z</time></trkpt><trkpt lat="45.6665183" lon="9.4317344"><ele>241.4</ele><time>2026-04-02T13:13:07.519Z</time></trkpt><trkpt lat="45.6664589" lon="9.4316679"><ele>241.0</ele><time>2026-04-02T13:13:08.513Z</time></trkpt><trkpt lat="45.6663737" lon="9.4315812"><ele>241.0</ele><time>2026-04-02T13:13:10.513Z</time></trkpt><trkpt lat="45.6663161" lon="9.431512"><ele>241.00000000000003</ele><time>2026-04-02T13:13:11.51Z</time></trkpt><trkpt lat="45.6662642" lon="9.4314444"><ele>241.00000000000003</ele><time>2026-04-02T13:13:12.511Z</time></trkpt><trkpt lat="45.6662161" lon="9.4313744"><ele>241.0</ele><time>2026-04-02T13:13:13.51Z</time></trkpt><trkpt lat="45.6661305" lon="9.4312659"><ele>241.0</ele><time>2026-04-02T13:13:15.511Z</time></trkpt><trkpt lat="45.6659981" lon="9.431203"><ele>241.16666666666666</ele><time>2026-04-02T13:13:17.51Z</time></trkpt><trkpt lat="45.6658774" lon="9.4311169"><ele>241.33333333333331</ele><time>2026-04-02T13:13:19.511Z</time></trkpt><trkpt lat="45.6658288" lon="9.4310593"><ele>241.5</ele><time>2026-04-02T13:13:20.51Z</time></trkpt><trkpt lat="45.6657697" lon="9.4310099"><ele>241.66666666666669</ele><time>2026-04-02T13:13:21.511Z</time></trkpt><trkpt lat="45.665714" lon="9.4309573"><ele>241.83333333333334</ele><time>2026-04-02T13:13:22.511Z</time></trkpt><trkpt lat="45.6656514" lon="9.4309098"><ele>242.0</ele><time>2026-04-02T13:13:23.51Z</time></trkpt><trkpt lat="45.6655921" lon="9.4308498"><ele>242.0</ele><time>2026-04-02T13:13:24.51Z</time></trkpt><trkpt lat="45.6655309" lon="9.4307903"><ele>241.99999999999997</ele><time>2026-04-02T13:13:25.51Z</time></trkpt><trkpt lat="45.6654758" lon="9.4307363"><ele>242.0</ele><time>2026-04-02T13:13:26.511Z</time></trkpt><trkpt lat="45.6654191" lon="9.4306696"><ele>242.0</ele><time>2026-04-02T13:13:27.509Z</time></trkpt><trkpt lat="45.665364" lon="9.4306083"><ele>241.99999999999997</ele><time>2026-04-02T13:13:28.511Z</time></trkpt><trkpt lat="45.6653008" lon="9.4305454"><ele>242.0</ele><time>2026-04-02T13:13:29.511Z</time></trkpt><trkpt lat="45.6652438" lon="9.4304837"><ele>242.0</ele><time>2026-04-02T13:13:30.511Z</time></trkpt><trkpt lat="45.6651825" lon="9.4304224"><ele>241.83333333333334</ele><time>2026-04-02T13:13:31.51Z</time></trkpt><trkpt lat="45.6651204" lon="9.4303638"><ele>241.66666666666669</ele><time>2026-04-02T13:13:32.51Z</time></trkpt><trkpt lat="45.6650037" lon="9.4302664"><ele>241.5</ele><time>2026-04-02T13:13:34.51Z</time></trkpt><trkpt lat="45.6649487" lon="9.4302092"><ele>241.33333333333331</ele><time>2026-04-02T13:13:35.51Z</time></trkpt><trkpt lat="45.6648883" lon="9.4301573"><ele>241.16666666666666</ele><time>2026-04-02T13:13:36.511Z</time></trkpt><trkpt lat="45.6648303" lon="9.4300958"><ele>241.0</ele><time>2026-04-02T13:13:37.511Z</time></trkpt><trkpt lat="45.6647717" lon="9.4300416"><ele>241.0</ele><time>2026-04-02T13:13:38.51Z</time></trkpt><trkpt lat="45.6647138" lon="9.4299865"><ele>241.00000000000003</ele><time>2026-04-02T13:13:39.51Z</time></trkpt><trkpt lat="45.6646543" lon="9.42992"><ele>241.0</ele><time>2026-04-02T13:13:40.511Z</time></trkpt><trkpt lat="45.6645946" lon="9.4298593"><ele>241.0</ele><time>2026-04-02T13:13:41.511Z</time></trkpt><trkpt lat="45.6645383" lon="9.4298024"><ele>241.00000000000003</ele><time>2026-04-02T13:13:42.51Z</time></trkpt><trkpt lat="45.6644796" lon="9.4297381"><ele>241.0</ele><time>2026-04-02T13:13:43.511Z</time></trkpt><trkpt lat="45.6644187" lon="9.4296807"><ele>241.0</ele><time>2026-04-02T13:13:44.511Z</time></trkpt><trkpt lat="45.6643538" lon="9.4296116"><ele>240.57142857142858</ele><time>2026-04-02T13:13:45.511Z</time></trkpt><trkpt lat="45.6643053" lon="9.4295492"><ele>240.14285714285717</ele><time>2026-04-02T13:13:46.511Z</time></trkpt><trkpt lat="45.6642534" lon="9.4294946"><ele>239.71428571428572</ele><time>2026-04-02T13:13:47.511Z</time></trkpt><trkpt lat="45.6641899" lon="9.4294363"><ele>239.28571428571428</ele><time>2026-04-02T13:13:48.511Z</time></trkpt><trkpt lat="45.6641262" lon="9.4293854"><ele>238.85714285714286</ele><time>2026-04-02T13:13:49.511Z</time></trkpt><trkpt lat="45.6640714" lon="9.4293297"><ele>238.42857142857144</ele><time>2026-04-02T13:13:50.51Z</time></trkpt><trkpt lat="45.6640097" lon="9.4292779"><ele>238.0</ele><time>2026-04-02T13:13:51.511Z</time></trkpt><trkpt lat="45.663943" lon="9.4292221"><ele>237.99999999999997</ele><time>2026-04-02T13:13:52.51Z</time></trkpt><trkpt lat="45.66388" lon="9.4291638"><ele>238.0</ele><time>2026-04-02T13:13:53.51Z</time></trkpt><trkpt lat="45.6638146" lon="9.4290959"><ele>238.0</ele><time>2026-04-02T13:13:54.51Z</time></trkpt><trkpt lat="45.6637595" lon="9.429037"><ele>238.0</ele><time>2026-04-02T13:13:55.511Z</time></trkpt><trkpt lat="45.6636997" lon="9.4289698"><ele>237.99999999999997</ele><time>2026-04-02T13:13:56.51Z</time></trkpt><trkpt lat="45.6636443" lon="9.4289014"><ele>238.0</ele><time>2026-04-02T13:13:57.511Z</time></trkpt><trkpt lat="45.6635257" lon="9.4288032"><ele>238.16666666666666</ele><time>2026-04-02T13:13:59.511Z</time></trkpt><trkpt lat="45.6634696" lon="9.4287566"><ele>238.33333333333331</ele><time>2026-04-02T13:14:00.511Z</time></trkpt><trkpt lat="45.6634023" lon="9.4286997"><ele>238.5</ele><time>2026-04-02T13:14:01.511Z</time></trkpt><trkpt lat="45.6633415" lon="9.428657"><ele>238.66666666666669</ele><time>2026-04-02T13:14:02.51Z</time></trkpt><trkpt lat="45.6632595" lon="9.4285988"><ele>238.83333333333334</ele><time>2026-04-02T13:14:03.51Z</time></trkpt><trkpt lat="45.6631632" lon="9.428478"><ele>239.0</ele><time>2026-04-02T13:14:05.51Z</time></trkpt><trkpt lat="45.663129" lon="9.4283868"><ele>239.00000000000003</ele><time>2026-04-02T13:14:06.511Z</time></trkpt><trkpt lat="45.6630839" lon="9.4282912"><ele>239.0</ele><time>2026-04-02T13:14:07.51Z</time></trkpt><trkpt lat="45.6630627" lon="9.4281983"><ele>239.0</ele><time>2026-04-02T13:14:08.511Z</time></trkpt><trkpt lat="45.6630942" lon="9.4280258"><ele>239.0</ele><time>2026-04-02T13:14:10.511Z</time></trkpt><trkpt lat="45.6631022" lon="9.427924"><ele>239.00000000000003</ele><time>2026-04-02T13:14:11.511Z</time></trkpt><trkpt lat="45.6631075" lon="9.4278184"><ele>239.0</ele><time>2026-04-02T13:14:12.511Z</time></trkpt><trkpt lat="45.6631166" lon="9.4277139"><ele>239.2</ele><time>2026-04-02T13:14:13.51Z</time></trkpt><trkpt lat="45.6631358" lon="9.427561"><ele>239.39999999999998</ele><time>2026-04-02T13:14:15.511Z</time></trkpt><trkpt lat="45.6631401" lon="9.4274621"><ele>239.6</ele><time>2026-04-02T13:14:16.51Z</time></trkpt><trkpt lat="45.6631402" lon="9.4273691"><ele>239.8</ele><time>2026-04-02T13:14:17.511Z</time></trkpt><trkpt lat="45.6631677" lon="9.4271815"><ele>240.0</ele><time>2026-04-02T13:14:19.511Z</time></trkpt><trkpt lat="45.6631731" lon="9.4270208"><ele>240.5</ele><time>2026-04-02T13:14:21.51Z</time></trkpt><trkpt lat="45.6630702" lon="9.4269121"><ele>241.0</ele><time>2026-04-02T13:14:23.511Z</time></trkpt><trkpt lat="45.6629844" lon="9.426779"><ele>241.5</ele><time>2026-04-02T13:14:25.51Z</time></trkpt><trkpt lat="45.6628984" lon="9.4266849"><ele>242.0</ele><time>2026-04-02T13:14:27.511Z</time></trkpt><trkpt lat="45.6627846" lon="9.4265675"><ele>241.28571428571428</ele><time>2026-04-02T13:14:29.511Z</time></trkpt><trkpt lat="45.6627222" lon="9.4265215"><ele>240.57142857142856</ele><time>2026-04-02T13:14:30.51Z</time></trkpt><trkpt lat="45.6626603" lon="9.4264708"><ele>239.85714285714283</ele><time>2026-04-02T13:14:31.51Z</time></trkpt><trkpt lat="45.6626039" lon="9.42641"><ele>239.1428571428571</ele><time>2026-04-02T13:14:32.511Z</time></trkpt><trkpt lat="45.6625544" lon="9.4263453"><ele>238.42857142857142</ele><time>2026-04-02T13:14:33.511Z</time></trkpt><trkpt lat="45.6624749" lon="9.4262884"><ele>237.71428571428567</ele><time>2026-04-02T13:14:34.511Z</time></trkpt><trkpt lat="45.6624197" lon="9.4262439"><ele>236.99999999999997</ele><time>2026-04-02T13:14:35.51Z</time></trkpt><trkpt lat="45.66235" lon="9.4261885"><ele>236.99999999999997</ele><time>2026-04-02T13:14:36.511Z</time></trkpt><trkpt lat="45.6622913" lon="9.4261377"><ele>237.0</ele><time>2026-04-02T13:14:37.51Z</time></trkpt><trkpt lat="45.6622321" lon="9.4260886"><ele>236.99999999999997</ele><time>2026-04-02T13:14:38.51Z</time></trkpt><trkpt lat="45.6621791" lon="9.426035"><ele>236.99999999999997</ele><time>2026-04-02T13:14:39.51Z</time></trkpt><trkpt lat="45.6621059" lon="9.4259886"><ele>237.0</ele><time>2026-04-02T13:14:40.511Z</time></trkpt><trkpt lat="45.6620422" lon="9.4259407"><ele>236.99999999999997</ele><time>2026-04-02T13:14:41.51Z</time></trkpt><trkpt lat="45.6619664" lon="9.4258978"><ele>236.99999999999997</ele><time>2026-04-02T13:14:42.511Z</time></trkpt><trkpt lat="45.6619093" lon="9.4258471"><ele>237.4285714285714</ele><time>2026-04-02T13:14:43.511Z</time></trkpt><trkpt lat="45.6618471" lon="9.425788"><ele>237.85714285714283</ele><time>2026-04-02T13:14:44.511Z</time></trkpt><trkpt lat="45.6617932" lon="9.4257346"><ele>238.28571428571428</ele><time>2026-04-02T13:14:45.51Z</time></trkpt><trkpt lat="45.6617285" lon="9.4256806"><ele>238.7142857142857</ele><time>2026-04-02T13:14:46.51Z</time></trkpt><trkpt lat="45.6616711" lon="9.4256254"><ele>239.1428571428571</ele><time>2026-04-02T13:14:47.511Z</time></trkpt><trkpt lat="45.6616151" lon="9.4255699"><ele>239.57142857142858</ele><time>2026-04-02T13:14:48.51Z</time></trkpt><trkpt lat="45.6615643" lon="9.4255075"><ele>240.0</ele><time>2026-04-02T13:14:49.511Z</time></trkpt><trkpt lat="45.6615" lon="9.4254769"><ele>240.0</ele><time>2026-04-02T13:14:50.51Z</time></trkpt><trkpt lat="45.6614376" lon="9.4254212"><ele>240.0</ele><time>2026-04-02T13:14:51.51Z</time></trkpt><trkpt lat="45.6613751" lon="9.4253644"><ele>240.0</ele><time>2026-04-02T13:14:52.511Z</time></trkpt><trkpt lat="45.6613162" lon="9.4253034"><ele>240.0</ele><time>2026-04-02T13:14:53.51Z</time></trkpt><trkpt lat="45.6612617" lon="9.42525"><ele>240.0</ele><time>2026-04-02T13:14:54.51Z</time></trkpt><trkpt lat="45.661201" lon="9.4251851"><ele>240.0</ele><time>2026-04-02T13:14:55.511Z</time></trkpt><trkpt lat="45.6611395" lon="9.4251373"><ele>240.0</ele><time>2026-04-02T13:14:56.51Z</time></trkpt><trkpt lat="45.6610739" lon="9.4250853"><ele>239.66666666666666</ele><time>2026-04-02T13:14:57.51Z</time></trkpt><trkpt lat="45.6610208" lon="9.4250243"><ele>239.33333333333331</ele><time>2026-04-02T13:14:58.511Z</time></trkpt><trkpt lat="45.6609638" lon="9.4249646"><ele>239.0</ele><time>2026-04-02T13:14:59.51Z</time></trkpt><trkpt lat="45.6608436" lon="9.4248585"><ele>238.66666666666666</ele><time>2026-04-02T13:15:01.511Z</time></trkpt><trkpt lat="45.660788" lon="9.424804"><ele>238.33333333333331</ele><time>2026-04-02T13:15:02.511Z</time></trkpt><trkpt lat="45.6607268" lon="9.4247394"><ele>238.0</ele><time>2026-04-02T13:15:03.511Z</time></trkpt><trkpt lat="45.6606603" lon="9.4246687"><ele>238.0</ele><time>2026-04-02T13:15:04.51Z</time></trkpt><trkpt lat="45.6605989" lon="9.4246179"><ele>238.0</ele><time>2026-04-02T13:15:05.51Z</time></trkpt><trkpt lat="45.6605356" lon="9.4245526"><ele>238.0</ele><time>2026-04-02T13:15:06.51Z</time></trkpt><trkpt lat="45.6604738" lon="9.4244955"><ele>238.0</ele><time>2026-04-02T13:15:07.51Z</time></trkpt><trkpt lat="45.6604183" lon="9.4244375"><ele>238.0</ele><time>2026-04-02T13:15:08.51Z</time></trkpt><trkpt lat="45.6603614" lon="9.4243775"><ele>238.0</ele><time>2026-04-02T13:15:09.51Z</time></trkpt><trkpt lat="45.6603002" lon="9.4243126"><ele>238.0</ele><time>2026-04-02T13:15:10.51Z</time></trkpt><trkpt lat="45.6602382" lon="9.4242521"><ele>237.99999999999997</ele><time>2026-04-02T13:15:11.51Z</time></trkpt><trkpt lat="45.6601246" lon="9.4241541"><ele>238.0</ele><time>2026-04-02T13:15:13.511Z</time></trkpt><trkpt lat="45.6600691" lon="9.4241065"><ele>238.0</ele><time>2026-04-02T13:15:14.511Z</time></trkpt><trkpt lat="45.660003" lon="9.4240464"><ele>238.0</ele><time>2026-04-02T13:15:15.511Z</time></trkpt><trkpt lat="45.6599438" lon="9.423992"><ele>237.99999999999997</ele><time>2026-04-02T13:15:16.511Z</time></trkpt><trkpt lat="45.6598796" lon="9.4239331"><ele>238.0</ele><time>2026-04-02T13:15:17.51Z</time></trkpt><trkpt lat="45.6598218" lon="9.4238858"><ele>237.99999999999997</ele><time>2026-04-02T13:15:18.511Z</time></trkpt><trkpt lat="45.6597646" lon="9.423831"><ele>238.0</ele><time>2026-04-02T13:15:19.511Z</time></trkpt><trkpt lat="45.6597077" lon="9.4237897"><ele>238.0</ele><time>2026-04-02T13:15:20.511Z</time></trkpt><trkpt lat="45.6595906" lon="9.4237803"><ele>238.0</ele><time>2026-04-02T13:15:22.51Z</time></trkpt><trkpt lat="45.6594846" lon="9.4238512"><ele>237.99999999999997</ele><time>2026-04-02T13:15:24.511Z</time></trkpt><trkpt lat="45.6594363" lon="9.4239203"><ele>238.0</ele><time>2026-04-02T13:15:25.51Z</time></trkpt><trkpt lat="45.6593786" lon="9.4239744"><ele>237.4</ele><time>2026-04-02T13:15:26.511Z</time></trkpt><trkpt lat="45.6593332" lon="9.4240393"><ele>236.8</ele><time>2026-04-02T13:15:27.51Z</time></trkpt><trkpt lat="45.6592272" lon="9.4241167"><ele>236.2</ele><time>2026-04-02T13:15:29.51Z</time></trkpt><trkpt lat="45.6591256" lon="9.4240656"><ele>235.6</ele><time>2026-04-02T13:15:31.51Z</time></trkpt><trkpt lat="45.6590372" lon="9.4239383"><ele>235.0</ele><time>2026-04-02T13:15:33.511Z</time></trkpt><trkpt lat="45.6589816" lon="9.4238872"><ele>234.99999999999997</ele><time>2026-04-02T13:15:34.511Z</time></trkpt><trkpt lat="45.6589303" lon="9.4238339"><ele>235.0</ele><time>2026-04-02T13:15:35.511Z</time></trkpt><trkpt lat="45.6588237" lon="9.4237326"><ele>235.0</ele><time>2026-04-02T13:15:37.511Z</time></trkpt><trkpt lat="45.6587596" lon="9.4236886"><ele>235.0</ele><time>2026-04-02T13:15:38.51Z</time></trkpt><trkpt lat="45.6587039" lon="9.4236337"><ele>234.99999999999997</ele><time>2026-04-02T13:15:39.511Z</time></trkpt><trkpt lat="45.6586473" lon="9.4235864"><ele>235.0</ele><time>2026-04-02T13:15:40.51Z</time></trkpt><trkpt lat="45.6585839" lon="9.4235251"><ele>235.0</ele><time>2026-04-02T13:15:41.51Z</time></trkpt><trkpt lat="45.6585227" lon="9.4234666"><ele>234.99999999999997</ele><time>2026-04-02T13:15:42.511Z</time></trkpt><trkpt lat="45.6584607" lon="9.4234118"><ele>235.0</ele><time>2026-04-02T13:15:43.51Z</time></trkpt><trkpt lat="45.6584022" lon="9.4233604"><ele>235.0</ele><time>2026-04-02T13:15:44.511Z</time></trkpt><trkpt lat="45.6583386" lon="9.4233068"><ele>234.99999999999997</ele><time>2026-04-02T13:15:45.511Z</time></trkpt><trkpt lat="45.658281" lon="9.423256"><ele>235.0</ele><time>2026-04-02T13:15:46.51Z</time></trkpt><trkpt lat="45.6582211" lon="9.4232117"><ele>235.0</ele><time>2026-04-02T13:15:47.511Z</time></trkpt><trkpt lat="45.6581598" lon="9.423168"><ele>235.0</ele><time>2026-04-02T13:15:48.511Z</time></trkpt><trkpt lat="45.6581011" lon="9.4231295"><ele>234.99999999999997</ele><time>2026-04-02T13:15:49.51Z</time></trkpt><trkpt lat="45.6580387" lon="9.4230954"><ele>235.0</ele><time>2026-04-02T13:15:50.51Z</time></trkpt><trkpt lat="45.6579717" lon="9.423064"><ele>235.0</ele><time>2026-04-02T13:15:51.51Z</time></trkpt><trkpt lat="45.6579091" lon="9.4230402"><ele>234.99999999999997</ele><time>2026-04-02T13:15:52.511Z</time></trkpt><trkpt lat="45.6578471" lon="9.4229947"><ele>235.0</ele><time>2026-04-02T13:15:53.511Z</time></trkpt><trkpt lat="45.6577795" lon="9.42301"><ele>235.0</ele><time>2026-04-02T13:15:54.51Z</time></trkpt><trkpt lat="45.6577169" lon="9.4229961"><ele>235.2</ele><time>2026-04-02T13:15:55.51Z</time></trkpt><trkpt lat="45.6575956" lon="9.4229918"><ele>235.4</ele><time>2026-04-02T13:15:57.511Z</time></trkpt><trkpt lat="45.6575273" lon="9.4229782"><ele>235.60000000000002</ele><time>2026-04-02T13:15:58.51Z</time></trkpt><trkpt lat="45.6573862" lon="9.422942"><ele>235.8</ele><time>2026-04-02T13:16:00.51Z</time></trkpt><trkpt lat="45.6572765" lon="9.4228891"><ele>236.0</ele><time>2026-04-02T13:16:02.51Z</time></trkpt><trkpt lat="45.6571986" lon="9.4228687"><ele>236.0</ele><time>2026-04-02T13:16:03.51Z</time></trkpt><trkpt lat="45.6571271" lon="9.4228514"><ele>236.0</ele><time>2026-04-02T13:16:04.511Z</time></trkpt><trkpt lat="45.6570555" lon="9.4228359"><ele>236.0</ele><time>2026-04-02T13:16:05.511Z</time></trkpt><trkpt lat="45.6569903" lon="9.4228048"><ele>236.0</ele><time>2026-04-02T13:16:06.51Z</time></trkpt><trkpt lat="45.6569296" lon="9.4227633"><ele>236.0</ele><time>2026-04-02T13:16:07.511Z</time></trkpt><trkpt lat="45.6568652" lon="9.4227339"><ele>236.0</ele><time>2026-04-02T13:16:08.511Z</time></trkpt><trkpt lat="45.6567901" lon="9.422709"><ele>236.0</ele><time>2026-04-02T13:16:09.511Z</time></trkpt><trkpt lat="45.6567143" lon="9.4226967"><ele>236.0</ele><time>2026-04-02T13:16:10.511Z</time></trkpt><trkpt lat="45.6566463" lon="9.4226653"><ele>236.0</ele><time>2026-04-02T13:16:11.51Z</time></trkpt><trkpt lat="45.6565782" lon="9.4226365"><ele>236.0</ele><time>2026-04-02T13:16:12.51Z</time></trkpt><trkpt lat="45.6565109" lon="9.4226038"><ele>236.0</ele><time>2026-04-02T13:16:13.51Z</time></trkpt><trkpt lat="45.6564431" lon="9.4225642"><ele>236.0</ele><time>2026-04-02T13:16:14.51Z</time></trkpt><trkpt lat="45.6563748" lon="9.4225373"><ele>236.0</ele><time>2026-04-02T13:16:15.51Z</time></trkpt><trkpt lat="45.6563121" lon="9.4225091"><ele>236.0</ele><time>2026-04-02T13:16:16.51Z</time></trkpt><trkpt lat="45.6561924" lon="9.422456"><ele>236.00000000000003</ele><time>2026-04-02T13:16:18.51Z</time></trkpt><trkpt lat="45.6561246" lon="9.4224225"><ele>236.0</ele><time>2026-04-02T13:16:19.511Z</time></trkpt><trkpt lat="45.6560417" lon="9.4223921"><ele>236.0</ele><time>2026-04-02T13:16:20.511Z</time></trkpt><trkpt lat="45.6559614" lon="9.4223491"><ele>236.0</ele><time>2026-04-02T13:16:21.51Z</time></trkpt><trkpt lat="45.6558969" lon="9.4223085"><ele>236.00000000000003</ele><time>2026-04-02T13:16:22.51Z</time></trkpt><trkpt lat="45.6558245" lon="9.4222715"><ele>236.0</ele><time>2026-04-02T13:16:23.511Z</time></trkpt><trkpt lat="45.6557752" lon="9.4222135"><ele>235.85714285714283</ele><time>2026-04-02T13:16:24.51Z</time></trkpt><trkpt lat="45.6557119" lon="9.4221603"><ele>235.71428571428572</ele><time>2026-04-02T13:16:25.51Z</time></trkpt><trkpt lat="45.6556352" lon="9.4221101"><ele>235.57142857142856</ele><time>2026-04-02T13:16:26.51Z</time></trkpt><trkpt lat="45.6555763" lon="9.4220502"><ele>235.42857142857142</ele><time>2026-04-02T13:16:27.511Z</time></trkpt><trkpt lat="45.6555153" lon="9.4220008"><ele>235.28571428571428</ele><time>2026-04-02T13:16:28.51Z</time></trkpt><trkpt lat="45.6554527" lon="9.4219373"><ele>235.14285714285714</ele><time>2026-04-02T13:16:29.51Z</time></trkpt><trkpt lat="45.6553911" lon="9.4218901"><ele>235.0</ele><time>2026-04-02T13:16:30.511Z</time></trkpt><trkpt lat="45.6553265" lon="9.4218309"><ele>235.16666666666666</ele><time>2026-04-02T13:16:31.511Z</time></trkpt><trkpt lat="45.6552594" lon="9.4217816"><ele>235.33333333333331</ele><time>2026-04-02T13:16:32.51Z</time></trkpt><trkpt lat="45.6551774" lon="9.4217543"><ele>235.5</ele><time>2026-04-02T13:16:33.51Z</time></trkpt><trkpt lat="45.6550943" lon="9.4217403"><ele>235.66666666666669</ele><time>2026-04-02T13:16:34.511Z</time></trkpt><trkpt lat="45.6550244" lon="9.4217148"><ele>235.83333333333334</ele><time>2026-04-02T13:16:35.511Z</time></trkpt><trkpt lat="45.6549365" lon="9.4216763"><ele>236.0</ele><time>2026-04-02T13:16:36.511Z</time></trkpt><trkpt lat="45.6548616" lon="9.4216629"><ele>236.0</ele><time>2026-04-02T13:16:37.511Z</time></trkpt><trkpt lat="45.6547899" lon="9.4216398"><ele>236.00000000000003</ele><time>2026-04-02T13:16:38.511Z</time></trkpt><trkpt lat="45.654656" lon="9.4216376"><ele>236.00000000000003</ele><time>2026-04-02T13:16:40.51Z</time></trkpt><trkpt lat="45.6545842" lon="9.421662"><ele>236.0</ele><time>2026-04-02T13:16:41.51Z</time></trkpt><trkpt lat="45.6545138" lon="9.4216775"><ele>236.0</ele><time>2026-04-02T13:16:42.511Z</time></trkpt><trkpt lat="45.6544084" lon="9.421698"><ele>235.83333333333334</ele><time>2026-04-02T13:16:44.511Z</time></trkpt><trkpt lat="45.6543124" lon="9.4217121"><ele>235.66666666666669</ele><time>2026-04-02T13:16:46.51Z</time></trkpt><trkpt lat="45.6542441" lon="9.4217094"><ele>235.5</ele><time>2026-04-02T13:16:47.511Z</time></trkpt><trkpt lat="45.6541717" lon="9.4217521"><ele>235.33333333333331</ele><time>2026-04-02T13:16:48.51Z</time></trkpt><trkpt lat="45.6540903" lon="9.4218004"><ele>235.16666666666666</ele><time>2026-04-02T13:16:49.51Z</time></trkpt><trkpt lat="45.6540184" lon="9.4218402"><ele>235.0</ele><time>2026-04-02T13:16:50.511Z</time></trkpt><trkpt lat="45.6539496" lon="9.4218666"><ele>234.99999999999997</ele><time>2026-04-02T13:16:51.51Z</time></trkpt><trkpt lat="45.653823" lon="9.4218768"><ele>235.0</ele><time>2026-04-02T13:16:53.51Z</time></trkpt><trkpt lat="45.6537555" lon="9.4218767"><ele>235.0</ele><time>2026-04-02T13:16:54.511Z</time></trkpt><trkpt lat="45.6536919" lon="9.4218727"><ele>235.0</ele><time>2026-04-02T13:16:55.511Z</time></trkpt><trkpt lat="45.6536268" lon="9.4218764"><ele>234.99999999999997</ele><time>2026-04-02T13:16:56.511Z</time></trkpt><trkpt lat="45.6535603" lon="9.4218821"><ele>235.0</ele><time>2026-04-02T13:16:57.51Z</time></trkpt><trkpt lat="45.6534786" lon="9.4218913"><ele>235.33333333333331</ele><time>2026-04-02T13:16:58.511Z</time></trkpt><trkpt lat="45.6534155" lon="9.4218888"><ele>235.66666666666666</ele><time>2026-04-02T13:16:59.51Z</time></trkpt><trkpt lat="45.6533487" lon="9.4219125"><ele>236.0</ele><time>2026-04-02T13:17:00.51Z</time></trkpt><trkpt lat="45.6532849" lon="9.421928"><ele>236.33333333333331</ele><time>2026-04-02T13:17:01.51Z</time></trkpt><trkpt lat="45.653219" lon="9.421939"><ele>236.66666666666666</ele><time>2026-04-02T13:17:02.51Z</time></trkpt><trkpt lat="45.6531106" lon="9.4219293"><ele>237.0</ele><time>2026-04-02T13:17:04.51Z</time></trkpt><trkpt lat="45.6529851" lon="9.4219377"><ele>237.0</ele><time>2026-04-02T13:17:06.51Z</time></trkpt><trkpt lat="45.6528858" lon="9.4219261"><ele>237.0</ele><time>2026-04-02T13:17:08.511Z</time></trkpt><trkpt lat="45.6528175" lon="9.4219241"><ele>237.0</ele><time>2026-04-02T13:17:09.511Z</time></trkpt><trkpt lat="45.6527526" lon="9.421924"><ele>237.0</ele><time>2026-04-02T13:17:10.51Z</time></trkpt><trkpt lat="45.6526365" lon="9.4218966"><ele>237.0</ele><time>2026-04-02T13:17:12.51Z</time></trkpt><trkpt lat="45.6525159" lon="9.4218596"><ele>237.16666666666666</ele><time>2026-04-02T13:17:14.511Z</time></trkpt><trkpt lat="45.6524348" lon="9.4218434"><ele>237.33333333333331</ele><time>2026-04-02T13:17:15.51Z</time></trkpt><trkpt lat="45.6523496" lon="9.421811"><ele>237.5</ele><time>2026-04-02T13:17:16.511Z</time></trkpt><trkpt lat="45.6522871" lon="9.4217831"><ele>237.66666666666666</ele><time>2026-04-02T13:17:17.51Z</time></trkpt><trkpt lat="45.6522152" lon="9.42176"><ele>237.83333333333331</ele><time>2026-04-02T13:17:18.51Z</time></trkpt><trkpt lat="45.6521326" lon="9.4217401"><ele>238.0</ele><time>2026-04-02T13:17:19.511Z</time></trkpt><trkpt lat="45.6520534" lon="9.4217117"><ele>237.99999999999997</ele><time>2026-04-02T13:17:20.51Z</time></trkpt><trkpt lat="45.6519742" lon="9.4216829"><ele>238.0</ele><time>2026-04-02T13:17:21.51Z</time></trkpt><trkpt lat="45.6518671" lon="9.4216371"><ele>238.0</ele><time>2026-04-02T13:17:23.511Z</time></trkpt><trkpt lat="45.6518053" lon="9.4216157"><ele>238.0</ele><time>2026-04-02T13:17:24.511Z</time></trkpt><trkpt lat="45.651718" lon="9.4216031"><ele>237.99999999999997</ele><time>2026-04-02T13:17:26.511Z</time></trkpt><trkpt lat="45.6516552" lon="9.421692"><ele>238.0</ele><time>2026-04-02T13:17:29.51Z</time></trkpt><trkpt lat="45.6516195" lon="9.4218212"><ele>237.5</ele><time>2026-04-02T13:17:31.511Z</time></trkpt><trkpt lat="45.651592" lon="9.4219884"><ele>237.0</ele><time>2026-04-02T13:17:33.51Z</time></trkpt><trkpt lat="45.6515861" lon="9.4221563"><ele>236.5</ele><time>2026-04-02T13:17:35.511Z</time></trkpt><trkpt lat="45.6515548" lon="9.4223097"><ele>236.0</ele><time>2026-04-02T13:17:37.51Z</time></trkpt><trkpt lat="45.651535" lon="9.4224573"><ele>235.4</ele><time>2026-04-02T13:17:39.51Z</time></trkpt><trkpt lat="45.6514742" lon="9.4225173"><ele>234.8</ele><time>2026-04-02T13:17:41.511Z</time></trkpt><trkpt lat="45.6513899" lon="9.4225249"><ele>234.20000000000002</ele><time>2026-04-02T13:17:43.511Z</time></trkpt><trkpt lat="45.6512876" lon="9.4225137"><ele>233.60000000000002</ele><time>2026-04-02T13:17:45.51Z</time></trkpt><trkpt lat="45.6511824" lon="9.4225154"><ele>233.0</ele><time>2026-04-02T13:17:47.51Z</time></trkpt><trkpt lat="45.6510878" lon="9.4225125"><ele>233.00000000000003</ele><time>2026-04-02T13:17:49.511Z</time></trkpt><trkpt lat="45.651007" lon="9.4225065"><ele>233.0</ele><time>2026-04-02T13:17:51.51Z</time></trkpt><trkpt lat="45.6509445" lon="9.4224796"><ele>233.0</ele><time>2026-04-02T13:17:52.511Z</time></trkpt><trkpt lat="45.6508803" lon="9.4224697"><ele>233.0</ele><time>2026-04-02T13:17:53.51Z</time></trkpt><trkpt lat="45.6507747" lon="9.4224254"><ele>233.00000000000003</ele><time>2026-04-02T13:17:55.511Z</time></trkpt><trkpt lat="45.6506999" lon="9.4224102"><ele>233.0</ele><time>2026-04-02T13:17:56.51Z</time></trkpt><trkpt lat="45.6505925" lon="9.4223864"><ele>233.0</ele><time>2026-04-02T13:17:58.511Z</time></trkpt><trkpt lat="45.6504876" lon="9.4223684"><ele>233.0</ele><time>2026-04-02T13:18:00.51Z</time></trkpt><trkpt lat="45.6503942" lon="9.4224083"><ele>233.0</ele><time>2026-04-02T13:18:02.51Z</time></trkpt><trkpt lat="45.6503074" lon="9.4224426"><ele>233.0</ele><time>2026-04-02T13:18:04.511Z</time></trkpt><trkpt lat="45.6501961" lon="9.4224621"><ele>233.0</ele><time>2026-04-02T13:18:06.511Z</time></trkpt><trkpt lat="45.6501089" lon="9.4224289"><ele>233.16666666666669</ele><time>2026-04-02T13:18:08.511Z</time></trkpt><trkpt lat="45.6500357" lon="9.4224127"><ele>233.33333333333334</ele><time>2026-04-02T13:18:10.51Z</time></trkpt><trkpt lat="45.6499244" lon="9.422395"><ele>233.5</ele><time>2026-04-02T13:18:12.51Z</time></trkpt><trkpt lat="45.6498609" lon="9.4223753"><ele>233.66666666666669</ele><time>2026-04-02T13:18:13.511Z</time></trkpt><trkpt lat="45.6497968" lon="9.422353"><ele>233.83333333333334</ele><time>2026-04-02T13:18:14.51Z</time></trkpt><trkpt lat="45.6496987" lon="9.4223279"><ele>234.0</ele><time>2026-04-02T13:18:15.51Z</time></trkpt><trkpt lat="45.6495679" lon="9.4223228"><ele>234.0</ele><time>2026-04-02T13:18:17.51Z</time></trkpt><trkpt lat="45.6495009" lon="9.4223127"><ele>233.99999999999997</ele><time>2026-04-02T13:18:18.51Z</time></trkpt><trkpt lat="45.6493707" lon="9.4223023"><ele>233.99999999999997</ele><time>2026-04-02T13:18:20.51Z</time></trkpt><trkpt lat="45.649303" lon="9.4222938"><ele>234.0</ele><time>2026-04-02T13:18:21.511Z</time></trkpt><trkpt lat="45.649235" lon="9.4222866"><ele>234.0</ele><time>2026-04-02T13:18:22.511Z</time></trkpt><trkpt lat="45.6491191" lon="9.4222708"><ele>233.6</ele><time>2026-04-02T13:18:24.51Z</time></trkpt><trkpt lat="45.6490104" lon="9.4222724"><ele>233.2</ele><time>2026-04-02T13:18:26.51Z</time></trkpt><trkpt lat="45.6489496" lon="9.4223507"><ele>232.79999999999998</ele><time>2026-04-02T13:18:28.51Z</time></trkpt><trkpt lat="45.648951" lon="9.4224773"><ele>232.39999999999998</ele><time>2026-04-02T13:18:30.511Z</time></trkpt><trkpt lat="45.6489469" lon="9.4226033"><ele>232.0</ele><time>2026-04-02T13:18:32.511Z</time></trkpt><trkpt lat="45.6489531" lon="9.4227242"><ele>231.99999999999997</ele><time>2026-04-02T13:18:34.51Z</time></trkpt><trkpt lat="45.648957" lon="9.4228432"><ele>232.0</ele><time>2026-04-02T13:18:36.51Z</time></trkpt><trkpt lat="45.6489579" lon="9.4229654"><ele>232.0</ele><time>2026-04-02T13:18:38.51Z</time></trkpt><trkpt lat="45.6489633" lon="9.4230936"><ele>232.0</ele><time>2026-04-02T13:18:40.511Z</time></trkpt><trkpt lat="45.6489716" lon="9.4232217"><ele>231.99999999999997</ele><time>2026-04-02T13:18:42.51Z</time></trkpt><trkpt lat="45.6489651" lon="9.423329"><ele>232.0</ele><time>2026-04-02T13:18:44.511Z</time></trkpt><trkpt lat="45.6488999" lon="9.4233896"><ele>233.0</ele><time>2026-04-02T13:18:46.511Z</time></trkpt><trkpt lat="45.6487977" lon="9.4234085"><ele>234.0</ele><time>2026-04-02T13:18:48.511Z</time></trkpt><trkpt lat="45.648689" lon="9.4234219"><ele>235.0</ele><time>2026-04-02T13:18:50.51Z</time></trkpt><trkpt lat="45.6485748" lon="9.4234311"><ele>236.0</ele><time>2026-04-02T13:18:52.511Z</time></trkpt><trkpt lat="45.6484611" lon="9.4234407"><ele>237.0</ele><time>2026-04-02T13:18:54.51Z</time></trkpt><trkpt lat="45.6483497" lon="9.4234513"><ele>237.0</ele><time>2026-04-02T13:18:56.51Z</time></trkpt><trkpt lat="45.6482872" lon="9.4234355"><ele>237.0</ele><time>2026-04-02T13:18:57.511Z</time></trkpt><trkpt lat="45.6481653" lon="9.4234454"><ele>237.0</ele><time>2026-04-02T13:18:59.51Z</time></trkpt><trkpt lat="45.6480529" lon="9.4234668"><ele>237.0</ele><time>2026-04-02T13:19:01.511Z</time></trkpt><trkpt lat="45.6479371" lon="9.4234843"><ele>237.0</ele><time>2026-04-02T13:19:03.511Z</time></trkpt><trkpt lat="45.6478197" lon="9.4234944"><ele>237.2</ele><time>2026-04-02T13:19:05.51Z</time></trkpt><trkpt lat="45.6477049" lon="9.4235101"><ele>237.39999999999998</ele><time>2026-04-02T13:19:07.51Z</time></trkpt><trkpt lat="45.647595" lon="9.4235165"><ele>237.60000000000002</ele><time>2026-04-02T13:19:09.51Z</time></trkpt><trkpt lat="45.6474838" lon="9.4235227"><ele>237.8</ele><time>2026-04-02T13:19:11.51Z</time></trkpt><trkpt lat="45.6473779" lon="9.4235107"><ele>238.0</ele><time>2026-04-02T13:19:13.511Z</time></trkpt><trkpt lat="45.6472719" lon="9.423498"><ele>238.0</ele><time>2026-04-02T13:19:15.511Z</time></trkpt><trkpt lat="45.6471687" lon="9.4234582"><ele>238.0</ele><time>2026-04-02T13:19:17.511Z</time></trkpt><trkpt lat="45.6470557" lon="9.4234041"><ele>238.0</ele><time>2026-04-02T13:19:19.511Z</time></trkpt><trkpt lat="45.6469429" lon="9.4233303"><ele>238.0</ele><time>2026-04-02T13:19:21.51Z</time></trkpt><trkpt lat="45.6468445" lon="9.4232567"><ele>238.25</ele><time>2026-04-02T13:19:23.51Z</time></trkpt><trkpt lat="45.6467393" lon="9.4231793"><ele>238.5</ele><time>2026-04-02T13:19:25.511Z</time></trkpt><trkpt lat="45.646645" lon="9.4230984"><ele>238.75</ele><time>2026-04-02T13:19:27.511Z</time></trkpt><trkpt lat="45.6465445" lon="9.4230283"><ele>239.0</ele><time>2026-04-02T13:19:29.51Z</time></trkpt><trkpt lat="45.6464433" lon="9.4229519"><ele>239.25</ele><time>2026-04-02T13:19:31.51Z</time></trkpt><trkpt lat="45.6463438" lon="9.4228615"><ele>239.5</ele><time>2026-04-02T13:19:33.511Z</time></trkpt><trkpt lat="45.6462478" lon="9.4227688"><ele>239.75</ele><time>2026-04-02T13:19:35.51Z</time></trkpt><trkpt lat="45.6461441" lon="9.4226834"><ele>240.0</ele><time>2026-04-02T13:19:37.51Z</time></trkpt><trkpt lat="45.646037" lon="9.422598"><ele>240.0</ele><time>2026-04-02T13:19:39.511Z</time></trkpt><trkpt lat="45.6459339" lon="9.4225001"><ele>240.0</ele><time>2026-04-02T13:19:41.51Z</time></trkpt><trkpt lat="45.6458794" lon="9.4224521"><ele>240.0</ele><time>2026-04-02T13:19:42.511Z</time></trkpt><trkpt lat="45.6457709" lon="9.4223742"><ele>240.0</ele><time>2026-04-02T13:19:44.511Z</time></trkpt><trkpt lat="45.6456665" lon="9.4222655"><ele>240.0</ele><time>2026-04-02T13:19:46.511Z</time></trkpt><trkpt lat="45.6455658" lon="9.4221508"><ele>239.66666666666666</ele><time>2026-04-02T13:19:48.51Z</time></trkpt><trkpt lat="45.6455191" lon="9.4220865"><ele>239.33333333333331</ele><time>2026-04-02T13:19:49.511Z</time></trkpt><trkpt lat="45.6454452" lon="9.4219515"><ele>239.0</ele><time>2026-04-02T13:19:51.511Z</time></trkpt><trkpt lat="45.6453791" lon="9.4218039"><ele>238.66666666666666</ele><time>2026-04-02T13:19:53.511Z</time></trkpt><trkpt lat="45.6453463" lon="9.4217252"><ele>238.33333333333331</ele><time>2026-04-02T13:19:54.51Z</time></trkpt><trkpt lat="45.6453171" lon="9.4216437"><ele>238.0</ele><time>2026-04-02T13:19:55.51Z</time></trkpt><trkpt lat="45.6452871" lon="9.4215629"><ele>238.0</ele><time>2026-04-02T13:19:56.51Z</time></trkpt><trkpt lat="45.6452556" lon="9.4214795"><ele>238.0</ele><time>2026-04-02T13:19:57.511Z</time></trkpt><trkpt lat="45.6452224" lon="9.421401"><ele>238.0</ele><time>2026-04-02T13:19:58.511Z</time></trkpt><trkpt lat="45.6451899" lon="9.4213151"><ele>238.0</ele><time>2026-04-02T13:19:59.511Z</time></trkpt><trkpt lat="45.645158" lon="9.4212315"><ele>238.0</ele><time>2026-04-02T13:20:00.51Z</time></trkpt><trkpt lat="45.6451277" lon="9.4211493"><ele>238.0</ele><time>2026-04-02T13:20:01.51Z</time></trkpt><trkpt lat="45.6450899" lon="9.4210548"><ele>238.0</ele><time>2026-04-02T13:20:02.51Z</time></trkpt><trkpt lat="45.6450532" lon="9.4209545"><ele>237.83333333333331</ele><time>2026-04-02T13:20:03.51Z</time></trkpt><trkpt lat="45.6450141" lon="9.4208496"><ele>237.66666666666666</ele><time>2026-04-02T13:20:04.51Z</time></trkpt><trkpt lat="45.6449723" lon="9.4207493"><ele>237.5</ele><time>2026-04-02T13:20:05.51Z</time></trkpt><trkpt lat="45.6449358" lon="9.4206432"><ele>237.33333333333331</ele><time>2026-04-02T13:20:06.511Z</time></trkpt><trkpt lat="45.6448987" lon="9.420538"><ele>237.16666666666666</ele><time>2026-04-02T13:20:07.511Z</time></trkpt><trkpt lat="45.6448656" lon="9.4204345"><ele>237.0</ele><time>2026-04-02T13:20:08.51Z</time></trkpt><trkpt lat="45.6448351" lon="9.4203392"><ele>236.33333333333334</ele><time>2026-04-02T13:20:09.511Z</time></trkpt><trkpt lat="45.6448041" lon="9.4202506"><ele>235.66666666666669</ele><time>2026-04-02T13:20:10.511Z</time></trkpt><trkpt lat="45.6447635" lon="9.4201372"><ele>235.0</ele><time>2026-04-02T13:20:11.511Z</time></trkpt><trkpt lat="45.6447213" lon="9.4200251"><ele>234.33333333333334</ele><time>2026-04-02T13:20:12.51Z</time></trkpt><trkpt lat="45.644675" lon="9.4199302"><ele>233.66666666666669</ele><time>2026-04-02T13:20:13.51Z</time></trkpt><trkpt lat="45.6446333" lon="9.4198214"><ele>233.0</ele><time>2026-04-02T13:20:14.51Z</time></trkpt><trkpt lat="45.644591" lon="9.4197239"><ele>232.50000000000003</ele><time>2026-04-02T13:20:15.511Z</time></trkpt><trkpt lat="45.6445524" lon="9.4196202"><ele>232.0</ele><time>2026-04-02T13:20:16.511Z</time></trkpt><trkpt lat="45.6445121" lon="9.4195258"><ele>231.5</ele><time>2026-04-02T13:20:17.511Z</time></trkpt><trkpt lat="45.6444783" lon="9.4194277"><ele>231.0</ele><time>2026-04-02T13:20:18.511Z</time></trkpt><trkpt lat="45.6444461" lon="9.4193199"><ele>230.50000000000003</ele><time>2026-04-02T13:20:19.51Z</time></trkpt><trkpt lat="45.6444106" lon="9.419223"><ele>230.0</ele><time>2026-04-02T13:20:20.511Z</time></trkpt><trkpt lat="45.6443746" lon="9.4191302"><ele>229.99999999999997</ele><time>2026-04-02T13:20:21.51Z</time></trkpt><trkpt lat="45.6443414" lon="9.4190381"><ele>230.0</ele><time>2026-04-02T13:20:22.51Z</time></trkpt><trkpt lat="45.6443102" lon="9.4189344"><ele>229.99999999999997</ele><time>2026-04-02T13:20:23.51Z</time></trkpt><trkpt lat="45.6442843" lon="9.4188355"><ele>229.99999999999997</ele><time>2026-04-02T13:20:24.511Z</time></trkpt><trkpt lat="45.6442557" lon="9.4187409"><ele>230.0</ele><time>2026-04-02T13:20:25.51Z</time></trkpt><trkpt lat="45.6442235" lon="9.4186513"><ele>229.99999999999997</ele><time>2026-04-02T13:20:26.51Z</time></trkpt><trkpt lat="45.6441953" lon="9.4185498"><ele>229.99999999999997</ele><time>2026-04-02T13:20:27.51Z</time></trkpt><trkpt lat="45.6441677" lon="9.4184609"><ele>229.6</ele><time>2026-04-02T13:20:28.511Z</time></trkpt><trkpt lat="45.6441318" lon="9.4183769"><ele>229.2</ele><time>2026-04-02T13:20:29.511Z</time></trkpt><trkpt lat="45.6440623" lon="9.4182322"><ele>228.8</ele><time>2026-04-02T13:20:31.511Z</time></trkpt><trkpt lat="45.6439702" lon="9.4181083"><ele>228.4</ele><time>2026-04-02T13:20:33.511Z</time></trkpt><trkpt lat="45.6439102" lon="9.4180571"><ele>228.0</ele><time>2026-04-02T13:20:34.51Z</time></trkpt><trkpt lat="45.643853" lon="9.4180061"><ele>228.14285714285714</ele><time>2026-04-02T13:20:35.51Z</time></trkpt><trkpt lat="45.6437953" lon="9.4179565"><ele>228.28571428571428</ele><time>2026-04-02T13:20:36.51Z</time></trkpt><trkpt lat="45.6437374" lon="9.4179148"><ele>228.42857142857142</ele><time>2026-04-02T13:20:37.51Z</time></trkpt><trkpt lat="45.6436729" lon="9.4178754"><ele>228.57142857142856</ele><time>2026-04-02T13:20:38.51Z</time></trkpt><trkpt lat="45.6436046" lon="9.4178334"><ele>228.71428571428572</ele><time>2026-04-02T13:20:39.511Z</time></trkpt><trkpt lat="45.6435395" lon="9.4177838"><ele>228.85714285714283</ele><time>2026-04-02T13:20:40.511Z</time></trkpt><trkpt lat="45.6434753" lon="9.4177353"><ele>229.0</ele><time>2026-04-02T13:20:41.51Z</time></trkpt><trkpt lat="45.6434105" lon="9.4176968"><ele>229.0</ele><time>2026-04-02T13:20:42.51Z</time></trkpt><trkpt lat="45.6433514" lon="9.4176493"><ele>229.0</ele><time>2026-04-02T13:20:43.511Z</time></trkpt><trkpt lat="45.6432852" lon="9.4176038"><ele>229.0</ele><time>2026-04-02T13:20:44.51Z</time></trkpt><trkpt lat="45.6432237" lon="9.4175501"><ele>229.0</ele><time>2026-04-02T13:20:45.511Z</time></trkpt><trkpt lat="45.6431547" lon="9.4174996"><ele>229.0</ele><time>2026-04-02T13:20:46.511Z</time></trkpt><trkpt lat="45.6430843" lon="9.417443"><ele>229.0</ele><time>2026-04-02T13:20:47.51Z</time></trkpt><trkpt lat="45.6430233" lon="9.4174035"><ele>229.0</ele><time>2026-04-02T13:20:48.511Z</time></trkpt><trkpt lat="45.6429607" lon="9.4173584"><ele>229.0</ele><time>2026-04-02T13:20:49.511Z</time></trkpt><trkpt lat="45.6428946" lon="9.4173153"><ele>229.0</ele><time>2026-04-02T13:20:50.511Z</time></trkpt><trkpt lat="45.6428298" lon="9.4172689"><ele>229.0</ele><time>2026-04-02T13:20:51.511Z</time></trkpt><trkpt lat="45.6427659" lon="9.4172253"><ele>229.0</ele><time>2026-04-02T13:20:52.511Z</time></trkpt><trkpt lat="45.6426958" lon="9.4171774"><ele>229.0</ele><time>2026-04-02T13:20:53.511Z</time></trkpt><trkpt lat="45.6426284" lon="9.4171387"><ele>229.0</ele><time>2026-04-02T13:20:54.511Z</time></trkpt><trkpt lat="45.6425643" lon="9.4170888"><ele>229.0</ele><time>2026-04-02T13:20:55.51Z</time></trkpt><trkpt lat="45.6424996" lon="9.4170415"><ele>228.99999999999997</ele><time>2026-04-02T13:20:56.51Z</time></trkpt><trkpt lat="45.6424347" lon="9.4169953"><ele>229.0</ele><time>2026-04-02T13:20:57.511Z</time></trkpt><trkpt lat="45.6423588" lon="9.4169468"><ele>229.0</ele><time>2026-04-02T13:20:58.511Z</time></trkpt><trkpt lat="45.6422909" lon="9.4168894"><ele>229.0</ele><time>2026-04-02T13:20:59.511Z</time></trkpt><trkpt lat="45.6422222" lon="9.4168429"><ele>228.99999999999997</ele><time>2026-04-02T13:21:00.51Z</time></trkpt><trkpt lat="45.6421569" lon="9.416784"><ele>229.0</ele><time>2026-04-02T13:21:01.51Z</time></trkpt><trkpt lat="45.6420835" lon="9.4167384"><ele>228.99999999999997</ele><time>2026-04-02T13:21:02.51Z</time></trkpt><trkpt lat="45.6420127" lon="9.4166878"><ele>229.0</ele><time>2026-04-02T13:21:03.511Z</time></trkpt><trkpt lat="45.6419423" lon="9.4166458"><ele>229.0</ele><time>2026-04-02T13:21:04.511Z</time></trkpt><trkpt lat="45.6418754" lon="9.4166005"><ele>229.0</ele><time>2026-04-02T13:21:05.51Z</time></trkpt><trkpt lat="45.6418042" lon="9.4165478"><ele>228.99999999999997</ele><time>2026-04-02T13:21:06.51Z</time></trkpt><trkpt lat="45.6417349" lon="9.4165005"><ele>229.0</ele><time>2026-04-02T13:21:07.511Z</time></trkpt><trkpt lat="45.6416659" lon="9.4164532"><ele>228.99999999999997</ele><time>2026-04-02T13:21:08.511Z</time></trkpt><trkpt lat="45.6416003" lon="9.4164106"><ele>229.0</ele><time>2026-04-02T13:21:09.511Z</time></trkpt><trkpt lat="45.6415385" lon="9.4163686"><ele>229.0</ele><time>2026-04-02T13:21:10.51Z</time></trkpt><trkpt lat="45.6414765" lon="9.4163234"><ele>229.0</ele><time>2026-04-02T13:21:11.51Z</time></trkpt><trkpt lat="45.6414155" lon="9.4162924"><ele>228.99999999999997</ele><time>2026-04-02T13:21:12.511Z</time></trkpt><trkpt lat="45.6413102" lon="9.4162383"><ele>229.0</ele><time>2026-04-02T13:21:14.511Z</time></trkpt><trkpt lat="45.6412545" lon="9.416317"><ele>228.99999999999997</ele><time>2026-04-02T13:21:15.511Z</time></trkpt><trkpt lat="45.6412487" lon="9.4164099"><ele>229.0</ele><time>2026-04-02T13:21:16.511Z</time></trkpt><trkpt lat="45.6412027" lon="9.4165597"><ele>229.0</ele><time>2026-04-02T13:21:18.511Z</time></trkpt><trkpt lat="45.6411469" lon="9.4167241"><ele>229.0</ele><time>2026-04-02T13:21:20.51Z</time></trkpt><trkpt lat="45.6411193" lon="9.416813"><ele>228.99999999999997</ele><time>2026-04-02T13:21:21.51Z</time></trkpt><trkpt lat="45.6410938" lon="9.4168997"><ele>229.0</ele><time>2026-04-02T13:21:22.51Z</time></trkpt><trkpt lat="45.6410629" lon="9.4169875"><ele>228.99999999999997</ele><time>2026-04-02T13:21:23.51Z</time></trkpt><trkpt lat="45.6410309" lon="9.4170739"><ele>229.0</ele><time>2026-04-02T13:21:24.511Z</time></trkpt><trkpt lat="45.6409755" lon="9.417228"><ele>229.0</ele><time>2026-04-02T13:21:26.51Z</time></trkpt><trkpt lat="45.6409474" lon="9.4173087"><ele>229.0</ele><time>2026-04-02T13:21:27.511Z</time></trkpt><trkpt lat="45.6408862" lon="9.4174629"><ele>228.99999999999997</ele><time>2026-04-02T13:21:29.51Z</time></trkpt><trkpt lat="45.6408586" lon="9.4175498"><ele>229.0</ele><time>2026-04-02T13:21:30.51Z</time></trkpt><trkpt lat="45.6408291" lon="9.4176308"><ele>228.99999999999997</ele><time>2026-04-02T13:21:31.511Z</time></trkpt><trkpt lat="45.6407609" lon="9.4177872"><ele>229.0</ele><time>2026-04-02T13:21:33.511Z</time></trkpt><trkpt lat="45.6407231" lon="9.4178621"><ele>229.0</ele><time>2026-04-02T13:21:34.511Z</time></trkpt><trkpt lat="45.640682" lon="9.4179306"><ele>229.0</ele><time>2026-04-02T13:21:35.51Z</time></trkpt><trkpt lat="45.6406289" lon="9.4179991"><ele>228.99999999999997</ele><time>2026-04-02T13:21:36.51Z</time></trkpt><trkpt lat="45.6405764" lon="9.418054"><ele>229.0</ele><time>2026-04-02T13:21:37.51Z</time></trkpt><trkpt lat="45.6405211" lon="9.4181073"><ele>229.0</ele><time>2026-04-02T13:21:38.51Z</time></trkpt><trkpt lat="45.6404542" lon="9.4181597"><ele>229.0</ele><time>2026-04-02T13:21:39.511Z</time></trkpt><trkpt lat="45.6403839" lon="9.4182046"><ele>229.0</ele><time>2026-04-02T13:21:40.51Z</time></trkpt><trkpt lat="45.6403243" lon="9.4182455"><ele>229.0</ele><time>2026-04-02T13:21:41.51Z</time></trkpt><trkpt lat="45.6402529" lon="9.41827"><ele>229.0</ele><time>2026-04-02T13:21:42.51Z</time></trkpt><trkpt lat="45.6401878" lon="9.4182841"><ele>229.0</ele><time>2026-04-02T13:21:43.51Z</time></trkpt><trkpt lat="45.6401178" lon="9.4182885"><ele>229.0</ele><time>2026-04-02T13:21:44.511Z</time></trkpt><trkpt lat="45.6400464" lon="9.4182725"><ele>228.99999999999997</ele><time>2026-04-02T13:21:45.511Z</time></trkpt><trkpt lat="45.6399732" lon="9.4182614"><ele>229.0</ele><time>2026-04-02T13:21:46.511Z</time></trkpt><trkpt lat="45.6399027" lon="9.4182463"><ele>229.0</ele><time>2026-04-02T13:21:47.51Z</time></trkpt><trkpt lat="45.6398228" lon="9.418236"><ele>229.0</ele><time>2026-04-02T13:21:48.511Z</time></trkpt><trkpt lat="45.639749" lon="9.4182205"><ele>228.99999999999997</ele><time>2026-04-02T13:21:49.51Z</time></trkpt><trkpt lat="45.6396725" lon="9.4182153"><ele>229.0</ele><time>2026-04-02T13:21:50.511Z</time></trkpt><trkpt lat="45.6395975" lon="9.4181927"><ele>228.99999999999997</ele><time>2026-04-02T13:21:51.511Z</time></trkpt><trkpt lat="45.6395067" lon="9.418186"><ele>229.0</ele><time>2026-04-02T13:21:52.51Z</time></trkpt><trkpt lat="45.6394334" lon="9.4181671"><ele>229.0</ele><time>2026-04-02T13:21:53.511Z</time></trkpt><trkpt lat="45.6393606" lon="9.41815"><ele>229.0</ele><time>2026-04-02T13:21:54.511Z</time></trkpt><trkpt lat="45.6392877" lon="9.418129"><ele>228.99999999999997</ele><time>2026-04-02T13:21:55.51Z</time></trkpt><trkpt lat="45.6392171" lon="9.4181163"><ele>229.0</ele><time>2026-04-02T13:21:56.51Z</time></trkpt><trkpt lat="45.6391479" lon="9.4180983"><ele>228.66666666666666</ele><time>2026-04-02T13:21:57.51Z</time></trkpt><trkpt lat="45.6390738" lon="9.4180805"><ele>228.33333333333331</ele><time>2026-04-02T13:21:58.511Z</time></trkpt><trkpt lat="45.6390043" lon="9.4180648"><ele>228.0</ele><time>2026-04-02T13:21:59.51Z</time></trkpt><trkpt lat="45.6389339" lon="9.4180492"><ele>227.66666666666669</ele><time>2026-04-02T13:22:00.511Z</time></trkpt><trkpt lat="45.6388585" lon="9.4180389"><ele>227.33333333333334</ele><time>2026-04-02T13:22:01.511Z</time></trkpt><trkpt lat="45.6387966" lon="9.4180222"><ele>227.0</ele><time>2026-04-02T13:22:02.51Z</time></trkpt><trkpt lat="45.6386836" lon="9.4179968"><ele>226.33333333333334</ele><time>2026-04-02T13:22:04.51Z</time></trkpt><trkpt lat="45.6386053" lon="9.4179934"><ele>225.66666666666669</ele><time>2026-04-02T13:22:06.51Z</time></trkpt><trkpt lat="45.6385367" lon="9.4179986"><ele>225.0</ele><time>2026-04-02T13:22:08.51Z</time></trkpt><trkpt lat="45.6384563" lon="9.4180513"><ele>224.33333333333331</ele><time>2026-04-02T13:22:10.511Z</time></trkpt><trkpt lat="45.6383946" lon="9.4180708"><ele>223.66666666666666</ele><time>2026-04-02T13:22:11.511Z</time></trkpt><trkpt lat="45.6382835" lon="9.4180985"><ele>223.0</ele><time>2026-04-02T13:22:13.511Z</time></trkpt><trkpt lat="45.6382182" lon="9.4181156"><ele>223.0</ele><time>2026-04-02T13:22:14.51Z</time></trkpt><trkpt lat="45.6381539" lon="9.4181191"><ele>223.0</ele><time>2026-04-02T13:22:15.51Z</time></trkpt><trkpt lat="45.6380872" lon="9.4181083"><ele>223.0</ele><time>2026-04-02T13:22:16.51Z</time></trkpt><trkpt lat="45.6379607" lon="9.4180734"><ele>223.0</ele><time>2026-04-02T13:22:18.511Z</time></trkpt><trkpt lat="45.6378948" lon="9.4180544"><ele>223.0</ele><time>2026-04-02T13:22:19.511Z</time></trkpt><trkpt lat="45.6377665" lon="9.4180186"><ele>223.16666666666666</ele><time>2026-04-02T13:22:21.511Z</time></trkpt><trkpt lat="45.6377011" lon="9.4180003"><ele>223.33333333333331</ele><time>2026-04-02T13:22:22.511Z</time></trkpt><trkpt lat="45.6375754" lon="9.4179433"><ele>223.5</ele><time>2026-04-02T13:22:24.51Z</time></trkpt><trkpt lat="45.6375091" lon="9.4179092"><ele>223.66666666666669</ele><time>2026-04-02T13:22:25.51Z</time></trkpt><trkpt lat="45.6374542" lon="9.4178546"><ele>223.83333333333334</ele><time>2026-04-02T13:22:26.511Z</time></trkpt><trkpt lat="45.6373562" lon="9.4177921"><ele>224.0</ele><time>2026-04-02T13:22:28.51Z</time></trkpt><trkpt lat="45.6372725" lon="9.4178364"><ele>224.0</ele><time>2026-04-02T13:22:30.511Z</time></trkpt><trkpt lat="45.6371669" lon="9.4178774"><ele>223.99999999999997</ele><time>2026-04-02T13:22:32.511Z</time></trkpt><trkpt lat="45.637042" lon="9.4178679"><ele>223.99999999999997</ele><time>2026-04-02T13:22:34.51Z</time></trkpt><trkpt lat="45.63693" lon="9.4178121"><ele>224.0</ele><time>2026-04-02T13:22:36.51Z</time></trkpt><trkpt lat="45.636865" lon="9.4177748"><ele>224.0</ele><time>2026-04-02T13:22:37.51Z</time></trkpt><trkpt lat="45.6368005" lon="9.4177464"><ele>223.83333333333334</ele><time>2026-04-02T13:22:38.511Z</time></trkpt><trkpt lat="45.6367404" lon="9.4177182"><ele>223.66666666666669</ele><time>2026-04-02T13:22:39.51Z</time></trkpt><trkpt lat="45.6366705" lon="9.4176884"><ele>223.5</ele><time>2026-04-02T13:22:40.511Z</time></trkpt><trkpt lat="45.6366084" lon="9.4176426"><ele>223.33333333333331</ele><time>2026-04-02T13:22:41.51Z</time></trkpt><trkpt lat="45.636493" lon="9.4175748"><ele>223.16666666666666</ele><time>2026-04-02T13:22:43.511Z</time></trkpt><trkpt lat="45.6363961" lon="9.4175348"><ele>223.0</ele><time>2026-04-02T13:22:45.51Z</time></trkpt><trkpt lat="45.6363097" lon="9.4175502"><ele>223.0</ele><time>2026-04-02T13:22:48.51Z</time></trkpt><trkpt lat="45.6362642" lon="9.4176507"><ele>223.0</ele><time>2026-04-02T13:22:50.51Z</time></trkpt><trkpt lat="45.6362105" lon="9.4177762"><ele>223.0</ele><time>2026-04-02T13:22:52.511Z</time></trkpt><trkpt lat="45.6361527" lon="9.4179193"><ele>223.0</ele><time>2026-04-02T13:22:54.51Z</time></trkpt><trkpt lat="45.6360982" lon="9.4180644"><ele>223.0</ele><time>2026-04-02T13:22:56.511Z</time></trkpt><trkpt lat="45.6360343" lon="9.4181998"><ele>223.4</ele><time>2026-04-02T13:22:58.511Z</time></trkpt><trkpt lat="45.6359716" lon="9.418342"><ele>223.8</ele><time>2026-04-02T13:23:00.511Z</time></trkpt><trkpt lat="45.6359133" lon="9.4184923"><ele>224.2</ele><time>2026-04-02T13:23:02.511Z</time></trkpt><trkpt lat="45.6358433" lon="9.4186138"><ele>224.6</ele><time>2026-04-02T13:23:04.51Z</time></trkpt><trkpt lat="45.635789" lon="9.4187159"><ele>225.0</ele><time>2026-04-02T13:23:06.51Z</time></trkpt><trkpt lat="45.6357607" lon="9.4188247"><ele>225.4</ele><time>2026-04-02T13:23:08.51Z</time></trkpt><trkpt lat="45.6357242" lon="9.4189272"><ele>225.8</ele><time>2026-04-02T13:23:10.51Z</time></trkpt><trkpt lat="45.6356639" lon="9.4190345"><ele>226.2</ele><time>2026-04-02T13:23:12.511Z</time></trkpt><trkpt lat="45.6356113" lon="9.4191728"><ele>226.6</ele><time>2026-04-02T13:23:14.511Z</time></trkpt><trkpt lat="45.6355811" lon="9.419309"><ele>227.0</ele><time>2026-04-02T13:23:16.51Z</time></trkpt><trkpt lat="45.6355411" lon="9.4194018"><ele>227.0</ele><time>2026-04-02T13:23:18.511Z</time></trkpt><trkpt lat="45.6354501" lon="9.4194265"><ele>227.0</ele><time>2026-04-02T13:23:22.511Z</time></trkpt><trkpt lat="45.6353527" lon="9.4193692"><ele>227.0</ele><time>2026-04-02T13:23:24.51Z</time></trkpt><trkpt lat="45.6352352" lon="9.4193045"><ele>227.0</ele><time>2026-04-02T13:23:26.511Z</time></trkpt><trkpt lat="45.6351653" lon="9.4192692"><ele>227.0</ele><time>2026-04-02T13:23:27.511Z</time></trkpt><trkpt lat="45.6350581" lon="9.4192011"><ele>227.39999999999998</ele><time>2026-04-02T13:23:29.51Z</time></trkpt><trkpt lat="45.6349362" lon="9.4191316"><ele>227.79999999999998</ele><time>2026-04-02T13:23:31.51Z</time></trkpt><trkpt lat="45.634824" lon="9.4190565"><ele>228.2</ele><time>2026-04-02T13:23:33.511Z</time></trkpt><trkpt lat="45.6347564" lon="9.419021"><ele>228.6</ele><time>2026-04-02T13:23:34.51Z</time></trkpt><trkpt lat="45.634693" lon="9.4189874"><ele>229.0</ele><time>2026-04-02T13:23:35.511Z</time></trkpt><trkpt lat="45.634632" lon="9.418944"><ele>229.0</ele><time>2026-04-02T13:23:36.51Z</time></trkpt><trkpt lat="45.6345699" lon="9.4189059"><ele>229.0</ele><time>2026-04-02T13:23:37.511Z</time></trkpt><trkpt lat="45.6345079" lon="9.418858"><ele>229.0</ele><time>2026-04-02T13:23:38.511Z</time></trkpt><trkpt lat="45.6344428" lon="9.4188215"><ele>229.0</ele><time>2026-04-02T13:23:39.51Z</time></trkpt><trkpt lat="45.6343795" lon="9.4187946"><ele>229.0</ele><time>2026-04-02T13:23:40.51Z</time></trkpt><trkpt lat="45.6343117" lon="9.4187715"><ele>229.0</ele><time>2026-04-02T13:23:41.51Z</time></trkpt><trkpt lat="45.6342444" lon="9.4187498"><ele>229.0</ele><time>2026-04-02T13:23:42.511Z</time></trkpt><trkpt lat="45.6341808" lon="9.4187259"><ele>228.28571428571428</ele><time>2026-04-02T13:23:43.511Z</time></trkpt><trkpt lat="45.6341069" lon="9.4187111"><ele>227.57142857142858</ele><time>2026-04-02T13:23:44.511Z</time></trkpt><trkpt lat="45.634039" lon="9.4186865"><ele>226.85714285714286</ele><time>2026-04-02T13:23:45.51Z</time></trkpt><trkpt lat="45.6339718" lon="9.4186693"><ele>226.14285714285714</ele><time>2026-04-02T13:23:46.51Z</time></trkpt><trkpt lat="45.6339069" lon="9.4186505"><ele>225.42857142857144</ele><time>2026-04-02T13:23:47.51Z</time></trkpt><trkpt lat="45.6338374" lon="9.418642"><ele>224.71428571428572</ele><time>2026-04-02T13:23:48.511Z</time></trkpt><trkpt lat="45.6337695" lon="9.4186227"><ele>224.0</ele><time>2026-04-02T13:23:49.51Z</time></trkpt><trkpt lat="45.6337032" lon="9.4186054"><ele>223.83333333333334</ele><time>2026-04-02T13:23:50.51Z</time></trkpt><trkpt lat="45.6336374" lon="9.4185866"><ele>223.66666666666669</ele><time>2026-04-02T13:23:51.511Z</time></trkpt><trkpt lat="45.6335731" lon="9.4185643"><ele>223.5</ele><time>2026-04-02T13:23:52.511Z</time></trkpt><trkpt lat="45.633506" lon="9.418539"><ele>223.33333333333331</ele><time>2026-04-02T13:23:53.51Z</time></trkpt><trkpt lat="45.6334389" lon="9.4185202"><ele>223.16666666666666</ele><time>2026-04-02T13:23:54.511Z</time></trkpt><trkpt lat="45.6333074" lon="9.4184974"><ele>223.0</ele><time>2026-04-02T13:23:56.511Z</time></trkpt><trkpt lat="45.6332425" lon="9.4184936"><ele>223.0</ele><time>2026-04-02T13:23:57.511Z</time></trkpt><trkpt lat="45.6331751" lon="9.418482"><ele>223.0</ele><time>2026-04-02T13:23:58.511Z</time></trkpt><trkpt lat="45.633099" lon="9.4184721"><ele>223.0</ele><time>2026-04-02T13:23:59.511Z</time></trkpt><trkpt lat="45.6330295" lon="9.4184579"><ele>223.0</ele><time>2026-04-02T13:24:00.511Z</time></trkpt><trkpt lat="45.632963" lon="9.4184478"><ele>223.0</ele><time>2026-04-02T13:24:01.511Z</time></trkpt><trkpt lat="45.6328914" lon="9.4184394"><ele>223.0</ele><time>2026-04-02T13:24:02.511Z</time></trkpt><trkpt lat="45.6328205" lon="9.4184298"><ele>223.0</ele><time>2026-04-02T13:24:03.51Z</time></trkpt><trkpt lat="45.6327464" lon="9.4184175"><ele>223.14285714285714</ele><time>2026-04-02T13:24:04.51Z</time></trkpt><trkpt lat="45.6326783" lon="9.4184063"><ele>223.28571428571428</ele><time>2026-04-02T13:24:05.51Z</time></trkpt><trkpt lat="45.6326042" lon="9.4183803"><ele>223.42857142857144</ele><time>2026-04-02T13:24:06.511Z</time></trkpt><trkpt lat="45.6325372" lon="9.4183619"><ele>223.57142857142856</ele><time>2026-04-02T13:24:07.51Z</time></trkpt><trkpt lat="45.6324687" lon="9.4183461"><ele>223.71428571428572</ele><time>2026-04-02T13:24:08.511Z</time></trkpt><trkpt lat="45.6323931" lon="9.4183279"><ele>223.85714285714286</ele><time>2026-04-02T13:24:09.511Z</time></trkpt><trkpt lat="45.6323221" lon="9.4183078"><ele>224.0</ele><time>2026-04-02T13:24:10.51Z</time></trkpt><trkpt lat="45.6322515" lon="9.4182887"><ele>224.0</ele><time>2026-04-02T13:24:11.511Z</time></trkpt><trkpt lat="45.6321804" lon="9.4182667"><ele>224.0</ele><time>2026-04-02T13:24:12.51Z</time></trkpt><trkpt lat="45.6321084" lon="9.4182545"><ele>224.0</ele><time>2026-04-02T13:24:13.51Z</time></trkpt><trkpt lat="45.6320446" lon="9.4182448"><ele>224.0</ele><time>2026-04-02T13:24:14.51Z</time></trkpt><trkpt lat="45.6319705" lon="9.4182262"><ele>224.0</ele><time>2026-04-02T13:24:15.511Z</time></trkpt><trkpt lat="45.6318991" lon="9.4182148"><ele>224.0</ele><time>2026-04-02T13:24:16.511Z</time></trkpt><trkpt lat="45.6318275" lon="9.4181946"><ele>224.0</ele><time>2026-04-02T13:24:17.51Z</time></trkpt><trkpt lat="45.6317546" lon="9.4181772"><ele>223.85714285714286</ele><time>2026-04-02T13:24:18.51Z</time></trkpt><trkpt lat="45.631683" lon="9.4181747"><ele>223.71428571428572</ele><time>2026-04-02T13:24:19.51Z</time></trkpt><trkpt lat="45.6316124" lon="9.4181648"><ele>223.57142857142856</ele><time>2026-04-02T13:24:20.51Z</time></trkpt><trkpt lat="45.6315465" lon="9.4181581"><ele>223.42857142857144</ele><time>2026-04-02T13:24:21.51Z</time></trkpt><trkpt lat="45.6314612" lon="9.4181416"><ele>223.28571428571428</ele><time>2026-04-02T13:24:22.511Z</time></trkpt><trkpt lat="45.6313918" lon="9.41813"><ele>223.14285714285714</ele><time>2026-04-02T13:24:23.51Z</time></trkpt><trkpt lat="45.6313195" lon="9.4181274"><ele>223.0</ele><time>2026-04-02T13:24:24.511Z</time></trkpt><trkpt lat="45.6312424" lon="9.4181035"><ele>222.99999999999997</ele><time>2026-04-02T13:24:25.51Z</time></trkpt><trkpt lat="45.63116" lon="9.4180976"><ele>223.0</ele><time>2026-04-02T13:24:26.511Z</time></trkpt><trkpt lat="45.6310867" lon="9.4180915"><ele>223.0</ele><time>2026-04-02T13:24:27.511Z</time></trkpt><trkpt lat="45.6310063" lon="9.4180794"><ele>223.0</ele><time>2026-04-02T13:24:28.511Z</time></trkpt><trkpt lat="45.6309325" lon="9.4180693"><ele>222.99999999999997</ele><time>2026-04-02T13:24:29.51Z</time></trkpt><trkpt lat="45.6308536" lon="9.418064"><ele>223.0</ele><time>2026-04-02T13:24:30.511Z</time></trkpt><trkpt lat="45.6307748" lon="9.4180621"><ele>223.28571428571428</ele><time>2026-04-02T13:24:31.51Z</time></trkpt><trkpt lat="45.630703" lon="9.4180745"><ele>223.57142857142856</ele><time>2026-04-02T13:24:32.511Z</time></trkpt><trkpt lat="45.6306301" lon="9.4180837"><ele>223.8571428571429</ele><time>2026-04-02T13:24:33.51Z</time></trkpt><trkpt lat="45.6305549" lon="9.4180972"><ele>224.14285714285717</ele><time>2026-04-02T13:24:34.511Z</time></trkpt><trkpt lat="45.630479" lon="9.4181142"><ele>224.42857142857144</ele><time>2026-04-02T13:24:35.51Z</time></trkpt><trkpt lat="45.6304126" lon="9.4181247"><ele>224.71428571428575</ele><time>2026-04-02T13:24:36.51Z</time></trkpt><trkpt lat="45.6303343" lon="9.4181407"><ele>225.00000000000003</ele><time>2026-04-02T13:24:37.51Z</time></trkpt><trkpt lat="45.6302662" lon="9.4181489"><ele>224.33333333333334</ele><time>2026-04-02T13:24:38.511Z</time></trkpt><trkpt lat="45.6301426" lon="9.4181763"><ele>223.66666666666669</ele><time>2026-04-02T13:24:40.511Z</time></trkpt><trkpt lat="45.6300656" lon="9.4181643"><ele>223.0</ele><time>2026-04-02T13:24:41.511Z</time></trkpt><trkpt lat="45.6299904" lon="9.4181498"><ele>222.33333333333334</ele><time>2026-04-02T13:24:42.51Z</time></trkpt><trkpt lat="45.6299232" lon="9.4181176"><ele>221.66666666666669</ele><time>2026-04-02T13:24:43.511Z</time></trkpt><trkpt lat="45.629853" lon="9.4181032"><ele>221.0</ele><time>2026-04-02T13:24:44.511Z</time></trkpt><trkpt lat="45.6297877" lon="9.4181189"><ele>221.0</ele><time>2026-04-02T13:24:45.511Z</time></trkpt><trkpt lat="45.6297239" lon="9.4181559"><ele>221.00000000000003</ele><time>2026-04-02T13:24:46.511Z</time></trkpt><trkpt lat="45.6296633" lon="9.4181957"><ele>221.00000000000003</ele><time>2026-04-02T13:24:47.51Z</time></trkpt><trkpt lat="45.6295832" lon="9.4182281"><ele>221.0</ele><time>2026-04-02T13:24:48.51Z</time></trkpt><trkpt lat="45.6294454" lon="9.418254"><ele>221.0</ele><time>2026-04-02T13:24:50.841Z</time></trkpt><trkpt lat="45.6292899" lon="9.418278"><ele>220.66666666666669</ele><time>2026-04-02T13:24:52.515Z</time></trkpt><trkpt lat="45.6292122" lon="9.4182851"><ele>220.33333333333334</ele><time>2026-04-02T13:24:53.509Z</time></trkpt><trkpt lat="45.6291357" lon="9.4182916"><ele>220.0</ele><time>2026-04-02T13:24:54.51Z</time></trkpt><trkpt lat="45.6290586" lon="9.4183105"><ele>219.66666666666669</ele><time>2026-04-02T13:24:55.511Z</time></trkpt><trkpt lat="45.6289747" lon="9.4183201"><ele>219.33333333333334</ele><time>2026-04-02T13:24:56.514Z</time></trkpt><trkpt lat="45.6288923" lon="9.4183303"><ele>219.0</ele><time>2026-04-02T13:24:57.514Z</time></trkpt><trkpt lat="45.6288114" lon="9.4183402"><ele>219.0</ele><time>2026-04-02T13:24:58.514Z</time></trkpt><trkpt lat="45.6287136" lon="9.4183495"><ele>219.0</ele><time>2026-04-02T13:24:59.513Z</time></trkpt><trkpt lat="45.6286219" lon="9.4183581"><ele>219.0</ele><time>2026-04-02T13:25:00.514Z</time></trkpt><trkpt lat="45.6285392" lon="9.4183633"><ele>219.0</ele><time>2026-04-02T13:25:01.514Z</time></trkpt><trkpt lat="45.6284527" lon="9.4183669"><ele>219.0</ele><time>2026-04-02T13:25:02.514Z</time></trkpt><trkpt lat="45.6283684" lon="9.418364"><ele>219.0</ele><time>2026-04-02T13:25:03.513Z</time></trkpt><trkpt lat="45.6282758" lon="9.4183593"><ele>218.33333333333334</ele><time>2026-04-02T13:25:04.513Z</time></trkpt><trkpt lat="45.6281878" lon="9.4183531"><ele>217.66666666666669</ele><time>2026-04-02T13:25:05.514Z</time></trkpt><trkpt lat="45.6281068" lon="9.418344"><ele>217.0</ele><time>2026-04-02T13:25:06.514Z</time></trkpt><trkpt lat="45.6280207" lon="9.4183358"><ele>216.33333333333334</ele><time>2026-04-02T13:25:07.513Z</time></trkpt><trkpt lat="45.6279361" lon="9.4183336"><ele>215.66666666666669</ele><time>2026-04-02T13:25:08.513Z</time></trkpt><trkpt lat="45.6278532" lon="9.4183273"><ele>215.0</ele><time>2026-04-02T13:25:09.513Z</time></trkpt><trkpt lat="45.627768" lon="9.4183271"><ele>215.00000000000003</ele><time>2026-04-02T13:25:10.514Z</time></trkpt><trkpt lat="45.6276843" lon="9.4183236"><ele>215.0</ele><time>2026-04-02T13:25:11.514Z</time></trkpt><trkpt lat="45.6276056" lon="9.4183224"><ele>215.0</ele><time>2026-04-02T13:25:12.514Z</time></trkpt><trkpt lat="45.627514" lon="9.4183299"><ele>215.0</ele><time>2026-04-02T13:25:13.514Z</time></trkpt><trkpt lat="45.6274302" lon="9.4183247"><ele>215.00000000000003</ele><time>2026-04-02T13:25:14.513Z</time></trkpt><trkpt lat="45.6273467" lon="9.4183198"><ele>215.0</ele><time>2026-04-02T13:25:15.513Z</time></trkpt><trkpt lat="45.627263" lon="9.4183193"><ele>215.00000000000003</ele><time>2026-04-02T13:25:16.513Z</time></trkpt><trkpt lat="45.627181" lon="9.4183179"><ele>215.0</ele><time>2026-04-02T13:25:17.514Z</time></trkpt><trkpt lat="45.6270973" lon="9.4183119"><ele>215.0</ele><time>2026-04-02T13:25:18.513Z</time></trkpt><trkpt lat="45.6270162" lon="9.4183073"><ele>215.0</ele><time>2026-04-02T13:25:19.514Z</time></trkpt><trkpt lat="45.6269284" lon="9.4183041"><ele>215.00000000000003</ele><time>2026-04-02T13:25:20.514Z</time></trkpt><trkpt lat="45.6268459" lon="9.4182982"><ele>215.0</ele><time>2026-04-02T13:25:21.514Z</time></trkpt><trkpt lat="45.6267575" lon="9.4182885"><ele>215.16666666666669</ele><time>2026-04-02T13:25:22.514Z</time></trkpt><trkpt lat="45.6266732" lon="9.4182725"><ele>215.33333333333334</ele><time>2026-04-02T13:25:23.514Z</time></trkpt><trkpt lat="45.6265811" lon="9.418267"><ele>215.5</ele><time>2026-04-02T13:25:24.513Z</time></trkpt><trkpt lat="45.6264953" lon="9.4182474"><ele>215.66666666666669</ele><time>2026-04-02T13:25:25.514Z</time></trkpt><trkpt lat="45.6264089" lon="9.4182332"><ele>215.83333333333334</ele><time>2026-04-02T13:25:26.513Z</time></trkpt><trkpt lat="45.6263246" lon="9.4182133"><ele>216.0</ele><time>2026-04-02T13:25:27.513Z</time></trkpt><trkpt lat="45.6262308" lon="9.4181996"><ele>216.0</ele><time>2026-04-02T13:25:28.514Z</time></trkpt><trkpt lat="45.6261464" lon="9.4181869"><ele>216.0</ele><time>2026-04-02T13:25:29.513Z</time></trkpt><trkpt lat="45.6260543" lon="9.4181805"><ele>216.0</ele><time>2026-04-02T13:25:30.514Z</time></trkpt><trkpt lat="45.6259738" lon="9.4181728"><ele>216.0</ele><time>2026-04-02T13:25:31.513Z</time></trkpt><trkpt lat="45.6258926" lon="9.4181616"><ele>216.0</ele><time>2026-04-02T13:25:32.513Z</time></trkpt><trkpt lat="45.6258067" lon="9.4181502"><ele>216.0</ele><time>2026-04-02T13:25:33.513Z</time></trkpt><trkpt lat="45.6257263" lon="9.4181292"><ele>216.0</ele><time>2026-04-02T13:25:34.513Z</time></trkpt><trkpt lat="45.6256458" lon="9.4181181"><ele>216.0</ele><time>2026-04-02T13:25:35.514Z</time></trkpt><trkpt lat="45.6255653" lon="9.4181016"><ele>216.0</ele><time>2026-04-02T13:25:36.514Z</time></trkpt><trkpt lat="45.6254828" lon="9.4180936"><ele>216.0</ele><time>2026-04-02T13:25:37.514Z</time></trkpt><trkpt lat="45.6254064" lon="9.4180819"><ele>216.0</ele><time>2026-04-02T13:25:38.514Z</time></trkpt><trkpt lat="45.6253348" lon="9.4180548"><ele>216.0</ele><time>2026-04-02T13:25:39.513Z</time></trkpt><trkpt lat="45.6252645" lon="9.4180116"><ele>215.5</ele><time>2026-04-02T13:25:40.513Z</time></trkpt><trkpt lat="45.6252075" lon="9.4179515"><ele>215.0</ele><time>2026-04-02T13:25:41.513Z</time></trkpt><trkpt lat="45.6251576" lon="9.4178905"><ele>214.5</ele><time>2026-04-02T13:25:42.513Z</time></trkpt><trkpt lat="45.6250951" lon="9.4177868"><ele>214.0</ele><time>2026-04-02T13:25:44.514Z</time></trkpt><trkpt lat="45.6250362" lon="9.4177362"><ele>213.5</ele><time>2026-04-02T13:25:47.514Z</time></trkpt><trkpt lat="45.6249464" lon="9.4177383"><ele>213.0</ele><time>2026-04-02T13:25:54.514Z</time></trkpt><trkpt lat="45.6248676" lon="9.4177864"><ele>213.0</ele><time>2026-04-02T13:25:56.514Z</time></trkpt><trkpt lat="45.6247937" lon="9.4179068"><ele>213.0</ele><time>2026-04-02T13:25:58.514Z</time></trkpt><trkpt lat="45.6247193" lon="9.4180003"><ele>213.0</ele><time>2026-04-02T13:26:00.514Z</time></trkpt><trkpt lat="45.6246483" lon="9.4181024"><ele>213.0</ele><time>2026-04-02T13:26:02.514Z</time></trkpt><trkpt lat="45.6245802" lon="9.4182179"><ele>213.0</ele><time>2026-04-02T13:26:04.513Z</time></trkpt><trkpt lat="45.6244996" lon="9.4182877"><ele>213.60000000000002</ele><time>2026-04-02T13:26:06.514Z</time></trkpt><trkpt lat="45.6244205" lon="9.4182119"><ele>214.20000000000002</ele><time>2026-04-02T13:26:08.513Z</time></trkpt><trkpt lat="45.6243502" lon="9.4180988"><ele>214.8</ele><time>2026-04-02T13:26:10.514Z</time></trkpt><trkpt lat="45.6242643" lon="9.417987"><ele>215.4</ele><time>2026-04-02T13:26:12.514Z</time></trkpt><trkpt lat="45.6241654" lon="9.417918"><ele>216.0</ele><time>2026-04-02T13:26:14.513Z</time></trkpt><trkpt lat="45.62405" lon="9.4178896"><ele>216.0</ele><time>2026-04-02T13:26:16.514Z</time></trkpt><trkpt lat="45.6239331" lon="9.4178616"><ele>216.0</ele><time>2026-04-02T13:26:18.513Z</time></trkpt><trkpt lat="45.6238638" lon="9.4178598"><ele>216.0</ele><time>2026-04-02T13:26:19.513Z</time></trkpt><trkpt lat="45.6237994" lon="9.4178504"><ele>216.0</ele><time>2026-04-02T13:26:20.514Z</time></trkpt><trkpt lat="45.6237349" lon="9.4178336"><ele>216.0</ele><time>2026-04-02T13:26:21.513Z</time></trkpt><trkpt lat="45.6236722" lon="9.4178235"><ele>216.0</ele><time>2026-04-02T13:26:22.513Z</time></trkpt><trkpt lat="45.6236059" lon="9.4178138"><ele>216.0</ele><time>2026-04-02T13:26:23.514Z</time></trkpt><trkpt lat="45.6235416" lon="9.4178051"><ele>215.8</ele><time>2026-04-02T13:26:24.513Z</time></trkpt><trkpt lat="45.6234121" lon="9.4177891"><ele>215.60000000000002</ele><time>2026-04-02T13:26:26.514Z</time></trkpt><trkpt lat="45.6233499" lon="9.4177742"><ele>215.4</ele><time>2026-04-02T13:26:27.514Z</time></trkpt><trkpt lat="45.623225" lon="9.4177591"><ele>215.2</ele><time>2026-04-02T13:26:29.513Z</time></trkpt><trkpt lat="45.6231143" lon="9.4177568"><ele>215.0</ele><time>2026-04-02T13:26:31.513Z</time></trkpt><trkpt lat="45.6229793" lon="9.4177289"><ele>215.0</ele><time>2026-04-02T13:26:33.513Z</time></trkpt><trkpt lat="45.6228428" lon="9.4176959"><ele>215.0</ele><time>2026-04-02T13:26:35.514Z</time></trkpt><trkpt lat="45.6227121" lon="9.4176739"><ele>215.0</ele><time>2026-04-02T13:26:37.513Z</time></trkpt><trkpt lat="45.6226483" lon="9.4176529"><ele>215.0</ele><time>2026-04-02T13:26:38.514Z</time></trkpt><trkpt lat="45.6225302" lon="9.417664"><ele>214.75</ele><time>2026-04-02T13:26:40.514Z</time></trkpt><trkpt lat="45.6224314" lon="9.4177565"><ele>214.5</ele><time>2026-04-02T13:26:42.514Z</time></trkpt><trkpt lat="45.6223693" lon="9.417888"><ele>214.25</ele><time>2026-04-02T13:26:44.514Z</time></trkpt><trkpt lat="45.6222813" lon="9.4179841"><ele>214.0</ele><time>2026-04-02T13:26:46.514Z</time></trkpt><trkpt lat="45.6221822" lon="9.418052"><ele>213.99999999999997</ele><time>2026-04-02T13:26:48.514Z</time></trkpt><trkpt lat="45.6220944" lon="9.4180679"><ele>214.0</ele><time>2026-04-02T13:26:49.513Z</time></trkpt><trkpt lat="45.6219945" lon="9.4180778"><ele>214.0</ele><time>2026-04-02T13:26:51.513Z</time></trkpt><trkpt lat="45.6218774" lon="9.4180676"><ele>214.0</ele><time>2026-04-02T13:26:53.514Z</time></trkpt><trkpt lat="45.6218172" lon="9.4180392"><ele>213.99999999999997</ele><time>2026-04-02T13:26:54.514Z</time></trkpt><trkpt lat="45.6217473" lon="9.4180509"><ele>214.0</ele><time>2026-04-02T13:26:55.514Z</time></trkpt><trkpt lat="45.6216271" lon="9.4180906"><ele>213.75</ele><time>2026-04-02T13:26:57.514Z</time></trkpt><trkpt lat="45.6215008" lon="9.4181385"><ele>213.5</ele><time>2026-04-02T13:26:59.514Z</time></trkpt><trkpt lat="45.6214006" lon="9.4181881"><ele>213.25</ele><time>2026-04-02T13:27:00.513Z</time></trkpt><trkpt lat="45.6212886" lon="9.4182326"><ele>213.0</ele><time>2026-04-02T13:27:02.513Z</time></trkpt><trkpt lat="45.6211412" lon="9.4182867"><ele>212.83333333333334</ele><time>2026-04-02T13:27:04.513Z</time></trkpt><trkpt lat="45.6210763" lon="9.4183168"><ele>212.66666666666669</ele><time>2026-04-02T13:27:05.514Z</time></trkpt><trkpt lat="45.621016" lon="9.418344"><ele>212.5</ele><time>2026-04-02T13:27:06.514Z</time></trkpt><trkpt lat="45.6209504" lon="9.4183649"><ele>212.33333333333334</ele><time>2026-04-02T13:27:07.513Z</time></trkpt><trkpt lat="45.6208825" lon="9.4183881"><ele>212.16666666666669</ele><time>2026-04-02T13:27:08.514Z</time></trkpt><trkpt lat="45.6207928" lon="9.4184302"><ele>212.0</ele><time>2026-04-02T13:27:10.513Z</time></trkpt><trkpt lat="45.620703" lon="9.4184911"><ele>212.0</ele><time>2026-04-02T13:27:12.514Z</time></trkpt><trkpt lat="45.6206704" lon="9.4186136"><ele>212.0</ele><time>2026-04-02T13:27:14.513Z</time></trkpt><trkpt lat="45.6206665" lon="9.4187544"><ele>212.0</ele><time>2026-04-02T13:27:16.514Z</time></trkpt><trkpt lat="45.6206848" lon="9.4189131"><ele>212.0</ele><time>2026-04-02T13:27:18.514Z</time></trkpt><trkpt lat="45.6206974" lon="9.4190096"><ele>212.0</ele><time>2026-04-02T13:27:19.513Z</time></trkpt><trkpt lat="45.6207035" lon="9.4191538"><ele>211.6</ele><time>2026-04-02T13:27:21.513Z</time></trkpt><trkpt lat="45.6207157" lon="9.4193182"><ele>211.2</ele><time>2026-04-02T13:27:23.513Z</time></trkpt><trkpt lat="45.6207371" lon="9.4194771"><ele>210.8</ele><time>2026-04-02T13:27:25.514Z</time></trkpt><trkpt lat="45.6207474" lon="9.4196259"><ele>210.4</ele><time>2026-04-02T13:27:27.514Z</time></trkpt><trkpt lat="45.6207112" lon="9.419736"><ele>210.0</ele><time>2026-04-02T13:27:29.513Z</time></trkpt><trkpt lat="45.6206234" lon="9.4197864"><ele>210.0</ele><time>2026-04-02T13:27:31.513Z</time></trkpt><trkpt lat="45.6205101" lon="9.4197805"><ele>210.0</ele><time>2026-04-02T13:27:33.514Z</time></trkpt><trkpt lat="45.6204465" lon="9.4197799"><ele>210.0</ele><time>2026-04-02T13:27:34.514Z</time></trkpt><trkpt lat="45.620381" lon="9.4197748"><ele>210.0</ele><time>2026-04-02T13:27:35.513Z</time></trkpt><trkpt lat="45.6202587" lon="9.419781"><ele>210.0</ele><time>2026-04-02T13:27:37.513Z</time></trkpt><trkpt lat="45.6201914" lon="9.4197914"><ele>210.0</ele><time>2026-04-02T13:27:38.514Z</time></trkpt><trkpt lat="45.6201284" lon="9.419799"><ele>209.6</ele><time>2026-04-02T13:27:39.514Z</time></trkpt><trkpt lat="45.6200609" lon="9.419801"><ele>209.2</ele><time>2026-04-02T13:27:40.513Z</time></trkpt><trkpt lat="45.6199328" lon="9.4198009"><ele>208.8</ele><time>2026-04-02T13:27:42.513Z</time></trkpt><trkpt lat="45.6198117" lon="9.4198108"><ele>208.4</ele><time>2026-04-02T13:27:44.513Z</time></trkpt><trkpt lat="45.6197057" lon="9.4199126"><ele>208.0</ele><time>2026-04-02T13:27:46.514Z</time></trkpt><trkpt lat="45.6197088" lon="9.4200099"><ele>208.0</ele><time>2026-04-02T13:27:47.514Z</time></trkpt><trkpt lat="45.6196977" lon="9.4201589"><ele>208.0</ele><time>2026-04-02T13:27:49.513Z</time></trkpt><trkpt lat="45.6196846" lon="9.4202972"><ele>208.0</ele><time>2026-04-02T13:27:51.514Z</time></trkpt><trkpt lat="45.6196766" lon="9.4203931"><ele>208.0</ele><time>2026-04-02T13:27:52.513Z</time></trkpt><trkpt lat="45.6196677" lon="9.4204844"><ele>208.0</ele><time>2026-04-02T13:27:53.514Z</time></trkpt><trkpt lat="45.6196555" lon="9.4206577"><ele>208.2</ele><time>2026-04-02T13:27:55.513Z</time></trkpt><trkpt lat="45.6196501" lon="9.4207491"><ele>208.4</ele><time>2026-04-02T13:27:56.514Z</time></trkpt><trkpt lat="45.6196357" lon="9.4209289"><ele>208.6</ele><time>2026-04-02T13:27:58.513Z</time></trkpt><trkpt lat="45.6196294" lon="9.4210223"><ele>208.79999999999998</ele><time>2026-04-02T13:27:59.514Z</time></trkpt><trkpt lat="45.6196224" lon="9.4212056"><ele>209.0</ele><time>2026-04-02T13:28:01.514Z</time></trkpt><trkpt lat="45.6196086" lon="9.4213871"><ele>209.16666666666669</ele><time>2026-04-02T13:28:03.513Z</time></trkpt><trkpt lat="45.6196068" lon="9.4214851"><ele>209.33333333333334</ele><time>2026-04-02T13:28:04.513Z</time></trkpt><trkpt lat="45.6196053" lon="9.4215757"><ele>209.5</ele><time>2026-04-02T13:28:05.514Z</time></trkpt><trkpt lat="45.6196032" lon="9.4216687"><ele>209.66666666666669</ele><time>2026-04-02T13:28:06.513Z</time></trkpt><trkpt lat="45.6195946" lon="9.4218473"><ele>209.83333333333334</ele><time>2026-04-02T13:28:08.514Z</time></trkpt><trkpt lat="45.6195876" lon="9.4219442"><ele>210.0</ele><time>2026-04-02T13:28:09.514Z</time></trkpt><trkpt lat="45.6195811" lon="9.4220381"><ele>210.0</ele><time>2026-04-02T13:28:10.513Z</time></trkpt><trkpt lat="45.6195774" lon="9.4221299"><ele>210.0</ele><time>2026-04-02T13:28:11.513Z</time></trkpt><trkpt lat="45.6195764" lon="9.4222211"><ele>210.0</ele><time>2026-04-02T13:28:12.514Z</time></trkpt><trkpt lat="45.6195738" lon="9.4223173"><ele>210.0</ele><time>2026-04-02T13:28:13.514Z</time></trkpt><trkpt lat="45.619571" lon="9.4224139"><ele>210.0</ele><time>2026-04-02T13:28:14.514Z</time></trkpt><trkpt lat="45.6195633" lon="9.4225123"><ele>210.0</ele><time>2026-04-02T13:28:15.514Z</time></trkpt><trkpt lat="45.6195562" lon="9.4226896"><ele>210.0</ele><time>2026-04-02T13:28:17.513Z</time></trkpt><trkpt lat="45.6195523" lon="9.4227845"><ele>210.0</ele><time>2026-04-02T13:28:18.514Z</time></trkpt><trkpt lat="45.6195468" lon="9.4229401"><ele>210.0</ele><time>2026-04-02T13:28:20.514Z</time></trkpt><trkpt lat="45.6195287" lon="9.4230566"><ele>210.0</ele><time>2026-04-02T13:28:22.513Z</time></trkpt><trkpt lat="45.6194838" lon="9.4231654"><ele>210.0</ele><time>2026-04-02T13:28:25.514Z</time></trkpt><trkpt lat="45.6194339" lon="9.4232367"><ele>210.0</ele><time>2026-04-02T13:28:27.514Z</time></trkpt><trkpt lat="45.6194015" lon="9.4233425"><ele>210.0</ele><time>2026-04-02T13:28:45.514Z</time></trkpt><trkpt lat="45.6194511" lon="9.4234431"><ele>210.0</ele><time>2026-04-02T13:28:47.514Z</time></trkpt><trkpt lat="45.6195108" lon="9.4235635"><ele>210.0</ele><time>2026-04-02T13:28:49.514Z</time></trkpt><trkpt lat="45.6195171" lon="9.4237195"><ele>210.0</ele><time>2026-04-02T13:28:51.514Z</time></trkpt><trkpt lat="45.6195143" lon="9.4238892"><ele>210.0</ele><time>2026-04-02T13:28:53.514Z</time></trkpt><trkpt lat="45.6195128" lon="9.4239817"><ele>209.8</ele><time>2026-04-02T13:28:54.514Z</time></trkpt><trkpt lat="45.6195096" lon="9.4241541"><ele>209.6</ele><time>2026-04-02T13:28:56.513Z</time></trkpt><trkpt lat="45.6195053" lon="9.4242461"><ele>209.39999999999998</ele><time>2026-04-02T13:28:57.513Z</time></trkpt><trkpt lat="45.6195008" lon="9.4243373"><ele>209.2</ele><time>2026-04-02T13:28:58.514Z</time></trkpt><trkpt lat="45.6194907" lon="9.4244955"><ele>209.0</ele><time>2026-04-02T13:29:00.513Z</time></trkpt><trkpt lat="45.6194848" lon="9.4246708"><ele>209.00000000000003</ele><time>2026-04-02T13:29:02.514Z</time></trkpt><trkpt lat="45.6194852" lon="9.4248464"><ele>209.0</ele><time>2026-04-02T13:29:04.513Z</time></trkpt><trkpt lat="45.61948" lon="9.4250207"><ele>209.0</ele><time>2026-04-02T13:29:06.514Z</time></trkpt><trkpt lat="45.6194783" lon="9.4251124"><ele>209.0</ele><time>2026-04-02T13:29:07.514Z</time></trkpt><trkpt lat="45.6194698" lon="9.4252055"><ele>209.00000000000003</ele><time>2026-04-02T13:29:08.514Z</time></trkpt><trkpt lat="45.619464" lon="9.4252965"><ele>209.0</ele><time>2026-04-02T13:29:09.513Z</time></trkpt><trkpt lat="45.6194559" lon="9.4253877"><ele>209.00000000000003</ele><time>2026-04-02T13:29:10.514Z</time></trkpt><trkpt lat="45.619451" lon="9.4254823"><ele>209.0</ele><time>2026-04-02T13:29:11.514Z</time></trkpt><trkpt lat="45.6194468" lon="9.4255796"><ele>209.0</ele><time>2026-04-02T13:29:12.513Z</time></trkpt><trkpt lat="45.6194426" lon="9.4256737"><ele>209.0</ele><time>2026-04-02T13:29:13.514Z</time></trkpt><trkpt lat="45.6194278" lon="9.4258469"><ele>209.00000000000003</ele><time>2026-04-02T13:29:15.513Z</time></trkpt><trkpt lat="45.6194182" lon="9.4260207"><ele>209.0</ele><time>2026-04-02T13:29:17.513Z</time></trkpt><trkpt lat="45.6194251" lon="9.4261119"><ele>209.00000000000003</ele><time>2026-04-02T13:29:18.514Z</time></trkpt><trkpt lat="45.6194259" lon="9.4262024"><ele>209.0</ele><time>2026-04-02T13:29:19.513Z</time></trkpt><trkpt lat="45.6194389" lon="9.4263777"><ele>209.0</ele><time>2026-04-02T13:29:21.513Z</time></trkpt><trkpt lat="45.6194526" lon="9.4264694"><ele>209.0</ele><time>2026-04-02T13:29:22.514Z</time></trkpt><trkpt lat="45.6194627" lon="9.426642"><ele>209.00000000000003</ele><time>2026-04-02T13:29:24.514Z</time></trkpt><trkpt lat="45.6194548" lon="9.4267346"><ele>209.0</ele><time>2026-04-02T13:29:25.514Z</time></trkpt><trkpt lat="45.6194538" lon="9.4268324"><ele>209.00000000000003</ele><time>2026-04-02T13:29:26.513Z</time></trkpt><trkpt lat="45.6194609" lon="9.4269251"><ele>209.0</ele><time>2026-04-02T13:29:27.514Z</time></trkpt><trkpt lat="45.6194697" lon="9.4270164"><ele>209.0</ele><time>2026-04-02T13:29:28.513Z</time></trkpt><trkpt lat="45.6194836" lon="9.4271045"><ele>209.0</ele><time>2026-04-02T13:29:29.514Z</time></trkpt><trkpt lat="45.6194752" lon="9.4272763"><ele>209.00000000000003</ele><time>2026-04-02T13:29:31.514Z</time></trkpt><trkpt lat="45.6194743" lon="9.4274177"><ele>209.0</ele><time>2026-04-02T13:29:33.513Z</time></trkpt><trkpt lat="45.6194914" lon="9.4275408"><ele>208.79999999999998</ele><time>2026-04-02T13:29:35.514Z</time></trkpt><trkpt lat="45.6195478" lon="9.4276413"><ele>208.6</ele><time>2026-04-02T13:29:37.513Z</time></trkpt><trkpt lat="45.6195986" lon="9.4277615"><ele>208.4</ele><time>2026-04-02T13:29:39.514Z</time></trkpt><trkpt lat="45.619672" lon="9.4278701"><ele>208.2</ele><time>2026-04-02T13:29:41.514Z</time></trkpt><trkpt lat="45.6197417" lon="9.4279928"><ele>208.0</ele><time>2026-04-02T13:29:43.513Z</time></trkpt><trkpt lat="45.6198078" lon="9.4281229"><ele>208.0</ele><time>2026-04-02T13:29:45.514Z</time></trkpt><trkpt lat="45.6198867" lon="9.4282551"><ele>208.0</ele><time>2026-04-02T13:29:47.513Z</time></trkpt><trkpt lat="45.6199263" lon="9.4284105"><ele>208.0</ele><time>2026-04-02T13:29:49.513Z</time></trkpt><trkpt lat="45.6199363" lon="9.4285858"><ele>208.0</ele><time>2026-04-02T13:29:51.514Z</time></trkpt><trkpt lat="45.6199233" lon="9.4286759"><ele>208.0</ele><time>2026-04-02T13:29:52.514Z</time></trkpt><trkpt lat="45.619912" lon="9.4287653"><ele>207.99999999999997</ele><time>2026-04-02T13:29:53.513Z</time></trkpt><trkpt lat="45.6199038" lon="9.4288598"><ele>208.0</ele><time>2026-04-02T13:29:54.513Z</time></trkpt><trkpt lat="45.6198872" lon="9.4289512"><ele>208.0</ele><time>2026-04-02T13:29:55.513Z</time></trkpt><trkpt lat="45.6198727" lon="9.4290512"><ele>208.0</ele><time>2026-04-02T13:29:56.514Z</time></trkpt><trkpt lat="45.6198533" lon="9.4291386"><ele>207.99999999999997</ele><time>2026-04-02T13:29:57.513Z</time></trkpt><trkpt lat="45.6198328" lon="9.4292397"><ele>208.0</ele><time>2026-04-02T13:29:58.514Z</time></trkpt><trkpt lat="45.6197925" lon="9.4294117"><ele>207.99999999999997</ele><time>2026-04-02T13:30:00.513Z</time></trkpt><trkpt lat="45.6197802" lon="9.4295022"><ele>208.0</ele><time>2026-04-02T13:30:01.514Z</time></trkpt><trkpt lat="45.6197608" lon="9.4295999"><ele>208.0</ele><time>2026-04-02T13:30:02.513Z</time></trkpt><trkpt lat="45.6197245" lon="9.4297803"><ele>208.0</ele><time>2026-04-02T13:30:04.514Z</time></trkpt><trkpt lat="45.6196925" lon="9.4298691"><ele>207.99999999999997</ele><time>2026-04-02T13:30:05.513Z</time></trkpt><trkpt lat="45.6196546" lon="9.4299443"><ele>208.0</ele><time>2026-04-02T13:30:06.513Z</time></trkpt><trkpt lat="45.6195982" lon="9.4300144"><ele>208.0</ele><time>2026-04-02T13:30:07.513Z</time></trkpt><trkpt lat="45.6195449" lon="9.4300695"><ele>208.0</ele><time>2026-04-02T13:30:08.513Z</time></trkpt><trkpt lat="45.6194877" lon="9.4301224"><ele>208.0</ele><time>2026-04-02T13:30:09.514Z</time></trkpt><trkpt lat="45.6194286" lon="9.4301676"><ele>208.0</ele><time>2026-04-02T13:30:10.513Z</time></trkpt><trkpt lat="45.6193703" lon="9.4302104"><ele>208.0</ele><time>2026-04-02T13:30:11.514Z</time></trkpt><trkpt lat="45.6193094" lon="9.4302534"><ele>208.0</ele><time>2026-04-02T13:30:12.513Z</time></trkpt><trkpt lat="45.6192465" lon="9.4302932"><ele>208.0</ele><time>2026-04-02T13:30:13.513Z</time></trkpt><trkpt lat="45.6191791" lon="9.4303293"><ele>207.99999999999997</ele><time>2026-04-02T13:30:14.513Z</time></trkpt><trkpt lat="45.6191113" lon="9.4303534"><ele>208.0</ele><time>2026-04-02T13:30:15.514Z</time></trkpt><trkpt lat="45.6190288" lon="9.4303757"><ele>208.0</ele><time>2026-04-02T13:30:16.514Z</time></trkpt><trkpt lat="45.6189022" lon="9.4304278"><ele>208.0</ele><time>2026-04-02T13:30:18.513Z</time></trkpt><trkpt lat="45.6188401" lon="9.4304557"><ele>207.99999999999997</ele><time>2026-04-02T13:30:19.513Z</time></trkpt><trkpt lat="45.6187714" lon="9.4304832"><ele>208.0</ele><time>2026-04-02T13:30:20.513Z</time></trkpt><trkpt lat="45.6187023" lon="9.4305076"><ele>208.0</ele><time>2026-04-02T13:30:21.513Z</time></trkpt><trkpt lat="45.6186349" lon="9.4305452"><ele>208.0</ele><time>2026-04-02T13:30:22.514Z</time></trkpt><trkpt lat="45.6185665" lon="9.4305755"><ele>208.0</ele><time>2026-04-02T13:30:23.514Z</time></trkpt><trkpt lat="45.6184977" lon="9.4305982"><ele>208.0</ele><time>2026-04-02T13:30:24.514Z</time></trkpt><trkpt lat="45.618428" lon="9.4306313"><ele>208.0</ele><time>2026-04-02T13:30:25.514Z</time></trkpt><trkpt lat="45.6183695" lon="9.4306791"><ele>208.0</ele><time>2026-04-02T13:30:26.514Z</time></trkpt><trkpt lat="45.618313" lon="9.4307311"><ele>208.0</ele><time>2026-04-02T13:30:27.513Z</time></trkpt><trkpt lat="45.61826" lon="9.4307946"><ele>208.0</ele><time>2026-04-02T13:30:28.513Z</time></trkpt><trkpt lat="45.6182116" lon="9.4308699"><ele>208.0</ele><time>2026-04-02T13:30:29.514Z</time></trkpt><trkpt lat="45.6181641" lon="9.4309564"><ele>208.0</ele><time>2026-04-02T13:30:30.514Z</time></trkpt><trkpt lat="45.6181227" lon="9.4310395"><ele>208.0</ele><time>2026-04-02T13:30:31.514Z</time></trkpt><trkpt lat="45.6180822" lon="9.4311211"><ele>208.0</ele><time>2026-04-02T13:30:32.514Z</time></trkpt><trkpt lat="45.6180521" lon="9.4312164"><ele>208.0</ele><time>2026-04-02T13:30:33.513Z</time></trkpt><trkpt lat="45.6180241" lon="9.4313027"><ele>208.0</ele><time>2026-04-02T13:30:34.514Z</time></trkpt><trkpt lat="45.6179958" lon="9.4313965"><ele>207.85714285714286</ele><time>2026-04-02T13:30:35.513Z</time></trkpt><trkpt lat="45.6179657" lon="9.4314777"><ele>207.71428571428572</ele><time>2026-04-02T13:30:36.513Z</time></trkpt><trkpt lat="45.6179414" lon="9.4315694"><ele>207.57142857142858</ele><time>2026-04-02T13:30:37.514Z</time></trkpt><trkpt lat="45.6179101" lon="9.4316487"><ele>207.42857142857144</ele><time>2026-04-02T13:30:38.514Z</time></trkpt><trkpt lat="45.6178814" lon="9.4317392"><ele>207.28571428571428</ele><time>2026-04-02T13:30:39.514Z</time></trkpt><trkpt lat="45.6178489" lon="9.4318253"><ele>207.14285714285717</ele><time>2026-04-02T13:30:40.513Z</time></trkpt><trkpt lat="45.6178176" lon="9.43191"><ele>207.0</ele><time>2026-04-02T13:30:41.513Z</time></trkpt><trkpt lat="45.6177838" lon="9.4319962"><ele>206.85714285714286</ele><time>2026-04-02T13:30:42.513Z</time></trkpt><trkpt lat="45.6177498" lon="9.4320829"><ele>206.71428571428572</ele><time>2026-04-02T13:30:43.514Z</time></trkpt><trkpt lat="45.6177184" lon="9.4321724"><ele>206.57142857142856</ele><time>2026-04-02T13:30:44.514Z</time></trkpt><trkpt lat="45.617687" lon="9.4322606"><ele>206.42857142857144</ele><time>2026-04-02T13:30:45.513Z</time></trkpt><trkpt lat="45.6176511" lon="9.4323472"><ele>206.28571428571428</ele><time>2026-04-02T13:30:46.514Z</time></trkpt><trkpt lat="45.6176117" lon="9.4324368"><ele>206.14285714285714</ele><time>2026-04-02T13:30:47.513Z</time></trkpt><trkpt lat="45.6175762" lon="9.4325195"><ele>206.0</ele><time>2026-04-02T13:30:48.514Z</time></trkpt><trkpt lat="45.6175339" lon="9.4326059"><ele>205.99999999999997</ele><time>2026-04-02T13:30:49.514Z</time></trkpt><trkpt lat="45.6174879" lon="9.4326876"><ele>206.0</ele><time>2026-04-02T13:30:50.513Z</time></trkpt><trkpt lat="45.6174456" lon="9.4327579"><ele>206.0</ele><time>2026-04-02T13:30:51.513Z</time></trkpt><trkpt lat="45.6173976" lon="9.4328348"><ele>206.0</ele><time>2026-04-02T13:30:52.513Z</time></trkpt><trkpt lat="45.6173485" lon="9.4329081"><ele>206.0</ele><time>2026-04-02T13:30:53.514Z</time></trkpt><trkpt lat="45.617305" lon="9.4329872"><ele>205.99999999999997</ele><time>2026-04-02T13:30:54.513Z</time></trkpt><trkpt lat="45.6172591" lon="9.4330672"><ele>206.0</ele><time>2026-04-02T13:30:55.513Z</time></trkpt><trkpt lat="45.6172131" lon="9.4331423"><ele>205.99999999999997</ele><time>2026-04-02T13:30:56.513Z</time></trkpt><trkpt lat="45.6171716" lon="9.4332251"><ele>206.0</ele><time>2026-04-02T13:30:57.514Z</time></trkpt><trkpt lat="45.6171234" lon="9.4333046"><ele>206.0</ele><time>2026-04-02T13:30:58.513Z</time></trkpt><trkpt lat="45.6170755" lon="9.4333839"><ele>206.0</ele><time>2026-04-02T13:30:59.514Z</time></trkpt><trkpt lat="45.6170267" lon="9.4334618"><ele>206.0</ele><time>2026-04-02T13:31:00.513Z</time></trkpt><trkpt lat="45.6169807" lon="9.4335421"><ele>205.99999999999997</ele><time>2026-04-02T13:31:01.513Z</time></trkpt><trkpt lat="45.6169312" lon="9.433617"><ele>206.0</ele><time>2026-04-02T13:31:02.513Z</time></trkpt><trkpt lat="45.6168852" lon="9.43369"><ele>206.00000000000003</ele><time>2026-04-02T13:31:03.514Z</time></trkpt><trkpt lat="45.616841" lon="9.4337633"><ele>206.0</ele><time>2026-04-02T13:31:04.513Z</time></trkpt><trkpt lat="45.6167945" lon="9.4338271"><ele>206.0</ele><time>2026-04-02T13:31:05.513Z</time></trkpt><trkpt lat="45.6167481" lon="9.4338913"><ele>206.0</ele><time>2026-04-02T13:31:06.513Z</time></trkpt><trkpt lat="45.6166393" lon="9.4339529"><ele>206.00000000000003</ele><time>2026-04-02T13:31:08.514Z</time></trkpt><trkpt lat="45.6165245" lon="9.4339227"><ele>206.0</ele><time>2026-04-02T13:31:10.514Z</time></trkpt><trkpt lat="45.616437" lon="9.4338044"><ele>205.83333333333334</ele><time>2026-04-02T13:31:12.514Z</time></trkpt><trkpt lat="45.6163719" lon="9.4336551"><ele>205.66666666666669</ele><time>2026-04-02T13:31:14.513Z</time></trkpt><trkpt lat="45.6163424" lon="9.4335673"><ele>205.5</ele><time>2026-04-02T13:31:15.514Z</time></trkpt><trkpt lat="45.6163176" lon="9.4334833"><ele>205.33333333333331</ele><time>2026-04-02T13:31:16.513Z</time></trkpt><trkpt lat="45.616293" lon="9.4333901"><ele>205.16666666666666</ele><time>2026-04-02T13:31:17.514Z</time></trkpt><trkpt lat="45.6162773" lon="9.4332997"><ele>205.0</ele><time>2026-04-02T13:31:18.514Z</time></trkpt><trkpt lat="45.6162638" lon="9.4332112"><ele>204.99999999999997</ele><time>2026-04-02T13:31:19.513Z</time></trkpt><trkpt lat="45.6162552" lon="9.4331185"><ele>205.0</ele><time>2026-04-02T13:31:20.514Z</time></trkpt><trkpt lat="45.6162394" lon="9.4329421"><ele>205.0</ele><time>2026-04-02T13:31:22.514Z</time></trkpt><trkpt lat="45.616225" lon="9.4328533"><ele>205.0</ele><time>2026-04-02T13:31:23.513Z</time></trkpt><trkpt lat="45.6162116" lon="9.4327588"><ele>204.99999999999997</ele><time>2026-04-02T13:31:24.513Z</time></trkpt><trkpt lat="45.6161941" lon="9.4325935"><ele>205.0</ele><time>2026-04-02T13:31:26.513Z</time></trkpt><trkpt lat="45.6161756" lon="9.4324312"><ele>204.99999999999997</ele><time>2026-04-02T13:31:28.514Z</time></trkpt><trkpt lat="45.6161638" lon="9.4322799"><ele>205.0</ele><time>2026-04-02T13:31:30.513Z</time></trkpt><trkpt lat="45.6161553" lon="9.4321332"><ele>205.0</ele><time>2026-04-02T13:31:32.514Z</time></trkpt><trkpt lat="45.6161143" lon="9.4320475"><ele>205.0</ele><time>2026-04-02T13:31:34.514Z</time></trkpt><trkpt lat="45.6160432" lon="9.4320396"><ele>204.99999999999997</ele><time>2026-04-02T13:31:36.514Z</time></trkpt><trkpt lat="45.6159787" lon="9.4320922"><ele>205.0</ele><time>2026-04-02T13:31:38.514Z</time></trkpt><trkpt lat="45.6159534" lon="9.432207"><ele>204.8</ele><time>2026-04-02T13:31:40.514Z</time></trkpt><trkpt lat="45.6159349" lon="9.4323521"><ele>204.6</ele><time>2026-04-02T13:31:42.514Z</time></trkpt><trkpt lat="45.6159139" lon="9.4324936"><ele>204.39999999999998</ele><time>2026-04-02T13:31:44.513Z</time></trkpt><trkpt lat="45.6159031" lon="9.4326355"><ele>204.2</ele><time>2026-04-02T13:31:46.514Z</time></trkpt><trkpt lat="45.6158923" lon="9.4327902"><ele>204.0</ele><time>2026-04-02T13:31:48.514Z</time></trkpt><trkpt lat="45.6158714" lon="9.4328897"><ele>204.0</ele><time>2026-04-02T13:31:51.514Z</time></trkpt><trkpt lat="45.6156855" lon="9.4330953"><ele>204.0</ele><time>2026-04-02T13:31:56.512Z</time></trkpt><trkpt lat="45.6156436" lon="9.4332426"><ele>204.0</ele><time>2026-04-02T13:31:58.514Z</time></trkpt><trkpt lat="45.6156631" lon="9.4333466"><ele>204.0</ele><time>2026-04-02T13:32:00.513Z</time></trkpt><trkpt lat="45.6156456" lon="9.4334669"><ele>204.0</ele><time>2026-04-02T13:32:02.507Z</time></trkpt><trkpt lat="45.6155557" lon="9.4335035"><ele>204.0</ele><time>2026-04-02T13:32:05.507Z</time></trkpt><trkpt lat="45.6154659" lon="9.4334562"><ele>204.0</ele><time>2026-04-02T13:32:07.508Z</time></trkpt><trkpt lat="45.615359" lon="9.4334095"><ele>204.0</ele><time>2026-04-02T13:32:09.507Z</time></trkpt><trkpt lat="45.6152433" lon="9.4333689"><ele>204.0</ele><time>2026-04-02T13:32:11.508Z</time></trkpt><trkpt lat="45.6151818" lon="9.4333382"><ele>204.16666666666666</ele><time>2026-04-02T13:32:12.507Z</time></trkpt><trkpt lat="45.6150651" lon="9.4332889"><ele>204.33333333333331</ele><time>2026-04-02T13:32:14.507Z</time></trkpt><trkpt lat="45.6149896" lon="9.4332701"><ele>204.5</ele><time>2026-04-02T13:32:15.508Z</time></trkpt><trkpt lat="45.6148886" lon="9.4332203"><ele>204.66666666666666</ele><time>2026-04-02T13:32:17.508Z</time></trkpt><trkpt lat="45.6148285" lon="9.4331921"><ele>204.83333333333331</ele><time>2026-04-02T13:32:18.507Z</time></trkpt><trkpt lat="45.6147656" lon="9.4331648"><ele>205.0</ele><time>2026-04-02T13:32:19.507Z</time></trkpt><trkpt lat="45.6146484" lon="9.433106"><ele>204.99999999999997</ele><time>2026-04-02T13:32:21.507Z</time></trkpt><trkpt lat="45.6145845" lon="9.4330789"><ele>205.0</ele><time>2026-04-02T13:32:22.508Z</time></trkpt><trkpt lat="45.614523" lon="9.4330556"><ele>205.0</ele><time>2026-04-02T13:32:23.508Z</time></trkpt><trkpt lat="45.6144109" lon="9.4330023"><ele>205.0</ele><time>2026-04-02T13:32:25.508Z</time></trkpt><trkpt lat="45.6143439" lon="9.4329787"><ele>204.99999999999997</ele><time>2026-04-02T13:32:26.508Z</time></trkpt><trkpt lat="45.614229" lon="9.4329078"><ele>205.0</ele><time>2026-04-02T13:32:28.508Z</time></trkpt><trkpt lat="45.61411" lon="9.4328572"><ele>204.5</ele><time>2026-04-02T13:32:30.507Z</time></trkpt><trkpt lat="45.6139929" lon="9.4328107"><ele>204.0</ele><time>2026-04-02T13:32:32.507Z</time></trkpt><trkpt lat="45.6138946" lon="9.4328472"><ele>203.5</ele><time>2026-04-02T13:32:34.508Z</time></trkpt><trkpt lat="45.6137895" lon="9.4328906"><ele>203.0</ele><time>2026-04-02T13:32:36.507Z</time></trkpt><trkpt lat="45.6136715" lon="9.4328673"><ele>203.0</ele><time>2026-04-02T13:32:38.508Z</time></trkpt><trkpt lat="45.6136108" lon="9.4328297"><ele>203.0</ele><time>2026-04-02T13:32:39.508Z</time></trkpt><trkpt lat="45.6135437" lon="9.4327704"><ele>203.0</ele><time>2026-04-02T13:32:40.508Z</time></trkpt><trkpt lat="45.6134372" lon="9.4327234"><ele>203.0</ele><time>2026-04-02T13:32:42.507Z</time></trkpt><trkpt lat="45.6133187" lon="9.4326618"><ele>203.0</ele><time>2026-04-02T13:32:44.508Z</time></trkpt><trkpt lat="45.6132008" lon="9.4326101"><ele>203.0</ele><time>2026-04-02T13:32:46.508Z</time></trkpt><trkpt lat="45.6130845" lon="9.4325585"><ele>203.0</ele><time>2026-04-02T13:32:48.508Z</time></trkpt><trkpt lat="45.6130271" lon="9.4325205"><ele>203.0</ele><time>2026-04-02T13:32:49.507Z</time></trkpt><trkpt lat="45.6129129" lon="9.4324721"><ele>203.0</ele><time>2026-04-02T13:32:51.507Z</time></trkpt><trkpt lat="45.6128029" lon="9.4324304"><ele>203.0</ele><time>2026-04-02T13:32:53.507Z</time></trkpt><trkpt lat="45.6127392" lon="9.4323692"><ele>203.0</ele><time>2026-04-02T13:32:55.507Z</time></trkpt><trkpt lat="45.6127454" lon="9.4322506"><ele>203.0</ele><time>2026-04-02T13:32:57.508Z</time></trkpt><trkpt lat="45.6127672" lon="9.4321068"><ele>203.0</ele><time>2026-04-02T13:32:59.508Z</time></trkpt><trkpt lat="45.6127818" lon="9.4320169"><ele>203.0</ele><time>2026-04-02T13:33:00.507Z</time></trkpt><trkpt lat="45.6128016" lon="9.431873"><ele>203.0</ele><time>2026-04-02T13:33:02.508Z</time></trkpt><trkpt lat="45.6128297" lon="9.4317118"><ele>203.0</ele><time>2026-04-02T13:33:04.508Z</time></trkpt><trkpt lat="45.6128467" lon="9.4316235"><ele>203.0</ele><time>2026-04-02T13:33:05.508Z</time></trkpt><trkpt lat="45.6128759" lon="9.4314462"><ele>203.0</ele><time>2026-04-02T13:33:07.507Z</time></trkpt><trkpt lat="45.6128923" lon="9.4312627"><ele>203.0</ele><time>2026-04-02T13:33:09.508Z</time></trkpt><trkpt lat="45.6129046" lon="9.4311698"><ele>203.0</ele><time>2026-04-02T13:33:10.508Z</time></trkpt><trkpt lat="45.6129164" lon="9.4310737"><ele>203.0</ele><time>2026-04-02T13:33:11.508Z</time></trkpt><trkpt lat="45.6129277" lon="9.4309836"><ele>203.0</ele><time>2026-04-02T13:33:12.508Z</time></trkpt><trkpt lat="45.6129458" lon="9.43081"><ele>203.0</ele><time>2026-04-02T13:33:14.507Z</time></trkpt><trkpt lat="45.6129621" lon="9.4307114"><ele>203.0</ele><time>2026-04-02T13:33:15.507Z</time></trkpt><trkpt lat="45.6129743" lon="9.4305309"><ele>203.0</ele><time>2026-04-02T13:33:17.508Z</time></trkpt><trkpt lat="45.6129772" lon="9.4304369"><ele>202.83333333333334</ele><time>2026-04-02T13:33:18.508Z</time></trkpt><trkpt lat="45.6129816" lon="9.4303443"><ele>202.66666666666669</ele><time>2026-04-02T13:33:19.508Z</time></trkpt><trkpt lat="45.6129913" lon="9.4302423"><ele>202.5</ele><time>2026-04-02T13:33:20.507Z</time></trkpt><trkpt lat="45.6129949" lon="9.4300916"><ele>202.33333333333331</ele><time>2026-04-02T13:33:22.508Z</time></trkpt><trkpt lat="45.6129795" lon="9.4299151"><ele>202.16666666666666</ele><time>2026-04-02T13:33:24.508Z</time></trkpt><trkpt lat="45.6129614" lon="9.4298255"><ele>202.0</ele><time>2026-04-02T13:33:25.508Z</time></trkpt><trkpt lat="45.6129319" lon="9.4297256"><ele>202.0</ele><time>2026-04-02T13:33:26.508Z</time></trkpt><trkpt lat="45.612885" lon="9.4296568"><ele>202.0</ele><time>2026-04-02T13:33:27.508Z</time></trkpt><trkpt lat="45.6128428" lon="9.42958"><ele>202.0</ele><time>2026-04-02T13:33:28.508Z</time></trkpt><trkpt lat="45.6127922" lon="9.4295099"><ele>202.0</ele><time>2026-04-02T13:33:29.507Z</time></trkpt><trkpt lat="45.6127591" lon="9.42943"><ele>202.0</ele><time>2026-04-02T13:33:30.507Z</time></trkpt><trkpt lat="45.6127363" lon="9.4293343"><ele>202.0</ele><time>2026-04-02T13:33:31.508Z</time></trkpt><trkpt lat="45.6127295" lon="9.4292442"><ele>202.0</ele><time>2026-04-02T13:33:32.507Z</time></trkpt><trkpt lat="45.6127361" lon="9.4291476"><ele>201.99999999999997</ele><time>2026-04-02T13:33:33.508Z</time></trkpt><trkpt lat="45.6127676" lon="9.4289736"><ele>202.0</ele><time>2026-04-02T13:33:35.508Z</time></trkpt><trkpt lat="45.6127845" lon="9.4288819"><ele>202.0</ele><time>2026-04-02T13:33:36.507Z</time></trkpt><trkpt lat="45.612803" lon="9.4287869"><ele>202.0</ele><time>2026-04-02T13:33:37.508Z</time></trkpt><trkpt lat="45.6128222" lon="9.4286917"><ele>201.99999999999997</ele><time>2026-04-02T13:33:38.508Z</time></trkpt><trkpt lat="45.6128391" lon="9.4285964"><ele>202.0</ele><time>2026-04-02T13:33:39.508Z</time></trkpt><trkpt lat="45.6128595" lon="9.4284985"><ele>202.0</ele><time>2026-04-02T13:33:40.507Z</time></trkpt><trkpt lat="45.6128762" lon="9.4283983"><ele>202.0</ele><time>2026-04-02T13:33:41.508Z</time></trkpt><trkpt lat="45.6128963" lon="9.428302"><ele>202.0</ele><time>2026-04-02T13:33:42.507Z</time></trkpt><trkpt lat="45.6129141" lon="9.428203"><ele>202.0</ele><time>2026-04-02T13:33:43.507Z</time></trkpt><trkpt lat="45.612931" lon="9.4281032"><ele>202.0</ele><time>2026-04-02T13:33:44.508Z</time></trkpt><trkpt lat="45.6129503" lon="9.428002"><ele>202.0</ele><time>2026-04-02T13:33:45.508Z</time></trkpt><trkpt lat="45.6129679" lon="9.4278945"><ele>202.0</ele><time>2026-04-02T13:33:46.508Z</time></trkpt><trkpt lat="45.6129871" lon="9.4277937"><ele>202.0</ele><time>2026-04-02T13:33:47.508Z</time></trkpt><trkpt lat="45.6130055" lon="9.4276922"><ele>202.0</ele><time>2026-04-02T13:33:48.508Z</time></trkpt><trkpt lat="45.6130205" lon="9.4275973"><ele>202.0</ele><time>2026-04-02T13:33:49.507Z</time></trkpt><trkpt lat="45.6130392" lon="9.4275065"><ele>202.0</ele><time>2026-04-02T13:33:50.507Z</time></trkpt><trkpt lat="45.6130539" lon="9.427403"><ele>202.0</ele><time>2026-04-02T13:33:51.508Z</time></trkpt><trkpt lat="45.6130695" lon="9.4273058"><ele>202.0</ele><time>2026-04-02T13:33:52.508Z</time></trkpt><trkpt lat="45.6130878" lon="9.4272168"><ele>202.0</ele><time>2026-04-02T13:33:53.507Z</time></trkpt><trkpt lat="45.6131147" lon="9.4270503"><ele>202.0</ele><time>2026-04-02T13:33:55.508Z</time></trkpt><trkpt lat="45.6131094" lon="9.4268914"><ele>202.0</ele><time>2026-04-02T13:33:57.507Z</time></trkpt><trkpt lat="45.6130532" lon="9.4267672"><ele>202.0</ele><time>2026-04-02T13:33:59.507Z</time></trkpt><trkpt lat="45.6129454" lon="9.4266951"><ele>202.0</ele><time>2026-04-02T13:34:01.507Z</time></trkpt><trkpt lat="45.6128227" lon="9.4266666"><ele>202.0</ele><time>2026-04-02T13:34:03.508Z</time></trkpt><trkpt lat="45.6126976" lon="9.4266182"><ele>202.0</ele><time>2026-04-02T13:34:05.507Z</time></trkpt><trkpt lat="45.6126338" lon="9.4265883"><ele>202.0</ele><time>2026-04-02T13:34:06.508Z</time></trkpt><trkpt lat="45.6125728" lon="9.4265525"><ele>202.0</ele><time>2026-04-02T13:34:07.508Z</time></trkpt><trkpt lat="45.612483" lon="9.426448"><ele>202.0</ele><time>2026-04-02T13:34:09.507Z</time></trkpt><trkpt lat="45.6123749" lon="9.42636"><ele>201.99999999999997</ele><time>2026-04-02T13:34:11.507Z</time></trkpt><trkpt lat="45.6123134" lon="9.4263326"><ele>202.0</ele><time>2026-04-02T13:34:12.507Z</time></trkpt><trkpt lat="45.612194" lon="9.426268"><ele>202.0</ele><time>2026-04-02T13:34:14.507Z</time></trkpt><trkpt lat="45.6121347" lon="9.4262269"><ele>202.0</ele><time>2026-04-02T13:34:15.508Z</time></trkpt><trkpt lat="45.612077" lon="9.4261774"><ele>201.99999999999997</ele><time>2026-04-02T13:34:16.507Z</time></trkpt><trkpt lat="45.612018" lon="9.4261283"><ele>202.0</ele><time>2026-04-02T13:34:17.508Z</time></trkpt><trkpt lat="45.6119538" lon="9.4260802"><ele>201.42857142857142</ele><time>2026-04-02T13:34:18.507Z</time></trkpt><trkpt lat="45.6118864" lon="9.4260604"><ele>200.85714285714283</ele><time>2026-04-02T13:34:19.507Z</time></trkpt><trkpt lat="45.6118125" lon="9.4260557"><ele>200.28571428571428</ele><time>2026-04-02T13:34:20.507Z</time></trkpt><trkpt lat="45.6117424" lon="9.4260557"><ele>199.71428571428572</ele><time>2026-04-02T13:34:21.508Z</time></trkpt><trkpt lat="45.611674" lon="9.4260494"><ele>199.14285714285714</ele><time>2026-04-02T13:34:22.508Z</time></trkpt><trkpt lat="45.6116028" lon="9.4260449"><ele>198.57142857142858</ele><time>2026-04-02T13:34:23.507Z</time></trkpt><trkpt lat="45.6115353" lon="9.4260373"><ele>198.0</ele><time>2026-04-02T13:34:24.508Z</time></trkpt><trkpt lat="45.6114614" lon="9.4260293"><ele>198.0</ele><time>2026-04-02T13:34:25.508Z</time></trkpt><trkpt lat="45.6113961" lon="9.4260207"><ele>198.0</ele><time>2026-04-02T13:34:26.507Z</time></trkpt><trkpt lat="45.6113334" lon="9.4260058"><ele>198.0</ele><time>2026-04-02T13:34:27.507Z</time></trkpt><trkpt lat="45.6112126" lon="9.4259762"><ele>198.0</ele><time>2026-04-02T13:34:29.507Z</time></trkpt><trkpt lat="45.6110971" lon="9.4259493"><ele>198.0</ele><time>2026-04-02T13:34:31.507Z</time></trkpt><trkpt lat="45.6109919" lon="9.4258945"><ele>198.57142857142858</ele><time>2026-04-02T13:34:33.508Z</time></trkpt><trkpt lat="45.6109198" lon="9.4258622"><ele>199.14285714285714</ele><time>2026-04-02T13:34:35.508Z</time></trkpt><trkpt lat="45.6108546" lon="9.4258562"><ele>199.71428571428572</ele><time>2026-04-02T13:34:39.508Z</time></trkpt><trkpt lat="45.6108097" lon="9.4257847"><ele>200.28571428571428</ele><time>2026-04-02T13:34:41.508Z</time></trkpt><trkpt lat="45.6107697" lon="9.4256798"><ele>200.85714285714283</ele><time>2026-04-02T13:34:43.507Z</time></trkpt><trkpt lat="45.6107264" lon="9.4255768"><ele>201.42857142857142</ele><time>2026-04-02T13:34:45.508Z</time></trkpt><trkpt lat="45.6106726" lon="9.4255138"><ele>202.0</ele><time>2026-04-02T13:34:47.507Z</time></trkpt><trkpt lat="45.6106005" lon="9.4255123"><ele>202.0</ele><time>2026-04-02T13:34:49.508Z</time></trkpt><trkpt lat="45.6105243" lon="9.4254935"><ele>202.0</ele><time>2026-04-02T13:34:51.507Z</time></trkpt><trkpt lat="45.6104371" lon="9.4254635"><ele>202.0</ele><time>2026-04-02T13:34:53.507Z</time></trkpt><trkpt lat="45.6103441" lon="9.4254397"><ele>202.0</ele><time>2026-04-02T13:34:55.508Z</time></trkpt><trkpt lat="45.6102515" lon="9.4254064"><ele>202.0</ele><time>2026-04-02T13:34:57.507Z</time></trkpt><trkpt lat="45.6101525" lon="9.4253603"><ele>201.0</ele><time>2026-04-02T13:34:59.508Z</time></trkpt><trkpt lat="45.6100471" lon="9.4253113"><ele>200.0</ele><time>2026-04-02T13:35:01.508Z</time></trkpt><trkpt lat="45.6099322" lon="9.4252548"><ele>199.0</ele><time>2026-04-02T13:35:03.507Z</time></trkpt><trkpt lat="45.6098242" lon="9.4252086"><ele>198.0</ele><time>2026-04-02T13:35:05.507Z</time></trkpt><trkpt lat="45.60973" lon="9.4251973"><ele>197.0</ele><time>2026-04-02T13:35:07.508Z</time></trkpt><trkpt lat="45.6096641" lon="9.4252736"><ele>197.0</ele><time>2026-04-02T13:35:09.507Z</time></trkpt><trkpt lat="45.6096084" lon="9.4253805"><ele>197.0</ele><time>2026-04-02T13:35:11.508Z</time></trkpt><trkpt lat="45.6095597" lon="9.4255068"><ele>197.0</ele><time>2026-04-02T13:35:13.507Z</time></trkpt><trkpt lat="45.6095367" lon="9.4256473"><ele>197.0</ele><time>2026-04-02T13:35:15.508Z</time></trkpt><trkpt lat="45.609523" lon="9.4257951"><ele>197.0</ele><time>2026-04-02T13:35:17.507Z</time></trkpt><trkpt lat="45.6095291" lon="9.4259326"><ele>197.83333333333334</ele><time>2026-04-02T13:35:19.507Z</time></trkpt><trkpt lat="45.6095898" lon="9.4259087"><ele>198.66666666666669</ele><time>2026-04-02T13:35:59.508Z</time></trkpt><trkpt lat="45.6096421" lon="9.4259997"><ele>199.5</ele><time>2026-04-02T13:36:03.507Z</time></trkpt><trkpt lat="45.6096377" lon="9.4261094"><ele>200.33333333333331</ele><time>2026-04-02T13:36:05.508Z</time></trkpt><trkpt lat="45.6096342" lon="9.4262383"><ele>201.16666666666666</ele><time>2026-04-02T13:36:07.507Z</time></trkpt><trkpt lat="45.6096331" lon="9.4263763"><ele>202.0</ele><time>2026-04-02T13:36:09.507Z</time></trkpt><trkpt lat="45.6096303" lon="9.4265136"><ele>201.99999999999997</ele><time>2026-04-02T13:36:11.508Z</time></trkpt><trkpt lat="45.6096267" lon="9.426644"><ele>202.0</ele><time>2026-04-02T13:36:13.507Z</time></trkpt><trkpt lat="45.609637" lon="9.4267633"><ele>202.0</ele><time>2026-04-02T13:36:15.508Z</time></trkpt><trkpt lat="45.609638" lon="9.4268795"><ele>202.0</ele><time>2026-04-02T13:36:17.508Z</time></trkpt><trkpt lat="45.6096349" lon="9.4270139"><ele>201.99999999999997</ele><time>2026-04-02T13:36:19.508Z</time></trkpt><trkpt lat="45.6096447" lon="9.4271176"><ele>202.0</ele><time>2026-04-02T13:36:21.508Z</time></trkpt><trkpt lat="45.609678" lon="9.4272262"><ele>200.0</ele><time>2026-04-02T13:36:24.507Z</time></trkpt><trkpt lat="45.6099133" lon="9.4272197"><ele>200.0</ele><time>2026-04-02T13:40:07.991Z</time></trkpt><trkpt lat="45.60998" lon="9.4271506"><ele>200.0</ele><time>2026-04-02T13:40:11.349Z</time></trkpt><trkpt lat="45.60998" lon="9.4271506"><ele>200.0</ele><time>2026-04-02T13:40:11.349Z</time></trkpt><trkpt lat="45.60998" lon="9.4271506"><ele>200.0</ele><time>2026-04-02T13:40:11.349Z</time></trkpt></trkseg></trk></gpx>